<?xml version="1.0" encoding="UTF-8" standalone="no" ?>
<gpx xmlns="http://www.topografix.com/GPX/1/1" xmlns:xsi="http://www.w3.org/2001/XMLSchema-instance" xsi:schemaLocation="http://www.topografix.com/GPX/1/1 http://www.topografix.com/GPX/1/1/gpx.xsd" version="1.1" creator="VisuGPX - https://www.visugpx.com">
  <metadata>
    <name>trail GR Monts d\'Or</name>
    <desc><![CDATA[Fait le 27 janvier 2013]]></desc>
  </metadata>
  <trk>
    <name><![CDATA[2013-01-27T08:16:58Z]]></name>
    <trkseg>
      <trkpt lat="45.83466" lon="4.82353">
        <ele>253</ele>
        <time>2013-01-27T08:16:58Z</time>
      </trkpt>
      <trkpt lat="45.83463" lon="4.82349">
        <ele>253</ele>
        <time>2013-01-27T08:17:02Z</time>
      </trkpt>
      <trkpt lat="45.83461" lon="4.82345">
        <ele>254</ele>
        <time>2013-01-27T08:17:05Z</time>
      </trkpt>
      <trkpt lat="45.83458" lon="4.8234">
        <ele>254</ele>
        <time>2013-01-27T08:17:08Z</time>
      </trkpt>
      <trkpt lat="45.83456" lon="4.82335">
        <ele>255</ele>
        <time>2013-01-27T08:17:10Z</time>
      </trkpt>
      <trkpt lat="45.83455" lon="4.82333">
        <ele>252</ele>
        <time>2013-01-27T08:17:11Z</time>
      </trkpt>
      <trkpt lat="45.83453" lon="4.8233">
        <ele>252</ele>
        <time>2013-01-27T08:17:13Z</time>
      </trkpt>
      <trkpt lat="45.83451" lon="4.82326">
        <ele>252</ele>
        <time>2013-01-27T08:17:15Z</time>
      </trkpt>
      <trkpt lat="45.83449" lon="4.82321">
        <ele>252</ele>
        <time>2013-01-27T08:17:17Z</time>
      </trkpt>
      <trkpt lat="45.83445" lon="4.82309">
        <ele>252</ele>
        <time>2013-01-27T08:17:22Z</time>
      </trkpt>
      <trkpt lat="45.83443" lon="4.82306">
        <ele>252</ele>
        <time>2013-01-27T08:17:23Z</time>
      </trkpt>
      <trkpt lat="45.83441" lon="4.82302">
        <ele>252</ele>
        <time>2013-01-27T08:17:25Z</time>
      </trkpt>
      <trkpt lat="45.83431" lon="4.82293">
        <ele>252</ele>
        <time>2013-01-27T08:17:31Z</time>
      </trkpt>
      <trkpt lat="45.83428" lon="4.82291">
        <ele>252</ele>
        <time>2013-01-27T08:17:32Z</time>
      </trkpt>
      <trkpt lat="45.83427" lon="4.8229">
        <ele>252</ele>
        <time>2013-01-27T08:17:33Z</time>
      </trkpt>
      <trkpt lat="45.83424" lon="4.82289">
        <ele>252</ele>
        <time>2013-01-27T08:17:34Z</time>
      </trkpt>
      <trkpt lat="45.8342" lon="4.82287">
        <ele>252</ele>
        <time>2013-01-27T08:17:37Z</time>
      </trkpt>
      <trkpt lat="45.83413" lon="4.82284">
        <ele>267</ele>
        <time>2013-01-27T08:17:40Z</time>
      </trkpt>
      <trkpt lat="45.83409" lon="4.82282">
        <ele>268</ele>
        <time>2013-01-27T08:17:42Z</time>
      </trkpt>
      <trkpt lat="45.83401" lon="4.82276">
        <ele>267</ele>
        <time>2013-01-27T08:17:47Z</time>
      </trkpt>
      <trkpt lat="45.83398" lon="4.82272">
        <ele>267</ele>
        <time>2013-01-27T08:17:50Z</time>
      </trkpt>
      <trkpt lat="45.83397" lon="4.8227">
        <ele>267</ele>
        <time>2013-01-27T08:17:51Z</time>
      </trkpt>
      <trkpt lat="45.83395" lon="4.82264">
        <ele>266</ele>
        <time>2013-01-27T08:17:54Z</time>
      </trkpt>
      <trkpt lat="45.83393" lon="4.82261">
        <ele>267</ele>
        <time>2013-01-27T08:17:55Z</time>
      </trkpt>
      <trkpt lat="45.83382" lon="4.82249">
        <ele>260</ele>
        <time>2013-01-27T08:18:00Z</time>
      </trkpt>
      <trkpt lat="45.83378" lon="4.82245">
        <ele>260</ele>
        <time>2013-01-27T08:18:02Z</time>
      </trkpt>
      <trkpt lat="45.83372" lon="4.82238">
        <ele>262</ele>
        <time>2013-01-27T08:18:05Z</time>
      </trkpt>
      <trkpt lat="45.83363" lon="4.82231">
        <ele>263</ele>
        <time>2013-01-27T08:18:10Z</time>
      </trkpt>
      <trkpt lat="45.83355" lon="4.82222">
        <ele>263</ele>
        <time>2013-01-27T08:18:15Z</time>
      </trkpt>
      <trkpt lat="45.8335" lon="4.82213">
        <ele>262</ele>
        <time>2013-01-27T08:18:19Z</time>
      </trkpt>
      <trkpt lat="45.83347" lon="4.82208">
        <ele>262</ele>
        <time>2013-01-27T08:18:21Z</time>
      </trkpt>
      <trkpt lat="45.83338" lon="4.82197">
        <ele>261</ele>
        <time>2013-01-27T08:18:27Z</time>
      </trkpt>
      <trkpt lat="45.83337" lon="4.82195">
        <ele>261</ele>
        <time>2013-01-27T08:18:28Z</time>
      </trkpt>
      <trkpt lat="45.83329" lon="4.82186">
        <ele>274</ele>
        <time>2013-01-27T08:18:33Z</time>
      </trkpt>
      <trkpt lat="45.83325" lon="4.82182">
        <ele>273</ele>
        <time>2013-01-27T08:18:36Z</time>
      </trkpt>
      <trkpt lat="45.83322" lon="4.82179">
        <ele>273</ele>
        <time>2013-01-27T08:18:38Z</time>
      </trkpt>
      <trkpt lat="45.83312" lon="4.82169">
        <ele>275</ele>
        <time>2013-01-27T08:18:44Z</time>
      </trkpt>
      <trkpt lat="45.83308" lon="4.82163">
        <ele>266</ele>
        <time>2013-01-27T08:18:47Z</time>
      </trkpt>
      <trkpt lat="45.83303" lon="4.82158">
        <ele>267</ele>
        <time>2013-01-27T08:18:50Z</time>
      </trkpt>
      <trkpt lat="45.83296" lon="4.8215">
        <ele>268</ele>
        <time>2013-01-27T08:18:55Z</time>
      </trkpt>
      <trkpt lat="45.83292" lon="4.82146">
        <ele>269</ele>
        <time>2013-01-27T08:18:57Z</time>
      </trkpt>
      <trkpt lat="45.83286" lon="4.82142">
        <ele>269</ele>
        <time>2013-01-27T08:19:00Z</time>
      </trkpt>
      <trkpt lat="45.83278" lon="4.82133">
        <ele>270</ele>
        <time>2013-01-27T08:19:05Z</time>
      </trkpt>
      <trkpt lat="45.83276" lon="4.82132">
        <ele>270</ele>
        <time>2013-01-27T08:19:06Z</time>
      </trkpt>
      <trkpt lat="45.83269" lon="4.82125">
        <ele>270</ele>
        <time>2013-01-27T08:19:10Z</time>
      </trkpt>
      <trkpt lat="45.8326" lon="4.82117">
        <ele>270</ele>
        <time>2013-01-27T08:19:15Z</time>
      </trkpt>
      <trkpt lat="45.83256" lon="4.82113">
        <ele>270</ele>
        <time>2013-01-27T08:19:17Z</time>
      </trkpt>
      <trkpt lat="45.83244" lon="4.82103">
        <ele>286</ele>
        <time>2013-01-27T08:19:23Z</time>
      </trkpt>
      <trkpt lat="45.83232" lon="4.82089">
        <ele>287</ele>
        <time>2013-01-27T08:19:30Z</time>
      </trkpt>
      <trkpt lat="45.83229" lon="4.82085">
        <ele>288</ele>
        <time>2013-01-27T08:19:32Z</time>
      </trkpt>
      <trkpt lat="45.8323" lon="4.82084">
        <ele>287</ele>
        <time>2013-01-27T08:19:34Z</time>
      </trkpt>
      <trkpt lat="45.83234" lon="4.82092">
        <ele>286</ele>
        <time>2013-01-27T08:19:37Z</time>
      </trkpt>
      <trkpt lat="45.83236" lon="4.82094">
        <ele>286</ele>
        <time>2013-01-27T08:19:38Z</time>
      </trkpt>
      <trkpt lat="45.8324" lon="4.82098">
        <ele>286</ele>
        <time>2013-01-27T08:19:40Z</time>
      </trkpt>
      <trkpt lat="45.83242" lon="4.82101">
        <ele>286</ele>
        <time>2013-01-27T08:19:41Z</time>
      </trkpt>
      <trkpt lat="45.83254" lon="4.82111">
        <ele>270</ele>
        <time>2013-01-27T08:19:48Z</time>
      </trkpt>
      <trkpt lat="45.83257" lon="4.82112">
        <ele>270</ele>
        <time>2013-01-27T08:19:49Z</time>
      </trkpt>
      <trkpt lat="45.83264" lon="4.8212">
        <ele>270</ele>
        <time>2013-01-27T08:19:53Z</time>
      </trkpt>
      <trkpt lat="45.83266" lon="4.82122">
        <ele>270</ele>
        <time>2013-01-27T08:19:54Z</time>
      </trkpt>
      <trkpt lat="45.83268" lon="4.82122">
        <ele>270</ele>
        <time>2013-01-27T08:19:55Z</time>
      </trkpt>
      <trkpt lat="45.83271" lon="4.82126">
        <ele>270</ele>
        <time>2013-01-27T08:19:57Z</time>
      </trkpt>
      <trkpt lat="45.83277" lon="4.82132">
        <ele>270</ele>
        <time>2013-01-27T08:20:00Z</time>
      </trkpt>
      <trkpt lat="45.83287" lon="4.82141">
        <ele>269</ele>
        <time>2013-01-27T08:20:05Z</time>
      </trkpt>
      <trkpt lat="45.83288" lon="4.82143">
        <ele>269</ele>
        <time>2013-01-27T08:20:06Z</time>
      </trkpt>
      <trkpt lat="45.83302" lon="4.82154">
        <ele>267</ele>
        <time>2013-01-27T08:20:11Z</time>
      </trkpt>
      <trkpt lat="45.83304" lon="4.82155">
        <ele>266</ele>
        <time>2013-01-27T08:20:12Z</time>
      </trkpt>
      <trkpt lat="45.83309" lon="4.82155">
        <ele>265</ele>
        <time>2013-01-27T08:20:16Z</time>
      </trkpt>
      <trkpt lat="45.83316" lon="4.82157">
        <ele>264</ele>
        <time>2013-01-27T08:20:20Z</time>
      </trkpt>
      <trkpt lat="45.8332" lon="4.82157">
        <ele>263</ele>
        <time>2013-01-27T08:20:22Z</time>
      </trkpt>
      <trkpt lat="45.83323" lon="4.82156">
        <ele>263</ele>
        <time>2013-01-27T08:20:24Z</time>
      </trkpt>
      <trkpt lat="45.83331" lon="4.82155">
        <ele>262</ele>
        <time>2013-01-27T08:20:28Z</time>
      </trkpt>
      <trkpt lat="45.83335" lon="4.82155">
        <ele>254</ele>
        <time>2013-01-27T08:20:31Z</time>
      </trkpt>
      <trkpt lat="45.83341" lon="4.82155">
        <ele>253</ele>
        <time>2013-01-27T08:20:34Z</time>
      </trkpt>
      <trkpt lat="45.8335" lon="4.82153">
        <ele>251</ele>
        <time>2013-01-27T08:20:39Z</time>
      </trkpt>
      <trkpt lat="45.83358" lon="4.82146">
        <ele>248</ele>
        <time>2013-01-27T08:20:45Z</time>
      </trkpt>
      <trkpt lat="45.83366" lon="4.82139">
        <ele>246</ele>
        <time>2013-01-27T08:20:52Z</time>
      </trkpt>
      <trkpt lat="45.83371" lon="4.8213">
        <ele>245</ele>
        <time>2013-01-27T08:20:57Z</time>
      </trkpt>
      <trkpt lat="45.83372" lon="4.82129">
        <ele>245</ele>
        <time>2013-01-27T08:20:58Z</time>
      </trkpt>
      <trkpt lat="45.83374" lon="4.82123">
        <ele>244</ele>
        <time>2013-01-27T08:21:01Z</time>
      </trkpt>
      <trkpt lat="45.83375" lon="4.82122">
        <ele>244</ele>
        <time>2013-01-27T08:21:02Z</time>
      </trkpt>
      <trkpt lat="45.8338" lon="4.8211">
        <ele>243</ele>
        <time>2013-01-27T08:21:08Z</time>
      </trkpt>
      <trkpt lat="45.83382" lon="4.82106">
        <ele>243</ele>
        <time>2013-01-27T08:21:10Z</time>
      </trkpt>
      <trkpt lat="45.83386" lon="4.82099">
        <ele>242</ele>
        <time>2013-01-27T08:21:14Z</time>
      </trkpt>
      <trkpt lat="45.83393" lon="4.82086">
        <ele>240</ele>
        <time>2013-01-27T08:21:20Z</time>
      </trkpt>
      <trkpt lat="45.83394" lon="4.82085">
        <ele>240</ele>
        <time>2013-01-27T08:21:21Z</time>
      </trkpt>
      <trkpt lat="45.83396" lon="4.82083">
        <ele>238</ele>
        <time>2013-01-27T08:21:23Z</time>
      </trkpt>
      <trkpt lat="45.83397" lon="4.82082">
        <ele>237</ele>
        <time>2013-01-27T08:21:24Z</time>
      </trkpt>
      <trkpt lat="45.83402" lon="4.82081">
        <ele>237</ele>
        <time>2013-01-27T08:21:30Z</time>
      </trkpt>
      <trkpt lat="45.83409" lon="4.82083">
        <ele>235</ele>
        <time>2013-01-27T08:21:36Z</time>
      </trkpt>
      <trkpt lat="45.83411" lon="4.82083">
        <ele>235</ele>
        <time>2013-01-27T08:21:37Z</time>
      </trkpt>
      <trkpt lat="45.83418" lon="4.82079">
        <ele>233</ele>
        <time>2013-01-27T08:21:40Z</time>
      </trkpt>
      <trkpt lat="45.8342" lon="4.82074">
        <ele>233</ele>
        <time>2013-01-27T08:21:42Z</time>
      </trkpt>
      <trkpt lat="45.83421" lon="4.82066">
        <ele>234</ele>
        <time>2013-01-27T08:21:45Z</time>
      </trkpt>
      <trkpt lat="45.83421" lon="4.82064">
        <ele>234</ele>
        <time>2013-01-27T08:21:46Z</time>
      </trkpt>
      <trkpt lat="45.83422" lon="4.82051">
        <ele>235</ele>
        <time>2013-01-27T08:21:51Z</time>
      </trkpt>
      <trkpt lat="45.83422" lon="4.82038">
        <ele>236</ele>
        <time>2013-01-27T08:21:57Z</time>
      </trkpt>
      <trkpt lat="45.83421" lon="4.82021">
        <ele>237</ele>
        <time>2013-01-27T08:22:04Z</time>
      </trkpt>
      <trkpt lat="45.83421" lon="4.82009">
        <ele>239</ele>
        <time>2013-01-27T08:22:09Z</time>
      </trkpt>
      <trkpt lat="45.8342" lon="4.82005">
        <ele>240</ele>
        <time>2013-01-27T08:22:11Z</time>
      </trkpt>
      <trkpt lat="45.83419" lon="4.81996">
        <ele>243</ele>
        <time>2013-01-27T08:22:15Z</time>
      </trkpt>
      <trkpt lat="45.83418" lon="4.81993">
        <ele>243</ele>
        <time>2013-01-27T08:22:17Z</time>
      </trkpt>
      <trkpt lat="45.83413" lon="4.81988">
        <ele>245</ele>
        <time>2013-01-27T08:22:21Z</time>
      </trkpt>
      <trkpt lat="45.8341" lon="4.81985">
        <ele>245</ele>
        <time>2013-01-27T08:22:23Z</time>
      </trkpt>
      <trkpt lat="45.83404" lon="4.81975">
        <ele>247</ele>
        <time>2013-01-27T08:22:29Z</time>
      </trkpt>
      <trkpt lat="45.83399" lon="4.81968">
        <ele>247</ele>
        <time>2013-01-27T08:22:33Z</time>
      </trkpt>
      <trkpt lat="45.83398" lon="4.81967">
        <ele>248</ele>
        <time>2013-01-27T08:22:34Z</time>
      </trkpt>
      <trkpt lat="45.83393" lon="4.81954">
        <ele>249</ele>
        <time>2013-01-27T08:22:40Z</time>
      </trkpt>
      <trkpt lat="45.8339" lon="4.81944">
        <ele>250</ele>
        <time>2013-01-27T08:22:45Z</time>
      </trkpt>
      <trkpt lat="45.8339" lon="4.81942">
        <ele>250</ele>
        <time>2013-01-27T08:22:46Z</time>
      </trkpt>
      <trkpt lat="45.83389" lon="4.81937">
        <ele>250</ele>
        <time>2013-01-27T08:22:49Z</time>
      </trkpt>
      <trkpt lat="45.83388" lon="4.81936">
        <ele>250</ele>
        <time>2013-01-27T08:22:50Z</time>
      </trkpt>
      <trkpt lat="45.83388" lon="4.81933">
        <ele>250</ele>
        <time>2013-01-27T08:22:52Z</time>
      </trkpt>
      <trkpt lat="45.83387" lon="4.81929">
        <ele>251</ele>
        <time>2013-01-27T08:22:55Z</time>
      </trkpt>
      <trkpt lat="45.83386" lon="4.81921">
        <ele>251</ele>
        <time>2013-01-27T08:23:01Z</time>
      </trkpt>
      <trkpt lat="45.83386" lon="4.81919">
        <ele>251</ele>
        <time>2013-01-27T08:23:02Z</time>
      </trkpt>
      <trkpt lat="45.83386" lon="4.81918">
        <ele>251</ele>
        <time>2013-01-27T08:23:03Z</time>
      </trkpt>
      <trkpt lat="45.83386" lon="4.81914">
        <ele>260</ele>
        <time>2013-01-27T08:23:05Z</time>
      </trkpt>
      <trkpt lat="45.83386" lon="4.81907">
        <ele>260</ele>
        <time>2013-01-27T08:23:10Z</time>
      </trkpt>
      <trkpt lat="45.83386" lon="4.81903">
        <ele>260</ele>
        <time>2013-01-27T08:23:12Z</time>
      </trkpt>
      <trkpt lat="45.83385" lon="4.81895">
        <ele>261</ele>
        <time>2013-01-27T08:23:17Z</time>
      </trkpt>
      <trkpt lat="45.83385" lon="4.81891">
        <ele>261</ele>
        <time>2013-01-27T08:23:19Z</time>
      </trkpt>
      <trkpt lat="45.83386" lon="4.81879">
        <ele>262</ele>
        <time>2013-01-27T08:23:26Z</time>
      </trkpt>
      <trkpt lat="45.83386" lon="4.81873">
        <ele>263</ele>
        <time>2013-01-27T08:23:31Z</time>
      </trkpt>
      <trkpt lat="45.83386" lon="4.81872">
        <ele>263</ele>
        <time>2013-01-27T08:23:32Z</time>
      </trkpt>
      <trkpt lat="45.83386" lon="4.81867">
        <ele>264</ele>
        <time>2013-01-27T08:23:36Z</time>
      </trkpt>
      <trkpt lat="45.83386" lon="4.81866">
        <ele>264</ele>
        <time>2013-01-27T08:23:37Z</time>
      </trkpt>
      <trkpt lat="45.83386" lon="4.81863">
        <ele>264</ele>
        <time>2013-01-27T08:23:39Z</time>
      </trkpt>
      <trkpt lat="45.83385" lon="4.81861">
        <ele>264</ele>
        <time>2013-01-27T08:23:40Z</time>
      </trkpt>
      <trkpt lat="45.83385" lon="4.81856">
        <ele>265</ele>
        <time>2013-01-27T08:23:43Z</time>
      </trkpt>
      <trkpt lat="45.83385" lon="4.81855">
        <ele>265</ele>
        <time>2013-01-27T08:23:44Z</time>
      </trkpt>
      <trkpt lat="45.83384" lon="4.81846">
        <ele>266</ele>
        <time>2013-01-27T08:23:51Z</time>
      </trkpt>
      <trkpt lat="45.83384" lon="4.81842">
        <ele>266</ele>
        <time>2013-01-27T08:23:54Z</time>
      </trkpt>
      <trkpt lat="45.83385" lon="4.81839">
        <ele>266</ele>
        <time>2013-01-27T08:23:58Z</time>
      </trkpt>
      <trkpt lat="45.83386" lon="4.81837">
        <ele>267</ele>
        <time>2013-01-27T08:24:00Z</time>
      </trkpt>
      <trkpt lat="45.83387" lon="4.81831">
        <ele>277</ele>
        <time>2013-01-27T08:24:06Z</time>
      </trkpt>
      <trkpt lat="45.83388" lon="4.8182">
        <ele>278</ele>
        <time>2013-01-27T08:24:15Z</time>
      </trkpt>
      <trkpt lat="45.83389" lon="4.81816">
        <ele>278</ele>
        <time>2013-01-27T08:24:20Z</time>
      </trkpt>
      <trkpt lat="45.83389" lon="4.81813">
        <ele>278</ele>
        <time>2013-01-27T08:24:23Z</time>
      </trkpt>
      <trkpt lat="45.83388" lon="4.81807">
        <ele>279</ele>
        <time>2013-01-27T08:24:28Z</time>
      </trkpt>
      <trkpt lat="45.83389" lon="4.81802">
        <ele>279</ele>
        <time>2013-01-27T08:24:33Z</time>
      </trkpt>
      <trkpt lat="45.83392" lon="4.81801">
        <ele>279</ele>
        <time>2013-01-27T08:24:40Z</time>
      </trkpt>
      <trkpt lat="45.83397" lon="4.8181">
        <ele>279</ele>
        <time>2013-01-27T08:24:45Z</time>
      </trkpt>
      <trkpt lat="45.83406" lon="4.8182">
        <ele>278</ele>
        <time>2013-01-27T08:24:51Z</time>
      </trkpt>
      <trkpt lat="45.83413" lon="4.81822">
        <ele>277</ele>
        <time>2013-01-27T08:24:54Z</time>
      </trkpt>
      <trkpt lat="45.83418" lon="4.81824">
        <ele>279</ele>
        <time>2013-01-27T08:24:56Z</time>
      </trkpt>
      <trkpt lat="45.83432" lon="4.81827">
        <ele>280</ele>
        <time>2013-01-27T08:25:02Z</time>
      </trkpt>
      <trkpt lat="45.83449" lon="4.81833">
        <ele>269</ele>
        <time>2013-01-27T08:25:09Z</time>
      </trkpt>
      <trkpt lat="45.83451" lon="4.81835">
        <ele>269</ele>
        <time>2013-01-27T08:25:10Z</time>
      </trkpt>
      <trkpt lat="45.83463" lon="4.8184">
        <ele>268</ele>
        <time>2013-01-27T08:25:15Z</time>
      </trkpt>
      <trkpt lat="45.8347" lon="4.81843">
        <ele>268</ele>
        <time>2013-01-27T08:25:18Z</time>
      </trkpt>
      <trkpt lat="45.83479" lon="4.81847">
        <ele>268</ele>
        <time>2013-01-27T08:25:22Z</time>
      </trkpt>
      <trkpt lat="45.83488" lon="4.81852">
        <ele>268</ele>
        <time>2013-01-27T08:25:26Z</time>
      </trkpt>
      <trkpt lat="45.83497" lon="4.81856">
        <ele>268</ele>
        <time>2013-01-27T08:25:30Z</time>
      </trkpt>
      <trkpt lat="45.83506" lon="4.81859">
        <ele>266</ele>
        <time>2013-01-27T08:25:34Z</time>
      </trkpt>
      <trkpt lat="45.83514" lon="4.81861">
        <ele>265</ele>
        <time>2013-01-27T08:25:37Z</time>
      </trkpt>
      <trkpt lat="45.83524" lon="4.81864">
        <ele>265</ele>
        <time>2013-01-27T08:25:41Z</time>
      </trkpt>
      <trkpt lat="45.83527" lon="4.81864">
        <ele>265</ele>
        <time>2013-01-27T08:25:42Z</time>
      </trkpt>
      <trkpt lat="45.83538" lon="4.81868">
        <ele>264</ele>
        <time>2013-01-27T08:25:47Z</time>
      </trkpt>
      <trkpt lat="45.83542" lon="4.8187">
        <ele>264</ele>
        <time>2013-01-27T08:25:49Z</time>
      </trkpt>
      <trkpt lat="45.8355" lon="4.8187">
        <ele>264</ele>
        <time>2013-01-27T08:25:52Z</time>
      </trkpt>
      <trkpt lat="45.83562" lon="4.81873">
        <ele>264</ele>
        <time>2013-01-27T08:25:57Z</time>
      </trkpt>
      <trkpt lat="45.83565" lon="4.81874">
        <ele>263</ele>
        <time>2013-01-27T08:25:58Z</time>
      </trkpt>
      <trkpt lat="45.83577" lon="4.81875">
        <ele>263</ele>
        <time>2013-01-27T08:26:03Z</time>
      </trkpt>
      <trkpt lat="45.83582" lon="4.81875">
        <ele>263</ele>
        <time>2013-01-27T08:26:05Z</time>
      </trkpt>
      <trkpt lat="45.83592" lon="4.81877">
        <ele>262</ele>
        <time>2013-01-27T08:26:09Z</time>
      </trkpt>
      <trkpt lat="45.83602" lon="4.81879">
        <ele>262</ele>
        <time>2013-01-27T08:26:13Z</time>
      </trkpt>
      <trkpt lat="45.83609" lon="4.81879">
        <ele>262</ele>
        <time>2013-01-27T08:26:16Z</time>
      </trkpt>
      <trkpt lat="45.83619" lon="4.81883">
        <ele>261</ele>
        <time>2013-01-27T08:26:21Z</time>
      </trkpt>
      <trkpt lat="45.83621" lon="4.81884">
        <ele>261</ele>
        <time>2013-01-27T08:26:22Z</time>
      </trkpt>
      <trkpt lat="45.83626" lon="4.81885">
        <ele>261</ele>
        <time>2013-01-27T08:26:26Z</time>
      </trkpt>
      <trkpt lat="45.83627" lon="4.81884">
        <ele>261</ele>
        <time>2013-01-27T08:26:28Z</time>
      </trkpt>
      <trkpt lat="45.83628" lon="4.8188">
        <ele>262</ele>
        <time>2013-01-27T08:26:34Z</time>
      </trkpt>
      <trkpt lat="45.83626" lon="4.81871">
        <ele>263</ele>
        <time>2013-01-27T08:26:41Z</time>
      </trkpt>
      <trkpt lat="45.83626" lon="4.81867">
        <ele>263</ele>
        <time>2013-01-27T08:26:44Z</time>
      </trkpt>
      <trkpt lat="45.83625" lon="4.81866">
        <ele>263</ele>
        <time>2013-01-27T08:26:45Z</time>
      </trkpt>
      <trkpt lat="45.83624" lon="4.81861">
        <ele>264</ele>
        <time>2013-01-27T08:26:48Z</time>
      </trkpt>
      <trkpt lat="45.83622" lon="4.81852">
        <ele>265</ele>
        <time>2013-01-27T08:26:55Z</time>
      </trkpt>
      <trkpt lat="45.83621" lon="4.8185">
        <ele>265</ele>
        <time>2013-01-27T08:26:56Z</time>
      </trkpt>
      <trkpt lat="45.8362" lon="4.81847">
        <ele>265</ele>
        <time>2013-01-27T08:26:59Z</time>
      </trkpt>
      <trkpt lat="45.83619" lon="4.81843">
        <ele>265</ele>
        <time>2013-01-27T08:27:03Z</time>
      </trkpt>
      <trkpt lat="45.83619" lon="4.81842">
        <ele>265</ele>
        <time>2013-01-27T08:27:04Z</time>
      </trkpt>
      <trkpt lat="45.8362" lon="4.81834">
        <ele>266</ele>
        <time>2013-01-27T08:27:11Z</time>
      </trkpt>
      <trkpt lat="45.83621" lon="4.81831">
        <ele>277</ele>
        <time>2013-01-27T08:27:13Z</time>
      </trkpt>
      <trkpt lat="45.83624" lon="4.81825">
        <ele>277</ele>
        <time>2013-01-27T08:27:20Z</time>
      </trkpt>
      <trkpt lat="45.83625" lon="4.81821">
        <ele>277</ele>
        <time>2013-01-27T08:27:23Z</time>
      </trkpt>
      <trkpt lat="45.83627" lon="4.81816">
        <ele>278</ele>
        <time>2013-01-27T08:27:27Z</time>
      </trkpt>
      <trkpt lat="45.83629" lon="4.81808">
        <ele>278</ele>
        <time>2013-01-27T08:27:34Z</time>
      </trkpt>
      <trkpt lat="45.8363" lon="4.81807">
        <ele>278</ele>
        <time>2013-01-27T08:27:35Z</time>
      </trkpt>
      <trkpt lat="45.83631" lon="4.818">
        <ele>279</ele>
        <time>2013-01-27T08:27:42Z</time>
      </trkpt>
      <trkpt lat="45.83632" lon="4.81797">
        <ele>279</ele>
        <time>2013-01-27T08:27:45Z</time>
      </trkpt>
      <trkpt lat="45.83633" lon="4.81796">
        <ele>279</ele>
        <time>2013-01-27T08:27:46Z</time>
      </trkpt>
      <trkpt lat="45.83634" lon="4.81789">
        <ele>280</ele>
        <time>2013-01-27T08:27:51Z</time>
      </trkpt>
      <trkpt lat="45.83634" lon="4.81777">
        <ele>281</ele>
        <time>2013-01-27T08:27:59Z</time>
      </trkpt>
      <trkpt lat="45.83636" lon="4.81771">
        <ele>282</ele>
        <time>2013-01-27T08:28:04Z</time>
      </trkpt>
      <trkpt lat="45.83638" lon="4.81766">
        <ele>282</ele>
        <time>2013-01-27T08:28:08Z</time>
      </trkpt>
      <trkpt lat="45.83642" lon="4.81756">
        <ele>282</ele>
        <time>2013-01-27T08:28:17Z</time>
      </trkpt>
      <trkpt lat="45.83645" lon="4.81746">
        <ele>292</ele>
        <time>2013-01-27T08:28:25Z</time>
      </trkpt>
      <trkpt lat="45.83645" lon="4.81745">
        <ele>292</ele>
        <time>2013-01-27T08:28:26Z</time>
      </trkpt>
      <trkpt lat="45.83646" lon="4.81743">
        <ele>292</ele>
        <time>2013-01-27T08:28:28Z</time>
      </trkpt>
      <trkpt lat="45.83648" lon="4.81736">
        <ele>292</ele>
        <time>2013-01-27T08:28:33Z</time>
      </trkpt>
      <trkpt lat="45.83648" lon="4.81726">
        <ele>294</ele>
        <time>2013-01-27T08:28:41Z</time>
      </trkpt>
      <trkpt lat="45.83647" lon="4.81721">
        <ele>294</ele>
        <time>2013-01-27T08:28:45Z</time>
      </trkpt>
      <trkpt lat="45.83647" lon="4.81719">
        <ele>295</ele>
        <time>2013-01-27T08:28:47Z</time>
      </trkpt>
      <trkpt lat="45.83646" lon="4.81715">
        <ele>295</ele>
        <time>2013-01-27T08:28:50Z</time>
      </trkpt>
      <trkpt lat="45.83646" lon="4.81715">
        <ele>295</ele>
        <time>2013-01-27T08:28:51Z</time>
      </trkpt>
      <trkpt lat="45.83646" lon="4.81707">
        <ele>296</ele>
        <time>2013-01-27T08:28:56Z</time>
      </trkpt>
      <trkpt lat="45.83647" lon="4.81705">
        <ele>297</ele>
        <time>2013-01-27T08:28:57Z</time>
      </trkpt>
      <trkpt lat="45.83648" lon="4.81699">
        <ele>297</ele>
        <time>2013-01-27T08:29:01Z</time>
      </trkpt>
      <trkpt lat="45.83649" lon="4.81696">
        <ele>297</ele>
        <time>2013-01-27T08:29:03Z</time>
      </trkpt>
      <trkpt lat="45.83649" lon="4.81692">
        <ele>298</ele>
        <time>2013-01-27T08:29:06Z</time>
      </trkpt>
      <trkpt lat="45.83649" lon="4.81689">
        <ele>298</ele>
        <time>2013-01-27T08:29:08Z</time>
      </trkpt>
      <trkpt lat="45.83651" lon="4.81683">
        <ele>299</ele>
        <time>2013-01-27T08:29:13Z</time>
      </trkpt>
      <trkpt lat="45.83652" lon="4.81677">
        <ele>299</ele>
        <time>2013-01-27T08:29:17Z</time>
      </trkpt>
      <trkpt lat="45.83653" lon="4.81674">
        <ele>299</ele>
        <time>2013-01-27T08:29:19Z</time>
      </trkpt>
      <trkpt lat="45.83654" lon="4.81671">
        <ele>299</ele>
        <time>2013-01-27T08:29:21Z</time>
      </trkpt>
      <trkpt lat="45.83655" lon="4.81667">
        <ele>299</ele>
        <time>2013-01-27T08:29:24Z</time>
      </trkpt>
      <trkpt lat="45.83656" lon="4.81665">
        <ele>304</ele>
        <time>2013-01-27T08:29:26Z</time>
      </trkpt>
      <trkpt lat="45.83657" lon="4.81654">
        <ele>306</ele>
        <time>2013-01-27T08:29:33Z</time>
      </trkpt>
      <trkpt lat="45.83658" lon="4.81646">
        <ele>307</ele>
        <time>2013-01-27T08:29:40Z</time>
      </trkpt>
      <trkpt lat="45.83657" lon="4.81644">
        <ele>308</ele>
        <time>2013-01-27T08:29:41Z</time>
      </trkpt>
      <trkpt lat="45.83658" lon="4.81637">
        <ele>309</ele>
        <time>2013-01-27T08:29:47Z</time>
      </trkpt>
      <trkpt lat="45.83657" lon="4.81635">
        <ele>309</ele>
        <time>2013-01-27T08:29:50Z</time>
      </trkpt>
      <trkpt lat="45.83656" lon="4.81629">
        <ele>310</ele>
        <time>2013-01-27T08:29:57Z</time>
      </trkpt>
      <trkpt lat="45.83655" lon="4.81623">
        <ele>310</ele>
        <time>2013-01-27T08:30:04Z</time>
      </trkpt>
      <trkpt lat="45.83654" lon="4.81621">
        <ele>311</ele>
        <time>2013-01-27T08:30:06Z</time>
      </trkpt>
      <trkpt lat="45.83652" lon="4.81615">
        <ele>311</ele>
        <time>2013-01-27T08:30:10Z</time>
      </trkpt>
      <trkpt lat="45.83649" lon="4.81602">
        <ele>312</ele>
        <time>2013-01-27T08:30:18Z</time>
      </trkpt>
      <trkpt lat="45.8365" lon="4.81597">
        <ele>313</ele>
        <time>2013-01-27T08:30:22Z</time>
      </trkpt>
      <trkpt lat="45.83649" lon="4.81594">
        <ele>313</ele>
        <time>2013-01-27T08:30:23Z</time>
      </trkpt>
      <trkpt lat="45.83649" lon="4.81578">
        <ele>318</ele>
        <time>2013-01-27T08:30:32Z</time>
      </trkpt>
      <trkpt lat="45.83649" lon="4.8157">
        <ele>319</ele>
        <time>2013-01-27T08:30:37Z</time>
      </trkpt>
      <trkpt lat="45.83649" lon="4.81565">
        <ele>319</ele>
        <time>2013-01-27T08:30:40Z</time>
      </trkpt>
      <trkpt lat="45.83648" lon="4.8156">
        <ele>320</ele>
        <time>2013-01-27T08:30:43Z</time>
      </trkpt>
      <trkpt lat="45.83646" lon="4.81556">
        <ele>321</ele>
        <time>2013-01-27T08:30:47Z</time>
      </trkpt>
      <trkpt lat="45.83646" lon="4.81555">
        <ele>321</ele>
        <time>2013-01-27T08:30:48Z</time>
      </trkpt>
      <trkpt lat="45.83644" lon="4.81549">
        <ele>321</ele>
        <time>2013-01-27T08:30:54Z</time>
      </trkpt>
      <trkpt lat="45.83643" lon="4.81545">
        <ele>322</ele>
        <time>2013-01-27T08:30:57Z</time>
      </trkpt>
      <trkpt lat="45.83642" lon="4.81542">
        <ele>322</ele>
        <time>2013-01-27T08:31:00Z</time>
      </trkpt>
      <trkpt lat="45.83642" lon="4.8154">
        <ele>322</ele>
        <time>2013-01-27T08:31:01Z</time>
      </trkpt>
      <trkpt lat="45.8364" lon="4.81537">
        <ele>322</ele>
        <time>2013-01-27T08:31:04Z</time>
      </trkpt>
      <trkpt lat="45.83637" lon="4.81536">
        <ele>323</ele>
        <time>2013-01-27T08:31:08Z</time>
      </trkpt>
      <trkpt lat="45.83632" lon="4.81538">
        <ele>323</ele>
        <time>2013-01-27T08:31:12Z</time>
      </trkpt>
      <trkpt lat="45.83629" lon="4.8154">
        <ele>323</ele>
        <time>2013-01-27T08:31:14Z</time>
      </trkpt>
      <trkpt lat="45.83626" lon="4.81541">
        <ele>323</ele>
        <time>2013-01-27T08:31:16Z</time>
      </trkpt>
      <trkpt lat="45.83614" lon="4.81549">
        <ele>323</ele>
        <time>2013-01-27T08:31:23Z</time>
      </trkpt>
      <trkpt lat="45.83612" lon="4.81551">
        <ele>323</ele>
        <time>2013-01-27T08:31:24Z</time>
      </trkpt>
      <trkpt lat="45.83599" lon="4.81557">
        <ele>323</ele>
        <time>2013-01-27T08:31:31Z</time>
      </trkpt>
      <trkpt lat="45.83594" lon="4.8156">
        <ele>323</ele>
        <time>2013-01-27T08:31:34Z</time>
      </trkpt>
      <trkpt lat="45.83587" lon="4.81565">
        <ele>323</ele>
        <time>2013-01-27T08:31:38Z</time>
      </trkpt>
      <trkpt lat="45.83577" lon="4.81571">
        <ele>326</ele>
        <time>2013-01-27T08:31:43Z</time>
      </trkpt>
      <trkpt lat="45.83573" lon="4.81574">
        <ele>326</ele>
        <time>2013-01-27T08:31:45Z</time>
      </trkpt>
      <trkpt lat="45.8356" lon="4.8158">
        <ele>327</ele>
        <time>2013-01-27T08:31:51Z</time>
      </trkpt>
      <trkpt lat="45.83548" lon="4.8158">
        <ele>328</ele>
        <time>2013-01-27T08:31:56Z</time>
      </trkpt>
      <trkpt lat="45.83542" lon="4.81576">
        <ele>328</ele>
        <time>2013-01-27T08:31:59Z</time>
      </trkpt>
      <trkpt lat="45.83537" lon="4.81571">
        <ele>329</ele>
        <time>2013-01-27T08:32:02Z</time>
      </trkpt>
      <trkpt lat="45.83532" lon="4.81557">
        <ele>329</ele>
        <time>2013-01-27T08:32:07Z</time>
      </trkpt>
      <trkpt lat="45.83531" lon="4.81554">
        <ele>329</ele>
        <time>2013-01-27T08:32:08Z</time>
      </trkpt>
      <trkpt lat="45.83526" lon="4.81539">
        <ele>330</ele>
        <time>2013-01-27T08:32:13Z</time>
      </trkpt>
      <trkpt lat="45.83523" lon="4.81527">
        <ele>330</ele>
        <time>2013-01-27T08:32:17Z</time>
      </trkpt>
      <trkpt lat="45.83521" lon="4.81521">
        <ele>330</ele>
        <time>2013-01-27T08:32:19Z</time>
      </trkpt>
      <trkpt lat="45.83516" lon="4.81503">
        <ele>331</ele>
        <time>2013-01-27T08:32:25Z</time>
      </trkpt>
      <trkpt lat="45.83509" lon="4.81481">
        <ele>335</ele>
        <time>2013-01-27T08:32:32Z</time>
      </trkpt>
      <trkpt lat="45.83509" lon="4.81479">
        <ele>335</ele>
        <time>2013-01-27T08:32:33Z</time>
      </trkpt>
      <trkpt lat="45.83504" lon="4.81462">
        <ele>336</ele>
        <time>2013-01-27T08:32:39Z</time>
      </trkpt>
      <trkpt lat="45.835" lon="4.81455">
        <ele>337</ele>
        <time>2013-01-27T08:32:42Z</time>
      </trkpt>
      <trkpt lat="45.83494" lon="4.81447">
        <ele>337</ele>
        <time>2013-01-27T08:32:45Z</time>
      </trkpt>
      <trkpt lat="45.83485" lon="4.81439">
        <ele>338</ele>
        <time>2013-01-27T08:32:50Z</time>
      </trkpt>
      <trkpt lat="45.83483" lon="4.81438">
        <ele>338</ele>
        <time>2013-01-27T08:32:51Z</time>
      </trkpt>
      <trkpt lat="45.8347" lon="4.81431">
        <ele>338</ele>
        <time>2013-01-27T08:32:57Z</time>
      </trkpt>
      <trkpt lat="45.83467" lon="4.81429">
        <ele>338</ele>
        <time>2013-01-27T08:32:59Z</time>
      </trkpt>
      <trkpt lat="45.83459" lon="4.81425">
        <ele>338</ele>
        <time>2013-01-27T08:33:03Z</time>
      </trkpt>
      <trkpt lat="45.83449" lon="4.81419">
        <ele>338</ele>
        <time>2013-01-27T08:33:08Z</time>
      </trkpt>
      <trkpt lat="45.83448" lon="4.81417">
        <ele>338</ele>
        <time>2013-01-27T08:33:09Z</time>
      </trkpt>
      <trkpt lat="45.83437" lon="4.81403">
        <ele>343</ele>
        <time>2013-01-27T08:33:16Z</time>
      </trkpt>
      <trkpt lat="45.83436" lon="4.81401">
        <ele>343</ele>
        <time>2013-01-27T08:33:17Z</time>
      </trkpt>
      <trkpt lat="45.83433" lon="4.81391">
        <ele>344</ele>
        <time>2013-01-27T08:33:21Z</time>
      </trkpt>
      <trkpt lat="45.83433" lon="4.81384">
        <ele>344</ele>
        <time>2013-01-27T08:33:25Z</time>
      </trkpt>
      <trkpt lat="45.83433" lon="4.81384">
        <ele>344</ele>
        <time>2013-01-27T08:33:26Z</time>
      </trkpt>
      <trkpt lat="45.83435" lon="4.81379">
        <ele>345</ele>
        <time>2013-01-27T08:33:34Z</time>
      </trkpt>
      <trkpt lat="45.83437" lon="4.81378">
        <ele>345</ele>
        <time>2013-01-27T08:33:35Z</time>
      </trkpt>
      <trkpt lat="45.83442" lon="4.81374">
        <ele>345</ele>
        <time>2013-01-27T08:33:40Z</time>
      </trkpt>
      <trkpt lat="45.83444" lon="4.81373">
        <ele>345</ele>
        <time>2013-01-27T08:33:42Z</time>
      </trkpt>
      <trkpt lat="45.83449" lon="4.81373">
        <ele>345</ele>
        <time>2013-01-27T08:33:45Z</time>
      </trkpt>
      <trkpt lat="45.83454" lon="4.8137">
        <ele>346</ele>
        <time>2013-01-27T08:33:51Z</time>
      </trkpt>
      <trkpt lat="45.83455" lon="4.8137">
        <ele>346</ele>
        <time>2013-01-27T08:33:52Z</time>
      </trkpt>
      <trkpt lat="45.83457" lon="4.8137">
        <ele>346</ele>
        <time>2013-01-27T08:33:54Z</time>
      </trkpt>
      <trkpt lat="45.83459" lon="4.81368">
        <ele>346</ele>
        <time>2013-01-27T08:33:57Z</time>
      </trkpt>
      <trkpt lat="45.8346" lon="4.81367">
        <ele>346</ele>
        <time>2013-01-27T08:33:58Z</time>
      </trkpt>
      <trkpt lat="45.83465" lon="4.81363">
        <ele>347</ele>
        <time>2013-01-27T08:34:03Z</time>
      </trkpt>
      <trkpt lat="45.83471" lon="4.81361">
        <ele>347</ele>
        <time>2013-01-27T08:34:08Z</time>
      </trkpt>
      <trkpt lat="45.83474" lon="4.8136">
        <ele>347</ele>
        <time>2013-01-27T08:34:10Z</time>
      </trkpt>
      <trkpt lat="45.83475" lon="4.8136">
        <ele>347</ele>
        <time>2013-01-27T08:34:11Z</time>
      </trkpt>
      <trkpt lat="45.83481" lon="4.81357">
        <ele>348</ele>
        <time>2013-01-27T08:34:16Z</time>
      </trkpt>
      <trkpt lat="45.83489" lon="4.81352">
        <ele>349</ele>
        <time>2013-01-27T08:34:22Z</time>
      </trkpt>
      <trkpt lat="45.8349" lon="4.81351">
        <ele>349</ele>
        <time>2013-01-27T08:34:23Z</time>
      </trkpt>
      <trkpt lat="45.835" lon="4.81345">
        <ele>351</ele>
        <time>2013-01-27T08:34:31Z</time>
      </trkpt>
      <trkpt lat="45.83506" lon="4.81343">
        <ele>352</ele>
        <time>2013-01-27T08:34:34Z</time>
      </trkpt>
      <trkpt lat="45.83511" lon="4.8134">
        <ele>351</ele>
        <time>2013-01-27T08:34:37Z</time>
      </trkpt>
      <trkpt lat="45.83522" lon="4.81333">
        <ele>356</ele>
        <time>2013-01-27T08:34:43Z</time>
      </trkpt>
      <trkpt lat="45.83534" lon="4.8133">
        <ele>356</ele>
        <time>2013-01-27T08:34:48Z</time>
      </trkpt>
      <trkpt lat="45.83539" lon="4.81326">
        <ele>357</ele>
        <time>2013-01-27T08:34:51Z</time>
      </trkpt>
      <trkpt lat="45.83543" lon="4.81322">
        <ele>357</ele>
        <time>2013-01-27T08:34:53Z</time>
      </trkpt>
      <trkpt lat="45.83555" lon="4.81313">
        <ele>357</ele>
        <time>2013-01-27T08:34:59Z</time>
      </trkpt>
      <trkpt lat="45.83557" lon="4.81311">
        <ele>357</ele>
        <time>2013-01-27T08:35:00Z</time>
      </trkpt>
      <trkpt lat="45.83566" lon="4.81304">
        <ele>357</ele>
        <time>2013-01-27T08:35:05Z</time>
      </trkpt>
      <trkpt lat="45.83574" lon="4.81299">
        <ele>357</ele>
        <time>2013-01-27T08:35:09Z</time>
      </trkpt>
      <trkpt lat="45.8358" lon="4.81295">
        <ele>358</ele>
        <time>2013-01-27T08:35:12Z</time>
      </trkpt>
      <trkpt lat="45.8359" lon="4.81288">
        <ele>356</ele>
        <time>2013-01-27T08:35:17Z</time>
      </trkpt>
      <trkpt lat="45.83592" lon="4.81286">
        <ele>356</ele>
        <time>2013-01-27T08:35:18Z</time>
      </trkpt>
      <trkpt lat="45.83605" lon="4.81281">
        <ele>355</ele>
        <time>2013-01-27T08:35:24Z</time>
      </trkpt>
      <trkpt lat="45.83609" lon="4.8128">
        <ele>355</ele>
        <time>2013-01-27T08:35:26Z</time>
      </trkpt>
      <trkpt lat="45.83615" lon="4.81278">
        <ele>355</ele>
        <time>2013-01-27T08:35:29Z</time>
      </trkpt>
      <trkpt lat="45.83624" lon="4.81275">
        <ele>355</ele>
        <time>2013-01-27T08:35:33Z</time>
      </trkpt>
      <trkpt lat="45.83626" lon="4.81274">
        <ele>355</ele>
        <time>2013-01-27T08:35:34Z</time>
      </trkpt>
      <trkpt lat="45.83636" lon="4.81269">
        <ele>354</ele>
        <time>2013-01-27T08:35:39Z</time>
      </trkpt>
      <trkpt lat="45.8364" lon="4.81267">
        <ele>354</ele>
        <time>2013-01-27T08:35:41Z</time>
      </trkpt>
      <trkpt lat="45.83645" lon="4.81265">
        <ele>354</ele>
        <time>2013-01-27T08:35:43Z</time>
      </trkpt>
      <trkpt lat="45.83646" lon="4.81262">
        <ele>354</ele>
        <time>2013-01-27T08:35:44Z</time>
      </trkpt>
      <trkpt lat="45.83648" lon="4.81253">
        <ele>354</ele>
        <time>2013-01-27T08:35:48Z</time>
      </trkpt>
      <trkpt lat="45.83653" lon="4.81249">
        <ele>357</ele>
        <time>2013-01-27T08:35:51Z</time>
      </trkpt>
      <trkpt lat="45.83655" lon="4.81248">
        <ele>357</ele>
        <time>2013-01-27T08:35:52Z</time>
      </trkpt>
      <trkpt lat="45.83658" lon="4.81246">
        <ele>357</ele>
        <time>2013-01-27T08:35:54Z</time>
      </trkpt>
      <trkpt lat="45.83668" lon="4.81242">
        <ele>354</ele>
        <time>2013-01-27T08:35:59Z</time>
      </trkpt>
      <trkpt lat="45.83676" lon="4.81237">
        <ele>354</ele>
        <time>2013-01-27T08:36:03Z</time>
      </trkpt>
      <trkpt lat="45.83678" lon="4.81235">
        <ele>354</ele>
        <time>2013-01-27T08:36:04Z</time>
      </trkpt>
      <trkpt lat="45.83688" lon="4.81231">
        <ele>354</ele>
        <time>2013-01-27T08:36:09Z</time>
      </trkpt>
      <trkpt lat="45.83695" lon="4.81228">
        <ele>354</ele>
        <time>2013-01-27T08:36:12Z</time>
      </trkpt>
      <trkpt lat="45.83698" lon="4.81226">
        <ele>354</ele>
        <time>2013-01-27T08:36:14Z</time>
      </trkpt>
      <trkpt lat="45.83711" lon="4.8122">
        <ele>353</ele>
        <time>2013-01-27T08:36:21Z</time>
      </trkpt>
      <trkpt lat="45.83713" lon="4.81219">
        <ele>353</ele>
        <time>2013-01-27T08:36:22Z</time>
      </trkpt>
      <trkpt lat="45.83721" lon="4.81217">
        <ele>353</ele>
        <time>2013-01-27T08:36:26Z</time>
      </trkpt>
      <trkpt lat="45.83733" lon="4.81211">
        <ele>353</ele>
        <time>2013-01-27T08:36:31Z</time>
      </trkpt>
      <trkpt lat="45.83746" lon="4.81206">
        <ele>353</ele>
        <time>2013-01-27T08:36:37Z</time>
      </trkpt>
      <trkpt lat="45.8375" lon="4.81204">
        <ele>353</ele>
        <time>2013-01-27T08:36:39Z</time>
      </trkpt>
      <trkpt lat="45.83756" lon="4.81199">
        <ele>353</ele>
        <time>2013-01-27T08:36:42Z</time>
      </trkpt>
      <trkpt lat="45.83766" lon="4.81186">
        <ele>355</ele>
        <time>2013-01-27T08:36:48Z</time>
      </trkpt>
      <trkpt lat="45.83769" lon="4.81181">
        <ele>355</ele>
        <time>2013-01-27T08:36:50Z</time>
      </trkpt>
      <trkpt lat="45.8377" lon="4.81171">
        <ele>356</ele>
        <time>2013-01-27T08:36:53Z</time>
      </trkpt>
      <trkpt lat="45.83772" lon="4.81161">
        <ele>363</ele>
        <time>2013-01-27T08:36:56Z</time>
      </trkpt>
      <trkpt lat="45.83772" lon="4.81158">
        <ele>363</ele>
        <time>2013-01-27T08:36:57Z</time>
      </trkpt>
      <trkpt lat="45.83774" lon="4.81156">
        <ele>363</ele>
        <time>2013-01-27T08:36:58Z</time>
      </trkpt>
      <trkpt lat="45.8378" lon="4.8116">
        <ele>364</ele>
        <time>2013-01-27T08:37:02Z</time>
      </trkpt>
      <trkpt lat="45.83781" lon="4.8117">
        <ele>356</ele>
        <time>2013-01-27T08:37:06Z</time>
      </trkpt>
      <trkpt lat="45.83781" lon="4.81175">
        <ele>355</ele>
        <time>2013-01-27T08:37:08Z</time>
      </trkpt>
      <trkpt lat="45.8378" lon="4.81178">
        <ele>355</ele>
        <time>2013-01-27T08:37:09Z</time>
      </trkpt>
      <trkpt lat="45.83781" lon="4.8118">
        <ele>355</ele>
        <time>2013-01-27T08:37:12Z</time>
      </trkpt>
      <trkpt lat="45.83781" lon="4.81182">
        <ele>355</ele>
        <time>2013-01-27T08:37:15Z</time>
      </trkpt>
      <trkpt lat="45.83781" lon="4.81188">
        <ele>355</ele>
        <time>2013-01-27T08:37:17Z</time>
      </trkpt>
      <trkpt lat="45.8378" lon="4.81196">
        <ele>354</ele>
        <time>2013-01-27T08:37:19Z</time>
      </trkpt>
      <trkpt lat="45.83779" lon="4.81203">
        <ele>353</ele>
        <time>2013-01-27T08:37:21Z</time>
      </trkpt>
      <trkpt lat="45.83776" lon="4.81222">
        <ele>351</ele>
        <time>2013-01-27T08:37:26Z</time>
      </trkpt>
      <trkpt lat="45.83778" lon="4.81246">
        <ele>349</ele>
        <time>2013-01-27T08:37:32Z</time>
      </trkpt>
      <trkpt lat="45.83778" lon="4.81249">
        <ele>349</ele>
        <time>2013-01-27T08:37:33Z</time>
      </trkpt>
      <trkpt lat="45.83776" lon="4.81262">
        <ele>340</ele>
        <time>2013-01-27T08:37:38Z</time>
      </trkpt>
      <trkpt lat="45.83774" lon="4.81271">
        <ele>340</ele>
        <time>2013-01-27T08:37:43Z</time>
      </trkpt>
      <trkpt lat="45.83773" lon="4.81273">
        <ele>340</ele>
        <time>2013-01-27T08:37:44Z</time>
      </trkpt>
      <trkpt lat="45.83773" lon="4.81276">
        <ele>340</ele>
        <time>2013-01-27T08:37:45Z</time>
      </trkpt>
      <trkpt lat="45.8377" lon="4.8129">
        <ele>338</ele>
        <time>2013-01-27T08:37:50Z</time>
      </trkpt>
      <trkpt lat="45.8377" lon="4.81301">
        <ele>337</ele>
        <time>2013-01-27T08:37:54Z</time>
      </trkpt>
      <trkpt lat="45.8377" lon="4.81303">
        <ele>337</ele>
        <time>2013-01-27T08:37:55Z</time>
      </trkpt>
      <trkpt lat="45.83771" lon="4.81319">
        <ele>336</ele>
        <time>2013-01-27T08:38:00Z</time>
      </trkpt>
      <trkpt lat="45.83772" lon="4.81326">
        <ele>335</ele>
        <time>2013-01-27T08:38:03Z</time>
      </trkpt>
      <trkpt lat="45.83771" lon="4.81331">
        <ele>335</ele>
        <time>2013-01-27T08:38:05Z</time>
      </trkpt>
      <trkpt lat="45.83771" lon="4.81342">
        <ele>327</ele>
        <time>2013-01-27T08:38:09Z</time>
      </trkpt>
      <trkpt lat="45.83772" lon="4.81344">
        <ele>327</ele>
        <time>2013-01-27T08:38:10Z</time>
      </trkpt>
      <trkpt lat="45.83774" lon="4.8135">
        <ele>326</ele>
        <time>2013-01-27T08:38:13Z</time>
      </trkpt>
      <trkpt lat="45.83775" lon="4.81353">
        <ele>326</ele>
        <time>2013-01-27T08:38:14Z</time>
      </trkpt>
      <trkpt lat="45.83777" lon="4.81368">
        <ele>325</ele>
        <time>2013-01-27T08:38:19Z</time>
      </trkpt>
      <trkpt lat="45.83779" lon="4.81379">
        <ele>324</ele>
        <time>2013-01-27T08:38:23Z</time>
      </trkpt>
      <trkpt lat="45.83781" lon="4.81383">
        <ele>323</ele>
        <time>2013-01-27T08:38:25Z</time>
      </trkpt>
      <trkpt lat="45.83783" lon="4.81395">
        <ele>322</ele>
        <time>2013-01-27T08:38:30Z</time>
      </trkpt>
      <trkpt lat="45.83781" lon="4.81402">
        <ele>322</ele>
        <time>2013-01-27T08:38:35Z</time>
      </trkpt>
      <trkpt lat="45.83781" lon="4.81404">
        <ele>322</ele>
        <time>2013-01-27T08:38:36Z</time>
      </trkpt>
      <trkpt lat="45.83783" lon="4.81413">
        <ele>321</ele>
        <time>2013-01-27T08:38:40Z</time>
      </trkpt>
      <trkpt lat="45.83783" lon="4.81428">
        <ele>311</ele>
        <time>2013-01-27T08:38:45Z</time>
      </trkpt>
      <trkpt lat="45.83784" lon="4.81444">
        <ele>310</ele>
        <time>2013-01-27T08:38:50Z</time>
      </trkpt>
      <trkpt lat="45.83783" lon="4.8145">
        <ele>309</ele>
        <time>2013-01-27T08:38:53Z</time>
      </trkpt>
      <trkpt lat="45.83783" lon="4.81453">
        <ele>309</ele>
        <time>2013-01-27T08:38:54Z</time>
      </trkpt>
      <trkpt lat="45.83782" lon="4.81456">
        <ele>308</ele>
        <time>2013-01-27T08:38:55Z</time>
      </trkpt>
      <trkpt lat="45.83783" lon="4.81462">
        <ele>308</ele>
        <time>2013-01-27T08:38:57Z</time>
      </trkpt>
      <trkpt lat="45.83782" lon="4.81466">
        <ele>307</ele>
        <time>2013-01-27T08:38:58Z</time>
      </trkpt>
      <trkpt lat="45.83784" lon="4.81483">
        <ele>306</ele>
        <time>2013-01-27T08:39:03Z</time>
      </trkpt>
      <trkpt lat="45.83785" lon="4.81486">
        <ele>306</ele>
        <time>2013-01-27T08:39:04Z</time>
      </trkpt>
      <trkpt lat="45.83788" lon="4.81496">
        <ele>305</ele>
        <time>2013-01-27T08:39:09Z</time>
      </trkpt>
      <trkpt lat="45.8379" lon="4.81497">
        <ele>305</ele>
        <time>2013-01-27T08:39:13Z</time>
      </trkpt>
      <trkpt lat="45.83793" lon="4.81499">
        <ele>304</ele>
        <time>2013-01-27T08:39:18Z</time>
      </trkpt>
      <trkpt lat="45.83797" lon="4.81499">
        <ele>304</ele>
        <time>2013-01-27T08:39:22Z</time>
      </trkpt>
      <trkpt lat="45.83802" lon="4.81499">
        <ele>303</ele>
        <time>2013-01-27T08:39:26Z</time>
      </trkpt>
      <trkpt lat="45.83804" lon="4.81499">
        <ele>303</ele>
        <time>2013-01-27T08:39:28Z</time>
      </trkpt>
      <trkpt lat="45.83807" lon="4.81498">
        <ele>303</ele>
        <time>2013-01-27T08:39:30Z</time>
      </trkpt>
      <trkpt lat="45.83808" lon="4.81497">
        <ele>303</ele>
        <time>2013-01-27T08:39:32Z</time>
      </trkpt>
      <trkpt lat="45.83809" lon="4.81495">
        <ele>302</ele>
        <time>2013-01-27T08:39:33Z</time>
      </trkpt>
      <trkpt lat="45.8381" lon="4.81495">
        <ele>302</ele>
        <time>2013-01-27T08:39:35Z</time>
      </trkpt>
      <trkpt lat="45.83811" lon="4.81496">
        <ele>302</ele>
        <time>2013-01-27T08:39:37Z</time>
      </trkpt>
      <trkpt lat="45.83812" lon="4.81494">
        <ele>302</ele>
        <time>2013-01-27T08:39:42Z</time>
      </trkpt>
      <trkpt lat="45.83813" lon="4.81493">
        <ele>302</ele>
        <time>2013-01-27T08:39:43Z</time>
      </trkpt>
      <trkpt lat="45.83817" lon="4.81491">
        <ele>301</ele>
        <time>2013-01-27T08:39:48Z</time>
      </trkpt>
      <trkpt lat="45.83819" lon="4.8149">
        <ele>301</ele>
        <time>2013-01-27T08:39:49Z</time>
      </trkpt>
      <trkpt lat="45.83822" lon="4.81489">
        <ele>301</ele>
        <time>2013-01-27T08:39:55Z</time>
      </trkpt>
      <trkpt lat="45.83825" lon="4.81486">
        <ele>301</ele>
        <time>2013-01-27T08:39:58Z</time>
      </trkpt>
      <trkpt lat="45.83828" lon="4.81482">
        <ele>301</ele>
        <time>2013-01-27T08:40:02Z</time>
      </trkpt>
      <trkpt lat="45.83829" lon="4.8148">
        <ele>302</ele>
        <time>2013-01-27T08:40:04Z</time>
      </trkpt>
      <trkpt lat="45.8383" lon="4.81478">
        <ele>302</ele>
        <time>2013-01-27T08:40:05Z</time>
      </trkpt>
      <trkpt lat="45.83833" lon="4.81476">
        <ele>303</ele>
        <time>2013-01-27T08:40:08Z</time>
      </trkpt>
      <trkpt lat="45.83836" lon="4.81473">
        <ele>305</ele>
        <time>2013-01-27T08:40:13Z</time>
      </trkpt>
      <trkpt lat="45.83838" lon="4.81471">
        <ele>305</ele>
        <time>2013-01-27T08:40:15Z</time>
      </trkpt>
      <trkpt lat="45.83843" lon="4.81467">
        <ele>306</ele>
        <time>2013-01-27T08:40:23Z</time>
      </trkpt>
      <trkpt lat="45.83846" lon="4.81466">
        <ele>307</ele>
        <time>2013-01-27T08:40:28Z</time>
      </trkpt>
      <trkpt lat="45.83853" lon="4.81462">
        <ele>308</ele>
        <time>2013-01-27T08:40:37Z</time>
      </trkpt>
      <trkpt lat="45.83855" lon="4.81461">
        <ele>308</ele>
        <time>2013-01-27T08:40:39Z</time>
      </trkpt>
      <trkpt lat="45.83855" lon="4.81461">
        <ele>308</ele>
        <time>2013-01-27T08:40:40Z</time>
      </trkpt>
      <trkpt lat="45.83859" lon="4.81459">
        <ele>309</ele>
        <time>2013-01-27T08:40:45Z</time>
      </trkpt>
      <trkpt lat="45.83862" lon="4.81456">
        <ele>310</ele>
        <time>2013-01-27T08:40:49Z</time>
      </trkpt>
      <trkpt lat="45.83863" lon="4.81456">
        <ele>310</ele>
        <time>2013-01-27T08:40:50Z</time>
      </trkpt>
      <trkpt lat="45.83864" lon="4.81456">
        <ele>310</ele>
        <time>2013-01-27T08:40:52Z</time>
      </trkpt>
      <trkpt lat="45.83868" lon="4.81453">
        <ele>310</ele>
        <time>2013-01-27T08:41:01Z</time>
      </trkpt>
      <trkpt lat="45.83873" lon="4.81453">
        <ele>311</ele>
        <time>2013-01-27T08:41:07Z</time>
      </trkpt>
      <trkpt lat="45.83874" lon="4.81453">
        <ele>311</ele>
        <time>2013-01-27T08:41:08Z</time>
      </trkpt>
      <trkpt lat="45.83878" lon="4.81453">
        <ele>311</ele>
        <time>2013-01-27T08:41:13Z</time>
      </trkpt>
      <trkpt lat="45.8388" lon="4.81454">
        <ele>311</ele>
        <time>2013-01-27T08:41:17Z</time>
      </trkpt>
      <trkpt lat="45.83882" lon="4.81454">
        <ele>311</ele>
        <time>2013-01-27T08:41:19Z</time>
      </trkpt>
      <trkpt lat="45.83887" lon="4.8145">
        <ele>312</ele>
        <time>2013-01-27T08:41:24Z</time>
      </trkpt>
      <trkpt lat="45.83888" lon="4.81448">
        <ele>313</ele>
        <time>2013-01-27T08:41:27Z</time>
      </trkpt>
      <trkpt lat="45.83892" lon="4.81443">
        <ele>314</ele>
        <time>2013-01-27T08:41:34Z</time>
      </trkpt>
      <trkpt lat="45.83894" lon="4.8144">
        <ele>315</ele>
        <time>2013-01-27T08:41:41Z</time>
      </trkpt>
      <trkpt lat="45.83894" lon="4.81432">
        <ele>317</ele>
        <time>2013-01-27T08:41:48Z</time>
      </trkpt>
      <trkpt lat="45.83892" lon="4.81428">
        <ele>317</ele>
        <time>2013-01-27T08:41:52Z</time>
      </trkpt>
      <trkpt lat="45.8389" lon="4.81427">
        <ele>317</ele>
        <time>2013-01-27T08:41:54Z</time>
      </trkpt>
      <trkpt lat="45.83889" lon="4.81421">
        <ele>317</ele>
        <time>2013-01-27T08:42:02Z</time>
      </trkpt>
      <trkpt lat="45.83887" lon="4.81417">
        <ele>317</ele>
        <time>2013-01-27T08:42:06Z</time>
      </trkpt>
      <trkpt lat="45.83885" lon="4.81416">
        <ele>331</ele>
        <time>2013-01-27T08:42:08Z</time>
      </trkpt>
      <trkpt lat="45.83886" lon="4.81412">
        <ele>331</ele>
        <time>2013-01-27T08:42:22Z</time>
      </trkpt>
      <trkpt lat="45.83887" lon="4.81405">
        <ele>332</ele>
        <time>2013-01-27T08:42:29Z</time>
      </trkpt>
      <trkpt lat="45.83891" lon="4.81401">
        <ele>332</ele>
        <time>2013-01-27T08:42:35Z</time>
      </trkpt>
      <trkpt lat="45.83893" lon="4.81398">
        <ele>333</ele>
        <time>2013-01-27T08:42:38Z</time>
      </trkpt>
      <trkpt lat="45.83894" lon="4.81397">
        <ele>333</ele>
        <time>2013-01-27T08:42:42Z</time>
      </trkpt>
      <trkpt lat="45.83897" lon="4.81391">
        <ele>334</ele>
        <time>2013-01-27T08:42:53Z</time>
      </trkpt>
      <trkpt lat="45.83898" lon="4.81391">
        <ele>334</ele>
        <time>2013-01-27T08:42:54Z</time>
      </trkpt>
      <trkpt lat="45.83901" lon="4.8139">
        <ele>335</ele>
        <time>2013-01-27T08:42:59Z</time>
      </trkpt>
      <trkpt lat="45.83905" lon="4.81388">
        <ele>335</ele>
        <time>2013-01-27T08:43:05Z</time>
      </trkpt>
      <trkpt lat="45.83909" lon="4.81387">
        <ele>335</ele>
        <time>2013-01-27T08:43:10Z</time>
      </trkpt>
      <trkpt lat="45.83911" lon="4.81386">
        <ele>336</ele>
        <time>2013-01-27T08:43:13Z</time>
      </trkpt>
      <trkpt lat="45.83915" lon="4.81385">
        <ele>336</ele>
        <time>2013-01-27T08:43:19Z</time>
      </trkpt>
      <trkpt lat="45.8392" lon="4.81384">
        <ele>352</ele>
        <time>2013-01-27T08:43:27Z</time>
      </trkpt>
      <trkpt lat="45.83924" lon="4.81382">
        <ele>353</ele>
        <time>2013-01-27T08:43:33Z</time>
      </trkpt>
      <trkpt lat="45.83925" lon="4.81381">
        <ele>353</ele>
        <time>2013-01-27T08:43:34Z</time>
      </trkpt>
      <trkpt lat="45.83927" lon="4.81382">
        <ele>353</ele>
        <time>2013-01-27T08:43:37Z</time>
      </trkpt>
      <trkpt lat="45.83929" lon="4.81382">
        <ele>354</ele>
        <time>2013-01-27T08:43:40Z</time>
      </trkpt>
      <trkpt lat="45.83935" lon="4.81385">
        <ele>354</ele>
        <time>2013-01-27T08:43:48Z</time>
      </trkpt>
      <trkpt lat="45.83939" lon="4.8139">
        <ele>353</ele>
        <time>2013-01-27T08:43:56Z</time>
      </trkpt>
      <trkpt lat="45.83944" lon="4.81391">
        <ele>354</ele>
        <time>2013-01-27T08:44:01Z</time>
      </trkpt>
      <trkpt lat="45.83947" lon="4.81393">
        <ele>354</ele>
        <time>2013-01-27T08:44:04Z</time>
      </trkpt>
      <trkpt lat="45.83952" lon="4.81394">
        <ele>355</ele>
        <time>2013-01-27T08:44:11Z</time>
      </trkpt>
      <trkpt lat="45.83955" lon="4.81396">
        <ele>355</ele>
        <time>2013-01-27T08:44:16Z</time>
      </trkpt>
      <trkpt lat="45.83959" lon="4.81399">
        <ele>355</ele>
        <time>2013-01-27T08:44:23Z</time>
      </trkpt>
      <trkpt lat="45.83961" lon="4.814">
        <ele>355</ele>
        <time>2013-01-27T08:44:26Z</time>
      </trkpt>
      <trkpt lat="45.83963" lon="4.814">
        <ele>356</ele>
        <time>2013-01-27T08:44:29Z</time>
      </trkpt>
      <trkpt lat="45.83966" lon="4.81403">
        <ele>356</ele>
        <time>2013-01-27T08:44:35Z</time>
      </trkpt>
      <trkpt lat="45.83972" lon="4.81404">
        <ele>356</ele>
        <time>2013-01-27T08:44:41Z</time>
      </trkpt>
      <trkpt lat="45.83975" lon="4.81405">
        <ele>356</ele>
        <time>2013-01-27T08:44:46Z</time>
      </trkpt>
      <trkpt lat="45.83978" lon="4.81405">
        <ele>357</ele>
        <time>2013-01-27T08:44:49Z</time>
      </trkpt>
      <trkpt lat="45.83978" lon="4.81406">
        <ele>357</ele>
        <time>2013-01-27T08:44:50Z</time>
      </trkpt>
      <trkpt lat="45.8398" lon="4.81406">
        <ele>357</ele>
        <time>2013-01-27T08:44:51Z</time>
      </trkpt>
      <trkpt lat="45.83982" lon="4.81406">
        <ele>357</ele>
        <time>2013-01-27T08:44:54Z</time>
      </trkpt>
      <trkpt lat="45.83984" lon="4.81406">
        <ele>356</ele>
        <time>2013-01-27T08:44:58Z</time>
      </trkpt>
      <trkpt lat="45.83994" lon="4.81407">
        <ele>356</ele>
        <time>2013-01-27T08:45:06Z</time>
      </trkpt>
      <trkpt lat="45.83994" lon="4.81407">
        <ele>356</ele>
        <time>2013-01-27T08:45:07Z</time>
      </trkpt>
      <trkpt lat="45.83997" lon="4.81407">
        <ele>356</ele>
        <time>2013-01-27T08:45:12Z</time>
      </trkpt>
      <trkpt lat="45.83998" lon="4.81407">
        <ele>356</ele>
        <time>2013-01-27T08:45:13Z</time>
      </trkpt>
      <trkpt lat="45.84" lon="4.81406">
        <ele>356</ele>
        <time>2013-01-27T08:45:15Z</time>
      </trkpt>
      <trkpt lat="45.84001" lon="4.81406">
        <ele>365</ele>
        <time>2013-01-27T08:45:17Z</time>
      </trkpt>
      <trkpt lat="45.84001" lon="4.81405">
        <ele>365</ele>
        <time>2013-01-27T08:45:18Z</time>
      </trkpt>
      <trkpt lat="45.84005" lon="4.81403">
        <ele>368</ele>
        <time>2013-01-27T08:45:23Z</time>
      </trkpt>
      <trkpt lat="45.84011" lon="4.81403">
        <ele>370</ele>
        <time>2013-01-27T08:45:29Z</time>
      </trkpt>
      <trkpt lat="45.84015" lon="4.81402">
        <ele>372</ele>
        <time>2013-01-27T08:45:33Z</time>
      </trkpt>
      <trkpt lat="45.84015" lon="4.81402">
        <ele>372</ele>
        <time>2013-01-27T08:45:34Z</time>
      </trkpt>
      <trkpt lat="45.84016" lon="4.81403">
        <ele>372</ele>
        <time>2013-01-27T08:45:35Z</time>
      </trkpt>
      <trkpt lat="45.84021" lon="4.81405">
        <ele>373</ele>
        <time>2013-01-27T08:45:42Z</time>
      </trkpt>
      <trkpt lat="45.84022" lon="4.81405">
        <ele>373</ele>
        <time>2013-01-27T08:45:43Z</time>
      </trkpt>
      <trkpt lat="45.84024" lon="4.81406">
        <ele>374</ele>
        <time>2013-01-27T08:45:46Z</time>
      </trkpt>
      <trkpt lat="45.84029" lon="4.81404">
        <ele>377</ele>
        <time>2013-01-27T08:45:51Z</time>
      </trkpt>
      <trkpt lat="45.84033" lon="4.81401">
        <ele>378</ele>
        <time>2013-01-27T08:45:54Z</time>
      </trkpt>
      <trkpt lat="45.84037" lon="4.81401">
        <ele>379</ele>
        <time>2013-01-27T08:45:59Z</time>
      </trkpt>
      <trkpt lat="45.84043" lon="4.814">
        <ele>381</ele>
        <time>2013-01-27T08:46:05Z</time>
      </trkpt>
      <trkpt lat="45.84051" lon="4.81401">
        <ele>382</ele>
        <time>2013-01-27T08:46:12Z</time>
      </trkpt>
      <trkpt lat="45.84051" lon="4.81401">
        <ele>382</ele>
        <time>2013-01-27T08:46:13Z</time>
      </trkpt>
      <trkpt lat="45.8406" lon="4.814">
        <ele>383</ele>
        <time>2013-01-27T08:46:22Z</time>
      </trkpt>
      <trkpt lat="45.84064" lon="4.81401">
        <ele>383</ele>
        <time>2013-01-27T08:46:27Z</time>
      </trkpt>
      <trkpt lat="45.84066" lon="4.81402">
        <ele>383</ele>
        <time>2013-01-27T08:46:29Z</time>
      </trkpt>
      <trkpt lat="45.84068" lon="4.81402">
        <ele>383</ele>
        <time>2013-01-27T08:46:31Z</time>
      </trkpt>
      <trkpt lat="45.84073" lon="4.81404">
        <ele>383</ele>
        <time>2013-01-27T08:46:36Z</time>
      </trkpt>
      <trkpt lat="45.84077" lon="4.8141">
        <ele>382</ele>
        <time>2013-01-27T08:46:42Z</time>
      </trkpt>
      <trkpt lat="45.84081" lon="4.81412">
        <ele>381</ele>
        <time>2013-01-27T08:46:45Z</time>
      </trkpt>
      <trkpt lat="45.84082" lon="4.81413">
        <ele>381</ele>
        <time>2013-01-27T08:46:46Z</time>
      </trkpt>
      <trkpt lat="45.84083" lon="4.81413">
        <ele>381</ele>
        <time>2013-01-27T08:46:47Z</time>
      </trkpt>
      <trkpt lat="45.84084" lon="4.81415">
        <ele>382</ele>
        <time>2013-01-27T08:46:49Z</time>
      </trkpt>
      <trkpt lat="45.84091" lon="4.8142">
        <ele>380</ele>
        <time>2013-01-27T08:46:57Z</time>
      </trkpt>
      <trkpt lat="45.84092" lon="4.81421">
        <ele>380</ele>
        <time>2013-01-27T08:46:58Z</time>
      </trkpt>
      <trkpt lat="45.84093" lon="4.81421">
        <ele>380</ele>
        <time>2013-01-27T08:46:59Z</time>
      </trkpt>
      <trkpt lat="45.84099" lon="4.81423">
        <ele>381</ele>
        <time>2013-01-27T08:47:04Z</time>
      </trkpt>
      <trkpt lat="45.841" lon="4.81424">
        <ele>381</ele>
        <time>2013-01-27T08:47:05Z</time>
      </trkpt>
      <trkpt lat="45.84106" lon="4.81426">
        <ele>381</ele>
        <time>2013-01-27T08:47:09Z</time>
      </trkpt>
      <trkpt lat="45.84111" lon="4.81432">
        <ele>382</ele>
        <time>2013-01-27T08:47:16Z</time>
      </trkpt>
      <trkpt lat="45.84112" lon="4.81432">
        <ele>382</ele>
        <time>2013-01-27T08:47:17Z</time>
      </trkpt>
      <trkpt lat="45.84114" lon="4.81435">
        <ele>382</ele>
        <time>2013-01-27T08:47:23Z</time>
      </trkpt>
      <trkpt lat="45.84116" lon="4.81436">
        <ele>382</ele>
        <time>2013-01-27T08:47:25Z</time>
      </trkpt>
      <trkpt lat="45.84122" lon="4.8144">
        <ele>383</ele>
        <time>2013-01-27T08:47:31Z</time>
      </trkpt>
      <trkpt lat="45.84126" lon="4.81443">
        <ele>383</ele>
        <time>2013-01-27T08:47:34Z</time>
      </trkpt>
      <trkpt lat="45.84128" lon="4.81446">
        <ele>383</ele>
        <time>2013-01-27T08:47:38Z</time>
      </trkpt>
      <trkpt lat="45.84129" lon="4.81448">
        <ele>383</ele>
        <time>2013-01-27T08:47:39Z</time>
      </trkpt>
      <trkpt lat="45.84132" lon="4.81449">
        <ele>383</ele>
        <time>2013-01-27T08:47:41Z</time>
      </trkpt>
      <trkpt lat="45.84133" lon="4.81453">
        <ele>383</ele>
        <time>2013-01-27T08:47:44Z</time>
      </trkpt>
      <trkpt lat="45.84137" lon="4.81457">
        <ele>383</ele>
        <time>2013-01-27T08:47:50Z</time>
      </trkpt>
      <trkpt lat="45.84138" lon="4.81457">
        <ele>383</ele>
        <time>2013-01-27T08:47:51Z</time>
      </trkpt>
      <trkpt lat="45.84144" lon="4.81464">
        <ele>384</ele>
        <time>2013-01-27T08:47:56Z</time>
      </trkpt>
      <trkpt lat="45.84145" lon="4.81464">
        <ele>384</ele>
        <time>2013-01-27T08:47:57Z</time>
      </trkpt>
      <trkpt lat="45.84148" lon="4.81465">
        <ele>384</ele>
        <time>2013-01-27T08:47:59Z</time>
      </trkpt>
      <trkpt lat="45.84151" lon="4.81465">
        <ele>384</ele>
        <time>2013-01-27T08:48:01Z</time>
      </trkpt>
      <trkpt lat="45.84155" lon="4.81467">
        <ele>385</ele>
        <time>2013-01-27T08:48:04Z</time>
      </trkpt>
      <trkpt lat="45.84161" lon="4.8147">
        <ele>385</ele>
        <time>2013-01-27T08:48:10Z</time>
      </trkpt>
      <trkpt lat="45.84163" lon="4.81471">
        <ele>385</ele>
        <time>2013-01-27T08:48:12Z</time>
      </trkpt>
      <trkpt lat="45.84166" lon="4.81476">
        <ele>385</ele>
        <time>2013-01-27T08:48:19Z</time>
      </trkpt>
      <trkpt lat="45.8417" lon="4.81478">
        <ele>397</ele>
        <time>2013-01-27T08:48:29Z</time>
      </trkpt>
      <trkpt lat="45.8417" lon="4.81478">
        <ele>397</ele>
        <time>2013-01-27T08:48:30Z</time>
      </trkpt>
      <trkpt lat="45.84175" lon="4.81478">
        <ele>397</ele>
        <time>2013-01-27T08:48:38Z</time>
      </trkpt>
      <trkpt lat="45.84178" lon="4.81475">
        <ele>398</ele>
        <time>2013-01-27T08:48:41Z</time>
      </trkpt>
      <trkpt lat="45.84181" lon="4.81473">
        <ele>398</ele>
        <time>2013-01-27T08:48:43Z</time>
      </trkpt>
      <trkpt lat="45.84187" lon="4.8147">
        <ele>399</ele>
        <time>2013-01-27T08:48:48Z</time>
      </trkpt>
      <trkpt lat="45.84189" lon="4.8147">
        <ele>399</ele>
        <time>2013-01-27T08:48:49Z</time>
      </trkpt>
      <trkpt lat="45.84193" lon="4.81471">
        <ele>400</ele>
        <time>2013-01-27T08:48:51Z</time>
      </trkpt>
      <trkpt lat="45.84197" lon="4.81472">
        <ele>400</ele>
        <time>2013-01-27T08:48:53Z</time>
      </trkpt>
      <trkpt lat="45.84205" lon="4.81466">
        <ele>401</ele>
        <time>2013-01-27T08:48:58Z</time>
      </trkpt>
      <trkpt lat="45.84207" lon="4.81463">
        <ele>401</ele>
        <time>2013-01-27T08:49:00Z</time>
      </trkpt>
      <trkpt lat="45.84209" lon="4.81462">
        <ele>402</ele>
        <time>2013-01-27T08:49:05Z</time>
      </trkpt>
      <trkpt lat="45.84211" lon="4.81465">
        <ele>402</ele>
        <time>2013-01-27T08:49:17Z</time>
      </trkpt>
      <trkpt lat="45.84212" lon="4.81466">
        <ele>401</ele>
        <time>2013-01-27T08:49:18Z</time>
      </trkpt>
      <trkpt lat="45.84212" lon="4.81472">
        <ele>401</ele>
        <time>2013-01-27T08:49:22Z</time>
      </trkpt>
      <trkpt lat="45.8421" lon="4.81486">
        <ele>400</ele>
        <time>2013-01-27T08:49:26Z</time>
      </trkpt>
      <trkpt lat="45.84209" lon="4.81492">
        <ele>400</ele>
        <time>2013-01-27T08:49:28Z</time>
      </trkpt>
      <trkpt lat="45.84208" lon="4.81498">
        <ele>400</ele>
        <time>2013-01-27T08:49:30Z</time>
      </trkpt>
      <trkpt lat="45.84208" lon="4.81506">
        <ele>393</ele>
        <time>2013-01-27T08:49:32Z</time>
      </trkpt>
      <trkpt lat="45.8421" lon="4.81517">
        <ele>392</ele>
        <time>2013-01-27T08:49:35Z</time>
      </trkpt>
      <trkpt lat="45.84212" lon="4.81524">
        <ele>392</ele>
        <time>2013-01-27T08:49:37Z</time>
      </trkpt>
      <trkpt lat="45.84217" lon="4.81541">
        <ele>391</ele>
        <time>2013-01-27T08:49:43Z</time>
      </trkpt>
      <trkpt lat="45.84218" lon="4.81543">
        <ele>391</ele>
        <time>2013-01-27T08:49:44Z</time>
      </trkpt>
      <trkpt lat="45.8422" lon="4.8155">
        <ele>391</ele>
        <time>2013-01-27T08:49:48Z</time>
      </trkpt>
      <trkpt lat="45.84222" lon="4.81552">
        <ele>391</ele>
        <time>2013-01-27T08:49:50Z</time>
      </trkpt>
      <trkpt lat="45.84224" lon="4.81554">
        <ele>391</ele>
        <time>2013-01-27T08:49:51Z</time>
      </trkpt>
      <trkpt lat="45.84227" lon="4.81557">
        <ele>391</ele>
        <time>2013-01-27T08:49:53Z</time>
      </trkpt>
      <trkpt lat="45.84231" lon="4.81559">
        <ele>391</ele>
        <time>2013-01-27T08:49:55Z</time>
      </trkpt>
      <trkpt lat="45.84238" lon="4.8156">
        <ele>392</ele>
        <time>2013-01-27T08:49:59Z</time>
      </trkpt>
      <trkpt lat="45.84243" lon="4.81559">
        <ele>392</ele>
        <time>2013-01-27T08:50:02Z</time>
      </trkpt>
      <trkpt lat="45.84247" lon="4.81559">
        <ele>392</ele>
        <time>2013-01-27T08:50:04Z</time>
      </trkpt>
      <trkpt lat="45.8425" lon="4.81558">
        <ele>392</ele>
        <time>2013-01-27T08:50:05Z</time>
      </trkpt>
      <trkpt lat="45.84253" lon="4.81558">
        <ele>389</ele>
        <time>2013-01-27T08:50:07Z</time>
      </trkpt>
      <trkpt lat="45.84256" lon="4.81559">
        <ele>389</ele>
        <time>2013-01-27T08:50:09Z</time>
      </trkpt>
      <trkpt lat="45.84264" lon="4.81559">
        <ele>388</ele>
        <time>2013-01-27T08:50:14Z</time>
      </trkpt>
      <trkpt lat="45.84271" lon="4.81557">
        <ele>388</ele>
        <time>2013-01-27T08:50:17Z</time>
      </trkpt>
      <trkpt lat="45.84276" lon="4.81555">
        <ele>387</ele>
        <time>2013-01-27T08:50:19Z</time>
      </trkpt>
      <trkpt lat="45.84288" lon="4.81543">
        <ele>386</ele>
        <time>2013-01-27T08:50:25Z</time>
      </trkpt>
      <trkpt lat="45.843" lon="4.81533">
        <ele>386</ele>
        <time>2013-01-27T08:50:30Z</time>
      </trkpt>
      <trkpt lat="45.84304" lon="4.81528">
        <ele>386</ele>
        <time>2013-01-27T08:50:32Z</time>
      </trkpt>
      <trkpt lat="45.84311" lon="4.81519">
        <ele>385</ele>
        <time>2013-01-27T08:50:36Z</time>
      </trkpt>
      <trkpt lat="45.84319" lon="4.81511">
        <ele>385</ele>
        <time>2013-01-27T08:50:40Z</time>
      </trkpt>
      <trkpt lat="45.84323" lon="4.81507">
        <ele>384</ele>
        <time>2013-01-27T08:50:42Z</time>
      </trkpt>
      <trkpt lat="45.8433" lon="4.81497">
        <ele>385</ele>
        <time>2013-01-27T08:50:46Z</time>
      </trkpt>
      <trkpt lat="45.84335" lon="4.81492">
        <ele>382</ele>
        <time>2013-01-27T08:50:48Z</time>
      </trkpt>
      <trkpt lat="45.84344" lon="4.81486">
        <ele>381</ele>
        <time>2013-01-27T08:50:52Z</time>
      </trkpt>
      <trkpt lat="45.84354" lon="4.81483">
        <ele>380</ele>
        <time>2013-01-27T08:50:56Z</time>
      </trkpt>
      <trkpt lat="45.84361" lon="4.81476">
        <ele>379</ele>
        <time>2013-01-27T08:51:01Z</time>
      </trkpt>
      <trkpt lat="45.84373" lon="4.81469">
        <ele>378</ele>
        <time>2013-01-27T08:51:06Z</time>
      </trkpt>
      <trkpt lat="45.84382" lon="4.81462">
        <ele>377</ele>
        <time>2013-01-27T08:51:12Z</time>
      </trkpt>
      <trkpt lat="45.84385" lon="4.81459">
        <ele>377</ele>
        <time>2013-01-27T08:51:14Z</time>
      </trkpt>
      <trkpt lat="45.84389" lon="4.81458">
        <ele>377</ele>
        <time>2013-01-27T08:51:16Z</time>
      </trkpt>
      <trkpt lat="45.84391" lon="4.81457">
        <ele>377</ele>
        <time>2013-01-27T08:51:17Z</time>
      </trkpt>
      <trkpt lat="45.844" lon="4.8145">
        <ele>376</ele>
        <time>2013-01-27T08:51:22Z</time>
      </trkpt>
      <trkpt lat="45.84406" lon="4.81449">
        <ele>376</ele>
        <time>2013-01-27T08:51:25Z</time>
      </trkpt>
      <trkpt lat="45.84411" lon="4.8145">
        <ele>375</ele>
        <time>2013-01-27T08:51:27Z</time>
      </trkpt>
      <trkpt lat="45.84413" lon="4.8145">
        <ele>375</ele>
        <time>2013-01-27T08:51:28Z</time>
      </trkpt>
      <trkpt lat="45.84417" lon="4.81451">
        <ele>360</ele>
        <time>2013-01-27T08:51:31Z</time>
      </trkpt>
      <trkpt lat="45.84419" lon="4.81451">
        <ele>360</ele>
        <time>2013-01-27T08:51:32Z</time>
      </trkpt>
      <trkpt lat="45.84425" lon="4.8145">
        <ele>360</ele>
        <time>2013-01-27T08:51:36Z</time>
      </trkpt>
      <trkpt lat="45.84427" lon="4.81448">
        <ele>360</ele>
        <time>2013-01-27T08:51:37Z</time>
      </trkpt>
      <trkpt lat="45.84433" lon="4.8144">
        <ele>361</ele>
        <time>2013-01-27T08:51:42Z</time>
      </trkpt>
      <trkpt lat="45.84434" lon="4.81439">
        <ele>361</ele>
        <time>2013-01-27T08:51:43Z</time>
      </trkpt>
      <trkpt lat="45.8444" lon="4.81434">
        <ele>361</ele>
        <time>2013-01-27T08:51:47Z</time>
      </trkpt>
      <trkpt lat="45.84444" lon="4.8143">
        <ele>361</ele>
        <time>2013-01-27T08:51:49Z</time>
      </trkpt>
      <trkpt lat="45.84455" lon="4.81425">
        <ele>359</ele>
        <time>2013-01-27T08:51:54Z</time>
      </trkpt>
      <trkpt lat="45.84457" lon="4.81424">
        <ele>359</ele>
        <time>2013-01-27T08:51:55Z</time>
      </trkpt>
      <trkpt lat="45.84459" lon="4.81422">
        <ele>358</ele>
        <time>2013-01-27T08:51:56Z</time>
      </trkpt>
      <trkpt lat="45.84462" lon="4.81417">
        <ele>358</ele>
        <time>2013-01-27T08:51:58Z</time>
      </trkpt>
      <trkpt lat="45.84465" lon="4.81416">
        <ele>372</ele>
        <time>2013-01-27T08:52:00Z</time>
      </trkpt>
      <trkpt lat="45.84467" lon="4.81414">
        <ele>372</ele>
        <time>2013-01-27T08:52:02Z</time>
      </trkpt>
      <trkpt lat="45.84471" lon="4.81413">
        <ele>371</ele>
        <time>2013-01-27T08:52:06Z</time>
      </trkpt>
      <trkpt lat="45.84472" lon="4.81413">
        <ele>370</ele>
        <time>2013-01-27T08:52:07Z</time>
      </trkpt>
      <trkpt lat="45.84476" lon="4.81415">
        <ele>369</ele>
        <time>2013-01-27T08:52:10Z</time>
      </trkpt>
      <trkpt lat="45.84478" lon="4.81415">
        <ele>368</ele>
        <time>2013-01-27T08:52:13Z</time>
      </trkpt>
      <trkpt lat="45.84478" lon="4.81416">
        <ele>368</ele>
        <time>2013-01-27T08:52:17Z</time>
      </trkpt>
      <trkpt lat="45.84474" lon="4.81427">
        <ele>356</ele>
        <time>2013-01-27T08:52:33Z</time>
      </trkpt>
      <trkpt lat="45.84477" lon="4.81425">
        <ele>356</ele>
        <time>2013-01-27T08:53:17Z</time>
      </trkpt>
      <trkpt lat="45.84478" lon="4.81424">
        <ele>356</ele>
        <time>2013-01-27T08:53:18Z</time>
      </trkpt>
      <trkpt lat="45.84485" lon="4.81421">
        <ele>355</ele>
        <time>2013-01-27T08:53:22Z</time>
      </trkpt>
      <trkpt lat="45.84492" lon="4.81418">
        <ele>355</ele>
        <time>2013-01-27T08:53:27Z</time>
      </trkpt>
      <trkpt lat="45.84499" lon="4.81414">
        <ele>358</ele>
        <time>2013-01-27T08:53:32Z</time>
      </trkpt>
      <trkpt lat="45.845" lon="4.81413">
        <ele>357</ele>
        <time>2013-01-27T08:53:33Z</time>
      </trkpt>
      <trkpt lat="45.84502" lon="4.81411">
        <ele>359</ele>
        <time>2013-01-27T08:53:35Z</time>
      </trkpt>
      <trkpt lat="45.84504" lon="4.81409">
        <ele>360</ele>
        <time>2013-01-27T08:53:37Z</time>
      </trkpt>
      <trkpt lat="45.84504" lon="4.81409">
        <ele>360</ele>
        <time>2013-01-27T08:53:38Z</time>
      </trkpt>
      <trkpt lat="45.84509" lon="4.81408">
        <ele>362</ele>
        <time>2013-01-27T08:53:45Z</time>
      </trkpt>
      <trkpt lat="45.84512" lon="4.81408">
        <ele>362</ele>
        <time>2013-01-27T08:53:48Z</time>
      </trkpt>
      <trkpt lat="45.84515" lon="4.81407">
        <ele>364</ele>
        <time>2013-01-27T08:53:53Z</time>
      </trkpt>
      <trkpt lat="45.8452" lon="4.81406">
        <ele>365</ele>
        <time>2013-01-27T08:54:00Z</time>
      </trkpt>
      <trkpt lat="45.84521" lon="4.81406">
        <ele>365</ele>
        <time>2013-01-27T08:54:01Z</time>
      </trkpt>
      <trkpt lat="45.84522" lon="4.81407">
        <ele>365</ele>
        <time>2013-01-27T08:54:03Z</time>
      </trkpt>
      <trkpt lat="45.84525" lon="4.81413">
        <ele>365</ele>
        <time>2013-01-27T08:54:14Z</time>
      </trkpt>
      <trkpt lat="45.84527" lon="4.81411">
        <ele>365</ele>
        <time>2013-01-27T08:54:17Z</time>
      </trkpt>
      <trkpt lat="45.84528" lon="4.8141">
        <ele>365</ele>
        <time>2013-01-27T08:54:19Z</time>
      </trkpt>
      <trkpt lat="45.84526" lon="4.81413">
        <ele>365</ele>
        <time>2013-01-27T08:54:24Z</time>
      </trkpt>
      <trkpt lat="45.84525" lon="4.81413">
        <ele>365</ele>
        <time>2013-01-27T08:54:28Z</time>
      </trkpt>
      <trkpt lat="45.84522" lon="4.81417">
        <ele>350</ele>
        <time>2013-01-27T08:54:44Z</time>
      </trkpt>
      <trkpt lat="45.84523" lon="4.81414">
        <ele>364</ele>
        <time>2013-01-27T08:54:49Z</time>
      </trkpt>
      <trkpt lat="45.84525" lon="4.81417">
        <ele>364</ele>
        <time>2013-01-27T08:54:55Z</time>
      </trkpt>
      <trkpt lat="45.84526" lon="4.81417">
        <ele>350</ele>
        <time>2013-01-27T08:54:56Z</time>
      </trkpt>
      <trkpt lat="45.84529" lon="4.81418">
        <ele>349</ele>
        <time>2013-01-27T08:55:00Z</time>
      </trkpt>
      <trkpt lat="45.8453" lon="4.81418">
        <ele>349</ele>
        <time>2013-01-27T08:55:01Z</time>
      </trkpt>
      <trkpt lat="45.84536" lon="4.81419">
        <ele>349</ele>
        <time>2013-01-27T08:55:06Z</time>
      </trkpt>
      <trkpt lat="45.84542" lon="4.81417">
        <ele>349</ele>
        <time>2013-01-27T08:55:09Z</time>
      </trkpt>
      <trkpt lat="45.84543" lon="4.81418">
        <ele>349</ele>
        <time>2013-01-27T08:55:10Z</time>
      </trkpt>
      <trkpt lat="45.84546" lon="4.81417">
        <ele>349</ele>
        <time>2013-01-27T08:55:13Z</time>
      </trkpt>
      <trkpt lat="45.84552" lon="4.81417">
        <ele>365</ele>
        <time>2013-01-27T08:55:17Z</time>
      </trkpt>
      <trkpt lat="45.84559" lon="4.81411">
        <ele>365</ele>
        <time>2013-01-27T08:55:20Z</time>
      </trkpt>
      <trkpt lat="45.84561" lon="4.81409">
        <ele>365</ele>
        <time>2013-01-27T08:55:21Z</time>
      </trkpt>
      <trkpt lat="45.84564" lon="4.81408">
        <ele>365</ele>
        <time>2013-01-27T08:55:24Z</time>
      </trkpt>
      <trkpt lat="45.84565" lon="4.81407">
        <ele>365</ele>
        <time>2013-01-27T08:55:25Z</time>
      </trkpt>
      <trkpt lat="45.84569" lon="4.81403">
        <ele>365</ele>
        <time>2013-01-27T08:55:29Z</time>
      </trkpt>
      <trkpt lat="45.84569" lon="4.81401">
        <ele>365</ele>
        <time>2013-01-27T08:55:30Z</time>
      </trkpt>
      <trkpt lat="45.84571" lon="4.81399">
        <ele>366</ele>
        <time>2013-01-27T08:55:33Z</time>
      </trkpt>
      <trkpt lat="45.84572" lon="4.81399">
        <ele>366</ele>
        <time>2013-01-27T08:55:35Z</time>
      </trkpt>
      <trkpt lat="45.84575" lon="4.81402">
        <ele>364</ele>
        <time>2013-01-27T08:55:38Z</time>
      </trkpt>
      <trkpt lat="45.84576" lon="4.81404">
        <ele>364</ele>
        <time>2013-01-27T08:55:39Z</time>
      </trkpt>
      <trkpt lat="45.84581" lon="4.81407">
        <ele>362</ele>
        <time>2013-01-27T08:55:44Z</time>
      </trkpt>
      <trkpt lat="45.84582" lon="4.81406">
        <ele>362</ele>
        <time>2013-01-27T08:55:45Z</time>
      </trkpt>
      <trkpt lat="45.84584" lon="4.81408">
        <ele>362</ele>
        <time>2013-01-27T08:55:49Z</time>
      </trkpt>
      <trkpt lat="45.84587" lon="4.81405">
        <ele>364</ele>
        <time>2013-01-27T08:55:52Z</time>
      </trkpt>
      <trkpt lat="45.8459" lon="4.81405">
        <ele>365</ele>
        <time>2013-01-27T08:55:54Z</time>
      </trkpt>
      <trkpt lat="45.84593" lon="4.81405">
        <ele>365</ele>
        <time>2013-01-27T08:55:56Z</time>
      </trkpt>
      <trkpt lat="45.84597" lon="4.81407">
        <ele>366</ele>
        <time>2013-01-27T08:55:59Z</time>
      </trkpt>
      <trkpt lat="45.84598" lon="4.81408">
        <ele>366</ele>
        <time>2013-01-27T08:56:00Z</time>
      </trkpt>
      <trkpt lat="45.84603" lon="4.81409">
        <ele>367</ele>
        <time>2013-01-27T08:56:06Z</time>
      </trkpt>
      <trkpt lat="45.84609" lon="4.81416">
        <ele>368</ele>
        <time>2013-01-27T08:56:17Z</time>
      </trkpt>
      <trkpt lat="45.84611" lon="4.8142">
        <ele>359</ele>
        <time>2013-01-27T08:56:21Z</time>
      </trkpt>
      <trkpt lat="45.84613" lon="4.81422">
        <ele>359</ele>
        <time>2013-01-27T08:56:24Z</time>
      </trkpt>
      <trkpt lat="45.84614" lon="4.81424">
        <ele>359</ele>
        <time>2013-01-27T08:56:25Z</time>
      </trkpt>
      <trkpt lat="45.84614" lon="4.81426">
        <ele>359</ele>
        <time>2013-01-27T08:56:26Z</time>
      </trkpt>
      <trkpt lat="45.84616" lon="4.81431">
        <ele>359</ele>
        <time>2013-01-27T08:56:30Z</time>
      </trkpt>
      <trkpt lat="45.84617" lon="4.81431">
        <ele>359</ele>
        <time>2013-01-27T08:56:31Z</time>
      </trkpt>
      <trkpt lat="45.84621" lon="4.81435">
        <ele>360</ele>
        <time>2013-01-27T08:56:35Z</time>
      </trkpt>
      <trkpt lat="45.84621" lon="4.81436">
        <ele>360</ele>
        <time>2013-01-27T08:56:36Z</time>
      </trkpt>
      <trkpt lat="45.84622" lon="4.81443">
        <ele>360</ele>
        <time>2013-01-27T08:56:41Z</time>
      </trkpt>
      <trkpt lat="45.84622" lon="4.81444">
        <ele>360</ele>
        <time>2013-01-27T08:56:43Z</time>
      </trkpt>
      <trkpt lat="45.84624" lon="4.81442">
        <ele>360</ele>
        <time>2013-01-27T08:56:49Z</time>
      </trkpt>
      <trkpt lat="45.84628" lon="4.81439">
        <ele>361</ele>
        <time>2013-01-27T08:56:55Z</time>
      </trkpt>
      <trkpt lat="45.84631" lon="4.81438">
        <ele>361</ele>
        <time>2013-01-27T08:56:58Z</time>
      </trkpt>
      <trkpt lat="45.84633" lon="4.81436">
        <ele>361</ele>
        <time>2013-01-27T08:57:00Z</time>
      </trkpt>
      <trkpt lat="45.84634" lon="4.81435">
        <ele>361</ele>
        <time>2013-01-27T08:57:01Z</time>
      </trkpt>
      <trkpt lat="45.84638" lon="4.81432">
        <ele>362</ele>
        <time>2013-01-27T08:57:06Z</time>
      </trkpt>
      <trkpt lat="45.84641" lon="4.81431">
        <ele>363</ele>
        <time>2013-01-27T08:57:08Z</time>
      </trkpt>
      <trkpt lat="45.84642" lon="4.8143">
        <ele>363</ele>
        <time>2013-01-27T08:57:11Z</time>
      </trkpt>
      <trkpt lat="45.84639" lon="4.81443">
        <ele>362</ele>
        <time>2013-01-27T08:57:25Z</time>
      </trkpt>
      <trkpt lat="45.84642" lon="4.81446">
        <ele>362</ele>
        <time>2013-01-27T08:57:28Z</time>
      </trkpt>
      <trkpt lat="45.84643" lon="4.8145">
        <ele>362</ele>
        <time>2013-01-27T08:57:30Z</time>
      </trkpt>
      <trkpt lat="45.84645" lon="4.81452">
        <ele>362</ele>
        <time>2013-01-27T08:57:31Z</time>
      </trkpt>
      <trkpt lat="45.84652" lon="4.81449">
        <ele>363</ele>
        <time>2013-01-27T08:57:34Z</time>
      </trkpt>
      <trkpt lat="45.84653" lon="4.81443">
        <ele>363</ele>
        <time>2013-01-27T08:57:35Z</time>
      </trkpt>
      <trkpt lat="45.84652" lon="4.81437">
        <ele>364</ele>
        <time>2013-01-27T08:57:36Z</time>
      </trkpt>
      <trkpt lat="45.84652" lon="4.81435">
        <ele>364</ele>
        <time>2013-01-27T08:57:37Z</time>
      </trkpt>
      <trkpt lat="45.84656" lon="4.81426">
        <ele>365</ele>
        <time>2013-01-27T08:57:41Z</time>
      </trkpt>
      <trkpt lat="45.84657" lon="4.81427">
        <ele>365</ele>
        <time>2013-01-27T08:57:42Z</time>
      </trkpt>
      <trkpt lat="45.84659" lon="4.81428">
        <ele>365</ele>
        <time>2013-01-27T08:57:44Z</time>
      </trkpt>
      <trkpt lat="45.84667" lon="4.81397">
        <ele>378</ele>
        <time>2013-01-27T08:57:55Z</time>
      </trkpt>
      <trkpt lat="45.84668" lon="4.81396">
        <ele>378</ele>
        <time>2013-01-27T08:57:56Z</time>
      </trkpt>
      <trkpt lat="45.84669" lon="4.81395">
        <ele>379</ele>
        <time>2013-01-27T08:57:57Z</time>
      </trkpt>
      <trkpt lat="45.84673" lon="4.8139">
        <ele>380</ele>
        <time>2013-01-27T08:58:03Z</time>
      </trkpt>
      <trkpt lat="45.84672" lon="4.81389">
        <ele>380</ele>
        <time>2013-01-27T08:58:04Z</time>
      </trkpt>
      <trkpt lat="45.84673" lon="4.81388">
        <ele>381</ele>
        <time>2013-01-27T08:58:05Z</time>
      </trkpt>
      <trkpt lat="45.84677" lon="4.81388">
        <ele>381</ele>
        <time>2013-01-27T08:58:09Z</time>
      </trkpt>
      <trkpt lat="45.84681" lon="4.81387">
        <ele>381</ele>
        <time>2013-01-27T08:58:15Z</time>
      </trkpt>
      <trkpt lat="45.84682" lon="4.81388">
        <ele>381</ele>
        <time>2013-01-27T08:58:16Z</time>
      </trkpt>
      <trkpt lat="45.84684" lon="4.81388">
        <ele>382</ele>
        <time>2013-01-27T08:58:24Z</time>
      </trkpt>
      <trkpt lat="45.84683" lon="4.81387">
        <ele>382</ele>
        <time>2013-01-27T08:58:25Z</time>
      </trkpt>
      <trkpt lat="45.84683" lon="4.81387">
        <ele>382</ele>
        <time>2013-01-27T08:58:29Z</time>
      </trkpt>
      <trkpt lat="45.84686" lon="4.81387">
        <ele>382</ele>
        <time>2013-01-27T08:58:45Z</time>
      </trkpt>
      <trkpt lat="45.84689" lon="4.81385">
        <ele>383</ele>
        <time>2013-01-27T08:58:56Z</time>
      </trkpt>
      <trkpt lat="45.8469" lon="4.81385">
        <ele>383</ele>
        <time>2013-01-27T08:59:01Z</time>
      </trkpt>
      <trkpt lat="45.84692" lon="4.81388">
        <ele>383</ele>
        <time>2013-01-27T08:59:06Z</time>
      </trkpt>
      <trkpt lat="45.84698" lon="4.81388">
        <ele>384</ele>
        <time>2013-01-27T08:59:15Z</time>
      </trkpt>
      <trkpt lat="45.84698" lon="4.81388">
        <ele>384</ele>
        <time>2013-01-27T08:59:16Z</time>
      </trkpt>
      <trkpt lat="45.84699" lon="4.81383">
        <ele>384</ele>
        <time>2013-01-27T08:59:21Z</time>
      </trkpt>
      <trkpt lat="45.847" lon="4.81382">
        <ele>384</ele>
        <time>2013-01-27T08:59:26Z</time>
      </trkpt>
      <trkpt lat="45.84702" lon="4.81382">
        <ele>385</ele>
        <time>2013-01-27T08:59:27Z</time>
      </trkpt>
      <trkpt lat="45.84704" lon="4.81382">
        <ele>385</ele>
        <time>2013-01-27T08:59:30Z</time>
      </trkpt>
      <trkpt lat="45.84706" lon="4.81381">
        <ele>385</ele>
        <time>2013-01-27T08:59:32Z</time>
      </trkpt>
      <trkpt lat="45.84706" lon="4.81382">
        <ele>385</ele>
        <time>2013-01-27T08:59:33Z</time>
      </trkpt>
      <trkpt lat="45.84709" lon="4.81383">
        <ele>386</ele>
        <time>2013-01-27T08:59:37Z</time>
      </trkpt>
      <trkpt lat="45.84711" lon="4.81385">
        <ele>386</ele>
        <time>2013-01-27T08:59:38Z</time>
      </trkpt>
      <trkpt lat="45.84712" lon="4.81386">
        <ele>386</ele>
        <time>2013-01-27T08:59:40Z</time>
      </trkpt>
      <trkpt lat="45.84715" lon="4.81387">
        <ele>386</ele>
        <time>2013-01-27T08:59:42Z</time>
      </trkpt>
      <trkpt lat="45.84715" lon="4.81385">
        <ele>386</ele>
        <time>2013-01-27T08:59:43Z</time>
      </trkpt>
      <trkpt lat="45.84718" lon="4.81383">
        <ele>387</ele>
        <time>2013-01-27T08:59:51Z</time>
      </trkpt>
      <trkpt lat="45.84719" lon="4.8138">
        <ele>387</ele>
        <time>2013-01-27T08:59:54Z</time>
      </trkpt>
      <trkpt lat="45.84724" lon="4.8138">
        <ele>387</ele>
        <time>2013-01-27T08:59:57Z</time>
      </trkpt>
      <trkpt lat="45.84726" lon="4.81381">
        <ele>388</ele>
        <time>2013-01-27T08:59:58Z</time>
      </trkpt>
      <trkpt lat="45.84727" lon="4.81379">
        <ele>388</ele>
        <time>2013-01-27T08:59:59Z</time>
      </trkpt>
      <trkpt lat="45.84731" lon="4.81374">
        <ele>388</ele>
        <time>2013-01-27T09:00:03Z</time>
      </trkpt>
      <trkpt lat="45.84733" lon="4.81372">
        <ele>388</ele>
        <time>2013-01-27T09:00:07Z</time>
      </trkpt>
      <trkpt lat="45.84734" lon="4.81373">
        <ele>388</ele>
        <time>2013-01-27T09:00:08Z</time>
      </trkpt>
      <trkpt lat="45.84734" lon="4.8137">
        <ele>388</ele>
        <time>2013-01-27T09:00:12Z</time>
      </trkpt>
      <trkpt lat="45.84736" lon="4.81369">
        <ele>389</ele>
        <time>2013-01-27T09:00:15Z</time>
      </trkpt>
      <trkpt lat="45.8474" lon="4.81369">
        <ele>389</ele>
        <time>2013-01-27T09:00:19Z</time>
      </trkpt>
      <trkpt lat="45.8474" lon="4.81367">
        <ele>389</ele>
        <time>2013-01-27T09:00:21Z</time>
      </trkpt>
      <trkpt lat="45.84742" lon="4.81367">
        <ele>389</ele>
        <time>2013-01-27T09:00:23Z</time>
      </trkpt>
      <trkpt lat="45.84744" lon="4.81365">
        <ele>389</ele>
        <time>2013-01-27T09:00:25Z</time>
      </trkpt>
      <trkpt lat="45.84744" lon="4.81364">
        <ele>389</ele>
        <time>2013-01-27T09:00:26Z</time>
      </trkpt>
      <trkpt lat="45.84745" lon="4.81363">
        <ele>390</ele>
        <time>2013-01-27T09:00:27Z</time>
      </trkpt>
      <trkpt lat="45.84747" lon="4.8136">
        <ele>390</ele>
        <time>2013-01-27T09:00:32Z</time>
      </trkpt>
      <trkpt lat="45.8475" lon="4.81358">
        <ele>390</ele>
        <time>2013-01-27T09:00:38Z</time>
      </trkpt>
      <trkpt lat="45.84756" lon="4.81356">
        <ele>402</ele>
        <time>2013-01-27T09:00:45Z</time>
      </trkpt>
      <trkpt lat="45.84757" lon="4.81355">
        <ele>402</ele>
        <time>2013-01-27T09:00:48Z</time>
      </trkpt>
      <trkpt lat="45.84759" lon="4.81353">
        <ele>402</ele>
        <time>2013-01-27T09:00:51Z</time>
      </trkpt>
      <trkpt lat="45.84761" lon="4.81353">
        <ele>402</ele>
        <time>2013-01-27T09:00:52Z</time>
      </trkpt>
      <trkpt lat="45.84765" lon="4.81354">
        <ele>403</ele>
        <time>2013-01-27T09:00:57Z</time>
      </trkpt>
      <trkpt lat="45.84771" lon="4.81352">
        <ele>404</ele>
        <time>2013-01-27T09:01:05Z</time>
      </trkpt>
      <trkpt lat="45.84772" lon="4.81351">
        <ele>404</ele>
        <time>2013-01-27T09:01:06Z</time>
      </trkpt>
      <trkpt lat="45.84774" lon="4.81348">
        <ele>404</ele>
        <time>2013-01-27T09:01:09Z</time>
      </trkpt>
      <trkpt lat="45.84774" lon="4.81343">
        <ele>404</ele>
        <time>2013-01-27T09:01:12Z</time>
      </trkpt>
      <trkpt lat="45.84775" lon="4.81339">
        <ele>404</ele>
        <time>2013-01-27T09:01:15Z</time>
      </trkpt>
      <trkpt lat="45.84776" lon="4.81338">
        <ele>404</ele>
        <time>2013-01-27T09:01:16Z</time>
      </trkpt>
      <trkpt lat="45.84778" lon="4.81336">
        <ele>405</ele>
        <time>2013-01-27T09:01:18Z</time>
      </trkpt>
      <trkpt lat="45.84781" lon="4.8133">
        <ele>410</ele>
        <time>2013-01-27T09:01:24Z</time>
      </trkpt>
      <trkpt lat="45.84783" lon="4.81323">
        <ele>411</ele>
        <time>2013-01-27T09:01:30Z</time>
      </trkpt>
      <trkpt lat="45.84784" lon="4.81319">
        <ele>412</ele>
        <time>2013-01-27T09:01:33Z</time>
      </trkpt>
      <trkpt lat="45.84785" lon="4.81316">
        <ele>412</ele>
        <time>2013-01-27T09:01:36Z</time>
      </trkpt>
      <trkpt lat="45.84784" lon="4.81315">
        <ele>412</ele>
        <time>2013-01-27T09:01:37Z</time>
      </trkpt>
      <trkpt lat="45.84783" lon="4.81306">
        <ele>413</ele>
        <time>2013-01-27T09:01:59Z</time>
      </trkpt>
      <trkpt lat="45.84787" lon="4.81301">
        <ele>414</ele>
        <time>2013-01-27T09:02:05Z</time>
      </trkpt>
      <trkpt lat="45.84788" lon="4.81302">
        <ele>414</ele>
        <time>2013-01-27T09:02:06Z</time>
      </trkpt>
      <trkpt lat="45.84789" lon="4.81303">
        <ele>414</ele>
        <time>2013-01-27T09:02:07Z</time>
      </trkpt>
      <trkpt lat="45.84791" lon="4.81304">
        <ele>414</ele>
        <time>2013-01-27T09:02:11Z</time>
      </trkpt>
      <trkpt lat="45.84793" lon="4.81304">
        <ele>415</ele>
        <time>2013-01-27T09:02:18Z</time>
      </trkpt>
      <trkpt lat="45.84796" lon="4.81305">
        <ele>415</ele>
        <time>2013-01-27T09:02:32Z</time>
      </trkpt>
      <trkpt lat="45.84797" lon="4.81307">
        <ele>415</ele>
        <time>2013-01-27T09:02:33Z</time>
      </trkpt>
      <trkpt lat="45.848" lon="4.81311">
        <ele>415</ele>
        <time>2013-01-27T09:02:37Z</time>
      </trkpt>
      <trkpt lat="45.84802" lon="4.81316">
        <ele>415</ele>
        <time>2013-01-27T09:02:41Z</time>
      </trkpt>
      <trkpt lat="45.84802" lon="4.81317">
        <ele>415</ele>
        <time>2013-01-27T09:02:42Z</time>
      </trkpt>
      <trkpt lat="45.84803" lon="4.81319">
        <ele>415</ele>
        <time>2013-01-27T09:02:45Z</time>
      </trkpt>
      <trkpt lat="45.84806" lon="4.81323">
        <ele>416</ele>
        <time>2013-01-27T09:02:51Z</time>
      </trkpt>
      <trkpt lat="45.84806" lon="4.81325">
        <ele>416</ele>
        <time>2013-01-27T09:02:52Z</time>
      </trkpt>
      <trkpt lat="45.84806" lon="4.81326">
        <ele>416</ele>
        <time>2013-01-27T09:02:53Z</time>
      </trkpt>
      <trkpt lat="45.84807" lon="4.81328">
        <ele>416</ele>
        <time>2013-01-27T09:02:55Z</time>
      </trkpt>
      <trkpt lat="45.84808" lon="4.81331">
        <ele>416</ele>
        <time>2013-01-27T09:02:57Z</time>
      </trkpt>
      <trkpt lat="45.84811" lon="4.81334">
        <ele>413</ele>
        <time>2013-01-27T09:03:01Z</time>
      </trkpt>
      <trkpt lat="45.84813" lon="4.81337">
        <ele>413</ele>
        <time>2013-01-27T09:03:04Z</time>
      </trkpt>
      <trkpt lat="45.84814" lon="4.81338">
        <ele>414</ele>
        <time>2013-01-27T09:03:07Z</time>
      </trkpt>
      <trkpt lat="45.84816" lon="4.81341">
        <ele>414</ele>
        <time>2013-01-27T09:03:13Z</time>
      </trkpt>
      <trkpt lat="45.84817" lon="4.81342">
        <ele>414</ele>
        <time>2013-01-27T09:03:14Z</time>
      </trkpt>
      <trkpt lat="45.84819" lon="4.81345">
        <ele>414</ele>
        <time>2013-01-27T09:03:17Z</time>
      </trkpt>
      <trkpt lat="45.84821" lon="4.81347">
        <ele>415</ele>
        <time>2013-01-27T09:03:19Z</time>
      </trkpt>
      <trkpt lat="45.84822" lon="4.81348">
        <ele>415</ele>
        <time>2013-01-27T09:03:21Z</time>
      </trkpt>
      <trkpt lat="45.84823" lon="4.81349">
        <ele>414</ele>
        <time>2013-01-27T09:03:22Z</time>
      </trkpt>
      <trkpt lat="45.84827" lon="4.81356">
        <ele>414</ele>
        <time>2013-01-27T09:03:29Z</time>
      </trkpt>
      <trkpt lat="45.84828" lon="4.81356">
        <ele>414</ele>
        <time>2013-01-27T09:03:30Z</time>
      </trkpt>
      <trkpt lat="45.8483" lon="4.81359">
        <ele>414</ele>
        <time>2013-01-27T09:03:34Z</time>
      </trkpt>
      <trkpt lat="45.84831" lon="4.81362">
        <ele>413</ele>
        <time>2013-01-27T09:03:37Z</time>
      </trkpt>
      <trkpt lat="45.84832" lon="4.81366">
        <ele>413</ele>
        <time>2013-01-27T09:03:40Z</time>
      </trkpt>
      <trkpt lat="45.84833" lon="4.81367">
        <ele>413</ele>
        <time>2013-01-27T09:03:41Z</time>
      </trkpt>
      <trkpt lat="45.84835" lon="4.81374">
        <ele>425</ele>
        <time>2013-01-27T09:03:46Z</time>
      </trkpt>
      <trkpt lat="45.84836" lon="4.81375">
        <ele>425</ele>
        <time>2013-01-27T09:03:47Z</time>
      </trkpt>
      <trkpt lat="45.8484" lon="4.81382">
        <ele>425</ele>
        <time>2013-01-27T09:03:53Z</time>
      </trkpt>
      <trkpt lat="45.84841" lon="4.81383">
        <ele>425</ele>
        <time>2013-01-27T09:03:54Z</time>
      </trkpt>
      <trkpt lat="45.84841" lon="4.81389">
        <ele>425</ele>
        <time>2013-01-27T09:03:58Z</time>
      </trkpt>
      <trkpt lat="45.84842" lon="4.81399">
        <ele>424</ele>
        <time>2013-01-27T09:04:07Z</time>
      </trkpt>
      <trkpt lat="45.84845" lon="4.81409">
        <ele>423</ele>
        <time>2013-01-27T09:04:14Z</time>
      </trkpt>
      <trkpt lat="45.84846" lon="4.81411">
        <ele>423</ele>
        <time>2013-01-27T09:04:16Z</time>
      </trkpt>
      <trkpt lat="45.84847" lon="4.8141">
        <ele>423</ele>
        <time>2013-01-27T09:04:36Z</time>
      </trkpt>
      <trkpt lat="45.84846" lon="4.81414">
        <ele>422</ele>
        <time>2013-01-27T09:05:57Z</time>
      </trkpt>
      <trkpt lat="45.84843" lon="4.81417">
        <ele>420</ele>
        <time>2013-01-27T09:06:01Z</time>
      </trkpt>
      <trkpt lat="45.84842" lon="4.8142">
        <ele>420</ele>
        <time>2013-01-27T09:06:02Z</time>
      </trkpt>
      <trkpt lat="45.84841" lon="4.81422">
        <ele>420</ele>
        <time>2013-01-27T09:06:03Z</time>
      </trkpt>
      <trkpt lat="45.84834" lon="4.81432">
        <ele>421</ele>
        <time>2013-01-27T09:06:07Z</time>
      </trkpt>
      <trkpt lat="45.84832" lon="4.81433">
        <ele>415</ele>
        <time>2013-01-27T09:06:11Z</time>
      </trkpt>
      <trkpt lat="45.84829" lon="4.81441">
        <ele>413</ele>
        <time>2013-01-27T09:06:15Z</time>
      </trkpt>
      <trkpt lat="45.84826" lon="4.81459">
        <ele>413</ele>
        <time>2013-01-27T09:06:19Z</time>
      </trkpt>
      <trkpt lat="45.84828" lon="4.81466">
        <ele>413</ele>
        <time>2013-01-27T09:06:21Z</time>
      </trkpt>
      <trkpt lat="45.84829" lon="4.81468">
        <ele>413</ele>
        <time>2013-01-27T09:06:22Z</time>
      </trkpt>
      <trkpt lat="45.84831" lon="4.8147">
        <ele>413</ele>
        <time>2013-01-27T09:06:23Z</time>
      </trkpt>
      <trkpt lat="45.84834" lon="4.81476">
        <ele>420</ele>
        <time>2013-01-27T09:06:26Z</time>
      </trkpt>
      <trkpt lat="45.84833" lon="4.81481">
        <ele>414</ele>
        <time>2013-01-27T09:06:28Z</time>
      </trkpt>
      <trkpt lat="45.84828" lon="4.81489">
        <ele>415</ele>
        <time>2013-01-27T09:06:31Z</time>
      </trkpt>
      <trkpt lat="45.84822" lon="4.81491">
        <ele>414</ele>
        <time>2013-01-27T09:06:33Z</time>
      </trkpt>
      <trkpt lat="45.84815" lon="4.81483">
        <ele>413</ele>
        <time>2013-01-27T09:06:37Z</time>
      </trkpt>
      <trkpt lat="45.84811" lon="4.81479">
        <ele>412</ele>
        <time>2013-01-27T09:06:39Z</time>
      </trkpt>
      <trkpt lat="45.84808" lon="4.81476">
        <ele>412</ele>
        <time>2013-01-27T09:06:41Z</time>
      </trkpt>
      <trkpt lat="45.84804" lon="4.81477">
        <ele>411</ele>
        <time>2013-01-27T09:06:43Z</time>
      </trkpt>
      <trkpt lat="45.84794" lon="4.8148">
        <ele>410</ele>
        <time>2013-01-27T09:06:47Z</time>
      </trkpt>
      <trkpt lat="45.84789" lon="4.8148">
        <ele>410</ele>
        <time>2013-01-27T09:06:48Z</time>
      </trkpt>
      <trkpt lat="45.84789" lon="4.8148">
        <ele>410</ele>
        <time>2013-01-27T09:06:49Z</time>
      </trkpt>
      <trkpt lat="45.84779" lon="4.81482">
        <ele>409</ele>
        <time>2013-01-27T09:06:55Z</time>
      </trkpt>
      <trkpt lat="45.84775" lon="4.81485">
        <ele>409</ele>
        <time>2013-01-27T09:06:58Z</time>
      </trkpt>
      <trkpt lat="45.84772" lon="4.81487">
        <ele>408</ele>
        <time>2013-01-27T09:07:00Z</time>
      </trkpt>
      <trkpt lat="45.84763" lon="4.81498">
        <ele>407</ele>
        <time>2013-01-27T09:07:05Z</time>
      </trkpt>
      <trkpt lat="45.84762" lon="4.81501">
        <ele>408</ele>
        <time>2013-01-27T09:07:06Z</time>
      </trkpt>
      <trkpt lat="45.84755" lon="4.81513">
        <ele>408</ele>
        <time>2013-01-27T09:07:10Z</time>
      </trkpt>
      <trkpt lat="45.8475" lon="4.81524">
        <ele>409</ele>
        <time>2013-01-27T09:07:13Z</time>
      </trkpt>
      <trkpt lat="45.84747" lon="4.81529">
        <ele>399</ele>
        <time>2013-01-27T09:07:15Z</time>
      </trkpt>
      <trkpt lat="45.84739" lon="4.81547">
        <ele>398</ele>
        <time>2013-01-27T09:07:20Z</time>
      </trkpt>
      <trkpt lat="45.84733" lon="4.81563">
        <ele>399</ele>
        <time>2013-01-27T09:07:25Z</time>
      </trkpt>
      <trkpt lat="45.84734" lon="4.81573">
        <ele>400</ele>
        <time>2013-01-27T09:07:28Z</time>
      </trkpt>
      <trkpt lat="45.84734" lon="4.81573">
        <ele>400</ele>
        <time>2013-01-27T09:07:29Z</time>
      </trkpt>
      <trkpt lat="45.84743" lon="4.81579">
        <ele>404</ele>
        <time>2013-01-27T09:07:34Z</time>
      </trkpt>
      <trkpt lat="45.84748" lon="4.81585">
        <ele>407</ele>
        <time>2013-01-27T09:07:37Z</time>
      </trkpt>
      <trkpt lat="45.84753" lon="4.81591">
        <ele>408</ele>
        <time>2013-01-27T09:07:40Z</time>
      </trkpt>
      <trkpt lat="45.84763" lon="4.81599">
        <ele>407</ele>
        <time>2013-01-27T09:07:45Z</time>
      </trkpt>
      <trkpt lat="45.84772" lon="4.81606">
        <ele>406</ele>
        <time>2013-01-27T09:07:49Z</time>
      </trkpt>
      <trkpt lat="45.84778" lon="4.81614">
        <ele>406</ele>
        <time>2013-01-27T09:07:53Z</time>
      </trkpt>
      <trkpt lat="45.84782" lon="4.81616">
        <ele>406</ele>
        <time>2013-01-27T09:07:55Z</time>
      </trkpt>
      <trkpt lat="45.8479" lon="4.81616">
        <ele>406</ele>
        <time>2013-01-27T09:07:58Z</time>
      </trkpt>
      <trkpt lat="45.84796" lon="4.81616">
        <ele>406</ele>
        <time>2013-01-27T09:08:00Z</time>
      </trkpt>
      <trkpt lat="45.84798" lon="4.81617">
        <ele>406</ele>
        <time>2013-01-27T09:08:01Z</time>
      </trkpt>
      <trkpt lat="45.84805" lon="4.81622">
        <ele>405</ele>
        <time>2013-01-27T09:08:04Z</time>
      </trkpt>
      <trkpt lat="45.84806" lon="4.81625">
        <ele>405</ele>
        <time>2013-01-27T09:08:05Z</time>
      </trkpt>
      <trkpt lat="45.84811" lon="4.81636">
        <ele>404</ele>
        <time>2013-01-27T09:08:08Z</time>
      </trkpt>
      <trkpt lat="45.84811" lon="4.81636">
        <ele>404</ele>
        <time>2013-01-27T09:08:09Z</time>
      </trkpt>
      <trkpt lat="45.84813" lon="4.81637">
        <ele>404</ele>
        <time>2013-01-27T09:08:10Z</time>
      </trkpt>
      <trkpt lat="45.84823" lon="4.81632">
        <ele>404</ele>
        <time>2013-01-27T09:08:14Z</time>
      </trkpt>
      <trkpt lat="45.84825" lon="4.81631">
        <ele>404</ele>
        <time>2013-01-27T09:08:15Z</time>
      </trkpt>
      <trkpt lat="45.84828" lon="4.81632">
        <ele>404</ele>
        <time>2013-01-27T09:08:16Z</time>
      </trkpt>
      <trkpt lat="45.84834" lon="4.81633">
        <ele>403</ele>
        <time>2013-01-27T09:08:18Z</time>
      </trkpt>
      <trkpt lat="45.84837" lon="4.81634">
        <ele>403</ele>
        <time>2013-01-27T09:08:19Z</time>
      </trkpt>
      <trkpt lat="45.84846" lon="4.81636">
        <ele>402</ele>
        <time>2013-01-27T09:08:22Z</time>
      </trkpt>
      <trkpt lat="45.84848" lon="4.81638">
        <ele>402</ele>
        <time>2013-01-27T09:08:23Z</time>
      </trkpt>
      <trkpt lat="45.84858" lon="4.81642">
        <ele>402</ele>
        <time>2013-01-27T09:08:27Z</time>
      </trkpt>
      <trkpt lat="45.84863" lon="4.81644">
        <ele>402</ele>
        <time>2013-01-27T09:08:28Z</time>
      </trkpt>
      <trkpt lat="45.84868" lon="4.81644">
        <ele>402</ele>
        <time>2013-01-27T09:08:31Z</time>
      </trkpt>
      <trkpt lat="45.84871" lon="4.81642">
        <ele>402</ele>
        <time>2013-01-27T09:08:32Z</time>
      </trkpt>
      <trkpt lat="45.84881" lon="4.81633">
        <ele>402</ele>
        <time>2013-01-27T09:08:37Z</time>
      </trkpt>
      <trkpt lat="45.84885" lon="4.81631">
        <ele>402</ele>
        <time>2013-01-27T09:08:39Z</time>
      </trkpt>
      <trkpt lat="45.84895" lon="4.81625">
        <ele>402</ele>
        <time>2013-01-27T09:08:43Z</time>
      </trkpt>
      <trkpt lat="45.84902" lon="4.81618">
        <ele>403</ele>
        <time>2013-01-27T09:08:47Z</time>
      </trkpt>
      <trkpt lat="45.84905" lon="4.81618">
        <ele>403</ele>
        <time>2013-01-27T09:08:48Z</time>
      </trkpt>
      <trkpt lat="45.84907" lon="4.81618">
        <ele>403</ele>
        <time>2013-01-27T09:08:51Z</time>
      </trkpt>
      <trkpt lat="45.84915" lon="4.81615">
        <ele>403</ele>
        <time>2013-01-27T09:08:55Z</time>
      </trkpt>
      <trkpt lat="45.84921" lon="4.81613">
        <ele>403</ele>
        <time>2013-01-27T09:08:58Z</time>
      </trkpt>
      <trkpt lat="45.84928" lon="4.81608">
        <ele>403</ele>
        <time>2013-01-27T09:09:01Z</time>
      </trkpt>
      <trkpt lat="45.84937" lon="4.81602">
        <ele>403</ele>
        <time>2013-01-27T09:09:07Z</time>
      </trkpt>
      <trkpt lat="45.8494" lon="4.81598">
        <ele>404</ele>
        <time>2013-01-27T09:09:08Z</time>
      </trkpt>
      <trkpt lat="45.84948" lon="4.81592">
        <ele>404</ele>
        <time>2013-01-27T09:09:12Z</time>
      </trkpt>
      <trkpt lat="45.84956" lon="4.81585">
        <ele>404</ele>
        <time>2013-01-27T09:09:18Z</time>
      </trkpt>
      <trkpt lat="45.84963" lon="4.8158">
        <ele>410</ele>
        <time>2013-01-27T09:09:21Z</time>
      </trkpt>
      <trkpt lat="45.84966" lon="4.8158">
        <ele>410</ele>
        <time>2013-01-27T09:09:22Z</time>
      </trkpt>
      <trkpt lat="45.84971" lon="4.8158">
        <ele>410</ele>
        <time>2013-01-27T09:09:25Z</time>
      </trkpt>
      <trkpt lat="45.84973" lon="4.81579">
        <ele>410</ele>
        <time>2013-01-27T09:09:27Z</time>
      </trkpt>
      <trkpt lat="45.84981" lon="4.81575">
        <ele>409</ele>
        <time>2013-01-27T09:09:58Z</time>
      </trkpt>
      <trkpt lat="45.84984" lon="4.81577">
        <ele>409</ele>
        <time>2013-01-27T09:10:04Z</time>
      </trkpt>
      <trkpt lat="45.84985" lon="4.81578">
        <ele>409</ele>
        <time>2013-01-27T09:10:05Z</time>
      </trkpt>
      <trkpt lat="45.84986" lon="4.81578">
        <ele>409</ele>
        <time>2013-01-27T09:10:07Z</time>
      </trkpt>
      <trkpt lat="45.84988" lon="4.81579">
        <ele>408</ele>
        <time>2013-01-27T09:10:09Z</time>
      </trkpt>
      <trkpt lat="45.84989" lon="4.81579">
        <ele>408</ele>
        <time>2013-01-27T09:10:10Z</time>
      </trkpt>
      <trkpt lat="45.84993" lon="4.81579">
        <ele>408</ele>
        <time>2013-01-27T09:10:14Z</time>
      </trkpt>
      <trkpt lat="45.84994" lon="4.81579">
        <ele>407</ele>
        <time>2013-01-27T09:10:16Z</time>
      </trkpt>
      <trkpt lat="45.84995" lon="4.81579">
        <ele>407</ele>
        <time>2013-01-27T09:10:17Z</time>
      </trkpt>
      <trkpt lat="45.84997" lon="4.8158">
        <ele>407</ele>
        <time>2013-01-27T09:10:20Z</time>
      </trkpt>
      <trkpt lat="45.85" lon="4.81579">
        <ele>408</ele>
        <time>2013-01-27T09:10:24Z</time>
      </trkpt>
      <trkpt lat="45.85004" lon="4.81581">
        <ele>409</ele>
        <time>2013-01-27T09:10:29Z</time>
      </trkpt>
      <trkpt lat="45.85006" lon="4.81581">
        <ele>410</ele>
        <time>2013-01-27T09:10:33Z</time>
      </trkpt>
      <trkpt lat="45.85009" lon="4.81581">
        <ele>411</ele>
        <time>2013-01-27T09:10:37Z</time>
      </trkpt>
      <trkpt lat="45.85015" lon="4.81588">
        <ele>412</ele>
        <time>2013-01-27T09:10:46Z</time>
      </trkpt>
      <trkpt lat="45.85015" lon="4.81596">
        <ele>413</ele>
        <time>2013-01-27T09:10:51Z</time>
      </trkpt>
      <trkpt lat="45.85015" lon="4.81598">
        <ele>413</ele>
        <time>2013-01-27T09:10:52Z</time>
      </trkpt>
      <trkpt lat="45.85016" lon="4.81612">
        <ele>415</ele>
        <time>2013-01-27T09:11:00Z</time>
      </trkpt>
      <trkpt lat="45.85017" lon="4.81623">
        <ele>415</ele>
        <time>2013-01-27T09:11:05Z</time>
      </trkpt>
      <trkpt lat="45.85017" lon="4.81625">
        <ele>415</ele>
        <time>2013-01-27T09:11:06Z</time>
      </trkpt>
      <trkpt lat="45.85014" lon="4.81635">
        <ele>414</ele>
        <time>2013-01-27T09:11:10Z</time>
      </trkpt>
      <trkpt lat="45.85012" lon="4.81646">
        <ele>412</ele>
        <time>2013-01-27T09:11:14Z</time>
      </trkpt>
      <trkpt lat="45.85012" lon="4.81648">
        <ele>412</ele>
        <time>2013-01-27T09:11:15Z</time>
      </trkpt>
      <trkpt lat="45.85011" lon="4.8165">
        <ele>411</ele>
        <time>2013-01-27T09:11:16Z</time>
      </trkpt>
      <trkpt lat="45.85008" lon="4.81657">
        <ele>409</ele>
        <time>2013-01-27T09:11:21Z</time>
      </trkpt>
      <trkpt lat="45.85004" lon="4.81662">
        <ele>406</ele>
        <time>2013-01-27T09:11:26Z</time>
      </trkpt>
      <trkpt lat="45.85004" lon="4.81665">
        <ele>404</ele>
        <time>2013-01-27T09:11:27Z</time>
      </trkpt>
      <trkpt lat="45.85003" lon="4.8167">
        <ele>404</ele>
        <time>2013-01-27T09:11:29Z</time>
      </trkpt>
      <trkpt lat="45.85004" lon="4.81676">
        <ele>406</ele>
        <time>2013-01-27T09:11:31Z</time>
      </trkpt>
      <trkpt lat="45.85004" lon="4.81679">
        <ele>407</ele>
        <time>2013-01-27T09:11:32Z</time>
      </trkpt>
      <trkpt lat="45.85004" lon="4.81687">
        <ele>409</ele>
        <time>2013-01-27T09:11:36Z</time>
      </trkpt>
      <trkpt lat="45.85007" lon="4.81694">
        <ele>410</ele>
        <time>2013-01-27T09:11:43Z</time>
      </trkpt>
      <trkpt lat="45.85006" lon="4.81696">
        <ele>410</ele>
        <time>2013-01-27T09:11:44Z</time>
      </trkpt>
      <trkpt lat="45.85004" lon="4.81705">
        <ele>411</ele>
        <time>2013-01-27T09:11:48Z</time>
      </trkpt>
      <trkpt lat="45.85004" lon="4.81706">
        <ele>411</ele>
        <time>2013-01-27T09:11:50Z</time>
      </trkpt>
      <trkpt lat="45.85004" lon="4.81715">
        <ele>411</ele>
        <time>2013-01-27T09:11:53Z</time>
      </trkpt>
      <trkpt lat="45.85006" lon="4.81719">
        <ele>410</ele>
        <time>2013-01-27T09:11:55Z</time>
      </trkpt>
      <trkpt lat="45.85007" lon="4.81722">
        <ele>410</ele>
        <time>2013-01-27T09:11:57Z</time>
      </trkpt>
      <trkpt lat="45.85008" lon="4.8173">
        <ele>409</ele>
        <time>2013-01-27T09:12:01Z</time>
      </trkpt>
      <trkpt lat="45.85008" lon="4.81732">
        <ele>409</ele>
        <time>2013-01-27T09:12:02Z</time>
      </trkpt>
      <trkpt lat="45.85006" lon="4.81742">
        <ele>406</ele>
        <time>2013-01-27T09:12:06Z</time>
      </trkpt>
      <trkpt lat="45.85006" lon="4.81747">
        <ele>405</ele>
        <time>2013-01-27T09:12:09Z</time>
      </trkpt>
      <trkpt lat="45.85006" lon="4.81748">
        <ele>405</ele>
        <time>2013-01-27T09:12:11Z</time>
      </trkpt>
      <trkpt lat="45.85006" lon="4.8175">
        <ele>405</ele>
        <time>2013-01-27T09:12:13Z</time>
      </trkpt>
      <trkpt lat="45.85004" lon="4.81756">
        <ele>405</ele>
        <time>2013-01-27T09:12:18Z</time>
      </trkpt>
      <trkpt lat="45.85003" lon="4.81758">
        <ele>406</ele>
        <time>2013-01-27T09:12:19Z</time>
      </trkpt>
      <trkpt lat="45.85004" lon="4.81767">
        <ele>408</ele>
        <time>2013-01-27T09:12:23Z</time>
      </trkpt>
      <trkpt lat="45.85006" lon="4.8177">
        <ele>409</ele>
        <time>2013-01-27T09:12:26Z</time>
      </trkpt>
      <trkpt lat="45.85007" lon="4.81774">
        <ele>410</ele>
        <time>2013-01-27T09:12:27Z</time>
      </trkpt>
      <trkpt lat="45.85008" lon="4.81776">
        <ele>410</ele>
        <time>2013-01-27T09:12:29Z</time>
      </trkpt>
      <trkpt lat="45.8501" lon="4.81785">
        <ele>411</ele>
        <time>2013-01-27T09:12:33Z</time>
      </trkpt>
      <trkpt lat="45.85011" lon="4.81787">
        <ele>412</ele>
        <time>2013-01-27T09:12:34Z</time>
      </trkpt>
      <trkpt lat="45.85011" lon="4.81792">
        <ele>412</ele>
        <time>2013-01-27T09:12:36Z</time>
      </trkpt>
      <trkpt lat="45.8501" lon="4.81796">
        <ele>412</ele>
        <time>2013-01-27T09:12:39Z</time>
      </trkpt>
      <trkpt lat="45.8501" lon="4.81797">
        <ele>412</ele>
        <time>2013-01-27T09:12:40Z</time>
      </trkpt>
      <trkpt lat="45.85009" lon="4.81802">
        <ele>412</ele>
        <time>2013-01-27T09:12:45Z</time>
      </trkpt>
      <trkpt lat="45.85007" lon="4.81815">
        <ele>411</ele>
        <time>2013-01-27T09:14:26Z</time>
      </trkpt>
      <trkpt lat="45.85006" lon="4.81818">
        <ele>411</ele>
        <time>2013-01-27T09:14:27Z</time>
      </trkpt>
      <trkpt lat="45.85003" lon="4.81824">
        <ele>410</ele>
        <time>2013-01-27T09:14:30Z</time>
      </trkpt>
      <trkpt lat="45.85" lon="4.81827">
        <ele>403</ele>
        <time>2013-01-27T09:14:32Z</time>
      </trkpt>
      <trkpt lat="45.84994" lon="4.81834">
        <ele>404</ele>
        <time>2013-01-27T09:14:35Z</time>
      </trkpt>
      <trkpt lat="45.84991" lon="4.81839">
        <ele>402</ele>
        <time>2013-01-27T09:14:37Z</time>
      </trkpt>
      <trkpt lat="45.84985" lon="4.81851">
        <ele>398</ele>
        <time>2013-01-27T09:14:42Z</time>
      </trkpt>
      <trkpt lat="45.84983" lon="4.81855">
        <ele>397</ele>
        <time>2013-01-27T09:14:44Z</time>
      </trkpt>
      <trkpt lat="45.84973" lon="4.81871">
        <ele>395</ele>
        <time>2013-01-27T09:14:50Z</time>
      </trkpt>
      <trkpt lat="45.8497" lon="4.81875">
        <ele>394</ele>
        <time>2013-01-27T09:14:52Z</time>
      </trkpt>
      <trkpt lat="45.84965" lon="4.81881">
        <ele>394</ele>
        <time>2013-01-27T09:14:56Z</time>
      </trkpt>
      <trkpt lat="45.84959" lon="4.81895">
        <ele>393</ele>
        <time>2013-01-27T09:15:00Z</time>
      </trkpt>
      <trkpt lat="45.84958" lon="4.81897">
        <ele>393</ele>
        <time>2013-01-27T09:15:01Z</time>
      </trkpt>
      <trkpt lat="45.84953" lon="4.81906">
        <ele>392</ele>
        <time>2013-01-27T09:15:05Z</time>
      </trkpt>
      <trkpt lat="45.84946" lon="4.81918">
        <ele>393</ele>
        <time>2013-01-27T09:15:10Z</time>
      </trkpt>
      <trkpt lat="45.8494" lon="4.81926">
        <ele>392</ele>
        <time>2013-01-27T09:15:14Z</time>
      </trkpt>
      <trkpt lat="45.84939" lon="4.81927">
        <ele>392</ele>
        <time>2013-01-27T09:15:15Z</time>
      </trkpt>
      <trkpt lat="45.84934" lon="4.81936">
        <ele>392</ele>
        <time>2013-01-27T09:15:19Z</time>
      </trkpt>
      <trkpt lat="45.84933" lon="4.81939">
        <ele>392</ele>
        <time>2013-01-27T09:15:20Z</time>
      </trkpt>
      <trkpt lat="45.84928" lon="4.81945">
        <ele>392</ele>
        <time>2013-01-27T09:15:23Z</time>
      </trkpt>
      <trkpt lat="45.84924" lon="4.8195">
        <ele>392</ele>
        <time>2013-01-27T09:15:25Z</time>
      </trkpt>
      <trkpt lat="45.8492" lon="4.81958">
        <ele>393</ele>
        <time>2013-01-27T09:15:28Z</time>
      </trkpt>
      <trkpt lat="45.84915" lon="4.81969">
        <ele>372</ele>
        <time>2013-01-27T09:15:33Z</time>
      </trkpt>
      <trkpt lat="45.84914" lon="4.81971">
        <ele>372</ele>
        <time>2013-01-27T09:15:34Z</time>
      </trkpt>
      <trkpt lat="45.84909" lon="4.81979">
        <ele>374</ele>
        <time>2013-01-27T09:15:38Z</time>
      </trkpt>
      <trkpt lat="45.84901" lon="4.81989">
        <ele>375</ele>
        <time>2013-01-27T09:15:43Z</time>
      </trkpt>
      <trkpt lat="45.84895" lon="4.81997">
        <ele>373</ele>
        <time>2013-01-27T09:15:47Z</time>
      </trkpt>
      <trkpt lat="45.84887" lon="4.82011">
        <ele>371</ele>
        <time>2013-01-27T09:15:52Z</time>
      </trkpt>
      <trkpt lat="45.84883" lon="4.82018">
        <ele>369</ele>
        <time>2013-01-27T09:15:55Z</time>
      </trkpt>
      <trkpt lat="45.84879" lon="4.82023">
        <ele>367</ele>
        <time>2013-01-27T09:15:57Z</time>
      </trkpt>
      <trkpt lat="45.84876" lon="4.82029">
        <ele>366</ele>
        <time>2013-01-27T09:15:59Z</time>
      </trkpt>
      <trkpt lat="45.84872" lon="4.82037">
        <ele>365</ele>
        <time>2013-01-27T09:16:02Z</time>
      </trkpt>
      <trkpt lat="45.84871" lon="4.82039">
        <ele>365</ele>
        <time>2013-01-27T09:16:03Z</time>
      </trkpt>
      <trkpt lat="45.84866" lon="4.82047">
        <ele>364</ele>
        <time>2013-01-27T09:16:06Z</time>
      </trkpt>
      <trkpt lat="45.84859" lon="4.82063">
        <ele>361</ele>
        <time>2013-01-27T09:16:11Z</time>
      </trkpt>
      <trkpt lat="45.84854" lon="4.82076">
        <ele>358</ele>
        <time>2013-01-27T09:16:15Z</time>
      </trkpt>
      <trkpt lat="45.8485" lon="4.82088">
        <ele>354</ele>
        <time>2013-01-27T09:16:19Z</time>
      </trkpt>
      <trkpt lat="45.8485" lon="4.82091">
        <ele>354</ele>
        <time>2013-01-27T09:16:20Z</time>
      </trkpt>
      <trkpt lat="45.84845" lon="4.82107">
        <ele>355</ele>
        <time>2013-01-27T09:16:25Z</time>
      </trkpt>
      <trkpt lat="45.84843" lon="4.82112">
        <ele>355</ele>
        <time>2013-01-27T09:16:27Z</time>
      </trkpt>
      <trkpt lat="45.84841" lon="4.82122">
        <ele>355</ele>
        <time>2013-01-27T09:16:30Z</time>
      </trkpt>
      <trkpt lat="45.84836" lon="4.82139">
        <ele>353</ele>
        <time>2013-01-27T09:16:35Z</time>
      </trkpt>
      <trkpt lat="45.84836" lon="4.82142">
        <ele>352</ele>
        <time>2013-01-27T09:16:36Z</time>
      </trkpt>
      <trkpt lat="45.84837" lon="4.82155">
        <ele>348</ele>
        <time>2013-01-27T09:16:40Z</time>
      </trkpt>
      <trkpt lat="45.84837" lon="4.82158">
        <ele>346</ele>
        <time>2013-01-27T09:16:41Z</time>
      </trkpt>
      <trkpt lat="45.84838" lon="4.82168">
        <ele>340</ele>
        <time>2013-01-27T09:16:44Z</time>
      </trkpt>
      <trkpt lat="45.84838" lon="4.82171">
        <ele>341</ele>
        <time>2013-01-27T09:16:45Z</time>
      </trkpt>
      <trkpt lat="45.84839" lon="4.82174">
        <ele>341</ele>
        <time>2013-01-27T09:16:46Z</time>
      </trkpt>
      <trkpt lat="45.8484" lon="4.82185">
        <ele>342</ele>
        <time>2013-01-27T09:16:50Z</time>
      </trkpt>
      <trkpt lat="45.84841" lon="4.82187">
        <ele>342</ele>
        <time>2013-01-27T09:16:51Z</time>
      </trkpt>
      <trkpt lat="45.84843" lon="4.82193">
        <ele>342</ele>
        <time>2013-01-27T09:16:53Z</time>
      </trkpt>
      <trkpt lat="45.84844" lon="4.82196">
        <ele>342</ele>
        <time>2013-01-27T09:16:54Z</time>
      </trkpt>
      <trkpt lat="45.84851" lon="4.82208">
        <ele>342</ele>
        <time>2013-01-27T09:16:59Z</time>
      </trkpt>
      <trkpt lat="45.8486" lon="4.82211">
        <ele>343</ele>
        <time>2013-01-27T09:17:03Z</time>
      </trkpt>
      <trkpt lat="45.84872" lon="4.82219">
        <ele>344</ele>
        <time>2013-01-27T09:17:09Z</time>
      </trkpt>
      <trkpt lat="45.84876" lon="4.82223">
        <ele>344</ele>
        <time>2013-01-27T09:17:11Z</time>
      </trkpt>
      <trkpt lat="45.84883" lon="4.82229">
        <ele>345</ele>
        <time>2013-01-27T09:17:14Z</time>
      </trkpt>
      <trkpt lat="45.84892" lon="4.82243">
        <ele>345</ele>
        <time>2013-01-27T09:17:20Z</time>
      </trkpt>
      <trkpt lat="45.84896" lon="4.82254">
        <ele>335</ele>
        <time>2013-01-27T09:17:24Z</time>
      </trkpt>
      <trkpt lat="45.84898" lon="4.82259">
        <ele>335</ele>
        <time>2013-01-27T09:17:26Z</time>
      </trkpt>
      <trkpt lat="45.84899" lon="4.82266">
        <ele>334</ele>
        <time>2013-01-27T09:17:28Z</time>
      </trkpt>
      <trkpt lat="45.849" lon="4.82269">
        <ele>334</ele>
        <time>2013-01-27T09:17:29Z</time>
      </trkpt>
      <trkpt lat="45.84902" lon="4.82282">
        <ele>331</ele>
        <time>2013-01-27T09:17:33Z</time>
      </trkpt>
      <trkpt lat="45.84902" lon="4.82293">
        <ele>329</ele>
        <time>2013-01-27T09:17:38Z</time>
      </trkpt>
      <trkpt lat="45.84902" lon="4.82294">
        <ele>329</ele>
        <time>2013-01-27T09:17:39Z</time>
      </trkpt>
      <trkpt lat="45.84902" lon="4.82295">
        <ele>329</ele>
        <time>2013-01-27T09:17:45Z</time>
      </trkpt>
      <trkpt lat="45.8491" lon="4.82287">
        <ele>331</ele>
        <time>2013-01-27T09:18:14Z</time>
      </trkpt>
      <trkpt lat="45.84914" lon="4.82284">
        <ele>332</ele>
        <time>2013-01-27T09:18:18Z</time>
      </trkpt>
      <trkpt lat="45.84914" lon="4.82284">
        <ele>332</ele>
        <time>2013-01-27T09:18:19Z</time>
      </trkpt>
      <trkpt lat="45.84919" lon="4.8228">
        <ele>343</ele>
        <time>2013-01-27T09:18:24Z</time>
      </trkpt>
      <trkpt lat="45.84921" lon="4.82277">
        <ele>344</ele>
        <time>2013-01-27T09:18:26Z</time>
      </trkpt>
      <trkpt lat="45.84926" lon="4.82273">
        <ele>344</ele>
        <time>2013-01-27T09:18:30Z</time>
      </trkpt>
      <trkpt lat="45.84934" lon="4.82267">
        <ele>345</ele>
        <time>2013-01-27T09:18:36Z</time>
      </trkpt>
      <trkpt lat="45.84935" lon="4.82267">
        <ele>345</ele>
        <time>2013-01-27T09:18:37Z</time>
      </trkpt>
      <trkpt lat="45.84938" lon="4.82267">
        <ele>345</ele>
        <time>2013-01-27T09:18:40Z</time>
      </trkpt>
      <trkpt lat="45.8494" lon="4.82266">
        <ele>346</ele>
        <time>2013-01-27T09:18:42Z</time>
      </trkpt>
      <trkpt lat="45.84944" lon="4.82266">
        <ele>346</ele>
        <time>2013-01-27T09:18:45Z</time>
      </trkpt>
      <trkpt lat="45.84947" lon="4.82265">
        <ele>346</ele>
        <time>2013-01-27T09:18:48Z</time>
      </trkpt>
      <trkpt lat="45.8495" lon="4.82264">
        <ele>347</ele>
        <time>2013-01-27T09:18:51Z</time>
      </trkpt>
      <trkpt lat="45.84953" lon="4.82266">
        <ele>347</ele>
        <time>2013-01-27T09:18:54Z</time>
      </trkpt>
      <trkpt lat="45.84955" lon="4.82264">
        <ele>347</ele>
        <time>2013-01-27T09:18:56Z</time>
      </trkpt>
      <trkpt lat="45.84956" lon="4.82263">
        <ele>347</ele>
        <time>2013-01-27T09:18:57Z</time>
      </trkpt>
      <trkpt lat="45.84959" lon="4.82262">
        <ele>348</ele>
        <time>2013-01-27T09:18:59Z</time>
      </trkpt>
      <trkpt lat="45.84959" lon="4.82261">
        <ele>348</ele>
        <time>2013-01-27T09:19:00Z</time>
      </trkpt>
      <trkpt lat="45.84962" lon="4.82262">
        <ele>348</ele>
        <time>2013-01-27T09:19:03Z</time>
      </trkpt>
      <trkpt lat="45.84963" lon="4.82264">
        <ele>348</ele>
        <time>2013-01-27T09:19:04Z</time>
      </trkpt>
      <trkpt lat="45.84966" lon="4.82267">
        <ele>348</ele>
        <time>2013-01-27T09:19:08Z</time>
      </trkpt>
      <trkpt lat="45.84969" lon="4.82266">
        <ele>349</ele>
        <time>2013-01-27T09:19:11Z</time>
      </trkpt>
      <trkpt lat="45.84971" lon="4.82268">
        <ele>349</ele>
        <time>2013-01-27T09:19:13Z</time>
      </trkpt>
      <trkpt lat="45.84973" lon="4.8227">
        <ele>349</ele>
        <time>2013-01-27T09:19:16Z</time>
      </trkpt>
      <trkpt lat="45.84976" lon="4.82271">
        <ele>350</ele>
        <time>2013-01-27T09:19:19Z</time>
      </trkpt>
      <trkpt lat="45.84977" lon="4.8227">
        <ele>350</ele>
        <time>2013-01-27T09:19:20Z</time>
      </trkpt>
      <trkpt lat="45.84983" lon="4.82273">
        <ele>350</ele>
        <time>2013-01-27T09:19:27Z</time>
      </trkpt>
      <trkpt lat="45.84989" lon="4.82274">
        <ele>351</ele>
        <time>2013-01-27T09:19:34Z</time>
      </trkpt>
      <trkpt lat="45.84991" lon="4.82276">
        <ele>351</ele>
        <time>2013-01-27T09:19:36Z</time>
      </trkpt>
      <trkpt lat="45.84995" lon="4.82278">
        <ele>350</ele>
        <time>2013-01-27T09:19:40Z</time>
      </trkpt>
      <trkpt lat="45.85" lon="4.82276">
        <ele>356</ele>
        <time>2013-01-27T09:19:46Z</time>
      </trkpt>
      <trkpt lat="45.85005" lon="4.82276">
        <ele>356</ele>
        <time>2013-01-27T09:19:51Z</time>
      </trkpt>
      <trkpt lat="45.85006" lon="4.8228">
        <ele>355</ele>
        <time>2013-01-27T09:19:55Z</time>
      </trkpt>
      <trkpt lat="45.85011" lon="4.82278">
        <ele>355</ele>
        <time>2013-01-27T09:19:59Z</time>
      </trkpt>
      <trkpt lat="45.85013" lon="4.82278">
        <ele>355</ele>
        <time>2013-01-27T09:20:00Z</time>
      </trkpt>
      <trkpt lat="45.85019" lon="4.82274">
        <ele>356</ele>
        <time>2013-01-27T09:20:06Z</time>
      </trkpt>
      <trkpt lat="45.85022" lon="4.82272">
        <ele>356</ele>
        <time>2013-01-27T09:20:09Z</time>
      </trkpt>
      <trkpt lat="45.85024" lon="4.8227">
        <ele>356</ele>
        <time>2013-01-27T09:20:11Z</time>
      </trkpt>
      <trkpt lat="45.85028" lon="4.8227">
        <ele>356</ele>
        <time>2013-01-27T09:20:18Z</time>
      </trkpt>
      <trkpt lat="45.85029" lon="4.82272">
        <ele>356</ele>
        <time>2013-01-27T09:20:23Z</time>
      </trkpt>
      <trkpt lat="45.85031" lon="4.82279">
        <ele>354</ele>
        <time>2013-01-27T09:20:50Z</time>
      </trkpt>
      <trkpt lat="45.85031" lon="4.82284">
        <ele>354</ele>
        <time>2013-01-27T09:20:53Z</time>
      </trkpt>
      <trkpt lat="45.85033" lon="4.82287">
        <ele>353</ele>
        <time>2013-01-27T09:20:57Z</time>
      </trkpt>
      <trkpt lat="45.85034" lon="4.82288">
        <ele>353</ele>
        <time>2013-01-27T09:20:59Z</time>
      </trkpt>
      <trkpt lat="45.85037" lon="4.82286">
        <ele>353</ele>
        <time>2013-01-27T09:21:02Z</time>
      </trkpt>
      <trkpt lat="45.85038" lon="4.82286">
        <ele>353</ele>
        <time>2013-01-27T09:21:04Z</time>
      </trkpt>
      <trkpt lat="45.85044" lon="4.8229">
        <ele>353</ele>
        <time>2013-01-27T09:21:09Z</time>
      </trkpt>
      <trkpt lat="45.85048" lon="4.82296">
        <ele>352</ele>
        <time>2013-01-27T09:21:15Z</time>
      </trkpt>
      <trkpt lat="45.85049" lon="4.82296">
        <ele>352</ele>
        <time>2013-01-27T09:21:16Z</time>
      </trkpt>
      <trkpt lat="45.85051" lon="4.82298">
        <ele>352</ele>
        <time>2013-01-27T09:21:19Z</time>
      </trkpt>
      <trkpt lat="45.85052" lon="4.82303">
        <ele>351</ele>
        <time>2013-01-27T09:21:21Z</time>
      </trkpt>
      <trkpt lat="45.85053" lon="4.82311">
        <ele>350</ele>
        <time>2013-01-27T09:21:25Z</time>
      </trkpt>
      <trkpt lat="45.85054" lon="4.82312">
        <ele>350</ele>
        <time>2013-01-27T09:21:26Z</time>
      </trkpt>
      <trkpt lat="45.85056" lon="4.8232">
        <ele>349</ele>
        <time>2013-01-27T09:21:32Z</time>
      </trkpt>
      <trkpt lat="45.85056" lon="4.82327">
        <ele>349</ele>
        <time>2013-01-27T09:21:37Z</time>
      </trkpt>
      <trkpt lat="45.85056" lon="4.82328">
        <ele>349</ele>
        <time>2013-01-27T09:21:38Z</time>
      </trkpt>
      <trkpt lat="45.85056" lon="4.82332">
        <ele>348</ele>
        <time>2013-01-27T09:21:42Z</time>
      </trkpt>
      <trkpt lat="45.85057" lon="4.82334">
        <ele>335</ele>
        <time>2013-01-27T09:21:43Z</time>
      </trkpt>
      <trkpt lat="45.85057" lon="4.82337">
        <ele>335</ele>
        <time>2013-01-27T09:21:44Z</time>
      </trkpt>
      <trkpt lat="45.85057" lon="4.82345">
        <ele>334</ele>
        <time>2013-01-27T09:21:47Z</time>
      </trkpt>
      <trkpt lat="45.85057" lon="4.82353">
        <ele>333</ele>
        <time>2013-01-27T09:21:51Z</time>
      </trkpt>
      <trkpt lat="45.85056" lon="4.82359">
        <ele>332</ele>
        <time>2013-01-27T09:21:54Z</time>
      </trkpt>
      <trkpt lat="45.85055" lon="4.82363">
        <ele>332</ele>
        <time>2013-01-27T09:21:56Z</time>
      </trkpt>
      <trkpt lat="45.85056" lon="4.82366">
        <ele>331</ele>
        <time>2013-01-27T09:21:58Z</time>
      </trkpt>
      <trkpt lat="45.85057" lon="4.82366">
        <ele>331</ele>
        <time>2013-01-27T09:22:00Z</time>
      </trkpt>
      <trkpt lat="45.85061" lon="4.82374">
        <ele>330</ele>
        <time>2013-01-27T09:22:07Z</time>
      </trkpt>
      <trkpt lat="45.85062" lon="4.82375">
        <ele>330</ele>
        <time>2013-01-27T09:22:08Z</time>
      </trkpt>
      <trkpt lat="45.85067" lon="4.82373">
        <ele>330</ele>
        <time>2013-01-27T09:22:10Z</time>
      </trkpt>
      <trkpt lat="45.8507" lon="4.82371">
        <ele>331</ele>
        <time>2013-01-27T09:22:11Z</time>
      </trkpt>
      <trkpt lat="45.85078" lon="4.82363">
        <ele>333</ele>
        <time>2013-01-27T09:22:14Z</time>
      </trkpt>
      <trkpt lat="45.85086" lon="4.82357">
        <ele>330</ele>
        <time>2013-01-27T09:22:17Z</time>
      </trkpt>
      <trkpt lat="45.85092" lon="4.82351">
        <ele>331</ele>
        <time>2013-01-27T09:22:20Z</time>
      </trkpt>
      <trkpt lat="45.85101" lon="4.82343">
        <ele>331</ele>
        <time>2013-01-27T09:22:24Z</time>
      </trkpt>
      <trkpt lat="45.85105" lon="4.82339">
        <ele>330</ele>
        <time>2013-01-27T09:22:26Z</time>
      </trkpt>
      <trkpt lat="45.85111" lon="4.82332">
        <ele>343</ele>
        <time>2013-01-27T09:22:30Z</time>
      </trkpt>
      <trkpt lat="45.85113" lon="4.82333">
        <ele>328</ele>
        <time>2013-01-27T09:22:31Z</time>
      </trkpt>
      <trkpt lat="45.85113" lon="4.82339">
        <ele>328</ele>
        <time>2013-01-27T09:22:34Z</time>
      </trkpt>
      <trkpt lat="45.85113" lon="4.82341">
        <ele>328</ele>
        <time>2013-01-27T09:22:35Z</time>
      </trkpt>
      <trkpt lat="45.85111" lon="4.82343">
        <ele>328</ele>
        <time>2013-01-27T09:22:36Z</time>
      </trkpt>
      <trkpt lat="45.85105" lon="4.82355">
        <ele>327</ele>
        <time>2013-01-27T09:22:41Z</time>
      </trkpt>
      <trkpt lat="45.85103" lon="4.8236">
        <ele>326</ele>
        <time>2013-01-27T09:22:43Z</time>
      </trkpt>
      <trkpt lat="45.85099" lon="4.82368">
        <ele>325</ele>
        <time>2013-01-27T09:22:46Z</time>
      </trkpt>
      <trkpt lat="45.85093" lon="4.82378">
        <ele>323</ele>
        <time>2013-01-27T09:22:50Z</time>
      </trkpt>
      <trkpt lat="45.85092" lon="4.82381">
        <ele>322</ele>
        <time>2013-01-27T09:22:52Z</time>
      </trkpt>
      <trkpt lat="45.85091" lon="4.82383">
        <ele>322</ele>
        <time>2013-01-27T09:22:53Z</time>
      </trkpt>
      <trkpt lat="45.85086" lon="4.82388">
        <ele>322</ele>
        <time>2013-01-27T09:22:56Z</time>
      </trkpt>
      <trkpt lat="45.85084" lon="4.82391">
        <ele>321</ele>
        <time>2013-01-27T09:22:58Z</time>
      </trkpt>
      <trkpt lat="45.8508" lon="4.82397">
        <ele>325</ele>
        <time>2013-01-27T09:23:02Z</time>
      </trkpt>
      <trkpt lat="45.85079" lon="4.82401">
        <ele>324</ele>
        <time>2013-01-27T09:23:06Z</time>
      </trkpt>
      <trkpt lat="45.8508" lon="4.82401">
        <ele>324</ele>
        <time>2013-01-27T09:23:07Z</time>
      </trkpt>
      <trkpt lat="45.85076" lon="4.82408">
        <ele>323</ele>
        <time>2013-01-27T09:23:13Z</time>
      </trkpt>
      <trkpt lat="45.85075" lon="4.82412">
        <ele>322</ele>
        <time>2013-01-27T09:23:17Z</time>
      </trkpt>
      <trkpt lat="45.85074" lon="4.82412">
        <ele>322</ele>
        <time>2013-01-27T09:23:18Z</time>
      </trkpt>
      <trkpt lat="45.85073" lon="4.82417">
        <ele>314</ele>
        <time>2013-01-27T09:23:24Z</time>
      </trkpt>
      <trkpt lat="45.85072" lon="4.8242">
        <ele>314</ele>
        <time>2013-01-27T09:23:29Z</time>
      </trkpt>
      <trkpt lat="45.85072" lon="4.82421">
        <ele>313</ele>
        <time>2013-01-27T09:23:30Z</time>
      </trkpt>
      <trkpt lat="45.85072" lon="4.82424">
        <ele>313</ele>
        <time>2013-01-27T09:23:32Z</time>
      </trkpt>
      <trkpt lat="45.85072" lon="4.82426">
        <ele>312</ele>
        <time>2013-01-27T09:23:33Z</time>
      </trkpt>
      <trkpt lat="45.85071" lon="4.82428">
        <ele>312</ele>
        <time>2013-01-27T09:23:34Z</time>
      </trkpt>
      <trkpt lat="45.85068" lon="4.82439">
        <ele>309</ele>
        <time>2013-01-27T09:23:39Z</time>
      </trkpt>
      <trkpt lat="45.85064" lon="4.82451">
        <ele>306</ele>
        <time>2013-01-27T09:23:43Z</time>
      </trkpt>
      <trkpt lat="45.85062" lon="4.82469">
        <ele>302</ele>
        <time>2013-01-27T09:23:48Z</time>
      </trkpt>
      <trkpt lat="45.85061" lon="4.82478">
        <ele>300</ele>
        <time>2013-01-27T09:23:52Z</time>
      </trkpt>
      <trkpt lat="45.85061" lon="4.82482">
        <ele>300</ele>
        <time>2013-01-27T09:23:54Z</time>
      </trkpt>
      <trkpt lat="45.85061" lon="4.82485">
        <ele>299</ele>
        <time>2013-01-27T09:23:57Z</time>
      </trkpt>
      <trkpt lat="45.85064" lon="4.8249">
        <ele>298</ele>
        <time>2013-01-27T09:24:01Z</time>
      </trkpt>
      <trkpt lat="45.85065" lon="4.82493">
        <ele>297</ele>
        <time>2013-01-27T09:24:05Z</time>
      </trkpt>
      <trkpt lat="45.85063" lon="4.825">
        <ele>297</ele>
        <time>2013-01-27T09:24:10Z</time>
      </trkpt>
      <trkpt lat="45.85062" lon="4.82502">
        <ele>284</ele>
        <time>2013-01-27T09:24:15Z</time>
      </trkpt>
      <trkpt lat="45.85061" lon="4.82505">
        <ele>283</ele>
        <time>2013-01-27T09:24:17Z</time>
      </trkpt>
      <trkpt lat="45.85057" lon="4.82517">
        <ele>282</ele>
        <time>2013-01-27T09:24:23Z</time>
      </trkpt>
      <trkpt lat="45.85056" lon="4.82519">
        <ele>282</ele>
        <time>2013-01-27T09:24:24Z</time>
      </trkpt>
      <trkpt lat="45.85053" lon="4.82523">
        <ele>281</ele>
        <time>2013-01-27T09:24:27Z</time>
      </trkpt>
      <trkpt lat="45.8505" lon="4.82526">
        <ele>281</ele>
        <time>2013-01-27T09:24:29Z</time>
      </trkpt>
      <trkpt lat="45.85047" lon="4.82532">
        <ele>280</ele>
        <time>2013-01-27T09:24:32Z</time>
      </trkpt>
      <trkpt lat="45.85045" lon="4.82541">
        <ele>279</ele>
        <time>2013-01-27T09:24:36Z</time>
      </trkpt>
      <trkpt lat="45.85043" lon="4.82547">
        <ele>278</ele>
        <time>2013-01-27T09:24:38Z</time>
      </trkpt>
      <trkpt lat="45.85041" lon="4.82558">
        <ele>276</ele>
        <time>2013-01-27T09:24:42Z</time>
      </trkpt>
      <trkpt lat="45.85037" lon="4.8257">
        <ele>275</ele>
        <time>2013-01-27T09:24:47Z</time>
      </trkpt>
      <trkpt lat="45.85037" lon="4.82573">
        <ele>275</ele>
        <time>2013-01-27T09:24:48Z</time>
      </trkpt>
      <trkpt lat="45.85036" lon="4.82577">
        <ele>274</ele>
        <time>2013-01-27T09:24:51Z</time>
      </trkpt>
      <trkpt lat="45.85033" lon="4.82591">
        <ele>258</ele>
        <time>2013-01-27T09:24:57Z</time>
      </trkpt>
      <trkpt lat="45.8503" lon="4.82598">
        <ele>257</ele>
        <time>2013-01-27T09:25:00Z</time>
      </trkpt>
      <trkpt lat="45.85029" lon="4.82606">
        <ele>256</ele>
        <time>2013-01-27T09:25:03Z</time>
      </trkpt>
      <trkpt lat="45.85025" lon="4.82617">
        <ele>255</ele>
        <time>2013-01-27T09:25:08Z</time>
      </trkpt>
      <trkpt lat="45.85023" lon="4.82624">
        <ele>253</ele>
        <time>2013-01-27T09:25:11Z</time>
      </trkpt>
      <trkpt lat="45.85023" lon="4.82627">
        <ele>253</ele>
        <time>2013-01-27T09:25:13Z</time>
      </trkpt>
      <trkpt lat="45.85024" lon="4.82628">
        <ele>253</ele>
        <time>2013-01-27T09:25:18Z</time>
      </trkpt>
      <trkpt lat="45.85023" lon="4.82632">
        <ele>252</ele>
        <time>2013-01-27T09:25:36Z</time>
      </trkpt>
      <trkpt lat="45.85021" lon="4.82636">
        <ele>251</ele>
        <time>2013-01-27T09:25:40Z</time>
      </trkpt>
      <trkpt lat="45.85021" lon="4.82634">
        <ele>251</ele>
        <time>2013-01-27T09:25:53Z</time>
      </trkpt>
      <trkpt lat="45.85021" lon="4.82634">
        <ele>251</ele>
        <time>2013-01-27T09:25:55Z</time>
      </trkpt>
      <trkpt lat="45.85023" lon="4.82628">
        <ele>253</ele>
        <time>2013-01-27T09:26:01Z</time>
      </trkpt>
      <trkpt lat="45.85023" lon="4.82626">
        <ele>253</ele>
        <time>2013-01-27T09:26:02Z</time>
      </trkpt>
      <trkpt lat="45.85025" lon="4.82624">
        <ele>253</ele>
        <time>2013-01-27T09:26:07Z</time>
      </trkpt>
      <trkpt lat="45.85029" lon="4.82624">
        <ele>253</ele>
        <time>2013-01-27T09:26:22Z</time>
      </trkpt>
      <trkpt lat="45.85032" lon="4.82627">
        <ele>253</ele>
        <time>2013-01-27T09:26:27Z</time>
      </trkpt>
      <trkpt lat="45.85035" lon="4.82628">
        <ele>253</ele>
        <time>2013-01-27T09:26:30Z</time>
      </trkpt>
      <trkpt lat="45.85043" lon="4.82628">
        <ele>252</ele>
        <time>2013-01-27T09:26:37Z</time>
      </trkpt>
      <trkpt lat="45.85044" lon="4.82628">
        <ele>253</ele>
        <time>2013-01-27T09:26:38Z</time>
      </trkpt>
      <trkpt lat="45.85051" lon="4.82631">
        <ele>252</ele>
        <time>2013-01-27T09:26:43Z</time>
      </trkpt>
      <trkpt lat="45.85053" lon="4.82632">
        <ele>252</ele>
        <time>2013-01-27T09:26:44Z</time>
      </trkpt>
      <trkpt lat="45.85061" lon="4.82636">
        <ele>251</ele>
        <time>2013-01-27T09:26:48Z</time>
      </trkpt>
      <trkpt lat="45.85069" lon="4.82642">
        <ele>249</ele>
        <time>2013-01-27T09:26:53Z</time>
      </trkpt>
      <trkpt lat="45.85078" lon="4.82641">
        <ele>249</ele>
        <time>2013-01-27T09:26:57Z</time>
      </trkpt>
      <trkpt lat="45.8508" lon="4.82642">
        <ele>249</ele>
        <time>2013-01-27T09:26:58Z</time>
      </trkpt>
      <trkpt lat="45.85086" lon="4.82643">
        <ele>245</ele>
        <time>2013-01-27T09:27:01Z</time>
      </trkpt>
      <trkpt lat="45.85087" lon="4.82645">
        <ele>245</ele>
        <time>2013-01-27T09:27:02Z</time>
      </trkpt>
      <trkpt lat="45.8509" lon="4.82644">
        <ele>245</ele>
        <time>2013-01-27T09:27:03Z</time>
      </trkpt>
      <trkpt lat="45.85092" lon="4.82644">
        <ele>245</ele>
        <time>2013-01-27T09:27:04Z</time>
      </trkpt>
      <trkpt lat="45.85101" lon="4.82642">
        <ele>246</ele>
        <time>2013-01-27T09:27:08Z</time>
      </trkpt>
      <trkpt lat="45.85106" lon="4.82641">
        <ele>246</ele>
        <time>2013-01-27T09:27:10Z</time>
      </trkpt>
      <trkpt lat="45.85108" lon="4.82641">
        <ele>246</ele>
        <time>2013-01-27T09:27:11Z</time>
      </trkpt>
      <trkpt lat="45.85115" lon="4.82641">
        <ele>245</ele>
        <time>2013-01-27T09:27:14Z</time>
      </trkpt>
      <trkpt lat="45.85124" lon="4.82636">
        <ele>246</ele>
        <time>2013-01-27T09:27:18Z</time>
      </trkpt>
      <trkpt lat="45.85129" lon="4.82633">
        <ele>246</ele>
        <time>2013-01-27T09:27:20Z</time>
      </trkpt>
      <trkpt lat="45.85139" lon="4.82623">
        <ele>246</ele>
        <time>2013-01-27T09:27:25Z</time>
      </trkpt>
      <trkpt lat="45.85141" lon="4.82622">
        <ele>246</ele>
        <time>2013-01-27T09:27:26Z</time>
      </trkpt>
      <trkpt lat="45.85148" lon="4.82623">
        <ele>245</ele>
        <time>2013-01-27T09:27:29Z</time>
      </trkpt>
      <trkpt lat="45.8516" lon="4.82623">
        <ele>245</ele>
        <time>2013-01-27T09:27:34Z</time>
      </trkpt>
      <trkpt lat="45.85172" lon="4.8262">
        <ele>241</ele>
        <time>2013-01-27T09:27:39Z</time>
      </trkpt>
      <trkpt lat="45.85178" lon="4.82615">
        <ele>242</ele>
        <time>2013-01-27T09:27:42Z</time>
      </trkpt>
      <trkpt lat="45.85181" lon="4.82613">
        <ele>242</ele>
        <time>2013-01-27T09:27:43Z</time>
      </trkpt>
      <trkpt lat="45.85188" lon="4.826">
        <ele>242</ele>
        <time>2013-01-27T09:27:48Z</time>
      </trkpt>
      <trkpt lat="45.8519" lon="4.82595">
        <ele>242</ele>
        <time>2013-01-27T09:27:50Z</time>
      </trkpt>
      <trkpt lat="45.85194" lon="4.82585">
        <ele>242</ele>
        <time>2013-01-27T09:27:54Z</time>
      </trkpt>
      <trkpt lat="45.85194" lon="4.82582">
        <ele>246</ele>
        <time>2013-01-27T09:27:55Z</time>
      </trkpt>
      <trkpt lat="45.85196" lon="4.82573">
        <ele>246</ele>
        <time>2013-01-27T09:27:58Z</time>
      </trkpt>
      <trkpt lat="45.85196" lon="4.8257">
        <ele>247</ele>
        <time>2013-01-27T09:27:59Z</time>
      </trkpt>
      <trkpt lat="45.85201" lon="4.82555">
        <ele>247</ele>
        <time>2013-01-27T09:28:04Z</time>
      </trkpt>
      <trkpt lat="45.85206" lon="4.82545">
        <ele>248</ele>
        <time>2013-01-27T09:28:08Z</time>
      </trkpt>
      <trkpt lat="45.85207" lon="4.82542">
        <ele>248</ele>
        <time>2013-01-27T09:28:09Z</time>
      </trkpt>
      <trkpt lat="45.85209" lon="4.82537">
        <ele>248</ele>
        <time>2013-01-27T09:28:11Z</time>
      </trkpt>
      <trkpt lat="45.8521" lon="4.82528">
        <ele>248</ele>
        <time>2013-01-27T09:28:14Z</time>
      </trkpt>
      <trkpt lat="45.85211" lon="4.82519">
        <ele>249</ele>
        <time>2013-01-27T09:28:17Z</time>
      </trkpt>
      <trkpt lat="45.85214" lon="4.82513">
        <ele>249</ele>
        <time>2013-01-27T09:28:19Z</time>
      </trkpt>
      <trkpt lat="45.85218" lon="4.825">
        <ele>249</ele>
        <time>2013-01-27T09:28:24Z</time>
      </trkpt>
      <trkpt lat="45.85219" lon="4.82499">
        <ele>259</ele>
        <time>2013-01-27T09:28:25Z</time>
      </trkpt>
      <trkpt lat="45.8522" lon="4.82495">
        <ele>259</ele>
        <time>2013-01-27T09:28:29Z</time>
      </trkpt>
      <trkpt lat="45.85221" lon="4.82494">
        <ele>259</ele>
        <time>2013-01-27T09:28:30Z</time>
      </trkpt>
      <trkpt lat="45.85225" lon="4.82485">
        <ele>259</ele>
        <time>2013-01-27T09:28:36Z</time>
      </trkpt>
      <trkpt lat="45.85226" lon="4.82483">
        <ele>259</ele>
        <time>2013-01-27T09:28:38Z</time>
      </trkpt>
      <trkpt lat="45.85229" lon="4.82478">
        <ele>260</ele>
        <time>2013-01-27T09:28:41Z</time>
      </trkpt>
      <trkpt lat="45.8523" lon="4.82476">
        <ele>260</ele>
        <time>2013-01-27T09:28:43Z</time>
      </trkpt>
      <trkpt lat="45.85232" lon="4.82471">
        <ele>261</ele>
        <time>2013-01-27T09:28:48Z</time>
      </trkpt>
      <trkpt lat="45.85232" lon="4.8247">
        <ele>261</ele>
        <time>2013-01-27T09:28:49Z</time>
      </trkpt>
      <trkpt lat="45.85233" lon="4.82468">
        <ele>261</ele>
        <time>2013-01-27T09:28:51Z</time>
      </trkpt>
      <trkpt lat="45.85235" lon="4.82467">
        <ele>261</ele>
        <time>2013-01-27T09:28:55Z</time>
      </trkpt>
      <trkpt lat="45.85241" lon="4.82466">
        <ele>261</ele>
        <time>2013-01-27T09:29:03Z</time>
      </trkpt>
      <trkpt lat="45.85245" lon="4.82466">
        <ele>261</ele>
        <time>2013-01-27T09:29:10Z</time>
      </trkpt>
      <trkpt lat="45.85246" lon="4.82465">
        <ele>261</ele>
        <time>2013-01-27T09:29:18Z</time>
      </trkpt>
      <trkpt lat="45.85246" lon="4.8246">
        <ele>261</ele>
        <time>2013-01-27T09:29:26Z</time>
      </trkpt>
      <trkpt lat="45.85245" lon="4.82457">
        <ele>262</ele>
        <time>2013-01-27T09:29:29Z</time>
      </trkpt>
      <trkpt lat="45.85242" lon="4.8245">
        <ele>263</ele>
        <time>2013-01-27T09:29:37Z</time>
      </trkpt>
      <trkpt lat="45.8524" lon="4.82445">
        <ele>263</ele>
        <time>2013-01-27T09:29:42Z</time>
      </trkpt>
      <trkpt lat="45.8524" lon="4.82443">
        <ele>263</ele>
        <time>2013-01-27T09:29:44Z</time>
      </trkpt>
      <trkpt lat="45.8524" lon="4.82437">
        <ele>264</ele>
        <time>2013-01-27T09:29:48Z</time>
      </trkpt>
      <trkpt lat="45.8524" lon="4.82434">
        <ele>264</ele>
        <time>2013-01-27T09:29:50Z</time>
      </trkpt>
      <trkpt lat="45.85241" lon="4.82426">
        <ele>264</ele>
        <time>2013-01-27T09:29:57Z</time>
      </trkpt>
      <trkpt lat="45.85242" lon="4.82419">
        <ele>264</ele>
        <time>2013-01-27T09:30:02Z</time>
      </trkpt>
      <trkpt lat="45.85241" lon="4.82416">
        <ele>271</ele>
        <time>2013-01-27T09:30:04Z</time>
      </trkpt>
      <trkpt lat="45.85241" lon="4.82411">
        <ele>272</ele>
        <time>2013-01-27T09:30:09Z</time>
      </trkpt>
      <trkpt lat="45.85243" lon="4.82411">
        <ele>271</ele>
        <time>2013-01-27T09:30:11Z</time>
      </trkpt>
      <trkpt lat="45.85242" lon="4.82409">
        <ele>272</ele>
        <time>2013-01-27T09:30:15Z</time>
      </trkpt>
      <trkpt lat="45.85243" lon="4.82403">
        <ele>274</ele>
        <time>2013-01-27T09:30:18Z</time>
      </trkpt>
      <trkpt lat="45.85244" lon="4.82402">
        <ele>275</ele>
        <time>2013-01-27T09:30:19Z</time>
      </trkpt>
      <trkpt lat="45.85246" lon="4.824">
        <ele>275</ele>
        <time>2013-01-27T09:30:20Z</time>
      </trkpt>
      <trkpt lat="45.85247" lon="4.82397">
        <ele>277</ele>
        <time>2013-01-27T09:30:22Z</time>
      </trkpt>
      <trkpt lat="45.85248" lon="4.82395">
        <ele>277</ele>
        <time>2013-01-27T09:30:24Z</time>
      </trkpt>
      <trkpt lat="45.85248" lon="4.82394">
        <ele>278</ele>
        <time>2013-01-27T09:30:25Z</time>
      </trkpt>
      <trkpt lat="45.85249" lon="4.82393">
        <ele>278</ele>
        <time>2013-01-27T09:30:26Z</time>
      </trkpt>
      <trkpt lat="45.85251" lon="4.82385">
        <ele>276</ele>
        <time>2013-01-27T09:30:30Z</time>
      </trkpt>
      <trkpt lat="45.85251" lon="4.82384">
        <ele>276</ele>
        <time>2013-01-27T09:30:32Z</time>
      </trkpt>
      <trkpt lat="45.85253" lon="4.82376">
        <ele>277</ele>
        <time>2013-01-27T09:30:37Z</time>
      </trkpt>
      <trkpt lat="45.85258" lon="4.82369">
        <ele>279</ele>
        <time>2013-01-27T09:30:42Z</time>
      </trkpt>
      <trkpt lat="45.85258" lon="4.82368">
        <ele>279</ele>
        <time>2013-01-27T09:30:43Z</time>
      </trkpt>
      <trkpt lat="45.85258" lon="4.82363">
        <ele>279</ele>
        <time>2013-01-27T09:30:47Z</time>
      </trkpt>
      <trkpt lat="45.85258" lon="4.82362">
        <ele>279</ele>
        <time>2013-01-27T09:30:48Z</time>
      </trkpt>
      <trkpt lat="45.85259" lon="4.8236">
        <ele>279</ele>
        <time>2013-01-27T09:30:50Z</time>
      </trkpt>
      <trkpt lat="45.85262" lon="4.82356">
        <ele>280</ele>
        <time>2013-01-27T09:30:53Z</time>
      </trkpt>
      <trkpt lat="45.85266" lon="4.82348">
        <ele>280</ele>
        <time>2013-01-27T09:30:59Z</time>
      </trkpt>
      <trkpt lat="45.85263" lon="4.82339">
        <ele>280</ele>
        <time>2013-01-27T09:31:06Z</time>
      </trkpt>
      <trkpt lat="45.85263" lon="4.82337">
        <ele>280</ele>
        <time>2013-01-27T09:31:07Z</time>
      </trkpt>
      <trkpt lat="45.85263" lon="4.82336">
        <ele>280</ele>
        <time>2013-01-27T09:31:08Z</time>
      </trkpt>
      <trkpt lat="45.85268" lon="4.82327">
        <ele>288</ele>
        <time>2013-01-27T09:31:14Z</time>
      </trkpt>
      <trkpt lat="45.85271" lon="4.82319">
        <ele>290</ele>
        <time>2013-01-27T09:31:19Z</time>
      </trkpt>
      <trkpt lat="45.85273" lon="4.82313">
        <ele>291</ele>
        <time>2013-01-27T09:31:23Z</time>
      </trkpt>
      <trkpt lat="45.85275" lon="4.82307">
        <ele>293</ele>
        <time>2013-01-27T09:31:27Z</time>
      </trkpt>
      <trkpt lat="45.85275" lon="4.82302">
        <ele>293</ele>
        <time>2013-01-27T09:31:30Z</time>
      </trkpt>
      <trkpt lat="45.85277" lon="4.82298">
        <ele>294</ele>
        <time>2013-01-27T09:31:33Z</time>
      </trkpt>
      <trkpt lat="45.85279" lon="4.82287">
        <ele>296</ele>
        <time>2013-01-27T09:31:41Z</time>
      </trkpt>
      <trkpt lat="45.8528" lon="4.82285">
        <ele>296</ele>
        <time>2013-01-27T09:31:42Z</time>
      </trkpt>
      <trkpt lat="45.85282" lon="4.82275">
        <ele>297</ele>
        <time>2013-01-27T09:31:48Z</time>
      </trkpt>
      <trkpt lat="45.85283" lon="4.82272">
        <ele>298</ele>
        <time>2013-01-27T09:31:50Z</time>
      </trkpt>
      <trkpt lat="45.85288" lon="4.82263">
        <ele>298</ele>
        <time>2013-01-27T09:31:55Z</time>
      </trkpt>
      <trkpt lat="45.85291" lon="4.82255">
        <ele>299</ele>
        <time>2013-01-27T09:32:01Z</time>
      </trkpt>
      <trkpt lat="45.85287" lon="4.82248">
        <ele>311</ele>
        <time>2013-01-27T09:32:12Z</time>
      </trkpt>
      <trkpt lat="45.85292" lon="4.82246">
        <ele>311</ele>
        <time>2013-01-27T09:32:19Z</time>
      </trkpt>
      <trkpt lat="45.85293" lon="4.82241">
        <ele>311</ele>
        <time>2013-01-27T09:32:22Z</time>
      </trkpt>
      <trkpt lat="45.85293" lon="4.8224">
        <ele>311</ele>
        <time>2013-01-27T09:32:25Z</time>
      </trkpt>
      <trkpt lat="45.85296" lon="4.82236">
        <ele>311</ele>
        <time>2013-01-27T09:32:36Z</time>
      </trkpt>
      <trkpt lat="45.85298" lon="4.82226">
        <ele>312</ele>
        <time>2013-01-27T09:32:40Z</time>
      </trkpt>
      <trkpt lat="45.85298" lon="4.8222">
        <ele>313</ele>
        <time>2013-01-27T09:32:44Z</time>
      </trkpt>
      <trkpt lat="45.85293" lon="4.82212">
        <ele>314</ele>
        <time>2013-01-27T09:32:51Z</time>
      </trkpt>
      <trkpt lat="45.85292" lon="4.82212">
        <ele>314</ele>
        <time>2013-01-27T09:32:53Z</time>
      </trkpt>
      <trkpt lat="45.8529" lon="4.82213">
        <ele>314</ele>
        <time>2013-01-27T09:32:54Z</time>
      </trkpt>
      <trkpt lat="45.85288" lon="4.82215">
        <ele>314</ele>
        <time>2013-01-27T09:32:56Z</time>
      </trkpt>
      <trkpt lat="45.85287" lon="4.82217">
        <ele>314</ele>
        <time>2013-01-27T09:32:58Z</time>
      </trkpt>
      <trkpt lat="45.85286" lon="4.82224">
        <ele>313</ele>
        <time>2013-01-27T09:33:01Z</time>
      </trkpt>
      <trkpt lat="45.8528" lon="4.82231">
        <ele>313</ele>
        <time>2013-01-27T09:33:06Z</time>
      </trkpt>
      <trkpt lat="45.85279" lon="4.82231">
        <ele>313</ele>
        <time>2013-01-27T09:33:07Z</time>
      </trkpt>
      <trkpt lat="45.85277" lon="4.82228">
        <ele>313</ele>
        <time>2013-01-27T09:33:09Z</time>
      </trkpt>
      <trkpt lat="45.85276" lon="4.82227">
        <ele>313</ele>
        <time>2013-01-27T09:33:10Z</time>
      </trkpt>
      <trkpt lat="45.85275" lon="4.82225">
        <ele>314</ele>
        <time>2013-01-27T09:33:11Z</time>
      </trkpt>
      <trkpt lat="45.85276" lon="4.82216">
        <ele>315</ele>
        <time>2013-01-27T09:33:15Z</time>
      </trkpt>
      <trkpt lat="45.85275" lon="4.82202">
        <ele>317</ele>
        <time>2013-01-27T09:33:22Z</time>
      </trkpt>
      <trkpt lat="45.85276" lon="4.822">
        <ele>317</ele>
        <time>2013-01-27T09:33:23Z</time>
      </trkpt>
      <trkpt lat="45.85282" lon="4.82191">
        <ele>318</ele>
        <time>2013-01-27T09:33:29Z</time>
      </trkpt>
      <trkpt lat="45.85284" lon="4.82184">
        <ele>319</ele>
        <time>2013-01-27T09:33:34Z</time>
      </trkpt>
      <trkpt lat="45.85285" lon="4.82183">
        <ele>319</ele>
        <time>2013-01-27T09:33:35Z</time>
      </trkpt>
      <trkpt lat="45.85287" lon="4.82179">
        <ele>319</ele>
        <time>2013-01-27T09:33:37Z</time>
      </trkpt>
      <trkpt lat="45.85287" lon="4.82179">
        <ele>319</ele>
        <time>2013-01-27T09:33:38Z</time>
      </trkpt>
      <trkpt lat="45.85288" lon="4.82175">
        <ele>319</ele>
        <time>2013-01-27T09:33:42Z</time>
      </trkpt>
      <trkpt lat="45.85294" lon="4.82182">
        <ele>317</ele>
        <time>2013-01-27T09:33:59Z</time>
      </trkpt>
      <trkpt lat="45.85295" lon="4.82174">
        <ele>318</ele>
        <time>2013-01-27T09:34:03Z</time>
      </trkpt>
      <trkpt lat="45.85291" lon="4.82165">
        <ele>334</ele>
        <time>2013-01-27T09:34:11Z</time>
      </trkpt>
      <trkpt lat="45.85288" lon="4.82162">
        <ele>335</ele>
        <time>2013-01-27T09:34:13Z</time>
      </trkpt>
      <trkpt lat="45.85286" lon="4.82163">
        <ele>335</ele>
        <time>2013-01-27T09:34:14Z</time>
      </trkpt>
      <trkpt lat="45.85283" lon="4.82168">
        <ele>321</ele>
        <time>2013-01-27T09:34:20Z</time>
      </trkpt>
      <trkpt lat="45.85286" lon="4.82171">
        <ele>320</ele>
        <time>2013-01-27T09:34:26Z</time>
      </trkpt>
      <trkpt lat="45.85287" lon="4.82172">
        <ele>319</ele>
        <time>2013-01-27T09:34:27Z</time>
      </trkpt>
      <trkpt lat="45.85292" lon="4.8217">
        <ele>318</ele>
        <time>2013-01-27T09:34:31Z</time>
      </trkpt>
      <trkpt lat="45.85294" lon="4.82169">
        <ele>318</ele>
        <time>2013-01-27T09:34:32Z</time>
      </trkpt>
      <trkpt lat="45.85297" lon="4.82166">
        <ele>332</ele>
        <time>2013-01-27T09:34:35Z</time>
      </trkpt>
      <trkpt lat="45.85301" lon="4.82161">
        <ele>332</ele>
        <time>2013-01-27T09:34:39Z</time>
      </trkpt>
      <trkpt lat="45.85304" lon="4.82148">
        <ele>332</ele>
        <time>2013-01-27T09:34:44Z</time>
      </trkpt>
      <trkpt lat="45.85307" lon="4.82145">
        <ele>333</ele>
        <time>2013-01-27T09:34:50Z</time>
      </trkpt>
      <trkpt lat="45.85313" lon="4.82139">
        <ele>333</ele>
        <time>2013-01-27T09:34:58Z</time>
      </trkpt>
      <trkpt lat="45.85321" lon="4.82141">
        <ele>330</ele>
        <time>2013-01-27T09:35:11Z</time>
      </trkpt>
      <trkpt lat="45.85324" lon="4.82147">
        <ele>328</ele>
        <time>2013-01-27T09:35:14Z</time>
      </trkpt>
      <trkpt lat="45.85328" lon="4.8215">
        <ele>326</ele>
        <time>2013-01-27T09:35:16Z</time>
      </trkpt>
      <trkpt lat="45.8533" lon="4.82154">
        <ele>323</ele>
        <time>2013-01-27T09:35:18Z</time>
      </trkpt>
      <trkpt lat="45.85332" lon="4.82154">
        <ele>323</ele>
        <time>2013-01-27T09:35:20Z</time>
      </trkpt>
      <trkpt lat="45.85332" lon="4.82152">
        <ele>324</ele>
        <time>2013-01-27T09:35:21Z</time>
      </trkpt>
      <trkpt lat="45.85336" lon="4.82145">
        <ele>325</ele>
        <time>2013-01-27T09:35:26Z</time>
      </trkpt>
      <trkpt lat="45.85338" lon="4.82143">
        <ele>326</ele>
        <time>2013-01-27T09:35:28Z</time>
      </trkpt>
      <trkpt lat="45.85342" lon="4.82138">
        <ele>328</ele>
        <time>2013-01-27T09:35:33Z</time>
      </trkpt>
      <trkpt lat="45.85342" lon="4.82134">
        <ele>329</ele>
        <time>2013-01-27T09:35:35Z</time>
      </trkpt>
      <trkpt lat="45.85343" lon="4.82126">
        <ele>331</ele>
        <time>2013-01-27T09:35:39Z</time>
      </trkpt>
      <trkpt lat="45.85345" lon="4.82126">
        <ele>331</ele>
        <time>2013-01-27T09:35:41Z</time>
      </trkpt>
      <trkpt lat="45.85347" lon="4.82125">
        <ele>331</ele>
        <time>2013-01-27T09:35:43Z</time>
      </trkpt>
      <trkpt lat="45.85348" lon="4.82124">
        <ele>331</ele>
        <time>2013-01-27T09:35:44Z</time>
      </trkpt>
      <trkpt lat="45.8535" lon="4.82125">
        <ele>331</ele>
        <time>2013-01-27T09:35:46Z</time>
      </trkpt>
      <trkpt lat="45.8535" lon="4.82124">
        <ele>331</ele>
        <time>2013-01-27T09:35:50Z</time>
      </trkpt>
      <trkpt lat="45.85355" lon="4.82128">
        <ele>331</ele>
        <time>2013-01-27T09:36:19Z</time>
      </trkpt>
      <trkpt lat="45.85361" lon="4.82123">
        <ele>332</ele>
        <time>2013-01-27T09:36:25Z</time>
      </trkpt>
      <trkpt lat="45.85362" lon="4.82123">
        <ele>333</ele>
        <time>2013-01-27T09:36:26Z</time>
      </trkpt>
      <trkpt lat="45.85367" lon="4.82118">
        <ele>333</ele>
        <time>2013-01-27T09:36:33Z</time>
      </trkpt>
      <trkpt lat="45.85367" lon="4.82117">
        <ele>334</ele>
        <time>2013-01-27T09:36:35Z</time>
      </trkpt>
      <trkpt lat="45.85369" lon="4.82108">
        <ele>334</ele>
        <time>2013-01-27T09:36:42Z</time>
      </trkpt>
      <trkpt lat="45.85369" lon="4.82106">
        <ele>335</ele>
        <time>2013-01-27T09:36:43Z</time>
      </trkpt>
      <trkpt lat="45.85368" lon="4.82101">
        <ele>335</ele>
        <time>2013-01-27T09:36:46Z</time>
      </trkpt>
      <trkpt lat="45.85368" lon="4.82096">
        <ele>335</ele>
        <time>2013-01-27T09:36:50Z</time>
      </trkpt>
      <trkpt lat="45.8537" lon="4.82089">
        <ele>336</ele>
        <time>2013-01-27T09:36:55Z</time>
      </trkpt>
      <trkpt lat="45.8537" lon="4.82088">
        <ele>336</ele>
        <time>2013-01-27T09:36:56Z</time>
      </trkpt>
      <trkpt lat="45.85372" lon="4.82085">
        <ele>336</ele>
        <time>2013-01-27T09:37:01Z</time>
      </trkpt>
      <trkpt lat="45.85376" lon="4.82081">
        <ele>346</ele>
        <time>2013-01-27T09:37:05Z</time>
      </trkpt>
      <trkpt lat="45.85378" lon="4.82079">
        <ele>346</ele>
        <time>2013-01-27T09:37:07Z</time>
      </trkpt>
      <trkpt lat="45.8538" lon="4.82073">
        <ele>347</ele>
        <time>2013-01-27T09:37:11Z</time>
      </trkpt>
      <trkpt lat="45.8538" lon="4.8207">
        <ele>347</ele>
        <time>2013-01-27T09:37:23Z</time>
      </trkpt>
      <trkpt lat="45.85381" lon="4.8207">
        <ele>347</ele>
        <time>2013-01-27T09:37:26Z</time>
      </trkpt>
      <trkpt lat="45.8538" lon="4.82062">
        <ele>348</ele>
        <time>2013-01-27T09:37:38Z</time>
      </trkpt>
      <trkpt lat="45.85379" lon="4.82058">
        <ele>348</ele>
        <time>2013-01-27T09:37:41Z</time>
      </trkpt>
      <trkpt lat="45.8538" lon="4.82054">
        <ele>349</ele>
        <time>2013-01-27T09:37:44Z</time>
      </trkpt>
      <trkpt lat="45.85383" lon="4.82046">
        <ele>349</ele>
        <time>2013-01-27T09:37:48Z</time>
      </trkpt>
      <trkpt lat="45.85382" lon="4.82041">
        <ele>350</ele>
        <time>2013-01-27T09:37:58Z</time>
      </trkpt>
      <trkpt lat="45.85385" lon="4.82041">
        <ele>350</ele>
        <time>2013-01-27T09:38:01Z</time>
      </trkpt>
      <trkpt lat="45.85389" lon="4.82042">
        <ele>350</ele>
        <time>2013-01-27T09:38:07Z</time>
      </trkpt>
      <trkpt lat="45.85395" lon="4.82039">
        <ele>350</ele>
        <time>2013-01-27T09:38:14Z</time>
      </trkpt>
      <trkpt lat="45.854" lon="4.82038">
        <ele>350</ele>
        <time>2013-01-27T09:38:19Z</time>
      </trkpt>
      <trkpt lat="45.85401" lon="4.82039">
        <ele>350</ele>
        <time>2013-01-27T09:38:20Z</time>
      </trkpt>
      <trkpt lat="45.85406" lon="4.82046">
        <ele>349</ele>
        <time>2013-01-27T09:38:25Z</time>
      </trkpt>
      <trkpt lat="45.85406" lon="4.82047">
        <ele>349</ele>
        <time>2013-01-27T09:38:28Z</time>
      </trkpt>
      <trkpt lat="45.85411" lon="4.82052">
        <ele>349</ele>
        <time>2013-01-27T09:38:35Z</time>
      </trkpt>
      <trkpt lat="45.85413" lon="4.82055">
        <ele>348</ele>
        <time>2013-01-27T09:38:38Z</time>
      </trkpt>
      <trkpt lat="45.85415" lon="4.82056">
        <ele>348</ele>
        <time>2013-01-27T09:38:40Z</time>
      </trkpt>
      <trkpt lat="45.85416" lon="4.82059">
        <ele>347</ele>
        <time>2013-01-27T09:38:42Z</time>
      </trkpt>
      <trkpt lat="45.85416" lon="4.82063">
        <ele>347</ele>
        <time>2013-01-27T09:38:46Z</time>
      </trkpt>
      <trkpt lat="45.85417" lon="4.82064">
        <ele>356</ele>
        <time>2013-01-27T09:38:48Z</time>
      </trkpt>
      <trkpt lat="45.85418" lon="4.82067">
        <ele>355</ele>
        <time>2013-01-27T09:38:53Z</time>
      </trkpt>
      <trkpt lat="45.85416" lon="4.8207">
        <ele>346</ele>
        <time>2013-01-27T09:39:04Z</time>
      </trkpt>
      <trkpt lat="45.85417" lon="4.82071">
        <ele>346</ele>
        <time>2013-01-27T09:39:05Z</time>
      </trkpt>
      <trkpt lat="45.85419" lon="4.82075">
        <ele>351</ele>
        <time>2013-01-27T09:39:17Z</time>
      </trkpt>
      <trkpt lat="45.8542" lon="4.82077">
        <ele>350</ele>
        <time>2013-01-27T09:39:26Z</time>
      </trkpt>
      <trkpt lat="45.85421" lon="4.82085">
        <ele>346</ele>
        <time>2013-01-27T09:39:32Z</time>
      </trkpt>
      <trkpt lat="45.8542" lon="4.82088">
        <ele>347</ele>
        <time>2013-01-27T09:39:33Z</time>
      </trkpt>
      <trkpt lat="45.85421" lon="4.821">
        <ele>352</ele>
        <time>2013-01-27T09:39:36Z</time>
      </trkpt>
      <trkpt lat="45.85426" lon="4.82111">
        <ele>355</ele>
        <time>2013-01-27T09:39:40Z</time>
      </trkpt>
      <trkpt lat="45.85426" lon="4.82113">
        <ele>355</ele>
        <time>2013-01-27T09:39:41Z</time>
      </trkpt>
      <trkpt lat="45.85426" lon="4.82124">
        <ele>356</ele>
        <time>2013-01-27T09:39:45Z</time>
      </trkpt>
      <trkpt lat="45.85427" lon="4.8213">
        <ele>356</ele>
        <time>2013-01-27T09:39:50Z</time>
      </trkpt>
      <trkpt lat="45.85427" lon="4.82132">
        <ele>355</ele>
        <time>2013-01-27T09:39:51Z</time>
      </trkpt>
      <trkpt lat="45.85426" lon="4.82136">
        <ele>355</ele>
        <time>2013-01-27T09:39:57Z</time>
      </trkpt>
      <trkpt lat="45.85426" lon="4.82133">
        <ele>355</ele>
        <time>2013-01-27T09:40:05Z</time>
      </trkpt>
      <trkpt lat="45.85424" lon="4.82133">
        <ele>355</ele>
        <time>2013-01-27T09:40:07Z</time>
      </trkpt>
      <trkpt lat="45.85422" lon="4.82132">
        <ele>355</ele>
        <time>2013-01-27T09:40:15Z</time>
      </trkpt>
      <trkpt lat="45.8542" lon="4.82132">
        <ele>355</ele>
        <time>2013-01-27T09:40:22Z</time>
      </trkpt>
      <trkpt lat="45.85417" lon="4.82135">
        <ele>354</ele>
        <time>2013-01-27T09:40:28Z</time>
      </trkpt>
      <trkpt lat="45.85413" lon="4.82136">
        <ele>336</ele>
        <time>2013-01-27T09:40:33Z</time>
      </trkpt>
      <trkpt lat="45.85411" lon="4.82137">
        <ele>336</ele>
        <time>2013-01-27T09:40:35Z</time>
      </trkpt>
      <trkpt lat="45.85409" lon="4.82142">
        <ele>336</ele>
        <time>2013-01-27T09:40:39Z</time>
      </trkpt>
      <trkpt lat="45.85408" lon="4.82143">
        <ele>336</ele>
        <time>2013-01-27T09:40:40Z</time>
      </trkpt>
      <trkpt lat="45.85407" lon="4.82143">
        <ele>336</ele>
        <time>2013-01-27T09:40:41Z</time>
      </trkpt>
      <trkpt lat="45.85405" lon="4.82144">
        <ele>336</ele>
        <time>2013-01-27T09:40:44Z</time>
      </trkpt>
      <trkpt lat="45.85405" lon="4.82145">
        <ele>336</ele>
        <time>2013-01-27T09:40:45Z</time>
      </trkpt>
      <trkpt lat="45.85401" lon="4.82146">
        <ele>335</ele>
        <time>2013-01-27T09:40:50Z</time>
      </trkpt>
      <trkpt lat="45.85401" lon="4.82147">
        <ele>335</ele>
        <time>2013-01-27T09:40:51Z</time>
      </trkpt>
      <trkpt lat="45.854" lon="4.82151">
        <ele>335</ele>
        <time>2013-01-27T09:40:54Z</time>
      </trkpt>
      <trkpt lat="45.85399" lon="4.82152">
        <ele>335</ele>
        <time>2013-01-27T09:40:55Z</time>
      </trkpt>
      <trkpt lat="45.85398" lon="4.8216">
        <ele>336</ele>
        <time>2013-01-27T09:40:59Z</time>
      </trkpt>
      <trkpt lat="45.85399" lon="4.82165">
        <ele>336</ele>
        <time>2013-01-27T09:41:01Z</time>
      </trkpt>
      <trkpt lat="45.85399" lon="4.82166">
        <ele>336</ele>
        <time>2013-01-27T09:41:02Z</time>
      </trkpt>
      <trkpt lat="45.85399" lon="4.82167">
        <ele>332</ele>
        <time>2013-01-27T09:41:04Z</time>
      </trkpt>
      <trkpt lat="45.85398" lon="4.82172">
        <ele>331</ele>
        <time>2013-01-27T09:41:08Z</time>
      </trkpt>
      <trkpt lat="45.85398" lon="4.82174">
        <ele>331</ele>
        <time>2013-01-27T09:41:09Z</time>
      </trkpt>
      <trkpt lat="45.85398" lon="4.82178">
        <ele>331</ele>
        <time>2013-01-27T09:41:11Z</time>
      </trkpt>
      <trkpt lat="45.85397" lon="4.82184">
        <ele>330</ele>
        <time>2013-01-27T09:41:14Z</time>
      </trkpt>
      <trkpt lat="45.85397" lon="4.82187">
        <ele>329</ele>
        <time>2013-01-27T09:41:16Z</time>
      </trkpt>
      <trkpt lat="45.85396" lon="4.82186">
        <ele>329</ele>
        <time>2013-01-27T09:41:17Z</time>
      </trkpt>
      <trkpt lat="45.85396" lon="4.82188">
        <ele>329</ele>
        <time>2013-01-27T09:41:19Z</time>
      </trkpt>
      <trkpt lat="45.85393" lon="4.82189">
        <ele>328</ele>
        <time>2013-01-27T09:41:25Z</time>
      </trkpt>
      <trkpt lat="45.85389" lon="4.82193">
        <ele>327</ele>
        <time>2013-01-27T09:41:35Z</time>
      </trkpt>
      <trkpt lat="45.85387" lon="4.822">
        <ele>327</ele>
        <time>2013-01-27T09:41:39Z</time>
      </trkpt>
      <trkpt lat="45.85386" lon="4.82202">
        <ele>326</ele>
        <time>2013-01-27T09:41:40Z</time>
      </trkpt>
      <trkpt lat="45.85386" lon="4.82204">
        <ele>326</ele>
        <time>2013-01-27T09:41:41Z</time>
      </trkpt>
      <trkpt lat="45.85386" lon="4.82206">
        <ele>326</ele>
        <time>2013-01-27T09:41:42Z</time>
      </trkpt>
      <trkpt lat="45.85386" lon="4.82209">
        <ele>326</ele>
        <time>2013-01-27T09:41:43Z</time>
      </trkpt>
      <trkpt lat="45.85385" lon="4.82211">
        <ele>326</ele>
        <time>2013-01-27T09:41:44Z</time>
      </trkpt>
      <trkpt lat="45.85382" lon="4.82218">
        <ele>325</ele>
        <time>2013-01-27T09:41:48Z</time>
      </trkpt>
      <trkpt lat="45.8538" lon="4.82222">
        <ele>325</ele>
        <time>2013-01-27T09:41:51Z</time>
      </trkpt>
      <trkpt lat="45.85379" lon="4.82227">
        <ele>324</ele>
        <time>2013-01-27T09:41:54Z</time>
      </trkpt>
      <trkpt lat="45.85378" lon="4.82231">
        <ele>324</ele>
        <time>2013-01-27T09:41:56Z</time>
      </trkpt>
      <trkpt lat="45.85377" lon="4.82235">
        <ele>324</ele>
        <time>2013-01-27T09:41:59Z</time>
      </trkpt>
      <trkpt lat="45.85377" lon="4.82241">
        <ele>324</ele>
        <time>2013-01-27T09:42:06Z</time>
      </trkpt>
      <trkpt lat="45.85376" lon="4.82243">
        <ele>323</ele>
        <time>2013-01-27T09:42:08Z</time>
      </trkpt>
      <trkpt lat="45.85376" lon="4.82245">
        <ele>324</ele>
        <time>2013-01-27T09:42:10Z</time>
      </trkpt>
      <trkpt lat="45.85377" lon="4.82245">
        <ele>324</ele>
        <time>2013-01-27T09:42:33Z</time>
      </trkpt>
      <trkpt lat="45.85375" lon="4.82252">
        <ele>320</ele>
        <time>2013-01-27T09:42:40Z</time>
      </trkpt>
      <trkpt lat="45.85378" lon="4.82256">
        <ele>321</ele>
        <time>2013-01-27T09:42:49Z</time>
      </trkpt>
      <trkpt lat="45.85381" lon="4.82258">
        <ele>322</ele>
        <time>2013-01-27T09:42:54Z</time>
      </trkpt>
      <trkpt lat="45.85381" lon="4.82259">
        <ele>322</ele>
        <time>2013-01-27T09:43:05Z</time>
      </trkpt>
      <trkpt lat="45.8538" lon="4.82258">
        <ele>322</ele>
        <time>2013-01-27T09:43:06Z</time>
      </trkpt>
      <trkpt lat="45.85378" lon="4.82261">
        <ele>321</ele>
        <time>2013-01-27T09:43:09Z</time>
      </trkpt>
      <trkpt lat="45.85377" lon="4.82262">
        <ele>321</ele>
        <time>2013-01-27T09:43:10Z</time>
      </trkpt>
      <trkpt lat="45.85377" lon="4.82263">
        <ele>321</ele>
        <time>2013-01-27T09:43:14Z</time>
      </trkpt>
      <trkpt lat="45.85379" lon="4.82264">
        <ele>322</ele>
        <time>2013-01-27T09:43:22Z</time>
      </trkpt>
      <trkpt lat="45.8538" lon="4.82265">
        <ele>322</ele>
        <time>2013-01-27T09:43:23Z</time>
      </trkpt>
      <trkpt lat="45.85383" lon="4.82266">
        <ele>323</ele>
        <time>2013-01-27T09:43:27Z</time>
      </trkpt>
      <trkpt lat="45.85383" lon="4.82266">
        <ele>323</ele>
        <time>2013-01-27T09:43:28Z</time>
      </trkpt>
      <trkpt lat="45.85383" lon="4.82267">
        <ele>323</ele>
        <time>2013-01-27T09:43:44Z</time>
      </trkpt>
      <trkpt lat="45.85383" lon="4.82269">
        <ele>323</ele>
        <time>2013-01-27T09:43:53Z</time>
      </trkpt>
      <trkpt lat="45.85383" lon="4.82272">
        <ele>322</ele>
        <time>2013-01-27T09:43:58Z</time>
      </trkpt>
      <trkpt lat="45.85383" lon="4.82276">
        <ele>322</ele>
        <time>2013-01-27T09:44:07Z</time>
      </trkpt>
      <trkpt lat="45.85383" lon="4.82275">
        <ele>322</ele>
        <time>2013-01-27T09:44:10Z</time>
      </trkpt>
      <trkpt lat="45.85382" lon="4.82278">
        <ele>322</ele>
        <time>2013-01-27T09:44:15Z</time>
      </trkpt>
      <trkpt lat="45.8538" lon="4.82283">
        <ele>321</ele>
        <time>2013-01-27T09:44:20Z</time>
      </trkpt>
      <trkpt lat="45.8538" lon="4.82287">
        <ele>321</ele>
        <time>2013-01-27T09:44:23Z</time>
      </trkpt>
      <trkpt lat="45.85379" lon="4.82289">
        <ele>321</ele>
        <time>2013-01-27T09:44:24Z</time>
      </trkpt>
      <trkpt lat="45.85377" lon="4.82293">
        <ele>320</ele>
        <time>2013-01-27T09:44:26Z</time>
      </trkpt>
      <trkpt lat="45.85375" lon="4.82297">
        <ele>320</ele>
        <time>2013-01-27T09:44:29Z</time>
      </trkpt>
      <trkpt lat="45.85373" lon="4.82301">
        <ele>319</ele>
        <time>2013-01-27T09:44:31Z</time>
      </trkpt>
      <trkpt lat="45.85372" lon="4.82302">
        <ele>319</ele>
        <time>2013-01-27T09:44:32Z</time>
      </trkpt>
      <trkpt lat="45.85369" lon="4.82305">
        <ele>318</ele>
        <time>2013-01-27T09:44:36Z</time>
      </trkpt>
      <trkpt lat="45.85371" lon="4.82312">
        <ele>318</ele>
        <time>2013-01-27T09:44:41Z</time>
      </trkpt>
      <trkpt lat="45.85371" lon="4.82314">
        <ele>318</ele>
        <time>2013-01-27T09:44:42Z</time>
      </trkpt>
      <trkpt lat="45.85373" lon="4.82323">
        <ele>318</ele>
        <time>2013-01-27T09:44:46Z</time>
      </trkpt>
      <trkpt lat="45.85373" lon="4.82326">
        <ele>318</ele>
        <time>2013-01-27T09:44:48Z</time>
      </trkpt>
      <trkpt lat="45.85373" lon="4.82328">
        <ele>318</ele>
        <time>2013-01-27T09:44:50Z</time>
      </trkpt>
      <trkpt lat="45.85372" lon="4.82331">
        <ele>318</ele>
        <time>2013-01-27T09:44:52Z</time>
      </trkpt>
      <trkpt lat="45.8537" lon="4.82332">
        <ele>317</ele>
        <time>2013-01-27T09:44:54Z</time>
      </trkpt>
      <trkpt lat="45.85367" lon="4.82335">
        <ele>314</ele>
        <time>2013-01-27T09:44:57Z</time>
      </trkpt>
      <trkpt lat="45.85365" lon="4.82339">
        <ele>313</ele>
        <time>2013-01-27T09:44:59Z</time>
      </trkpt>
      <trkpt lat="45.85361" lon="4.82344">
        <ele>311</ele>
        <time>2013-01-27T09:45:04Z</time>
      </trkpt>
      <trkpt lat="45.85356" lon="4.82351">
        <ele>310</ele>
        <time>2013-01-27T09:45:09Z</time>
      </trkpt>
      <trkpt lat="45.85357" lon="4.82356">
        <ele>311</ele>
        <time>2013-01-27T09:45:12Z</time>
      </trkpt>
      <trkpt lat="45.85357" lon="4.82362">
        <ele>311</ele>
        <time>2013-01-27T09:45:14Z</time>
      </trkpt>
      <trkpt lat="45.85357" lon="4.82364">
        <ele>312</ele>
        <time>2013-01-27T09:45:15Z</time>
      </trkpt>
      <trkpt lat="45.85358" lon="4.82374">
        <ele>312</ele>
        <time>2013-01-27T09:45:19Z</time>
      </trkpt>
      <trkpt lat="45.85358" lon="4.82385">
        <ele>311</ele>
        <time>2013-01-27T09:45:24Z</time>
      </trkpt>
      <trkpt lat="45.85358" lon="4.82387">
        <ele>311</ele>
        <time>2013-01-27T09:45:25Z</time>
      </trkpt>
      <trkpt lat="45.85358" lon="4.82388">
        <ele>311</ele>
        <time>2013-01-27T09:45:26Z</time>
      </trkpt>
      <trkpt lat="45.85358" lon="4.8239">
        <ele>311</ele>
        <time>2013-01-27T09:45:27Z</time>
      </trkpt>
      <trkpt lat="45.85357" lon="4.82393">
        <ele>310</ele>
        <time>2013-01-27T09:45:29Z</time>
      </trkpt>
      <trkpt lat="45.85356" lon="4.82397">
        <ele>309</ele>
        <time>2013-01-27T09:45:32Z</time>
      </trkpt>
      <trkpt lat="45.85354" lon="4.82401">
        <ele>308</ele>
        <time>2013-01-27T09:45:35Z</time>
      </trkpt>
      <trkpt lat="45.85354" lon="4.82402">
        <ele>308</ele>
        <time>2013-01-27T09:45:36Z</time>
      </trkpt>
      <trkpt lat="45.85354" lon="4.82406">
        <ele>307</ele>
        <time>2013-01-27T09:45:42Z</time>
      </trkpt>
      <trkpt lat="45.85355" lon="4.82414">
        <ele>306</ele>
        <time>2013-01-27T09:45:47Z</time>
      </trkpt>
      <trkpt lat="45.85355" lon="4.82415">
        <ele>306</ele>
        <time>2013-01-27T09:45:48Z</time>
      </trkpt>
      <trkpt lat="45.85358" lon="4.82421">
        <ele>306</ele>
        <time>2013-01-27T09:45:51Z</time>
      </trkpt>
      <trkpt lat="45.85361" lon="4.82426">
        <ele>308</ele>
        <time>2013-01-27T09:45:54Z</time>
      </trkpt>
      <trkpt lat="45.85362" lon="4.82434">
        <ele>308</ele>
        <time>2013-01-27T09:46:03Z</time>
      </trkpt>
      <trkpt lat="45.85359" lon="4.82432">
        <ele>307</ele>
        <time>2013-01-27T09:46:05Z</time>
      </trkpt>
      <trkpt lat="45.8536" lon="4.82433">
        <ele>308</ele>
        <time>2013-01-27T09:46:06Z</time>
      </trkpt>
      <trkpt lat="45.85361" lon="4.82434">
        <ele>308</ele>
        <time>2013-01-27T09:46:07Z</time>
      </trkpt>
      <trkpt lat="45.85363" lon="4.82441">
        <ele>309</ele>
        <time>2013-01-27T09:46:20Z</time>
      </trkpt>
      <trkpt lat="45.85361" lon="4.82441">
        <ele>308</ele>
        <time>2013-01-27T09:46:26Z</time>
      </trkpt>
      <trkpt lat="45.85363" lon="4.82442">
        <ele>310</ele>
        <time>2013-01-27T09:46:36Z</time>
      </trkpt>
      <trkpt lat="45.85363" lon="4.82452">
        <ele>309</ele>
        <time>2013-01-27T09:46:45Z</time>
      </trkpt>
      <trkpt lat="45.85363" lon="4.82455">
        <ele>309</ele>
        <time>2013-01-27T09:46:47Z</time>
      </trkpt>
      <trkpt lat="45.85363" lon="4.82458">
        <ele>309</ele>
        <time>2013-01-27T09:46:50Z</time>
      </trkpt>
      <trkpt lat="45.85363" lon="4.8246">
        <ele>309</ele>
        <time>2013-01-27T09:46:53Z</time>
      </trkpt>
      <trkpt lat="45.85363" lon="4.82464">
        <ele>309</ele>
        <time>2013-01-27T09:46:55Z</time>
      </trkpt>
      <trkpt lat="45.85363" lon="4.82467">
        <ele>309</ele>
        <time>2013-01-27T09:46:57Z</time>
      </trkpt>
      <trkpt lat="45.85363" lon="4.82469">
        <ele>309</ele>
        <time>2013-01-27T09:46:58Z</time>
      </trkpt>
      <trkpt lat="45.85362" lon="4.82472">
        <ele>308</ele>
        <time>2013-01-27T09:47:00Z</time>
      </trkpt>
      <trkpt lat="45.85362" lon="4.82475">
        <ele>308</ele>
        <time>2013-01-27T09:47:02Z</time>
      </trkpt>
      <trkpt lat="45.85361" lon="4.82481">
        <ele>307</ele>
        <time>2013-01-27T09:47:07Z</time>
      </trkpt>
      <trkpt lat="45.85361" lon="4.82482">
        <ele>307</ele>
        <time>2013-01-27T09:47:11Z</time>
      </trkpt>
      <trkpt lat="45.85363" lon="4.82485">
        <ele>307</ele>
        <time>2013-01-27T09:47:13Z</time>
      </trkpt>
      <trkpt lat="45.85366" lon="4.8249">
        <ele>308</ele>
        <time>2013-01-27T09:47:17Z</time>
      </trkpt>
      <trkpt lat="45.8537" lon="4.82492">
        <ele>310</ele>
        <time>2013-01-27T09:47:28Z</time>
      </trkpt>
      <trkpt lat="45.85372" lon="4.82491">
        <ele>311</ele>
        <time>2013-01-27T09:47:33Z</time>
      </trkpt>
      <trkpt lat="45.85373" lon="4.82491">
        <ele>311</ele>
        <time>2013-01-27T09:47:34Z</time>
      </trkpt>
      <trkpt lat="45.85381" lon="4.82499">
        <ele>315</ele>
        <time>2013-01-27T09:48:06Z</time>
      </trkpt>
      <trkpt lat="45.85382" lon="4.82499">
        <ele>315</ele>
        <time>2013-01-27T09:48:10Z</time>
      </trkpt>
      <trkpt lat="45.85385" lon="4.82498">
        <ele>317</ele>
        <time>2013-01-27T09:48:13Z</time>
      </trkpt>
      <trkpt lat="45.85387" lon="4.825">
        <ele>313</ele>
        <time>2013-01-27T09:48:16Z</time>
      </trkpt>
      <trkpt lat="45.85389" lon="4.825">
        <ele>314</ele>
        <time>2013-01-27T09:48:22Z</time>
      </trkpt>
      <trkpt lat="45.85389" lon="4.82502">
        <ele>314</ele>
        <time>2013-01-27T09:48:27Z</time>
      </trkpt>
      <trkpt lat="45.85392" lon="4.82502">
        <ele>316</ele>
        <time>2013-01-27T09:48:32Z</time>
      </trkpt>
      <trkpt lat="45.85392" lon="4.82503">
        <ele>315</ele>
        <time>2013-01-27T09:48:33Z</time>
      </trkpt>
      <trkpt lat="45.85389" lon="4.82505">
        <ele>314</ele>
        <time>2013-01-27T09:48:38Z</time>
      </trkpt>
      <trkpt lat="45.85389" lon="4.82508">
        <ele>313</ele>
        <time>2013-01-27T09:48:44Z</time>
      </trkpt>
      <trkpt lat="45.85389" lon="4.82518">
        <ele>312</ele>
        <time>2013-01-27T09:48:53Z</time>
      </trkpt>
      <trkpt lat="45.85388" lon="4.82523">
        <ele>311</ele>
        <time>2013-01-27T09:48:57Z</time>
      </trkpt>
      <trkpt lat="45.85388" lon="4.82527">
        <ele>311</ele>
        <time>2013-01-27T09:49:00Z</time>
      </trkpt>
      <trkpt lat="45.85387" lon="4.82535">
        <ele>309</ele>
        <time>2013-01-27T09:49:05Z</time>
      </trkpt>
      <trkpt lat="45.85388" lon="4.82539">
        <ele>309</ele>
        <time>2013-01-27T09:49:07Z</time>
      </trkpt>
      <trkpt lat="45.85388" lon="4.82541">
        <ele>309</ele>
        <time>2013-01-27T09:49:09Z</time>
      </trkpt>
      <trkpt lat="45.85388" lon="4.82542">
        <ele>309</ele>
        <time>2013-01-27T09:49:10Z</time>
      </trkpt>
      <trkpt lat="45.8539" lon="4.82548">
        <ele>309</ele>
        <time>2013-01-27T09:49:14Z</time>
      </trkpt>
      <trkpt lat="45.85389" lon="4.82549">
        <ele>309</ele>
        <time>2013-01-27T09:49:15Z</time>
      </trkpt>
      <trkpt lat="45.8539" lon="4.82552">
        <ele>309</ele>
        <time>2013-01-27T09:49:19Z</time>
      </trkpt>
      <trkpt lat="45.8539" lon="4.82556">
        <ele>309</ele>
        <time>2013-01-27T09:49:24Z</time>
      </trkpt>
      <trkpt lat="45.85392" lon="4.82565">
        <ele>311</ele>
        <time>2013-01-27T09:49:29Z</time>
      </trkpt>
      <trkpt lat="45.85393" lon="4.82566">
        <ele>311</ele>
        <time>2013-01-27T09:49:30Z</time>
      </trkpt>
      <trkpt lat="45.85395" lon="4.82578">
        <ele>313</ele>
        <time>2013-01-27T09:49:36Z</time>
      </trkpt>
      <trkpt lat="45.85395" lon="4.82586">
        <ele>309</ele>
        <time>2013-01-27T09:49:41Z</time>
      </trkpt>
      <trkpt lat="45.85395" lon="4.82587">
        <ele>309</ele>
        <time>2013-01-27T09:49:42Z</time>
      </trkpt>
      <trkpt lat="45.85396" lon="4.8259">
        <ele>309</ele>
        <time>2013-01-27T09:49:44Z</time>
      </trkpt>
      <trkpt lat="45.85397" lon="4.82594">
        <ele>309</ele>
        <time>2013-01-27T09:49:48Z</time>
      </trkpt>
      <trkpt lat="45.85398" lon="4.82597">
        <ele>309</ele>
        <time>2013-01-27T09:49:50Z</time>
      </trkpt>
      <trkpt lat="45.854" lon="4.82605">
        <ele>308</ele>
        <time>2013-01-27T09:49:53Z</time>
      </trkpt>
      <trkpt lat="45.854" lon="4.82615">
        <ele>305</ele>
        <time>2013-01-27T09:49:58Z</time>
      </trkpt>
      <trkpt lat="45.854" lon="4.82617">
        <ele>305</ele>
        <time>2013-01-27T09:49:59Z</time>
      </trkpt>
      <trkpt lat="45.85401" lon="4.82623">
        <ele>305</ele>
        <time>2013-01-27T09:50:02Z</time>
      </trkpt>
      <trkpt lat="45.85401" lon="4.82629">
        <ele>304</ele>
        <time>2013-01-27T09:50:06Z</time>
      </trkpt>
      <trkpt lat="45.85401" lon="4.8263">
        <ele>304</ele>
        <time>2013-01-27T09:50:07Z</time>
      </trkpt>
      <trkpt lat="45.85403" lon="4.82639">
        <ele>305</ele>
        <time>2013-01-27T09:50:12Z</time>
      </trkpt>
      <trkpt lat="45.85403" lon="4.82639">
        <ele>305</ele>
        <time>2013-01-27T09:50:13Z</time>
      </trkpt>
      <trkpt lat="45.85404" lon="4.82644">
        <ele>306</ele>
        <time>2013-01-27T09:50:16Z</time>
      </trkpt>
      <trkpt lat="45.85404" lon="4.82646">
        <ele>306</ele>
        <time>2013-01-27T09:50:17Z</time>
      </trkpt>
      <trkpt lat="45.85407" lon="4.82648">
        <ele>307</ele>
        <time>2013-01-27T09:50:19Z</time>
      </trkpt>
      <trkpt lat="45.85407" lon="4.82651">
        <ele>308</ele>
        <time>2013-01-27T09:50:23Z</time>
      </trkpt>
      <trkpt lat="45.85405" lon="4.82656">
        <ele>308</ele>
        <time>2013-01-27T09:50:31Z</time>
      </trkpt>
      <trkpt lat="45.85402" lon="4.82659">
        <ele>307</ele>
        <time>2013-01-27T09:50:53Z</time>
      </trkpt>
      <trkpt lat="45.85403" lon="4.82662">
        <ele>308</ele>
        <time>2013-01-27T09:50:57Z</time>
      </trkpt>
      <trkpt lat="45.85402" lon="4.82665">
        <ele>308</ele>
        <time>2013-01-27T09:51:02Z</time>
      </trkpt>
      <trkpt lat="45.85402" lon="4.82667">
        <ele>303</ele>
        <time>2013-01-27T09:51:03Z</time>
      </trkpt>
      <trkpt lat="45.85402" lon="4.8267">
        <ele>303</ele>
        <time>2013-01-27T09:51:04Z</time>
      </trkpt>
      <trkpt lat="45.85405" lon="4.8268">
        <ele>301</ele>
        <time>2013-01-27T09:51:09Z</time>
      </trkpt>
      <trkpt lat="45.85408" lon="4.8269">
        <ele>297</ele>
        <time>2013-01-27T09:51:13Z</time>
      </trkpt>
      <trkpt lat="45.85408" lon="4.82692">
        <ele>297</ele>
        <time>2013-01-27T09:51:14Z</time>
      </trkpt>
      <trkpt lat="45.85413" lon="4.82702">
        <ele>295</ele>
        <time>2013-01-27T09:51:18Z</time>
      </trkpt>
      <trkpt lat="45.85416" lon="4.8271">
        <ele>294</ele>
        <time>2013-01-27T09:51:21Z</time>
      </trkpt>
      <trkpt lat="45.85415" lon="4.82715">
        <ele>293</ele>
        <time>2013-01-27T09:51:23Z</time>
      </trkpt>
      <trkpt lat="45.85417" lon="4.82722">
        <ele>293</ele>
        <time>2013-01-27T09:51:26Z</time>
      </trkpt>
      <trkpt lat="45.85418" lon="4.82728">
        <ele>310</ele>
        <time>2013-01-27T09:51:28Z</time>
      </trkpt>
      <trkpt lat="45.85419" lon="4.82737">
        <ele>308</ele>
        <time>2013-01-27T09:51:31Z</time>
      </trkpt>
      <trkpt lat="45.85421" lon="4.8274">
        <ele>307</ele>
        <time>2013-01-27T09:51:32Z</time>
      </trkpt>
      <trkpt lat="45.85423" lon="4.82742">
        <ele>307</ele>
        <time>2013-01-27T09:51:33Z</time>
      </trkpt>
      <trkpt lat="45.85428" lon="4.82746">
        <ele>308</ele>
        <time>2013-01-27T09:51:37Z</time>
      </trkpt>
      <trkpt lat="45.8543" lon="4.82747">
        <ele>308</ele>
        <time>2013-01-27T09:51:38Z</time>
      </trkpt>
      <trkpt lat="45.85438" lon="4.82748">
        <ele>310</ele>
        <time>2013-01-27T09:51:42Z</time>
      </trkpt>
      <trkpt lat="45.85441" lon="4.82747">
        <ele>310</ele>
        <time>2013-01-27T09:51:43Z</time>
      </trkpt>
      <trkpt lat="45.8545" lon="4.82752">
        <ele>294</ele>
        <time>2013-01-27T09:51:48Z</time>
      </trkpt>
      <trkpt lat="45.85452" lon="4.82755">
        <ele>294</ele>
        <time>2013-01-27T09:51:50Z</time>
      </trkpt>
      <trkpt lat="45.85454" lon="4.82754">
        <ele>294</ele>
        <time>2013-01-27T09:51:51Z</time>
      </trkpt>
      <trkpt lat="45.85456" lon="4.82754">
        <ele>294</ele>
        <time>2013-01-27T09:51:52Z</time>
      </trkpt>
      <trkpt lat="45.85461" lon="4.82753">
        <ele>295</ele>
        <time>2013-01-27T09:51:58Z</time>
      </trkpt>
      <trkpt lat="45.85464" lon="4.82753">
        <ele>295</ele>
        <time>2013-01-27T09:52:03Z</time>
      </trkpt>
      <trkpt lat="45.85461" lon="4.82753">
        <ele>295</ele>
        <time>2013-01-27T09:52:09Z</time>
      </trkpt>
      <trkpt lat="45.85465" lon="4.8275">
        <ele>296</ele>
        <time>2013-01-27T09:52:40Z</time>
      </trkpt>
      <trkpt lat="45.85469" lon="4.82751">
        <ele>296</ele>
        <time>2013-01-27T09:52:45Z</time>
      </trkpt>
      <trkpt lat="45.85472" lon="4.82752">
        <ele>297</ele>
        <time>2013-01-27T09:52:48Z</time>
      </trkpt>
      <trkpt lat="45.85478" lon="4.82754">
        <ele>298</ele>
        <time>2013-01-27T09:52:56Z</time>
      </trkpt>
      <trkpt lat="45.85481" lon="4.82751">
        <ele>300</ele>
        <time>2013-01-27T09:53:05Z</time>
      </trkpt>
      <trkpt lat="45.8548" lon="4.82756">
        <ele>299</ele>
        <time>2013-01-27T09:53:15Z</time>
      </trkpt>
      <trkpt lat="45.8548" lon="4.82754">
        <ele>299</ele>
        <time>2013-01-27T09:53:18Z</time>
      </trkpt>
      <trkpt lat="45.85477" lon="4.82753">
        <ele>298</ele>
        <time>2013-01-27T09:53:23Z</time>
      </trkpt>
      <trkpt lat="45.85477" lon="4.82754">
        <ele>298</ele>
        <time>2013-01-27T09:53:31Z</time>
      </trkpt>
      <trkpt lat="45.85473" lon="4.82749">
        <ele>313</ele>
        <time>2013-01-27T09:53:40Z</time>
      </trkpt>
      <trkpt lat="45.85472" lon="4.82744">
        <ele>313</ele>
        <time>2013-01-27T09:53:46Z</time>
      </trkpt>
      <trkpt lat="45.85471" lon="4.82743">
        <ele>313</ele>
        <time>2013-01-27T09:53:47Z</time>
      </trkpt>
      <trkpt lat="45.85472" lon="4.82739">
        <ele>314</ele>
        <time>2013-01-27T09:53:50Z</time>
      </trkpt>
      <trkpt lat="45.85473" lon="4.82739">
        <ele>314</ele>
        <time>2013-01-27T09:53:51Z</time>
      </trkpt>
      <trkpt lat="45.85476" lon="4.82736">
        <ele>314</ele>
        <time>2013-01-27T09:53:57Z</time>
      </trkpt>
      <trkpt lat="45.85476" lon="4.82734">
        <ele>314</ele>
        <time>2013-01-27T09:53:58Z</time>
      </trkpt>
      <trkpt lat="45.85471" lon="4.82728">
        <ele>314</ele>
        <time>2013-01-27T09:54:02Z</time>
      </trkpt>
      <trkpt lat="45.85471" lon="4.82724">
        <ele>315</ele>
        <time>2013-01-27T09:54:05Z</time>
      </trkpt>
      <trkpt lat="45.85472" lon="4.82721">
        <ele>315</ele>
        <time>2013-01-27T09:54:06Z</time>
      </trkpt>
      <trkpt lat="45.85475" lon="4.82714">
        <ele>316</ele>
        <time>2013-01-27T09:54:11Z</time>
      </trkpt>
      <trkpt lat="45.85474" lon="4.82713">
        <ele>316</ele>
        <time>2013-01-27T09:54:12Z</time>
      </trkpt>
      <trkpt lat="45.85474" lon="4.82712">
        <ele>316</ele>
        <time>2013-01-27T09:54:14Z</time>
      </trkpt>
      <trkpt lat="45.85474" lon="4.82708">
        <ele>316</ele>
        <time>2013-01-27T09:54:17Z</time>
      </trkpt>
      <trkpt lat="45.85475" lon="4.82701">
        <ele>317</ele>
        <time>2013-01-27T09:54:24Z</time>
      </trkpt>
      <trkpt lat="45.85473" lon="4.82694">
        <ele>318</ele>
        <time>2013-01-27T09:54:29Z</time>
      </trkpt>
      <trkpt lat="45.85473" lon="4.82693">
        <ele>318</ele>
        <time>2013-01-27T09:54:30Z</time>
      </trkpt>
      <trkpt lat="45.85471" lon="4.8269">
        <ele>318</ele>
        <time>2013-01-27T09:54:33Z</time>
      </trkpt>
      <trkpt lat="45.85469" lon="4.82688">
        <ele>318</ele>
        <time>2013-01-27T09:54:36Z</time>
      </trkpt>
      <trkpt lat="45.85467" lon="4.82685">
        <ele>319</ele>
        <time>2013-01-27T09:54:38Z</time>
      </trkpt>
      <trkpt lat="45.85466" lon="4.82683">
        <ele>319</ele>
        <time>2013-01-27T09:54:40Z</time>
      </trkpt>
      <trkpt lat="45.85463" lon="4.82669">
        <ele>319</ele>
        <time>2013-01-27T09:54:52Z</time>
      </trkpt>
      <trkpt lat="45.85461" lon="4.82665">
        <ele>328</ele>
        <time>2013-01-27T09:54:58Z</time>
      </trkpt>
      <trkpt lat="45.85462" lon="4.82664">
        <ele>328</ele>
        <time>2013-01-27T09:54:59Z</time>
      </trkpt>
      <trkpt lat="45.85463" lon="4.82656">
        <ele>329</ele>
        <time>2013-01-27T09:55:05Z</time>
      </trkpt>
      <trkpt lat="45.8546" lon="4.82654">
        <ele>328</ele>
        <time>2013-01-27T09:55:09Z</time>
      </trkpt>
      <trkpt lat="45.85458" lon="4.82653">
        <ele>328</ele>
        <time>2013-01-27T09:55:11Z</time>
      </trkpt>
      <trkpt lat="45.85452" lon="4.8265">
        <ele>328</ele>
        <time>2013-01-27T09:55:17Z</time>
      </trkpt>
      <trkpt lat="45.85451" lon="4.8265">
        <ele>328</ele>
        <time>2013-01-27T09:55:18Z</time>
      </trkpt>
      <trkpt lat="45.85451" lon="4.8265">
        <ele>327</ele>
        <time>2013-01-27T09:55:26Z</time>
      </trkpt>
      <trkpt lat="45.85449" lon="4.82657">
        <ele>327</ele>
        <time>2013-01-27T09:55:30Z</time>
      </trkpt>
      <trkpt lat="45.85447" lon="4.82663">
        <ele>326</ele>
        <time>2013-01-27T09:55:33Z</time>
      </trkpt>
      <trkpt lat="45.85448" lon="4.82665">
        <ele>326</ele>
        <time>2013-01-27T09:55:35Z</time>
      </trkpt>
      <trkpt lat="45.85447" lon="4.82669">
        <ele>317</ele>
        <time>2013-01-27T09:55:38Z</time>
      </trkpt>
      <trkpt lat="45.85448" lon="4.82674">
        <ele>317</ele>
        <time>2013-01-27T09:55:41Z</time>
      </trkpt>
      <trkpt lat="45.8545" lon="4.82682">
        <ele>317</ele>
        <time>2013-01-27T09:55:46Z</time>
      </trkpt>
      <trkpt lat="45.8545" lon="4.82688">
        <ele>317</ele>
        <time>2013-01-27T09:55:50Z</time>
      </trkpt>
      <trkpt lat="45.85446" lon="4.8269">
        <ele>316</ele>
        <time>2013-01-27T09:55:55Z</time>
      </trkpt>
      <trkpt lat="45.85447" lon="4.82691">
        <ele>316</ele>
        <time>2013-01-27T09:55:58Z</time>
      </trkpt>
      <trkpt lat="45.8545" lon="4.82689">
        <ele>317</ele>
        <time>2013-01-27T09:56:01Z</time>
      </trkpt>
      <trkpt lat="45.8545" lon="4.82688">
        <ele>317</ele>
        <time>2013-01-27T09:56:02Z</time>
      </trkpt>
      <trkpt lat="45.85452" lon="4.82681">
        <ele>317</ele>
        <time>2013-01-27T09:56:07Z</time>
      </trkpt>
      <trkpt lat="45.85452" lon="4.82671">
        <ele>318</ele>
        <time>2013-01-27T09:56:13Z</time>
      </trkpt>
      <trkpt lat="45.85453" lon="4.82666">
        <ele>327</ele>
        <time>2013-01-27T09:56:16Z</time>
      </trkpt>
      <trkpt lat="45.85454" lon="4.82665">
        <ele>327</ele>
        <time>2013-01-27T09:56:17Z</time>
      </trkpt>
      <trkpt lat="45.85454" lon="4.82665">
        <ele>327</ele>
        <time>2013-01-27T09:56:18Z</time>
      </trkpt>
      <trkpt lat="45.85455" lon="4.82664">
        <ele>327</ele>
        <time>2013-01-27T09:56:19Z</time>
      </trkpt>
      <trkpt lat="45.85455" lon="4.82662">
        <ele>327</ele>
        <time>2013-01-27T09:56:22Z</time>
      </trkpt>
      <trkpt lat="45.85454" lon="4.82655">
        <ele>328</ele>
        <time>2013-01-27T09:56:26Z</time>
      </trkpt>
      <trkpt lat="45.85454" lon="4.82655">
        <ele>328</ele>
        <time>2013-01-27T09:56:33Z</time>
      </trkpt>
      <trkpt lat="45.85453" lon="4.82654">
        <ele>328</ele>
        <time>2013-01-27T09:56:39Z</time>
      </trkpt>
      <trkpt lat="45.85453" lon="4.82654">
        <ele>327</ele>
        <time>2013-01-27T09:56:47Z</time>
      </trkpt>
      <trkpt lat="45.85453" lon="4.82658">
        <ele>327</ele>
        <time>2013-01-27T09:56:52Z</time>
      </trkpt>
      <trkpt lat="45.85454" lon="4.82662">
        <ele>327</ele>
        <time>2013-01-27T09:56:57Z</time>
      </trkpt>
      <trkpt lat="45.85454" lon="4.82662">
        <ele>327</ele>
        <time>2013-01-27T09:57:02Z</time>
      </trkpt>
      <trkpt lat="45.85455" lon="4.82662">
        <ele>327</ele>
        <time>2013-01-27T09:57:05Z</time>
      </trkpt>
      <trkpt lat="45.85457" lon="4.82663">
        <ele>328</ele>
        <time>2013-01-27T09:57:08Z</time>
      </trkpt>
      <trkpt lat="45.85455" lon="4.82659">
        <ele>327</ele>
        <time>2013-01-27T09:57:13Z</time>
      </trkpt>
      <trkpt lat="45.85455" lon="4.82659">
        <ele>328</ele>
        <time>2013-01-27T09:57:18Z</time>
      </trkpt>
      <trkpt lat="45.8546" lon="4.82664">
        <ele>328</ele>
        <time>2013-01-27T09:57:23Z</time>
      </trkpt>
      <trkpt lat="45.85461" lon="4.82665">
        <ele>328</ele>
        <time>2013-01-27T09:57:24Z</time>
      </trkpt>
      <trkpt lat="45.85466" lon="4.82668">
        <ele>319</ele>
        <time>2013-01-27T09:57:28Z</time>
      </trkpt>
      <trkpt lat="45.85467" lon="4.82668">
        <ele>320</ele>
        <time>2013-01-27T09:57:29Z</time>
      </trkpt>
      <trkpt lat="45.85469" lon="4.82668">
        <ele>320</ele>
        <time>2013-01-27T09:57:31Z</time>
      </trkpt>
      <trkpt lat="45.8547" lon="4.82669">
        <ele>320</ele>
        <time>2013-01-27T09:57:34Z</time>
      </trkpt>
      <trkpt lat="45.85467" lon="4.82668">
        <ele>320</ele>
        <time>2013-01-27T09:57:41Z</time>
      </trkpt>
      <trkpt lat="45.85466" lon="4.82668">
        <ele>320</ele>
        <time>2013-01-27T09:57:47Z</time>
      </trkpt>
      <trkpt lat="45.85467" lon="4.82672">
        <ele>320</ele>
        <time>2013-01-27T09:57:53Z</time>
      </trkpt>
      <trkpt lat="45.85468" lon="4.82669">
        <ele>320</ele>
        <time>2013-01-27T09:58:01Z</time>
      </trkpt>
      <trkpt lat="45.85467" lon="4.82669">
        <ele>320</ele>
        <time>2013-01-27T09:58:09Z</time>
      </trkpt>
      <trkpt lat="45.85468" lon="4.8267">
        <ele>320</ele>
        <time>2013-01-27T09:58:19Z</time>
      </trkpt>
      <trkpt lat="45.85468" lon="4.82667">
        <ele>320</ele>
        <time>2013-01-27T09:58:40Z</time>
      </trkpt>
      <trkpt lat="45.85468" lon="4.82668">
        <ele>320</ele>
        <time>2013-01-27T09:58:42Z</time>
      </trkpt>
      <trkpt lat="45.85468" lon="4.82669">
        <ele>320</ele>
        <time>2013-01-27T09:58:45Z</time>
      </trkpt>
      <trkpt lat="45.85467" lon="4.82667">
        <ele>320</ele>
        <time>2013-01-27T09:58:50Z</time>
      </trkpt>
      <trkpt lat="45.85469" lon="4.82666">
        <ele>329</ele>
        <time>2013-01-27T09:59:16Z</time>
      </trkpt>
      <trkpt lat="45.85472" lon="4.82668">
        <ele>320</ele>
        <time>2013-01-27T09:59:35Z</time>
      </trkpt>
      <trkpt lat="45.85477" lon="4.82671">
        <ele>321</ele>
        <time>2013-01-27T09:59:39Z</time>
      </trkpt>
      <trkpt lat="45.85479" lon="4.82674">
        <ele>322</ele>
        <time>2013-01-27T09:59:41Z</time>
      </trkpt>
      <trkpt lat="45.85488" lon="4.82674">
        <ele>324</ele>
        <time>2013-01-27T09:59:45Z</time>
      </trkpt>
      <trkpt lat="45.8549" lon="4.82673">
        <ele>325</ele>
        <time>2013-01-27T09:59:46Z</time>
      </trkpt>
      <trkpt lat="45.85497" lon="4.82667">
        <ele>328</ele>
        <time>2013-01-27T09:59:49Z</time>
      </trkpt>
      <trkpt lat="45.85502" lon="4.82665">
        <ele>330</ele>
        <time>2013-01-27T09:59:51Z</time>
      </trkpt>
      <trkpt lat="45.85511" lon="4.82658">
        <ele>332</ele>
        <time>2013-01-27T09:59:57Z</time>
      </trkpt>
      <trkpt lat="45.85512" lon="4.82657">
        <ele>332</ele>
        <time>2013-01-27T09:59:58Z</time>
      </trkpt>
      <trkpt lat="45.85514" lon="4.82655">
        <ele>332</ele>
        <time>2013-01-27T10:00:00Z</time>
      </trkpt>
      <trkpt lat="45.85518" lon="4.8265">
        <ele>333</ele>
        <time>2013-01-27T10:00:04Z</time>
      </trkpt>
      <trkpt lat="45.85527" lon="4.82641">
        <ele>333</ele>
        <time>2013-01-27T10:00:09Z</time>
      </trkpt>
      <trkpt lat="45.85529" lon="4.82639">
        <ele>333</ele>
        <time>2013-01-27T10:00:10Z</time>
      </trkpt>
      <trkpt lat="45.85539" lon="4.82632">
        <ele>333</ele>
        <time>2013-01-27T10:00:14Z</time>
      </trkpt>
      <trkpt lat="45.85542" lon="4.8263">
        <ele>334</ele>
        <time>2013-01-27T10:00:15Z</time>
      </trkpt>
      <trkpt lat="45.85544" lon="4.82626">
        <ele>334</ele>
        <time>2013-01-27T10:00:17Z</time>
      </trkpt>
      <trkpt lat="45.85549" lon="4.82622">
        <ele>334</ele>
        <time>2013-01-27T10:00:20Z</time>
      </trkpt>
      <trkpt lat="45.85555" lon="4.82615">
        <ele>334</ele>
        <time>2013-01-27T10:00:25Z</time>
      </trkpt>
      <trkpt lat="45.85558" lon="4.82612">
        <ele>334</ele>
        <time>2013-01-27T10:00:27Z</time>
      </trkpt>
      <trkpt lat="45.85559" lon="4.8261">
        <ele>335</ele>
        <time>2013-01-27T10:00:28Z</time>
      </trkpt>
      <trkpt lat="45.85567" lon="4.82603">
        <ele>335</ele>
        <time>2013-01-27T10:00:32Z</time>
      </trkpt>
      <trkpt lat="45.85571" lon="4.82598">
        <ele>335</ele>
        <time>2013-01-27T10:00:35Z</time>
      </trkpt>
      <trkpt lat="45.85575" lon="4.82593">
        <ele>336</ele>
        <time>2013-01-27T10:00:37Z</time>
      </trkpt>
      <trkpt lat="45.85578" lon="4.82589">
        <ele>336</ele>
        <time>2013-01-27T10:00:39Z</time>
      </trkpt>
      <trkpt lat="45.85586" lon="4.82581">
        <ele>337</ele>
        <time>2013-01-27T10:00:44Z</time>
      </trkpt>
      <trkpt lat="45.85588" lon="4.8258">
        <ele>337</ele>
        <time>2013-01-27T10:00:45Z</time>
      </trkpt>
      <trkpt lat="45.85589" lon="4.82578">
        <ele>337</ele>
        <time>2013-01-27T10:00:47Z</time>
      </trkpt>
      <trkpt lat="45.85591" lon="4.82576">
        <ele>337</ele>
        <time>2013-01-27T10:00:48Z</time>
      </trkpt>
      <trkpt lat="45.85597" lon="4.8257">
        <ele>337</ele>
        <time>2013-01-27T10:00:52Z</time>
      </trkpt>
      <trkpt lat="45.85602" lon="4.82563">
        <ele>337</ele>
        <time>2013-01-27T10:00:58Z</time>
      </trkpt>
      <trkpt lat="45.85606" lon="4.82558">
        <ele>337</ele>
        <time>2013-01-27T10:01:02Z</time>
      </trkpt>
      <trkpt lat="45.85607" lon="4.82559">
        <ele>336</ele>
        <time>2013-01-27T10:01:03Z</time>
      </trkpt>
      <trkpt lat="45.85612" lon="4.82556">
        <ele>336</ele>
        <time>2013-01-27T10:01:07Z</time>
      </trkpt>
      <trkpt lat="45.85622" lon="4.82553">
        <ele>336</ele>
        <time>2013-01-27T10:01:13Z</time>
      </trkpt>
      <trkpt lat="45.85623" lon="4.82552">
        <ele>336</ele>
        <time>2013-01-27T10:01:14Z</time>
      </trkpt>
      <trkpt lat="45.85625" lon="4.82553">
        <ele>335</ele>
        <time>2013-01-27T10:01:15Z</time>
      </trkpt>
      <trkpt lat="45.85633" lon="4.82549">
        <ele>335</ele>
        <time>2013-01-27T10:01:20Z</time>
      </trkpt>
      <trkpt lat="45.85637" lon="4.82541">
        <ele>335</ele>
        <time>2013-01-27T10:01:25Z</time>
      </trkpt>
      <trkpt lat="45.85636" lon="4.82537">
        <ele>336</ele>
        <time>2013-01-27T10:01:28Z</time>
      </trkpt>
      <trkpt lat="45.85636" lon="4.82533">
        <ele>336</ele>
        <time>2013-01-27T10:01:30Z</time>
      </trkpt>
      <trkpt lat="45.85636" lon="4.82532">
        <ele>336</ele>
        <time>2013-01-27T10:01:31Z</time>
      </trkpt>
      <trkpt lat="45.85639" lon="4.82526">
        <ele>336</ele>
        <time>2013-01-27T10:01:34Z</time>
      </trkpt>
      <trkpt lat="45.85639" lon="4.82524">
        <ele>336</ele>
        <time>2013-01-27T10:01:35Z</time>
      </trkpt>
      <trkpt lat="45.85646" lon="4.82512">
        <ele>336</ele>
        <time>2013-01-27T10:01:39Z</time>
      </trkpt>
      <trkpt lat="45.85649" lon="4.82509">
        <ele>336</ele>
        <time>2013-01-27T10:01:40Z</time>
      </trkpt>
      <trkpt lat="45.85657" lon="4.82501">
        <ele>336</ele>
        <time>2013-01-27T10:01:44Z</time>
      </trkpt>
      <trkpt lat="45.85662" lon="4.82496">
        <ele>339</ele>
        <time>2013-01-27T10:01:48Z</time>
      </trkpt>
      <trkpt lat="45.85666" lon="4.82496">
        <ele>338</ele>
        <time>2013-01-27T10:01:50Z</time>
      </trkpt>
      <trkpt lat="45.85674" lon="4.82495">
        <ele>335</ele>
        <time>2013-01-27T10:01:53Z</time>
      </trkpt>
      <trkpt lat="45.85676" lon="4.82496">
        <ele>334</ele>
        <time>2013-01-27T10:01:54Z</time>
      </trkpt>
      <trkpt lat="45.85682" lon="4.825">
        <ele>334</ele>
        <time>2013-01-27T10:01:56Z</time>
      </trkpt>
      <trkpt lat="45.85685" lon="4.82501">
        <ele>327</ele>
        <time>2013-01-27T10:01:57Z</time>
      </trkpt>
      <trkpt lat="45.85697" lon="4.82505">
        <ele>324</ele>
        <time>2013-01-27T10:02:01Z</time>
      </trkpt>
      <trkpt lat="45.85702" lon="4.82507">
        <ele>323</ele>
        <time>2013-01-27T10:02:03Z</time>
      </trkpt>
      <trkpt lat="45.85708" lon="4.82514">
        <ele>321</ele>
        <time>2013-01-27T10:02:06Z</time>
      </trkpt>
      <trkpt lat="45.85716" lon="4.82526">
        <ele>319</ele>
        <time>2013-01-27T10:02:10Z</time>
      </trkpt>
      <trkpt lat="45.85718" lon="4.82534">
        <ele>318</ele>
        <time>2013-01-27T10:02:12Z</time>
      </trkpt>
      <trkpt lat="45.85725" lon="4.82553">
        <ele>316</ele>
        <time>2013-01-27T10:02:17Z</time>
      </trkpt>
      <trkpt lat="45.85734" lon="4.82579">
        <ele>310</ele>
        <time>2013-01-27T10:02:23Z</time>
      </trkpt>
      <trkpt lat="45.85742" lon="4.82596">
        <ele>303</ele>
        <time>2013-01-27T10:02:28Z</time>
      </trkpt>
      <trkpt lat="45.85745" lon="4.82602">
        <ele>302</ele>
        <time>2013-01-27T10:02:30Z</time>
      </trkpt>
      <trkpt lat="45.85757" lon="4.82608">
        <ele>301</ele>
        <time>2013-01-27T10:02:34Z</time>
      </trkpt>
      <trkpt lat="45.85769" lon="4.82626">
        <ele>300</ele>
        <time>2013-01-27T10:02:40Z</time>
      </trkpt>
      <trkpt lat="45.85784" lon="4.82637">
        <ele>300</ele>
        <time>2013-01-27T10:02:45Z</time>
      </trkpt>
      <trkpt lat="45.85795" lon="4.82641">
        <ele>301</ele>
        <time>2013-01-27T10:02:48Z</time>
      </trkpt>
      <trkpt lat="45.85808" lon="4.82648">
        <ele>302</ele>
        <time>2013-01-27T10:02:52Z</time>
      </trkpt>
      <trkpt lat="45.85818" lon="4.82656">
        <ele>303</ele>
        <time>2013-01-27T10:02:56Z</time>
      </trkpt>
      <trkpt lat="45.85821" lon="4.82659">
        <ele>303</ele>
        <time>2013-01-27T10:02:57Z</time>
      </trkpt>
      <trkpt lat="45.85835" lon="4.82673">
        <ele>303</ele>
        <time>2013-01-27T10:03:02Z</time>
      </trkpt>
      <trkpt lat="45.85837" lon="4.82675">
        <ele>303</ele>
        <time>2013-01-27T10:03:03Z</time>
      </trkpt>
      <trkpt lat="45.85848" lon="4.82686">
        <ele>301</ele>
        <time>2013-01-27T10:03:07Z</time>
      </trkpt>
      <trkpt lat="45.8585" lon="4.82688">
        <ele>301</ele>
        <time>2013-01-27T10:03:08Z</time>
      </trkpt>
      <trkpt lat="45.8586" lon="4.82695">
        <ele>301</ele>
        <time>2013-01-27T10:03:12Z</time>
      </trkpt>
      <trkpt lat="45.85868" lon="4.82699">
        <ele>301</ele>
        <time>2013-01-27T10:03:15Z</time>
      </trkpt>
      <trkpt lat="45.85876" lon="4.82704">
        <ele>301</ele>
        <time>2013-01-27T10:03:18Z</time>
      </trkpt>
      <trkpt lat="45.85879" lon="4.82704">
        <ele>301</ele>
        <time>2013-01-27T10:03:19Z</time>
      </trkpt>
      <trkpt lat="45.85886" lon="4.82706">
        <ele>301</ele>
        <time>2013-01-27T10:03:21Z</time>
      </trkpt>
      <trkpt lat="45.8589" lon="4.82708">
        <ele>301</ele>
        <time>2013-01-27T10:03:22Z</time>
      </trkpt>
      <trkpt lat="45.85904" lon="4.8271">
        <ele>301</ele>
        <time>2013-01-27T10:03:26Z</time>
      </trkpt>
      <trkpt lat="45.85911" lon="4.82712">
        <ele>301</ele>
        <time>2013-01-27T10:03:28Z</time>
      </trkpt>
      <trkpt lat="45.85922" lon="4.82715">
        <ele>304</ele>
        <time>2013-01-27T10:03:32Z</time>
      </trkpt>
      <trkpt lat="45.85929" lon="4.82716">
        <ele>304</ele>
        <time>2013-01-27T10:03:34Z</time>
      </trkpt>
      <trkpt lat="45.85943" lon="4.82721">
        <ele>303</ele>
        <time>2013-01-27T10:03:39Z</time>
      </trkpt>
      <trkpt lat="45.85958" lon="4.82723">
        <ele>303</ele>
        <time>2013-01-27T10:03:44Z</time>
      </trkpt>
      <trkpt lat="45.85961" lon="4.82724">
        <ele>302</ele>
        <time>2013-01-27T10:03:45Z</time>
      </trkpt>
      <trkpt lat="45.85973" lon="4.82725">
        <ele>302</ele>
        <time>2013-01-27T10:03:49Z</time>
      </trkpt>
      <trkpt lat="45.85981" lon="4.82728">
        <ele>300</ele>
        <time>2013-01-27T10:03:52Z</time>
      </trkpt>
      <trkpt lat="45.85986" lon="4.82729">
        <ele>300</ele>
        <time>2013-01-27T10:03:54Z</time>
      </trkpt>
      <trkpt lat="45.86001" lon="4.82728">
        <ele>296</ele>
        <time>2013-01-27T10:04:00Z</time>
      </trkpt>
      <trkpt lat="45.86015" lon="4.82723">
        <ele>298</ele>
        <time>2013-01-27T10:04:05Z</time>
      </trkpt>
      <trkpt lat="45.8602" lon="4.8272">
        <ele>299</ele>
        <time>2013-01-27T10:04:07Z</time>
      </trkpt>
      <trkpt lat="45.86028" lon="4.82719">
        <ele>299</ele>
        <time>2013-01-27T10:04:11Z</time>
      </trkpt>
      <trkpt lat="45.86032" lon="4.82719">
        <ele>299</ele>
        <time>2013-01-27T10:04:15Z</time>
      </trkpt>
      <trkpt lat="45.86038" lon="4.82716">
        <ele>299</ele>
        <time>2013-01-27T10:04:18Z</time>
      </trkpt>
      <trkpt lat="45.8604" lon="4.82715">
        <ele>299</ele>
        <time>2013-01-27T10:04:19Z</time>
      </trkpt>
      <trkpt lat="45.86047" lon="4.8271">
        <ele>300</ele>
        <time>2013-01-27T10:04:23Z</time>
      </trkpt>
      <trkpt lat="45.86053" lon="4.82706">
        <ele>300</ele>
        <time>2013-01-27T10:04:28Z</time>
      </trkpt>
      <trkpt lat="45.86055" lon="4.82706">
        <ele>300</ele>
        <time>2013-01-27T10:04:30Z</time>
      </trkpt>
      <trkpt lat="45.86056" lon="4.82704">
        <ele>300</ele>
        <time>2013-01-27T10:04:31Z</time>
      </trkpt>
      <trkpt lat="45.86056" lon="4.82701">
        <ele>301</ele>
        <time>2013-01-27T10:04:33Z</time>
      </trkpt>
      <trkpt lat="45.86056" lon="4.82701">
        <ele>301</ele>
        <time>2013-01-27T10:04:34Z</time>
      </trkpt>
      <trkpt lat="45.86055" lon="4.827">
        <ele>301</ele>
        <time>2013-01-27T10:04:44Z</time>
      </trkpt>
      <trkpt lat="45.86051" lon="4.82699">
        <ele>301</ele>
        <time>2013-01-27T10:04:48Z</time>
      </trkpt>
      <trkpt lat="45.86049" lon="4.82696">
        <ele>302</ele>
        <time>2013-01-27T10:04:52Z</time>
      </trkpt>
      <trkpt lat="45.86048" lon="4.82694">
        <ele>302</ele>
        <time>2013-01-27T10:04:53Z</time>
      </trkpt>
      <trkpt lat="45.86044" lon="4.82692">
        <ele>303</ele>
        <time>2013-01-27T10:04:57Z</time>
      </trkpt>
      <trkpt lat="45.86041" lon="4.82691">
        <ele>303</ele>
        <time>2013-01-27T10:04:59Z</time>
      </trkpt>
      <trkpt lat="45.8604" lon="4.82691">
        <ele>303</ele>
        <time>2013-01-27T10:05:00Z</time>
      </trkpt>
      <trkpt lat="45.86035" lon="4.8269">
        <ele>303</ele>
        <time>2013-01-27T10:05:03Z</time>
      </trkpt>
      <trkpt lat="45.86033" lon="4.82692">
        <ele>303</ele>
        <time>2013-01-27T10:05:05Z</time>
      </trkpt>
      <trkpt lat="45.86032" lon="4.82692">
        <ele>303</ele>
        <time>2013-01-27T10:05:06Z</time>
      </trkpt>
      <trkpt lat="45.86024" lon="4.82692">
        <ele>304</ele>
        <time>2013-01-27T10:05:12Z</time>
      </trkpt>
      <trkpt lat="45.86023" lon="4.82692">
        <ele>304</ele>
        <time>2013-01-27T10:05:13Z</time>
      </trkpt>
      <trkpt lat="45.86018" lon="4.8269">
        <ele>305</ele>
        <time>2013-01-27T10:05:18Z</time>
      </trkpt>
      <trkpt lat="45.86017" lon="4.82689">
        <ele>306</ele>
        <time>2013-01-27T10:05:19Z</time>
      </trkpt>
      <trkpt lat="45.86014" lon="4.82689">
        <ele>306</ele>
        <time>2013-01-27T10:05:22Z</time>
      </trkpt>
      <trkpt lat="45.8601" lon="4.8269">
        <ele>306</ele>
        <time>2013-01-27T10:05:26Z</time>
      </trkpt>
      <trkpt lat="45.86009" lon="4.82689">
        <ele>307</ele>
        <time>2013-01-27T10:05:28Z</time>
      </trkpt>
      <trkpt lat="45.86007" lon="4.82688">
        <ele>307</ele>
        <time>2013-01-27T10:05:31Z</time>
      </trkpt>
      <trkpt lat="45.86007" lon="4.82688">
        <ele>307</ele>
        <time>2013-01-27T10:05:32Z</time>
      </trkpt>
      <trkpt lat="45.86005" lon="4.82686">
        <ele>308</ele>
        <time>2013-01-27T10:05:34Z</time>
      </trkpt>
      <trkpt lat="45.86004" lon="4.82684">
        <ele>309</ele>
        <time>2013-01-27T10:05:36Z</time>
      </trkpt>
      <trkpt lat="45.85999" lon="4.82679">
        <ele>313</ele>
        <time>2013-01-27T10:05:44Z</time>
      </trkpt>
      <trkpt lat="45.85995" lon="4.82679">
        <ele>313</ele>
        <time>2013-01-27T10:05:50Z</time>
      </trkpt>
      <trkpt lat="45.85993" lon="4.82677">
        <ele>313</ele>
        <time>2013-01-27T10:05:52Z</time>
      </trkpt>
      <trkpt lat="45.85991" lon="4.82676">
        <ele>313</ele>
        <time>2013-01-27T10:05:54Z</time>
      </trkpt>
      <trkpt lat="45.8599" lon="4.82676">
        <ele>313</ele>
        <time>2013-01-27T10:05:56Z</time>
      </trkpt>
      <trkpt lat="45.85989" lon="4.82676">
        <ele>313</ele>
        <time>2013-01-27T10:05:57Z</time>
      </trkpt>
      <trkpt lat="45.85988" lon="4.82673">
        <ele>313</ele>
        <time>2013-01-27T10:05:59Z</time>
      </trkpt>
      <trkpt lat="45.85985" lon="4.82671">
        <ele>313</ele>
        <time>2013-01-27T10:06:02Z</time>
      </trkpt>
      <trkpt lat="45.85982" lon="4.8267">
        <ele>312</ele>
        <time>2013-01-27T10:06:04Z</time>
      </trkpt>
      <trkpt lat="45.85978" lon="4.82667">
        <ele>312</ele>
        <time>2013-01-27T10:06:09Z</time>
      </trkpt>
      <trkpt lat="45.85972" lon="4.82665">
        <ele>325</ele>
        <time>2013-01-27T10:06:14Z</time>
      </trkpt>
      <trkpt lat="45.85968" lon="4.82665">
        <ele>325</ele>
        <time>2013-01-27T10:06:17Z</time>
      </trkpt>
      <trkpt lat="45.85964" lon="4.82661">
        <ele>325</ele>
        <time>2013-01-27T10:06:21Z</time>
      </trkpt>
      <trkpt lat="45.85961" lon="4.82658">
        <ele>325</ele>
        <time>2013-01-27T10:06:23Z</time>
      </trkpt>
      <trkpt lat="45.85959" lon="4.82656">
        <ele>326</ele>
        <time>2013-01-27T10:06:26Z</time>
      </trkpt>
      <trkpt lat="45.85958" lon="4.82653">
        <ele>326</ele>
        <time>2013-01-27T10:06:29Z</time>
      </trkpt>
      <trkpt lat="45.85958" lon="4.82652">
        <ele>326</ele>
        <time>2013-01-27T10:06:30Z</time>
      </trkpt>
      <trkpt lat="45.85954" lon="4.82649">
        <ele>326</ele>
        <time>2013-01-27T10:06:35Z</time>
      </trkpt>
      <trkpt lat="45.85953" lon="4.82646">
        <ele>326</ele>
        <time>2013-01-27T10:06:38Z</time>
      </trkpt>
      <trkpt lat="45.85953" lon="4.82639">
        <ele>327</ele>
        <time>2013-01-27T10:06:42Z</time>
      </trkpt>
      <trkpt lat="45.85951" lon="4.82634">
        <ele>328</ele>
        <time>2013-01-27T10:06:50Z</time>
      </trkpt>
      <trkpt lat="45.85948" lon="4.8263">
        <ele>328</ele>
        <time>2013-01-27T10:06:53Z</time>
      </trkpt>
      <trkpt lat="45.85943" lon="4.82625">
        <ele>328</ele>
        <time>2013-01-27T10:07:02Z</time>
      </trkpt>
      <trkpt lat="45.85936" lon="4.82621">
        <ele>329</ele>
        <time>2013-01-27T10:07:08Z</time>
      </trkpt>
      <trkpt lat="45.85936" lon="4.82621">
        <ele>329</ele>
        <time>2013-01-27T10:07:09Z</time>
      </trkpt>
      <trkpt lat="45.85934" lon="4.82614">
        <ele>330</ele>
        <time>2013-01-27T10:07:17Z</time>
      </trkpt>
      <trkpt lat="45.85932" lon="4.82609">
        <ele>331</ele>
        <time>2013-01-27T10:07:22Z</time>
      </trkpt>
      <trkpt lat="45.85932" lon="4.82607">
        <ele>331</ele>
        <time>2013-01-27T10:07:23Z</time>
      </trkpt>
      <trkpt lat="45.8593" lon="4.82601">
        <ele>332</ele>
        <time>2013-01-27T10:07:28Z</time>
      </trkpt>
      <trkpt lat="45.85929" lon="4.82592">
        <ele>333</ele>
        <time>2013-01-27T10:07:36Z</time>
      </trkpt>
      <trkpt lat="45.85928" lon="4.82589">
        <ele>333</ele>
        <time>2013-01-27T10:07:40Z</time>
      </trkpt>
      <trkpt lat="45.85928" lon="4.82584">
        <ele>334</ele>
        <time>2013-01-27T10:07:44Z</time>
      </trkpt>
      <trkpt lat="45.85926" lon="4.82577">
        <ele>339</ele>
        <time>2013-01-27T10:07:50Z</time>
      </trkpt>
      <trkpt lat="45.85922" lon="4.82564">
        <ele>341</ele>
        <time>2013-01-27T10:07:59Z</time>
      </trkpt>
      <trkpt lat="45.85922" lon="4.82563">
        <ele>341</ele>
        <time>2013-01-27T10:08:00Z</time>
      </trkpt>
      <trkpt lat="45.8592" lon="4.82552">
        <ele>343</ele>
        <time>2013-01-27T10:08:08Z</time>
      </trkpt>
      <trkpt lat="45.85919" lon="4.82545">
        <ele>344</ele>
        <time>2013-01-27T10:08:13Z</time>
      </trkpt>
      <trkpt lat="45.85918" lon="4.8254">
        <ele>344</ele>
        <time>2013-01-27T10:08:16Z</time>
      </trkpt>
      <trkpt lat="45.85918" lon="4.82539">
        <ele>345</ele>
        <time>2013-01-27T10:08:17Z</time>
      </trkpt>
      <trkpt lat="45.85916" lon="4.82532">
        <ele>337</ele>
        <time>2013-01-27T10:08:22Z</time>
      </trkpt>
      <trkpt lat="45.85915" lon="4.82526">
        <ele>338</ele>
        <time>2013-01-27T10:08:29Z</time>
      </trkpt>
      <trkpt lat="45.85914" lon="4.82517">
        <ele>340</ele>
        <time>2013-01-27T10:08:35Z</time>
      </trkpt>
      <trkpt lat="45.85914" lon="4.82513">
        <ele>342</ele>
        <time>2013-01-27T10:08:38Z</time>
      </trkpt>
      <trkpt lat="45.85914" lon="4.82507">
        <ele>344</ele>
        <time>2013-01-27T10:08:42Z</time>
      </trkpt>
      <trkpt lat="45.85914" lon="4.82494">
        <ele>348</ele>
        <time>2013-01-27T10:08:49Z</time>
      </trkpt>
      <trkpt lat="45.85914" lon="4.82487">
        <ele>347</ele>
        <time>2013-01-27T10:08:53Z</time>
      </trkpt>
      <trkpt lat="45.85914" lon="4.82483">
        <ele>347</ele>
        <time>2013-01-27T10:08:56Z</time>
      </trkpt>
      <trkpt lat="45.85913" lon="4.82473">
        <ele>347</ele>
        <time>2013-01-27T10:09:03Z</time>
      </trkpt>
      <trkpt lat="45.85912" lon="4.8246">
        <ele>348</ele>
        <time>2013-01-27T10:09:11Z</time>
      </trkpt>
      <trkpt lat="45.85911" lon="4.82448">
        <ele>349</ele>
        <time>2013-01-27T10:09:18Z</time>
      </trkpt>
      <trkpt lat="45.8591" lon="4.82438">
        <ele>351</ele>
        <time>2013-01-27T10:09:26Z</time>
      </trkpt>
      <trkpt lat="45.8591" lon="4.82432">
        <ele>353</ele>
        <time>2013-01-27T10:09:30Z</time>
      </trkpt>
      <trkpt lat="45.8591" lon="4.8243">
        <ele>354</ele>
        <time>2013-01-27T10:09:32Z</time>
      </trkpt>
      <trkpt lat="45.8591" lon="4.82425">
        <ele>355</ele>
        <time>2013-01-27T10:09:36Z</time>
      </trkpt>
      <trkpt lat="45.85911" lon="4.82421">
        <ele>357</ele>
        <time>2013-01-27T10:09:38Z</time>
      </trkpt>
      <trkpt lat="45.85911" lon="4.8241">
        <ele>360</ele>
        <time>2013-01-27T10:09:45Z</time>
      </trkpt>
      <trkpt lat="45.85911" lon="4.82408">
        <ele>360</ele>
        <time>2013-01-27T10:09:47Z</time>
      </trkpt>
      <trkpt lat="45.85911" lon="4.82407">
        <ele>360</ele>
        <time>2013-01-27T10:09:48Z</time>
      </trkpt>
      <trkpt lat="45.8591" lon="4.82406">
        <ele>360</ele>
        <time>2013-01-27T10:09:49Z</time>
      </trkpt>
      <trkpt lat="45.85909" lon="4.82401">
        <ele>359</ele>
        <time>2013-01-27T10:09:53Z</time>
      </trkpt>
      <trkpt lat="45.8591" lon="4.82394">
        <ele>359</ele>
        <time>2013-01-27T10:09:58Z</time>
      </trkpt>
      <trkpt lat="45.8591" lon="4.82393">
        <ele>359</ele>
        <time>2013-01-27T10:09:59Z</time>
      </trkpt>
      <trkpt lat="45.8591" lon="4.82392">
        <ele>359</ele>
        <time>2013-01-27T10:10:00Z</time>
      </trkpt>
      <trkpt lat="45.85913" lon="4.82388">
        <ele>359</ele>
        <time>2013-01-27T10:10:05Z</time>
      </trkpt>
      <trkpt lat="45.85914" lon="4.82387">
        <ele>359</ele>
        <time>2013-01-27T10:10:06Z</time>
      </trkpt>
      <trkpt lat="45.85914" lon="4.82385">
        <ele>359</ele>
        <time>2013-01-27T10:10:08Z</time>
      </trkpt>
      <trkpt lat="45.85914" lon="4.82384">
        <ele>359</ele>
        <time>2013-01-27T10:10:11Z</time>
      </trkpt>
      <trkpt lat="45.85915" lon="4.82385">
        <ele>359</ele>
        <time>2013-01-27T10:10:17Z</time>
      </trkpt>
      <trkpt lat="45.85916" lon="4.82387">
        <ele>359</ele>
        <time>2013-01-27T10:10:19Z</time>
      </trkpt>
      <trkpt lat="45.85923" lon="4.82394">
        <ele>366</ele>
        <time>2013-01-27T10:10:26Z</time>
      </trkpt>
      <trkpt lat="45.85929" lon="4.824">
        <ele>365</ele>
        <time>2013-01-27T10:10:30Z</time>
      </trkpt>
      <trkpt lat="45.85931" lon="4.824">
        <ele>365</ele>
        <time>2013-01-27T10:10:31Z</time>
      </trkpt>
      <trkpt lat="45.8594" lon="4.82407">
        <ele>365</ele>
        <time>2013-01-27T10:10:36Z</time>
      </trkpt>
      <trkpt lat="45.85946" lon="4.82412">
        <ele>366</ele>
        <time>2013-01-27T10:10:39Z</time>
      </trkpt>
      <trkpt lat="45.85947" lon="4.82413">
        <ele>366</ele>
        <time>2013-01-27T10:10:40Z</time>
      </trkpt>
      <trkpt lat="45.85958" lon="4.82419">
        <ele>360</ele>
        <time>2013-01-27T10:10:45Z</time>
      </trkpt>
      <trkpt lat="45.85965" lon="4.82421">
        <ele>360</ele>
        <time>2013-01-27T10:10:48Z</time>
      </trkpt>
      <trkpt lat="45.85976" lon="4.82424">
        <ele>360</ele>
        <time>2013-01-27T10:10:52Z</time>
      </trkpt>
      <trkpt lat="45.85983" lon="4.82426">
        <ele>361</ele>
        <time>2013-01-27T10:10:55Z</time>
      </trkpt>
      <trkpt lat="45.85988" lon="4.82426">
        <ele>361</ele>
        <time>2013-01-27T10:10:57Z</time>
      </trkpt>
      <trkpt lat="45.86002" lon="4.8243">
        <ele>362</ele>
        <time>2013-01-27T10:11:02Z</time>
      </trkpt>
      <trkpt lat="45.86018" lon="4.82432">
        <ele>361</ele>
        <time>2013-01-27T10:11:08Z</time>
      </trkpt>
      <trkpt lat="45.8602" lon="4.82433">
        <ele>361</ele>
        <time>2013-01-27T10:11:09Z</time>
      </trkpt>
      <trkpt lat="45.86028" lon="4.82435">
        <ele>361</ele>
        <time>2013-01-27T10:11:13Z</time>
      </trkpt>
      <trkpt lat="45.86039" lon="4.82435">
        <ele>361</ele>
        <time>2013-01-27T10:11:17Z</time>
      </trkpt>
      <trkpt lat="45.86041" lon="4.82435">
        <ele>361</ele>
        <time>2013-01-27T10:11:18Z</time>
      </trkpt>
      <trkpt lat="45.86058" lon="4.82436">
        <ele>361</ele>
        <time>2013-01-27T10:11:24Z</time>
      </trkpt>
      <trkpt lat="45.86072" lon="4.82436">
        <ele>361</ele>
        <time>2013-01-27T10:11:30Z</time>
      </trkpt>
      <trkpt lat="45.86078" lon="4.82435">
        <ele>362</ele>
        <time>2013-01-27T10:11:32Z</time>
      </trkpt>
      <trkpt lat="45.86089" lon="4.82433">
        <ele>360</ele>
        <time>2013-01-27T10:11:36Z</time>
      </trkpt>
      <trkpt lat="45.86096" lon="4.82432">
        <ele>360</ele>
        <time>2013-01-27T10:11:39Z</time>
      </trkpt>
      <trkpt lat="45.86101" lon="4.82432">
        <ele>359</ele>
        <time>2013-01-27T10:11:41Z</time>
      </trkpt>
      <trkpt lat="45.86117" lon="4.82433">
        <ele>358</ele>
        <time>2013-01-27T10:11:46Z</time>
      </trkpt>
      <trkpt lat="45.86121" lon="4.82434">
        <ele>357</ele>
        <time>2013-01-27T10:11:47Z</time>
      </trkpt>
      <trkpt lat="45.86135" lon="4.82439">
        <ele>356</ele>
        <time>2013-01-27T10:11:53Z</time>
      </trkpt>
      <trkpt lat="45.86137" lon="4.8244">
        <ele>356</ele>
        <time>2013-01-27T10:11:54Z</time>
      </trkpt>
      <trkpt lat="45.8615" lon="4.82441">
        <ele>356</ele>
        <time>2013-01-27T10:11:59Z</time>
      </trkpt>
      <trkpt lat="45.86157" lon="4.82441">
        <ele>356</ele>
        <time>2013-01-27T10:12:02Z</time>
      </trkpt>
      <trkpt lat="45.86166" lon="4.8244">
        <ele>356</ele>
        <time>2013-01-27T10:12:05Z</time>
      </trkpt>
      <trkpt lat="45.86177" lon="4.82436">
        <ele>351</ele>
        <time>2013-01-27T10:12:10Z</time>
      </trkpt>
      <trkpt lat="45.86181" lon="4.82434">
        <ele>350</ele>
        <time>2013-01-27T10:12:12Z</time>
      </trkpt>
      <trkpt lat="45.86193" lon="4.82432">
        <ele>349</ele>
        <time>2013-01-27T10:12:17Z</time>
      </trkpt>
      <trkpt lat="45.86195" lon="4.82432">
        <ele>349</ele>
        <time>2013-01-27T10:12:18Z</time>
      </trkpt>
      <trkpt lat="45.86203" lon="4.82431">
        <ele>348</ele>
        <time>2013-01-27T10:12:21Z</time>
      </trkpt>
      <trkpt lat="45.86212" lon="4.82429">
        <ele>347</ele>
        <time>2013-01-27T10:12:25Z</time>
      </trkpt>
      <trkpt lat="45.86214" lon="4.82428">
        <ele>347</ele>
        <time>2013-01-27T10:12:26Z</time>
      </trkpt>
      <trkpt lat="45.8622" lon="4.82425">
        <ele>347</ele>
        <time>2013-01-27T10:12:29Z</time>
      </trkpt>
      <trkpt lat="45.86225" lon="4.82424">
        <ele>346</ele>
        <time>2013-01-27T10:12:31Z</time>
      </trkpt>
      <trkpt lat="45.86229" lon="4.82421">
        <ele>346</ele>
        <time>2013-01-27T10:12:33Z</time>
      </trkpt>
      <trkpt lat="45.86231" lon="4.8242">
        <ele>346</ele>
        <time>2013-01-27T10:12:34Z</time>
      </trkpt>
      <trkpt lat="45.86239" lon="4.82418">
        <ele>345</ele>
        <time>2013-01-27T10:12:37Z</time>
      </trkpt>
      <trkpt lat="45.86243" lon="4.82416">
        <ele>346</ele>
        <time>2013-01-27T10:12:39Z</time>
      </trkpt>
      <trkpt lat="45.86245" lon="4.82415">
        <ele>345</ele>
        <time>2013-01-27T10:12:40Z</time>
      </trkpt>
      <trkpt lat="45.86249" lon="4.82411">
        <ele>345</ele>
        <time>2013-01-27T10:12:42Z</time>
      </trkpt>
      <trkpt lat="45.86254" lon="4.82408">
        <ele>342</ele>
        <time>2013-01-27T10:12:44Z</time>
      </trkpt>
      <trkpt lat="45.86267" lon="4.82398">
        <ele>339</ele>
        <time>2013-01-27T10:12:49Z</time>
      </trkpt>
      <trkpt lat="45.8628" lon="4.82386">
        <ele>338</ele>
        <time>2013-01-27T10:12:54Z</time>
      </trkpt>
      <trkpt lat="45.86284" lon="4.82384">
        <ele>337</ele>
        <time>2013-01-27T10:12:55Z</time>
      </trkpt>
      <trkpt lat="45.86288" lon="4.8238">
        <ele>337</ele>
        <time>2013-01-27T10:12:58Z</time>
      </trkpt>
      <trkpt lat="45.86288" lon="4.82378">
        <ele>337</ele>
        <time>2013-01-27T10:12:59Z</time>
      </trkpt>
      <trkpt lat="45.8629" lon="4.82378">
        <ele>337</ele>
        <time>2013-01-27T10:13:02Z</time>
      </trkpt>
      <trkpt lat="45.86291" lon="4.82379">
        <ele>337</ele>
        <time>2013-01-27T10:13:05Z</time>
      </trkpt>
      <trkpt lat="45.86297" lon="4.82375">
        <ele>336</ele>
        <time>2013-01-27T10:13:46Z</time>
      </trkpt>
      <trkpt lat="45.863" lon="4.82373">
        <ele>336</ele>
        <time>2013-01-27T10:13:48Z</time>
      </trkpt>
      <trkpt lat="45.86306" lon="4.82371">
        <ele>336</ele>
        <time>2013-01-27T10:13:51Z</time>
      </trkpt>
      <trkpt lat="45.86311" lon="4.8237">
        <ele>335</ele>
        <time>2013-01-27T10:13:53Z</time>
      </trkpt>
      <trkpt lat="45.86323" lon="4.82365">
        <ele>334</ele>
        <time>2013-01-27T10:13:58Z</time>
      </trkpt>
      <trkpt lat="45.86325" lon="4.82364">
        <ele>334</ele>
        <time>2013-01-27T10:13:59Z</time>
      </trkpt>
      <trkpt lat="45.86332" lon="4.82364">
        <ele>334</ele>
        <time>2013-01-27T10:14:02Z</time>
      </trkpt>
      <trkpt lat="45.86343" lon="4.82364">
        <ele>324</ele>
        <time>2013-01-27T10:14:06Z</time>
      </trkpt>
      <trkpt lat="45.86345" lon="4.82362">
        <ele>324</ele>
        <time>2013-01-27T10:14:07Z</time>
      </trkpt>
      <trkpt lat="45.86357" lon="4.82354">
        <ele>324</ele>
        <time>2013-01-27T10:14:12Z</time>
      </trkpt>
      <trkpt lat="45.8636" lon="4.82352">
        <ele>323</ele>
        <time>2013-01-27T10:14:13Z</time>
      </trkpt>
      <trkpt lat="45.86369" lon="4.8235">
        <ele>322</ele>
        <time>2013-01-27T10:14:16Z</time>
      </trkpt>
      <trkpt lat="45.86377" lon="4.82347">
        <ele>321</ele>
        <time>2013-01-27T10:14:20Z</time>
      </trkpt>
      <trkpt lat="45.86379" lon="4.82346">
        <ele>321</ele>
        <time>2013-01-27T10:14:21Z</time>
      </trkpt>
      <trkpt lat="45.86387" lon="4.82341">
        <ele>320</ele>
        <time>2013-01-27T10:14:26Z</time>
      </trkpt>
      <trkpt lat="45.86396" lon="4.82341">
        <ele>318</ele>
        <time>2013-01-27T10:14:29Z</time>
      </trkpt>
      <trkpt lat="45.86399" lon="4.8234">
        <ele>318</ele>
        <time>2013-01-27T10:14:30Z</time>
      </trkpt>
      <trkpt lat="45.86414" lon="4.82335">
        <ele>314</ele>
        <time>2013-01-27T10:14:36Z</time>
      </trkpt>
      <trkpt lat="45.86427" lon="4.82331">
        <ele>308</ele>
        <time>2013-01-27T10:14:41Z</time>
      </trkpt>
      <trkpt lat="45.86429" lon="4.82329">
        <ele>307</ele>
        <time>2013-01-27T10:14:42Z</time>
      </trkpt>
      <trkpt lat="45.86432" lon="4.82324">
        <ele>306</ele>
        <time>2013-01-27T10:14:44Z</time>
      </trkpt>
      <trkpt lat="45.86433" lon="4.82321">
        <ele>305</ele>
        <time>2013-01-27T10:14:46Z</time>
      </trkpt>
      <trkpt lat="45.86433" lon="4.82319">
        <ele>305</ele>
        <time>2013-01-27T10:14:47Z</time>
      </trkpt>
      <trkpt lat="45.86432" lon="4.82312">
        <ele>304</ele>
        <time>2013-01-27T10:14:50Z</time>
      </trkpt>
      <trkpt lat="45.8643" lon="4.82306">
        <ele>303</ele>
        <time>2013-01-27T10:14:54Z</time>
      </trkpt>
      <trkpt lat="45.86429" lon="4.82305">
        <ele>303</ele>
        <time>2013-01-27T10:14:55Z</time>
      </trkpt>
      <trkpt lat="45.86426" lon="4.82301">
        <ele>303</ele>
        <time>2013-01-27T10:14:57Z</time>
      </trkpt>
      <trkpt lat="45.86423" lon="4.82296">
        <ele>303</ele>
        <time>2013-01-27T10:15:00Z</time>
      </trkpt>
      <trkpt lat="45.86415" lon="4.82284">
        <ele>314</ele>
        <time>2013-01-27T10:15:05Z</time>
      </trkpt>
      <trkpt lat="45.86413" lon="4.82282">
        <ele>314</ele>
        <time>2013-01-27T10:15:06Z</time>
      </trkpt>
      <trkpt lat="45.86405" lon="4.8227">
        <ele>313</ele>
        <time>2013-01-27T10:15:11Z</time>
      </trkpt>
      <trkpt lat="45.864" lon="4.82264">
        <ele>313</ele>
        <time>2013-01-27T10:15:14Z</time>
      </trkpt>
      <trkpt lat="45.86398" lon="4.82262">
        <ele>313</ele>
        <time>2013-01-27T10:15:15Z</time>
      </trkpt>
      <trkpt lat="45.86382" lon="4.82252">
        <ele>316</ele>
        <time>2013-01-27T10:15:21Z</time>
      </trkpt>
      <trkpt lat="45.86365" lon="4.82237">
        <ele>315</ele>
        <time>2013-01-27T10:15:28Z</time>
      </trkpt>
      <trkpt lat="45.86357" lon="4.82226">
        <ele>316</ele>
        <time>2013-01-27T10:15:32Z</time>
      </trkpt>
      <trkpt lat="45.86355" lon="4.82216">
        <ele>316</ele>
        <time>2013-01-27T10:15:35Z</time>
      </trkpt>
      <trkpt lat="45.86354" lon="4.82208">
        <ele>316</ele>
        <time>2013-01-27T10:15:37Z</time>
      </trkpt>
      <trkpt lat="45.86357" lon="4.82188">
        <ele>316</ele>
        <time>2013-01-27T10:15:43Z</time>
      </trkpt>
      <trkpt lat="45.86362" lon="4.82175">
        <ele>316</ele>
        <time>2013-01-27T10:15:48Z</time>
      </trkpt>
      <trkpt lat="45.86368" lon="4.82164">
        <ele>313</ele>
        <time>2013-01-27T10:15:52Z</time>
      </trkpt>
      <trkpt lat="45.86371" lon="4.82158">
        <ele>313</ele>
        <time>2013-01-27T10:15:54Z</time>
      </trkpt>
      <trkpt lat="45.86376" lon="4.82145">
        <ele>312</ele>
        <time>2013-01-27T10:15:59Z</time>
      </trkpt>
      <trkpt lat="45.86376" lon="4.82144">
        <ele>311</ele>
        <time>2013-01-27T10:16:04Z</time>
      </trkpt>
      <trkpt lat="45.86376" lon="4.82145">
        <ele>312</ele>
        <time>2013-01-27T10:16:08Z</time>
      </trkpt>
      <trkpt lat="45.86374" lon="4.82144">
        <ele>312</ele>
        <time>2013-01-27T10:16:22Z</time>
      </trkpt>
      <trkpt lat="45.86375" lon="4.82146">
        <ele>312</ele>
        <time>2013-01-27T10:16:30Z</time>
      </trkpt>
      <trkpt lat="45.86372" lon="4.82147">
        <ele>312</ele>
        <time>2013-01-27T10:16:42Z</time>
      </trkpt>
      <trkpt lat="45.86374" lon="4.82144">
        <ele>312</ele>
        <time>2013-01-27T10:16:47Z</time>
      </trkpt>
      <trkpt lat="45.86374" lon="4.82146">
        <ele>312</ele>
        <time>2013-01-27T10:16:57Z</time>
      </trkpt>
      <trkpt lat="45.86373" lon="4.82147">
        <ele>312</ele>
        <time>2013-01-27T10:16:58Z</time>
      </trkpt>
      <trkpt lat="45.86372" lon="4.8215">
        <ele>312</ele>
        <time>2013-01-27T10:17:00Z</time>
      </trkpt>
      <trkpt lat="45.8637" lon="4.82153">
        <ele>313</ele>
        <time>2013-01-27T10:17:03Z</time>
      </trkpt>
      <trkpt lat="45.86366" lon="4.82159">
        <ele>314</ele>
        <time>2013-01-27T10:17:09Z</time>
      </trkpt>
      <trkpt lat="45.86361" lon="4.82168">
        <ele>316</ele>
        <time>2013-01-27T10:17:16Z</time>
      </trkpt>
      <trkpt lat="45.86356" lon="4.82169">
        <ele>317</ele>
        <time>2013-01-27T10:17:20Z</time>
      </trkpt>
      <trkpt lat="45.86353" lon="4.82167">
        <ele>318</ele>
        <time>2013-01-27T10:17:22Z</time>
      </trkpt>
      <trkpt lat="45.86349" lon="4.82167">
        <ele>319</ele>
        <time>2013-01-27T10:17:25Z</time>
      </trkpt>
      <trkpt lat="45.86344" lon="4.82167">
        <ele>320</ele>
        <time>2013-01-27T10:17:28Z</time>
      </trkpt>
      <trkpt lat="45.86337" lon="4.82165">
        <ele>322</ele>
        <time>2013-01-27T10:17:32Z</time>
      </trkpt>
      <trkpt lat="45.86334" lon="4.82164">
        <ele>323</ele>
        <time>2013-01-27T10:17:34Z</time>
      </trkpt>
      <trkpt lat="45.86333" lon="4.82163">
        <ele>325</ele>
        <time>2013-01-27T10:17:35Z</time>
      </trkpt>
      <trkpt lat="45.86333" lon="4.82156">
        <ele>326</ele>
        <time>2013-01-27T10:17:39Z</time>
      </trkpt>
      <trkpt lat="45.86332" lon="4.82147">
        <ele>327</ele>
        <time>2013-01-27T10:17:46Z</time>
      </trkpt>
      <trkpt lat="45.86331" lon="4.82142">
        <ele>327</ele>
        <time>2013-01-27T10:17:50Z</time>
      </trkpt>
      <trkpt lat="45.8633" lon="4.82141">
        <ele>327</ele>
        <time>2013-01-27T10:17:51Z</time>
      </trkpt>
      <trkpt lat="45.8633" lon="4.8214">
        <ele>327</ele>
        <time>2013-01-27T10:17:52Z</time>
      </trkpt>
      <trkpt lat="45.86327" lon="4.82134">
        <ele>327</ele>
        <time>2013-01-27T10:17:58Z</time>
      </trkpt>
      <trkpt lat="45.86328" lon="4.82129">
        <ele>327</ele>
        <time>2013-01-27T10:18:08Z</time>
      </trkpt>
      <trkpt lat="45.86334" lon="4.82124">
        <ele>315</ele>
        <time>2013-01-27T10:18:36Z</time>
      </trkpt>
      <trkpt lat="45.8634" lon="4.82113">
        <ele>314</ele>
        <time>2013-01-27T10:18:41Z</time>
      </trkpt>
      <trkpt lat="45.86344" lon="4.82098">
        <ele>315</ele>
        <time>2013-01-27T10:18:45Z</time>
      </trkpt>
      <trkpt lat="45.86345" lon="4.82094">
        <ele>315</ele>
        <time>2013-01-27T10:18:46Z</time>
      </trkpt>
      <trkpt lat="45.86345" lon="4.8209">
        <ele>315</ele>
        <time>2013-01-27T10:18:47Z</time>
      </trkpt>
      <trkpt lat="45.86346" lon="4.82079">
        <ele>312</ele>
        <time>2013-01-27T10:18:50Z</time>
      </trkpt>
      <trkpt lat="45.86349" lon="4.82069">
        <ele>310</ele>
        <time>2013-01-27T10:18:53Z</time>
      </trkpt>
      <trkpt lat="45.86353" lon="4.82056">
        <ele>307</ele>
        <time>2013-01-27T10:18:56Z</time>
      </trkpt>
      <trkpt lat="45.86353" lon="4.82052">
        <ele>306</ele>
        <time>2013-01-27T10:18:57Z</time>
      </trkpt>
      <trkpt lat="45.86352" lon="4.82043">
        <ele>306</ele>
        <time>2013-01-27T10:18:59Z</time>
      </trkpt>
      <trkpt lat="45.86353" lon="4.82039">
        <ele>305</ele>
        <time>2013-01-27T10:19:00Z</time>
      </trkpt>
      <trkpt lat="45.86356" lon="4.82033">
        <ele>304</ele>
        <time>2013-01-27T10:19:02Z</time>
      </trkpt>
      <trkpt lat="45.8636" lon="4.82022">
        <ele>303</ele>
        <time>2013-01-27T10:19:05Z</time>
      </trkpt>
      <trkpt lat="45.8636" lon="4.82019">
        <ele>303</ele>
        <time>2013-01-27T10:19:06Z</time>
      </trkpt>
      <trkpt lat="45.86361" lon="4.82013">
        <ele>303</ele>
        <time>2013-01-27T10:19:08Z</time>
      </trkpt>
      <trkpt lat="45.86363" lon="4.82007">
        <ele>303</ele>
        <time>2013-01-27T10:19:10Z</time>
      </trkpt>
      <trkpt lat="45.86364" lon="4.82001">
        <ele>302</ele>
        <time>2013-01-27T10:19:13Z</time>
      </trkpt>
      <trkpt lat="45.86363" lon="4.82001">
        <ele>302</ele>
        <time>2013-01-27T10:19:15Z</time>
      </trkpt>
      <trkpt lat="45.86358" lon="4.81999">
        <ele>298</ele>
        <time>2013-01-27T10:19:20Z</time>
      </trkpt>
      <trkpt lat="45.86357" lon="4.81998">
        <ele>298</ele>
        <time>2013-01-27T10:19:21Z</time>
      </trkpt>
      <trkpt lat="45.86352" lon="4.81995">
        <ele>299</ele>
        <time>2013-01-27T10:19:26Z</time>
      </trkpt>
      <trkpt lat="45.86347" lon="4.81994">
        <ele>299</ele>
        <time>2013-01-27T10:19:30Z</time>
      </trkpt>
      <trkpt lat="45.86346" lon="4.81993">
        <ele>300</ele>
        <time>2013-01-27T10:19:31Z</time>
      </trkpt>
      <trkpt lat="45.86341" lon="4.81988">
        <ele>300</ele>
        <time>2013-01-27T10:19:36Z</time>
      </trkpt>
      <trkpt lat="45.86339" lon="4.81988">
        <ele>300</ele>
        <time>2013-01-27T10:19:37Z</time>
      </trkpt>
      <trkpt lat="45.86336" lon="4.81985">
        <ele>300</ele>
        <time>2013-01-27T10:19:41Z</time>
      </trkpt>
      <trkpt lat="45.8633" lon="4.81983">
        <ele>306</ele>
        <time>2013-01-27T10:19:47Z</time>
      </trkpt>
      <trkpt lat="45.86329" lon="4.81982">
        <ele>306</ele>
        <time>2013-01-27T10:19:48Z</time>
      </trkpt>
      <trkpt lat="45.86323" lon="4.81977">
        <ele>307</ele>
        <time>2013-01-27T10:19:53Z</time>
      </trkpt>
      <trkpt lat="45.86321" lon="4.81976">
        <ele>307</ele>
        <time>2013-01-27T10:19:54Z</time>
      </trkpt>
      <trkpt lat="45.8632" lon="4.81976">
        <ele>307</ele>
        <time>2013-01-27T10:19:55Z</time>
      </trkpt>
      <trkpt lat="45.86316" lon="4.81975">
        <ele>307</ele>
        <time>2013-01-27T10:19:58Z</time>
      </trkpt>
      <trkpt lat="45.86314" lon="4.81974">
        <ele>308</ele>
        <time>2013-01-27T10:20:00Z</time>
      </trkpt>
      <trkpt lat="45.86312" lon="4.81973">
        <ele>308</ele>
        <time>2013-01-27T10:20:03Z</time>
      </trkpt>
      <trkpt lat="45.8631" lon="4.81972">
        <ele>308</ele>
        <time>2013-01-27T10:20:05Z</time>
      </trkpt>
      <trkpt lat="45.86306" lon="4.81966">
        <ele>308</ele>
        <time>2013-01-27T10:20:11Z</time>
      </trkpt>
      <trkpt lat="45.86306" lon="4.81965">
        <ele>308</ele>
        <time>2013-01-27T10:20:12Z</time>
      </trkpt>
      <trkpt lat="45.86309" lon="4.81959">
        <ele>308</ele>
        <time>2013-01-27T10:20:17Z</time>
      </trkpt>
      <trkpt lat="45.86309" lon="4.81958">
        <ele>307</ele>
        <time>2013-01-27T10:20:18Z</time>
      </trkpt>
      <trkpt lat="45.86312" lon="4.81955">
        <ele>307</ele>
        <time>2013-01-27T10:20:20Z</time>
      </trkpt>
      <trkpt lat="45.86314" lon="4.81948">
        <ele>306</ele>
        <time>2013-01-27T10:20:22Z</time>
      </trkpt>
      <trkpt lat="45.86317" lon="4.81942">
        <ele>305</ele>
        <time>2013-01-27T10:20:24Z</time>
      </trkpt>
      <trkpt lat="45.86321" lon="4.81938">
        <ele>304</ele>
        <time>2013-01-27T10:20:26Z</time>
      </trkpt>
      <trkpt lat="45.86327" lon="4.81935">
        <ele>303</ele>
        <time>2013-01-27T10:20:28Z</time>
      </trkpt>
      <trkpt lat="45.86334" lon="4.81935">
        <ele>295</ele>
        <time>2013-01-27T10:20:30Z</time>
      </trkpt>
      <trkpt lat="45.86348" lon="4.81932">
        <ele>295</ele>
        <time>2013-01-27T10:20:35Z</time>
      </trkpt>
      <trkpt lat="45.86353" lon="4.81928">
        <ele>294</ele>
        <time>2013-01-27T10:20:37Z</time>
      </trkpt>
      <trkpt lat="45.8636" lon="4.81924">
        <ele>294</ele>
        <time>2013-01-27T10:20:40Z</time>
      </trkpt>
      <trkpt lat="45.86363" lon="4.81919">
        <ele>294</ele>
        <time>2013-01-27T10:20:44Z</time>
      </trkpt>
      <trkpt lat="45.86364" lon="4.81919">
        <ele>294</ele>
        <time>2013-01-27T10:20:45Z</time>
      </trkpt>
      <trkpt lat="45.86371" lon="4.81918">
        <ele>293</ele>
        <time>2013-01-27T10:20:53Z</time>
      </trkpt>
      <trkpt lat="45.86371" lon="4.81917">
        <ele>293</ele>
        <time>2013-01-27T10:20:54Z</time>
      </trkpt>
      <trkpt lat="45.86376" lon="4.81914">
        <ele>292</ele>
        <time>2013-01-27T10:20:58Z</time>
      </trkpt>
      <trkpt lat="45.86378" lon="4.81912">
        <ele>292</ele>
        <time>2013-01-27T10:21:00Z</time>
      </trkpt>
      <trkpt lat="45.86382" lon="4.81906">
        <ele>292</ele>
        <time>2013-01-27T10:21:03Z</time>
      </trkpt>
      <trkpt lat="45.86385" lon="4.81902">
        <ele>292</ele>
        <time>2013-01-27T10:21:05Z</time>
      </trkpt>
      <trkpt lat="45.86388" lon="4.81898">
        <ele>292</ele>
        <time>2013-01-27T10:21:08Z</time>
      </trkpt>
      <trkpt lat="45.8639" lon="4.81897">
        <ele>292</ele>
        <time>2013-01-27T10:21:09Z</time>
      </trkpt>
      <trkpt lat="45.864" lon="4.81895">
        <ele>291</ele>
        <time>2013-01-27T10:21:16Z</time>
      </trkpt>
      <trkpt lat="45.864" lon="4.81894">
        <ele>291</ele>
        <time>2013-01-27T10:21:17Z</time>
      </trkpt>
      <trkpt lat="45.86402" lon="4.81894">
        <ele>291</ele>
        <time>2013-01-27T10:21:20Z</time>
      </trkpt>
      <trkpt lat="45.86404" lon="4.81894">
        <ele>291</ele>
        <time>2013-01-27T10:21:21Z</time>
      </trkpt>
      <trkpt lat="45.86405" lon="4.81894">
        <ele>291</ele>
        <time>2013-01-27T10:21:23Z</time>
      </trkpt>
      <trkpt lat="45.86404" lon="4.81894">
        <ele>291</ele>
        <time>2013-01-27T10:21:26Z</time>
      </trkpt>
      <trkpt lat="45.86405" lon="4.81893">
        <ele>291</ele>
        <time>2013-01-27T10:21:27Z</time>
      </trkpt>
      <trkpt lat="45.86406" lon="4.81892">
        <ele>291</ele>
        <time>2013-01-27T10:21:32Z</time>
      </trkpt>
      <trkpt lat="45.86401" lon="4.81892">
        <ele>292</ele>
        <time>2013-01-27T10:21:38Z</time>
      </trkpt>
      <trkpt lat="45.86395" lon="4.8189">
        <ele>292</ele>
        <time>2013-01-27T10:21:42Z</time>
      </trkpt>
      <trkpt lat="45.86389" lon="4.81888">
        <ele>293</ele>
        <time>2013-01-27T10:21:46Z</time>
      </trkpt>
      <trkpt lat="45.86387" lon="4.81887">
        <ele>293</ele>
        <time>2013-01-27T10:21:48Z</time>
      </trkpt>
      <trkpt lat="45.86379" lon="4.81883">
        <ele>293</ele>
        <time>2013-01-27T10:21:55Z</time>
      </trkpt>
      <trkpt lat="45.86378" lon="4.81882">
        <ele>293</ele>
        <time>2013-01-27T10:21:56Z</time>
      </trkpt>
      <trkpt lat="45.86376" lon="4.81878">
        <ele>293</ele>
        <time>2013-01-27T10:22:00Z</time>
      </trkpt>
      <trkpt lat="45.86374" lon="4.81874">
        <ele>294</ele>
        <time>2013-01-27T10:22:04Z</time>
      </trkpt>
      <trkpt lat="45.86373" lon="4.81872">
        <ele>294</ele>
        <time>2013-01-27T10:22:05Z</time>
      </trkpt>
      <trkpt lat="45.86373" lon="4.8187">
        <ele>294</ele>
        <time>2013-01-27T10:22:07Z</time>
      </trkpt>
      <trkpt lat="45.86375" lon="4.81863">
        <ele>294</ele>
        <time>2013-01-27T10:22:11Z</time>
      </trkpt>
      <trkpt lat="45.86378" lon="4.8186">
        <ele>294</ele>
        <time>2013-01-27T10:22:14Z</time>
      </trkpt>
      <trkpt lat="45.86383" lon="4.81856">
        <ele>294</ele>
        <time>2013-01-27T10:22:19Z</time>
      </trkpt>
      <trkpt lat="45.86385" lon="4.81854">
        <ele>294</ele>
        <time>2013-01-27T10:22:22Z</time>
      </trkpt>
      <trkpt lat="45.86385" lon="4.81853">
        <ele>294</ele>
        <time>2013-01-27T10:22:23Z</time>
      </trkpt>
      <trkpt lat="45.86385" lon="4.8185">
        <ele>295</ele>
        <time>2013-01-27T10:22:25Z</time>
      </trkpt>
      <trkpt lat="45.86382" lon="4.81839">
        <ele>295</ele>
        <time>2013-01-27T10:22:36Z</time>
      </trkpt>
      <trkpt lat="45.86389" lon="4.81829">
        <ele>301</ele>
        <time>2013-01-27T10:22:55Z</time>
      </trkpt>
      <trkpt lat="45.8639" lon="4.81826">
        <ele>301</ele>
        <time>2013-01-27T10:22:59Z</time>
      </trkpt>
      <trkpt lat="45.86393" lon="4.81824">
        <ele>301</ele>
        <time>2013-01-27T10:23:11Z</time>
      </trkpt>
      <trkpt lat="45.86395" lon="4.8182">
        <ele>301</ele>
        <time>2013-01-27T10:23:22Z</time>
      </trkpt>
      <trkpt lat="45.86396" lon="4.81817">
        <ele>301</ele>
        <time>2013-01-27T10:23:27Z</time>
      </trkpt>
      <trkpt lat="45.86397" lon="4.81815">
        <ele>302</ele>
        <time>2013-01-27T10:23:32Z</time>
      </trkpt>
      <trkpt lat="45.86399" lon="4.81813">
        <ele>302</ele>
        <time>2013-01-27T10:23:35Z</time>
      </trkpt>
      <trkpt lat="45.864" lon="4.81812">
        <ele>302</ele>
        <time>2013-01-27T10:23:38Z</time>
      </trkpt>
      <trkpt lat="45.86402" lon="4.81811">
        <ele>302</ele>
        <time>2013-01-27T10:23:43Z</time>
      </trkpt>
      <trkpt lat="45.86404" lon="4.8181">
        <ele>302</ele>
        <time>2013-01-27T10:23:47Z</time>
      </trkpt>
      <trkpt lat="45.86404" lon="4.81809">
        <ele>302</ele>
        <time>2013-01-27T10:23:48Z</time>
      </trkpt>
      <trkpt lat="45.86406" lon="4.81804">
        <ele>302</ele>
        <time>2013-01-27T10:23:55Z</time>
      </trkpt>
      <trkpt lat="45.86411" lon="4.81798">
        <ele>303</ele>
        <time>2013-01-27T10:24:03Z</time>
      </trkpt>
      <trkpt lat="45.86414" lon="4.81791">
        <ele>304</ele>
        <time>2013-01-27T10:24:08Z</time>
      </trkpt>
      <trkpt lat="45.86415" lon="4.8179">
        <ele>304</ele>
        <time>2013-01-27T10:24:10Z</time>
      </trkpt>
      <trkpt lat="45.86416" lon="4.81788">
        <ele>304</ele>
        <time>2013-01-27T10:24:12Z</time>
      </trkpt>
      <trkpt lat="45.86417" lon="4.81784">
        <ele>305</ele>
        <time>2013-01-27T10:24:17Z</time>
      </trkpt>
      <trkpt lat="45.86418" lon="4.81778">
        <ele>306</ele>
        <time>2013-01-27T10:24:28Z</time>
      </trkpt>
      <trkpt lat="45.86416" lon="4.8177">
        <ele>307</ele>
        <time>2013-01-27T10:24:48Z</time>
      </trkpt>
      <trkpt lat="45.86418" lon="4.81775">
        <ele>306</ele>
        <time>2013-01-27T10:24:59Z</time>
      </trkpt>
      <trkpt lat="45.86416" lon="4.81776">
        <ele>306</ele>
        <time>2013-01-27T10:25:28Z</time>
      </trkpt>
      <trkpt lat="45.86415" lon="4.81775">
        <ele>306</ele>
        <time>2013-01-27T10:25:48Z</time>
      </trkpt>
      <trkpt lat="45.86416" lon="4.81773">
        <ele>306</ele>
        <time>2013-01-27T10:25:58Z</time>
      </trkpt>
      <trkpt lat="45.86419" lon="4.81771">
        <ele>307</ele>
        <time>2013-01-27T10:26:40Z</time>
      </trkpt>
      <trkpt lat="45.86417" lon="4.81771">
        <ele>307</ele>
        <time>2013-01-27T10:26:54Z</time>
      </trkpt>
      <trkpt lat="45.86416" lon="4.81774">
        <ele>306</ele>
        <time>2013-01-27T10:27:08Z</time>
      </trkpt>
      <trkpt lat="45.86417" lon="4.81774">
        <ele>306</ele>
        <time>2013-01-27T10:27:37Z</time>
      </trkpt>
      <trkpt lat="45.86417" lon="4.81774">
        <ele>306</ele>
        <time>2013-01-27T10:27:38Z</time>
      </trkpt>
      <trkpt lat="45.86417" lon="4.81774">
        <ele>306</ele>
        <time>2013-01-27T10:27:39Z</time>
      </trkpt>
      <trkpt lat="45.86419" lon="4.81768">
        <ele>307</ele>
        <time>2013-01-27T10:27:51Z</time>
      </trkpt>
      <trkpt lat="45.86419" lon="4.81767">
        <ele>307</ele>
        <time>2013-01-27T10:27:58Z</time>
      </trkpt>
      <trkpt lat="45.86419" lon="4.81769">
        <ele>307</ele>
        <time>2013-01-27T10:28:03Z</time>
      </trkpt>
      <trkpt lat="45.86418" lon="4.8177">
        <ele>307</ele>
        <time>2013-01-27T10:28:24Z</time>
      </trkpt>
      <trkpt lat="45.86419" lon="4.81763">
        <ele>308</ele>
        <time>2013-01-27T10:28:30Z</time>
      </trkpt>
      <trkpt lat="45.86419" lon="4.81758">
        <ele>309</ele>
        <time>2013-01-27T10:28:32Z</time>
      </trkpt>
      <trkpt lat="45.86421" lon="4.8175">
        <ele>312</ele>
        <time>2013-01-27T10:28:35Z</time>
      </trkpt>
      <trkpt lat="45.86425" lon="4.81735">
        <ele>312</ele>
        <time>2013-01-27T10:28:41Z</time>
      </trkpt>
      <trkpt lat="45.86426" lon="4.81733">
        <ele>312</ele>
        <time>2013-01-27T10:28:42Z</time>
      </trkpt>
      <trkpt lat="45.86426" lon="4.81719">
        <ele>313</ele>
        <time>2013-01-27T10:28:47Z</time>
      </trkpt>
      <trkpt lat="45.86428" lon="4.81706">
        <ele>314</ele>
        <time>2013-01-27T10:28:52Z</time>
      </trkpt>
      <trkpt lat="45.86431" lon="4.81691">
        <ele>316</ele>
        <time>2013-01-27T10:28:58Z</time>
      </trkpt>
      <trkpt lat="45.86433" lon="4.81684">
        <ele>317</ele>
        <time>2013-01-27T10:29:01Z</time>
      </trkpt>
      <trkpt lat="45.86435" lon="4.81681">
        <ele>317</ele>
        <time>2013-01-27T10:29:03Z</time>
      </trkpt>
      <trkpt lat="45.86436" lon="4.8168">
        <ele>317</ele>
        <time>2013-01-27T10:29:04Z</time>
      </trkpt>
      <trkpt lat="45.86437" lon="4.81673">
        <ele>317</ele>
        <time>2013-01-27T10:29:07Z</time>
      </trkpt>
      <trkpt lat="45.86439" lon="4.81667">
        <ele>317</ele>
        <time>2013-01-27T10:29:10Z</time>
      </trkpt>
      <trkpt lat="45.86439" lon="4.81662">
        <ele>320</ele>
        <time>2013-01-27T10:29:12Z</time>
      </trkpt>
      <trkpt lat="45.8644" lon="4.81656">
        <ele>320</ele>
        <time>2013-01-27T10:29:15Z</time>
      </trkpt>
      <trkpt lat="45.8644" lon="4.81655">
        <ele>320</ele>
        <time>2013-01-27T10:29:16Z</time>
      </trkpt>
      <trkpt lat="45.86441" lon="4.81648">
        <ele>319</ele>
        <time>2013-01-27T10:29:19Z</time>
      </trkpt>
      <trkpt lat="45.86442" lon="4.81646">
        <ele>319</ele>
        <time>2013-01-27T10:29:20Z</time>
      </trkpt>
      <trkpt lat="45.86442" lon="4.81639">
        <ele>319</ele>
        <time>2013-01-27T10:29:23Z</time>
      </trkpt>
      <trkpt lat="45.86443" lon="4.8163">
        <ele>319</ele>
        <time>2013-01-27T10:29:26Z</time>
      </trkpt>
      <trkpt lat="45.86442" lon="4.81628">
        <ele>319</ele>
        <time>2013-01-27T10:29:27Z</time>
      </trkpt>
      <trkpt lat="45.86441" lon="4.81619">
        <ele>319</ele>
        <time>2013-01-27T10:29:31Z</time>
      </trkpt>
      <trkpt lat="45.86441" lon="4.81614">
        <ele>320</ele>
        <time>2013-01-27T10:29:33Z</time>
      </trkpt>
      <trkpt lat="45.8644" lon="4.81608">
        <ele>320</ele>
        <time>2013-01-27T10:29:35Z</time>
      </trkpt>
      <trkpt lat="45.86439" lon="4.81604">
        <ele>321</ele>
        <time>2013-01-27T10:29:37Z</time>
      </trkpt>
      <trkpt lat="45.86438" lon="4.81601">
        <ele>321</ele>
        <time>2013-01-27T10:29:38Z</time>
      </trkpt>
      <trkpt lat="45.86437" lon="4.81598">
        <ele>322</ele>
        <time>2013-01-27T10:29:39Z</time>
      </trkpt>
      <trkpt lat="45.86437" lon="4.81596">
        <ele>322</ele>
        <time>2013-01-27T10:29:40Z</time>
      </trkpt>
      <trkpt lat="45.86435" lon="4.81589">
        <ele>323</ele>
        <time>2013-01-27T10:29:43Z</time>
      </trkpt>
      <trkpt lat="45.8643" lon="4.81579">
        <ele>322</ele>
        <time>2013-01-27T10:29:47Z</time>
      </trkpt>
      <trkpt lat="45.86429" lon="4.81576">
        <ele>322</ele>
        <time>2013-01-27T10:29:49Z</time>
      </trkpt>
      <trkpt lat="45.86426" lon="4.81573">
        <ele>322</ele>
        <time>2013-01-27T10:29:52Z</time>
      </trkpt>
      <trkpt lat="45.86422" lon="4.81569">
        <ele>322</ele>
        <time>2013-01-27T10:29:56Z</time>
      </trkpt>
      <trkpt lat="45.8642" lon="4.81568">
        <ele>322</ele>
        <time>2013-01-27T10:29:59Z</time>
      </trkpt>
      <trkpt lat="45.86417" lon="4.81563">
        <ele>320</ele>
        <time>2013-01-27T10:30:02Z</time>
      </trkpt>
      <trkpt lat="45.86417" lon="4.81562">
        <ele>320</ele>
        <time>2013-01-27T10:30:03Z</time>
      </trkpt>
      <trkpt lat="45.86415" lon="4.81557">
        <ele>331</ele>
        <time>2013-01-27T10:30:08Z</time>
      </trkpt>
      <trkpt lat="45.86413" lon="4.81554">
        <ele>331</ele>
        <time>2013-01-27T10:30:11Z</time>
      </trkpt>
      <trkpt lat="45.86412" lon="4.81553">
        <ele>331</ele>
        <time>2013-01-27T10:30:13Z</time>
      </trkpt>
      <trkpt lat="45.86411" lon="4.81549">
        <ele>330</ele>
        <time>2013-01-27T10:30:16Z</time>
      </trkpt>
      <trkpt lat="45.8641" lon="4.81549">
        <ele>330</ele>
        <time>2013-01-27T10:30:17Z</time>
      </trkpt>
      <trkpt lat="45.86408" lon="4.81545">
        <ele>330</ele>
        <time>2013-01-27T10:30:21Z</time>
      </trkpt>
      <trkpt lat="45.86405" lon="4.81543">
        <ele>330</ele>
        <time>2013-01-27T10:30:24Z</time>
      </trkpt>
      <trkpt lat="45.86404" lon="4.81542">
        <ele>330</ele>
        <time>2013-01-27T10:30:25Z</time>
      </trkpt>
      <trkpt lat="45.86402" lon="4.81542">
        <ele>330</ele>
        <time>2013-01-27T10:30:27Z</time>
      </trkpt>
      <trkpt lat="45.864" lon="4.81542">
        <ele>330</ele>
        <time>2013-01-27T10:30:28Z</time>
      </trkpt>
      <trkpt lat="45.86395" lon="4.81537">
        <ele>330</ele>
        <time>2013-01-27T10:30:31Z</time>
      </trkpt>
      <trkpt lat="45.86389" lon="4.81532">
        <ele>330</ele>
        <time>2013-01-27T10:30:34Z</time>
      </trkpt>
      <trkpt lat="45.86384" lon="4.81529">
        <ele>331</ele>
        <time>2013-01-27T10:30:36Z</time>
      </trkpt>
      <trkpt lat="45.86379" lon="4.81525">
        <ele>331</ele>
        <time>2013-01-27T10:30:39Z</time>
      </trkpt>
      <trkpt lat="45.86373" lon="4.81522">
        <ele>332</ele>
        <time>2013-01-27T10:30:41Z</time>
      </trkpt>
      <trkpt lat="45.86367" lon="4.81518">
        <ele>332</ele>
        <time>2013-01-27T10:30:44Z</time>
      </trkpt>
      <trkpt lat="45.86361" lon="4.81518">
        <ele>333</ele>
        <time>2013-01-27T10:30:47Z</time>
      </trkpt>
      <trkpt lat="45.86352" lon="4.81511">
        <ele>335</ele>
        <time>2013-01-27T10:30:52Z</time>
      </trkpt>
      <trkpt lat="45.86349" lon="4.81509">
        <ele>335</ele>
        <time>2013-01-27T10:30:53Z</time>
      </trkpt>
      <trkpt lat="45.86341" lon="4.81504">
        <ele>337</ele>
        <time>2013-01-27T10:30:56Z</time>
      </trkpt>
      <trkpt lat="45.8633" lon="4.81498">
        <ele>337</ele>
        <time>2013-01-27T10:31:00Z</time>
      </trkpt>
      <trkpt lat="45.86318" lon="4.81491">
        <ele>333</ele>
        <time>2013-01-27T10:31:06Z</time>
      </trkpt>
      <trkpt lat="45.86313" lon="4.81489">
        <ele>332</ele>
        <time>2013-01-27T10:31:09Z</time>
      </trkpt>
      <trkpt lat="45.86308" lon="4.81486">
        <ele>331</ele>
        <time>2013-01-27T10:31:11Z</time>
      </trkpt>
      <trkpt lat="45.86295" lon="4.81482">
        <ele>331</ele>
        <time>2013-01-27T10:31:17Z</time>
      </trkpt>
      <trkpt lat="45.86292" lon="4.81481">
        <ele>331</ele>
        <time>2013-01-27T10:31:18Z</time>
      </trkpt>
      <trkpt lat="45.8628" lon="4.81478">
        <ele>332</ele>
        <time>2013-01-27T10:31:23Z</time>
      </trkpt>
      <trkpt lat="45.86276" lon="4.81477">
        <ele>332</ele>
        <time>2013-01-27T10:31:25Z</time>
      </trkpt>
      <trkpt lat="45.86268" lon="4.81476">
        <ele>333</ele>
        <time>2013-01-27T10:31:29Z</time>
      </trkpt>
      <trkpt lat="45.86258" lon="4.81474">
        <ele>334</ele>
        <time>2013-01-27T10:31:34Z</time>
      </trkpt>
      <trkpt lat="45.86255" lon="4.81473">
        <ele>334</ele>
        <time>2013-01-27T10:31:35Z</time>
      </trkpt>
      <trkpt lat="45.86243" lon="4.81468">
        <ele>338</ele>
        <time>2013-01-27T10:31:41Z</time>
      </trkpt>
      <trkpt lat="45.86238" lon="4.81466">
        <ele>338</ele>
        <time>2013-01-27T10:31:43Z</time>
      </trkpt>
      <trkpt lat="45.86231" lon="4.81465">
        <ele>337</ele>
        <time>2013-01-27T10:31:46Z</time>
      </trkpt>
      <trkpt lat="45.86221" lon="4.81461">
        <ele>336</ele>
        <time>2013-01-27T10:31:51Z</time>
      </trkpt>
      <trkpt lat="45.86219" lon="4.81461">
        <ele>336</ele>
        <time>2013-01-27T10:31:52Z</time>
      </trkpt>
      <trkpt lat="45.8621" lon="4.81455">
        <ele>336</ele>
        <time>2013-01-27T10:31:56Z</time>
      </trkpt>
      <trkpt lat="45.862" lon="4.81453">
        <ele>336</ele>
        <time>2013-01-27T10:32:00Z</time>
      </trkpt>
      <trkpt lat="45.86195" lon="4.81452">
        <ele>336</ele>
        <time>2013-01-27T10:32:02Z</time>
      </trkpt>
      <trkpt lat="45.86183" lon="4.81448">
        <ele>335</ele>
        <time>2013-01-27T10:32:07Z</time>
      </trkpt>
      <trkpt lat="45.8618" lon="4.81448">
        <ele>335</ele>
        <time>2013-01-27T10:32:08Z</time>
      </trkpt>
      <trkpt lat="45.8617" lon="4.81448">
        <ele>335</ele>
        <time>2013-01-27T10:32:13Z</time>
      </trkpt>
      <trkpt lat="45.86162" lon="4.81445">
        <ele>337</ele>
        <time>2013-01-27T10:32:16Z</time>
      </trkpt>
      <trkpt lat="45.8616" lon="4.81444">
        <ele>337</ele>
        <time>2013-01-27T10:32:17Z</time>
      </trkpt>
      <trkpt lat="45.86147" lon="4.81439">
        <ele>337</ele>
        <time>2013-01-27T10:32:23Z</time>
      </trkpt>
      <trkpt lat="45.86144" lon="4.81437">
        <ele>338</ele>
        <time>2013-01-27T10:32:24Z</time>
      </trkpt>
      <trkpt lat="45.86135" lon="4.81433">
        <ele>338</ele>
        <time>2013-01-27T10:32:28Z</time>
      </trkpt>
      <trkpt lat="45.86131" lon="4.81431">
        <ele>338</ele>
        <time>2013-01-27T10:32:30Z</time>
      </trkpt>
      <trkpt lat="45.86126" lon="4.8143">
        <ele>339</ele>
        <time>2013-01-27T10:32:32Z</time>
      </trkpt>
      <trkpt lat="45.86123" lon="4.81429">
        <ele>339</ele>
        <time>2013-01-27T10:32:33Z</time>
      </trkpt>
      <trkpt lat="45.86116" lon="4.81428">
        <ele>339</ele>
        <time>2013-01-27T10:32:37Z</time>
      </trkpt>
      <trkpt lat="45.86114" lon="4.81428">
        <ele>339</ele>
        <time>2013-01-27T10:32:38Z</time>
      </trkpt>
      <trkpt lat="45.86107" lon="4.81428">
        <ele>340</ele>
        <time>2013-01-27T10:32:42Z</time>
      </trkpt>
      <trkpt lat="45.86107" lon="4.81428">
        <ele>340</ele>
        <time>2013-01-27T10:32:43Z</time>
      </trkpt>
      <trkpt lat="45.86104" lon="4.81427">
        <ele>340</ele>
        <time>2013-01-27T10:32:47Z</time>
      </trkpt>
      <trkpt lat="45.86101" lon="4.81429">
        <ele>340</ele>
        <time>2013-01-27T10:32:50Z</time>
      </trkpt>
      <trkpt lat="45.861" lon="4.81429">
        <ele>340</ele>
        <time>2013-01-27T10:32:51Z</time>
      </trkpt>
      <trkpt lat="45.86094" lon="4.81435">
        <ele>340</ele>
        <time>2013-01-27T10:32:58Z</time>
      </trkpt>
      <trkpt lat="45.86092" lon="4.81435">
        <ele>340</ele>
        <time>2013-01-27T10:32:59Z</time>
      </trkpt>
      <trkpt lat="45.8609" lon="4.81434">
        <ele>340</ele>
        <time>2013-01-27T10:33:01Z</time>
      </trkpt>
      <trkpt lat="45.86088" lon="4.81433">
        <ele>340</ele>
        <time>2013-01-27T10:33:03Z</time>
      </trkpt>
      <trkpt lat="45.86082" lon="4.81432">
        <ele>343</ele>
        <time>2013-01-27T10:33:08Z</time>
      </trkpt>
      <trkpt lat="45.86081" lon="4.81431">
        <ele>343</ele>
        <time>2013-01-27T10:33:09Z</time>
      </trkpt>
      <trkpt lat="45.86076" lon="4.81431">
        <ele>343</ele>
        <time>2013-01-27T10:33:13Z</time>
      </trkpt>
      <trkpt lat="45.86075" lon="4.81431">
        <ele>343</ele>
        <time>2013-01-27T10:33:14Z</time>
      </trkpt>
      <trkpt lat="45.86071" lon="4.81431">
        <ele>343</ele>
        <time>2013-01-27T10:33:17Z</time>
      </trkpt>
      <trkpt lat="45.86066" lon="4.8143">
        <ele>344</ele>
        <time>2013-01-27T10:33:22Z</time>
      </trkpt>
      <trkpt lat="45.8606" lon="4.81431">
        <ele>344</ele>
        <time>2013-01-27T10:33:29Z</time>
      </trkpt>
      <trkpt lat="45.86058" lon="4.81435">
        <ele>345</ele>
        <time>2013-01-27T10:33:35Z</time>
      </trkpt>
      <trkpt lat="45.86055" lon="4.81435">
        <ele>345</ele>
        <time>2013-01-27T10:33:38Z</time>
      </trkpt>
      <trkpt lat="45.86052" lon="4.81435">
        <ele>345</ele>
        <time>2013-01-27T10:33:40Z</time>
      </trkpt>
      <trkpt lat="45.86048" lon="4.81435">
        <ele>345</ele>
        <time>2013-01-27T10:33:43Z</time>
      </trkpt>
      <trkpt lat="45.86045" lon="4.81435">
        <ele>346</ele>
        <time>2013-01-27T10:33:45Z</time>
      </trkpt>
      <trkpt lat="45.86041" lon="4.81435">
        <ele>346</ele>
        <time>2013-01-27T10:33:48Z</time>
      </trkpt>
      <trkpt lat="45.86037" lon="4.81434">
        <ele>346</ele>
        <time>2013-01-27T10:33:50Z</time>
      </trkpt>
      <trkpt lat="45.86035" lon="4.81434">
        <ele>347</ele>
        <time>2013-01-27T10:33:51Z</time>
      </trkpt>
      <trkpt lat="45.86031" lon="4.81434">
        <ele>347</ele>
        <time>2013-01-27T10:33:53Z</time>
      </trkpt>
      <trkpt lat="45.86019" lon="4.8143">
        <ele>349</ele>
        <time>2013-01-27T10:33:58Z</time>
      </trkpt>
      <trkpt lat="45.86016" lon="4.81428">
        <ele>349</ele>
        <time>2013-01-27T10:33:59Z</time>
      </trkpt>
      <trkpt lat="45.86008" lon="4.81423">
        <ele>352</ele>
        <time>2013-01-27T10:34:03Z</time>
      </trkpt>
      <trkpt lat="45.85998" lon="4.81418">
        <ele>355</ele>
        <time>2013-01-27T10:34:08Z</time>
      </trkpt>
      <trkpt lat="45.85993" lon="4.81417">
        <ele>355</ele>
        <time>2013-01-27T10:34:10Z</time>
      </trkpt>
      <trkpt lat="45.85982" lon="4.81411">
        <ele>355</ele>
        <time>2013-01-27T10:34:15Z</time>
      </trkpt>
      <trkpt lat="45.8598" lon="4.81411">
        <ele>355</ele>
        <time>2013-01-27T10:34:16Z</time>
      </trkpt>
      <trkpt lat="45.85974" lon="4.81405">
        <ele>355</ele>
        <time>2013-01-27T10:34:19Z</time>
      </trkpt>
      <trkpt lat="45.8597" lon="4.81402">
        <ele>355</ele>
        <time>2013-01-27T10:34:21Z</time>
      </trkpt>
      <trkpt lat="45.85963" lon="4.81398">
        <ele>356</ele>
        <time>2013-01-27T10:34:24Z</time>
      </trkpt>
      <trkpt lat="45.85951" lon="4.81389">
        <ele>357</ele>
        <time>2013-01-27T10:34:30Z</time>
      </trkpt>
      <trkpt lat="45.85947" lon="4.81386">
        <ele>357</ele>
        <time>2013-01-27T10:34:32Z</time>
      </trkpt>
      <trkpt lat="45.85939" lon="4.81379">
        <ele>357</ele>
        <time>2013-01-27T10:34:36Z</time>
      </trkpt>
      <trkpt lat="45.8593" lon="4.81372">
        <ele>358</ele>
        <time>2013-01-27T10:34:40Z</time>
      </trkpt>
      <trkpt lat="45.85928" lon="4.81369">
        <ele>358</ele>
        <time>2013-01-27T10:34:41Z</time>
      </trkpt>
      <trkpt lat="45.85916" lon="4.81362">
        <ele>370</ele>
        <time>2013-01-27T10:34:47Z</time>
      </trkpt>
      <trkpt lat="45.85913" lon="4.81361">
        <ele>370</ele>
        <time>2013-01-27T10:34:49Z</time>
      </trkpt>
      <trkpt lat="45.85904" lon="4.81362">
        <ele>371</ele>
        <time>2013-01-27T10:34:54Z</time>
      </trkpt>
      <trkpt lat="45.85902" lon="4.81362">
        <ele>371</ele>
        <time>2013-01-27T10:34:56Z</time>
      </trkpt>
      <trkpt lat="45.85899" lon="4.8136">
        <ele>372</ele>
        <time>2013-01-27T10:34:59Z</time>
      </trkpt>
      <trkpt lat="45.85898" lon="4.81359">
        <ele>372</ele>
        <time>2013-01-27T10:35:01Z</time>
      </trkpt>
      <trkpt lat="45.85898" lon="4.81358">
        <ele>372</ele>
        <time>2013-01-27T10:35:02Z</time>
      </trkpt>
      <trkpt lat="45.85896" lon="4.81356">
        <ele>372</ele>
        <time>2013-01-27T10:35:05Z</time>
      </trkpt>
      <trkpt lat="45.85894" lon="4.81354">
        <ele>372</ele>
        <time>2013-01-27T10:35:08Z</time>
      </trkpt>
      <trkpt lat="45.85893" lon="4.81353">
        <ele>372</ele>
        <time>2013-01-27T10:35:09Z</time>
      </trkpt>
      <trkpt lat="45.85893" lon="4.81352">
        <ele>372</ele>
        <time>2013-01-27T10:35:10Z</time>
      </trkpt>
      <trkpt lat="45.8589" lon="4.81348">
        <ele>372</ele>
        <time>2013-01-27T10:35:13Z</time>
      </trkpt>
      <trkpt lat="45.85886" lon="4.81346">
        <ele>373</ele>
        <time>2013-01-27T10:35:17Z</time>
      </trkpt>
      <trkpt lat="45.8588" lon="4.81341">
        <ele>374</ele>
        <time>2013-01-27T10:35:24Z</time>
      </trkpt>
      <trkpt lat="45.85878" lon="4.8134">
        <ele>374</ele>
        <time>2013-01-27T10:35:27Z</time>
      </trkpt>
      <trkpt lat="45.85877" lon="4.81339">
        <ele>374</ele>
        <time>2013-01-27T10:35:28Z</time>
      </trkpt>
      <trkpt lat="45.85876" lon="4.81338">
        <ele>374</ele>
        <time>2013-01-27T10:35:29Z</time>
      </trkpt>
      <trkpt lat="45.85869" lon="4.8133">
        <ele>367</ele>
        <time>2013-01-27T10:35:35Z</time>
      </trkpt>
      <trkpt lat="45.85863" lon="4.81322">
        <ele>368</ele>
        <time>2013-01-27T10:35:39Z</time>
      </trkpt>
      <trkpt lat="45.85862" lon="4.81318">
        <ele>367</ele>
        <time>2013-01-27T10:35:41Z</time>
      </trkpt>
      <trkpt lat="45.85861" lon="4.81314">
        <ele>367</ele>
        <time>2013-01-27T10:35:43Z</time>
      </trkpt>
      <trkpt lat="45.85855" lon="4.81308">
        <ele>367</ele>
        <time>2013-01-27T10:35:46Z</time>
      </trkpt>
      <trkpt lat="45.85851" lon="4.81304">
        <ele>367</ele>
        <time>2013-01-27T10:35:49Z</time>
      </trkpt>
      <trkpt lat="45.85849" lon="4.813">
        <ele>366</ele>
        <time>2013-01-27T10:35:52Z</time>
      </trkpt>
      <trkpt lat="45.85845" lon="4.81295">
        <ele>366</ele>
        <time>2013-01-27T10:35:57Z</time>
      </trkpt>
      <trkpt lat="45.85843" lon="4.81295">
        <ele>366</ele>
        <time>2013-01-27T10:35:59Z</time>
      </trkpt>
      <trkpt lat="45.85842" lon="4.81295">
        <ele>366</ele>
        <time>2013-01-27T10:36:00Z</time>
      </trkpt>
      <trkpt lat="45.8584" lon="4.81296">
        <ele>366</ele>
        <time>2013-01-27T10:36:02Z</time>
      </trkpt>
      <trkpt lat="45.85839" lon="4.81296">
        <ele>366</ele>
        <time>2013-01-27T10:36:04Z</time>
      </trkpt>
      <trkpt lat="45.85833" lon="4.81295">
        <ele>366</ele>
        <time>2013-01-27T10:36:09Z</time>
      </trkpt>
      <trkpt lat="45.85831" lon="4.81295">
        <ele>377</ele>
        <time>2013-01-27T10:36:11Z</time>
      </trkpt>
      <trkpt lat="45.85828" lon="4.81295">
        <ele>377</ele>
        <time>2013-01-27T10:36:15Z</time>
      </trkpt>
      <trkpt lat="45.85827" lon="4.81295">
        <ele>377</ele>
        <time>2013-01-27T10:36:16Z</time>
      </trkpt>
      <trkpt lat="45.85823" lon="4.81298">
        <ele>378</ele>
        <time>2013-01-27T10:36:20Z</time>
      </trkpt>
      <trkpt lat="45.85822" lon="4.81298">
        <ele>377</ele>
        <time>2013-01-27T10:36:21Z</time>
      </trkpt>
      <trkpt lat="45.85818" lon="4.81302">
        <ele>378</ele>
        <time>2013-01-27T10:36:29Z</time>
      </trkpt>
      <trkpt lat="45.85817" lon="4.81305">
        <ele>379</ele>
        <time>2013-01-27T10:36:32Z</time>
      </trkpt>
      <trkpt lat="45.85815" lon="4.8131">
        <ele>380</ele>
        <time>2013-01-27T10:36:35Z</time>
      </trkpt>
      <trkpt lat="45.85812" lon="4.81311">
        <ele>380</ele>
        <time>2013-01-27T10:36:39Z</time>
      </trkpt>
      <trkpt lat="45.85811" lon="4.81312">
        <ele>380</ele>
        <time>2013-01-27T10:36:41Z</time>
      </trkpt>
      <trkpt lat="45.85809" lon="4.81313">
        <ele>380</ele>
        <time>2013-01-27T10:36:43Z</time>
      </trkpt>
      <trkpt lat="45.85806" lon="4.8131">
        <ele>380</ele>
        <time>2013-01-27T10:36:46Z</time>
      </trkpt>
      <trkpt lat="45.85801" lon="4.81309">
        <ele>380</ele>
        <time>2013-01-27T10:36:49Z</time>
      </trkpt>
      <trkpt lat="45.85799" lon="4.81309">
        <ele>380</ele>
        <time>2013-01-27T10:36:50Z</time>
      </trkpt>
      <trkpt lat="45.85796" lon="4.81306">
        <ele>380</ele>
        <time>2013-01-27T10:36:52Z</time>
      </trkpt>
      <trkpt lat="45.85786" lon="4.81296">
        <ele>380</ele>
        <time>2013-01-27T10:36:58Z</time>
      </trkpt>
      <trkpt lat="45.85783" lon="4.81295">
        <ele>380</ele>
        <time>2013-01-27T10:36:59Z</time>
      </trkpt>
      <trkpt lat="45.8578" lon="4.81292">
        <ele>380</ele>
        <time>2013-01-27T10:37:01Z</time>
      </trkpt>
      <trkpt lat="45.85774" lon="4.81291">
        <ele>380</ele>
        <time>2013-01-27T10:37:03Z</time>
      </trkpt>
      <trkpt lat="45.85769" lon="4.8129">
        <ele>380</ele>
        <time>2013-01-27T10:37:05Z</time>
      </trkpt>
      <trkpt lat="45.85767" lon="4.81289">
        <ele>380</ele>
        <time>2013-01-27T10:37:06Z</time>
      </trkpt>
      <trkpt lat="45.85763" lon="4.81289">
        <ele>380</ele>
        <time>2013-01-27T10:37:08Z</time>
      </trkpt>
      <trkpt lat="45.85753" lon="4.81288">
        <ele>380</ele>
        <time>2013-01-27T10:37:12Z</time>
      </trkpt>
      <trkpt lat="45.85749" lon="4.81286">
        <ele>389</ele>
        <time>2013-01-27T10:37:14Z</time>
      </trkpt>
      <trkpt lat="45.85742" lon="4.81281">
        <ele>387</ele>
        <time>2013-01-27T10:37:17Z</time>
      </trkpt>
      <trkpt lat="45.8573" lon="4.81278">
        <ele>388</ele>
        <time>2013-01-27T10:37:22Z</time>
      </trkpt>
      <trkpt lat="45.85727" lon="4.81278">
        <ele>388</ele>
        <time>2013-01-27T10:37:23Z</time>
      </trkpt>
      <trkpt lat="45.85719" lon="4.81278">
        <ele>389</ele>
        <time>2013-01-27T10:37:26Z</time>
      </trkpt>
      <trkpt lat="45.85712" lon="4.81279">
        <ele>390</ele>
        <time>2013-01-27T10:37:29Z</time>
      </trkpt>
      <trkpt lat="45.85709" lon="4.81279">
        <ele>391</ele>
        <time>2013-01-27T10:37:30Z</time>
      </trkpt>
      <trkpt lat="45.85707" lon="4.81278">
        <ele>391</ele>
        <time>2013-01-27T10:37:31Z</time>
      </trkpt>
      <trkpt lat="45.85698" lon="4.81275">
        <ele>391</ele>
        <time>2013-01-27T10:37:36Z</time>
      </trkpt>
      <trkpt lat="45.85694" lon="4.81273">
        <ele>391</ele>
        <time>2013-01-27T10:37:38Z</time>
      </trkpt>
      <trkpt lat="45.85685" lon="4.81266">
        <ele>390</ele>
        <time>2013-01-27T10:37:42Z</time>
      </trkpt>
      <trkpt lat="45.85676" lon="4.8126">
        <ele>389</ele>
        <time>2013-01-27T10:37:47Z</time>
      </trkpt>
      <trkpt lat="45.85664" lon="4.81251">
        <ele>388</ele>
        <time>2013-01-27T10:37:53Z</time>
      </trkpt>
      <trkpt lat="45.85659" lon="4.81246">
        <ele>385</ele>
        <time>2013-01-27T10:37:56Z</time>
      </trkpt>
      <trkpt lat="45.85655" lon="4.81243">
        <ele>384</ele>
        <time>2013-01-27T10:37:59Z</time>
      </trkpt>
      <trkpt lat="45.85643" lon="4.81237">
        <ele>384</ele>
        <time>2013-01-27T10:38:06Z</time>
      </trkpt>
      <trkpt lat="45.85638" lon="4.81234">
        <ele>384</ele>
        <time>2013-01-27T10:38:09Z</time>
      </trkpt>
      <trkpt lat="45.85637" lon="4.81232">
        <ele>384</ele>
        <time>2013-01-27T10:38:10Z</time>
      </trkpt>
      <trkpt lat="45.85629" lon="4.81227">
        <ele>384</ele>
        <time>2013-01-27T10:38:14Z</time>
      </trkpt>
      <trkpt lat="45.85627" lon="4.81226">
        <ele>384</ele>
        <time>2013-01-27T10:38:15Z</time>
      </trkpt>
      <trkpt lat="45.85624" lon="4.81226">
        <ele>384</ele>
        <time>2013-01-27T10:38:16Z</time>
      </trkpt>
      <trkpt lat="45.85617" lon="4.81222">
        <ele>385</ele>
        <time>2013-01-27T10:38:19Z</time>
      </trkpt>
      <trkpt lat="45.85608" lon="4.8122">
        <ele>386</ele>
        <time>2013-01-27T10:38:24Z</time>
      </trkpt>
      <trkpt lat="45.85598" lon="4.81212">
        <ele>385</ele>
        <time>2013-01-27T10:38:29Z</time>
      </trkpt>
      <trkpt lat="45.8559" lon="4.81206">
        <ele>384</ele>
        <time>2013-01-27T10:38:33Z</time>
      </trkpt>
      <trkpt lat="45.85588" lon="4.81204">
        <ele>384</ele>
        <time>2013-01-27T10:38:34Z</time>
      </trkpt>
      <trkpt lat="45.85584" lon="4.81201">
        <ele>383</ele>
        <time>2013-01-27T10:38:36Z</time>
      </trkpt>
      <trkpt lat="45.85578" lon="4.81196">
        <ele>396</ele>
        <time>2013-01-27T10:38:39Z</time>
      </trkpt>
      <trkpt lat="45.85573" lon="4.81194">
        <ele>396</ele>
        <time>2013-01-27T10:38:42Z</time>
      </trkpt>
      <trkpt lat="45.85571" lon="4.81193">
        <ele>396</ele>
        <time>2013-01-27T10:38:43Z</time>
      </trkpt>
      <trkpt lat="45.85569" lon="4.81193">
        <ele>396</ele>
        <time>2013-01-27T10:38:45Z</time>
      </trkpt>
      <trkpt lat="45.85562" lon="4.81191">
        <ele>397</ele>
        <time>2013-01-27T10:38:49Z</time>
      </trkpt>
      <trkpt lat="45.85558" lon="4.81192">
        <ele>399</ele>
        <time>2013-01-27T10:38:53Z</time>
      </trkpt>
      <trkpt lat="45.85553" lon="4.81191">
        <ele>399</ele>
        <time>2013-01-27T10:38:58Z</time>
      </trkpt>
      <trkpt lat="45.85551" lon="4.81189">
        <ele>399</ele>
        <time>2013-01-27T10:39:00Z</time>
      </trkpt>
      <trkpt lat="45.85545" lon="4.81188">
        <ele>401</ele>
        <time>2013-01-27T10:39:06Z</time>
      </trkpt>
      <trkpt lat="45.8554" lon="4.81187">
        <ele>402</ele>
        <time>2013-01-27T10:39:10Z</time>
      </trkpt>
      <trkpt lat="45.85534" lon="4.81184">
        <ele>402</ele>
        <time>2013-01-27T10:39:15Z</time>
      </trkpt>
      <trkpt lat="45.85532" lon="4.81181">
        <ele>402</ele>
        <time>2013-01-27T10:39:18Z</time>
      </trkpt>
      <trkpt lat="45.85523" lon="4.81174">
        <ele>403</ele>
        <time>2013-01-27T10:39:24Z</time>
      </trkpt>
      <trkpt lat="45.85519" lon="4.8117">
        <ele>403</ele>
        <time>2013-01-27T10:39:26Z</time>
      </trkpt>
      <trkpt lat="45.85512" lon="4.81164">
        <ele>392</ele>
        <time>2013-01-27T10:39:30Z</time>
      </trkpt>
      <trkpt lat="45.85503" lon="4.81156">
        <ele>392</ele>
        <time>2013-01-27T10:39:34Z</time>
      </trkpt>
      <trkpt lat="45.855" lon="4.81153">
        <ele>391</ele>
        <time>2013-01-27T10:39:35Z</time>
      </trkpt>
      <trkpt lat="45.85492" lon="4.81143">
        <ele>401</ele>
        <time>2013-01-27T10:39:41Z</time>
      </trkpt>
      <trkpt lat="45.85486" lon="4.8114">
        <ele>401</ele>
        <time>2013-01-27T10:39:44Z</time>
      </trkpt>
      <trkpt lat="45.8548" lon="4.81134">
        <ele>401</ele>
        <time>2013-01-27T10:39:47Z</time>
      </trkpt>
      <trkpt lat="45.85471" lon="4.81127">
        <ele>401</ele>
        <time>2013-01-27T10:39:51Z</time>
      </trkpt>
      <trkpt lat="45.85462" lon="4.81119">
        <ele>401</ele>
        <time>2013-01-27T10:39:56Z</time>
      </trkpt>
      <trkpt lat="45.85454" lon="4.81118">
        <ele>402</ele>
        <time>2013-01-27T10:40:02Z</time>
      </trkpt>
      <trkpt lat="45.85452" lon="4.81118">
        <ele>402</ele>
        <time>2013-01-27T10:40:05Z</time>
      </trkpt>
      <trkpt lat="45.85449" lon="4.81115">
        <ele>402</ele>
        <time>2013-01-27T10:40:08Z</time>
      </trkpt>
      <trkpt lat="45.85444" lon="4.81107">
        <ele>402</ele>
        <time>2013-01-27T10:40:13Z</time>
      </trkpt>
      <trkpt lat="45.85443" lon="4.81107">
        <ele>402</ele>
        <time>2013-01-27T10:40:14Z</time>
      </trkpt>
      <trkpt lat="45.85439" lon="4.81105">
        <ele>402</ele>
        <time>2013-01-27T10:40:18Z</time>
      </trkpt>
      <trkpt lat="45.85439" lon="4.81105">
        <ele>403</ele>
        <time>2013-01-27T10:40:19Z</time>
      </trkpt>
      <trkpt lat="45.85437" lon="4.81102">
        <ele>403</ele>
        <time>2013-01-27T10:40:24Z</time>
      </trkpt>
      <trkpt lat="45.85436" lon="4.81102">
        <ele>403</ele>
        <time>2013-01-27T10:40:25Z</time>
      </trkpt>
      <trkpt lat="45.85433" lon="4.81101">
        <ele>403</ele>
        <time>2013-01-27T10:40:28Z</time>
      </trkpt>
      <trkpt lat="45.85429" lon="4.81099">
        <ele>403</ele>
        <time>2013-01-27T10:40:31Z</time>
      </trkpt>
      <trkpt lat="45.85427" lon="4.81097">
        <ele>403</ele>
        <time>2013-01-27T10:40:33Z</time>
      </trkpt>
      <trkpt lat="45.85421" lon="4.81093">
        <ele>403</ele>
        <time>2013-01-27T10:40:37Z</time>
      </trkpt>
      <trkpt lat="45.8542" lon="4.81092">
        <ele>403</ele>
        <time>2013-01-27T10:40:38Z</time>
      </trkpt>
      <trkpt lat="45.85414" lon="4.81087">
        <ele>408</ele>
        <time>2013-01-27T10:40:43Z</time>
      </trkpt>
      <trkpt lat="45.85409" lon="4.81086">
        <ele>411</ele>
        <time>2013-01-27T10:40:48Z</time>
      </trkpt>
      <trkpt lat="45.85408" lon="4.81086">
        <ele>412</ele>
        <time>2013-01-27T10:40:50Z</time>
      </trkpt>
      <trkpt lat="45.85404" lon="4.81083">
        <ele>414</ele>
        <time>2013-01-27T10:40:54Z</time>
      </trkpt>
      <trkpt lat="45.85402" lon="4.81084">
        <ele>415</ele>
        <time>2013-01-27T10:40:56Z</time>
      </trkpt>
      <trkpt lat="45.85401" lon="4.81082">
        <ele>405</ele>
        <time>2013-01-27T10:40:57Z</time>
      </trkpt>
      <trkpt lat="45.85393" lon="4.8108">
        <ele>406</ele>
        <time>2013-01-27T10:41:06Z</time>
      </trkpt>
      <trkpt lat="45.85392" lon="4.8108">
        <ele>406</ele>
        <time>2013-01-27T10:41:09Z</time>
      </trkpt>
      <trkpt lat="45.85388" lon="4.81076">
        <ele>407</ele>
        <time>2013-01-27T10:41:14Z</time>
      </trkpt>
      <trkpt lat="45.8539" lon="4.81075">
        <ele>406</ele>
        <time>2013-01-27T10:41:15Z</time>
      </trkpt>
      <trkpt lat="45.85388" lon="4.8107">
        <ele>406</ele>
        <time>2013-01-27T10:41:20Z</time>
      </trkpt>
      <trkpt lat="45.85388" lon="4.81066">
        <ele>406</ele>
        <time>2013-01-27T10:41:21Z</time>
      </trkpt>
      <trkpt lat="45.85384" lon="4.8107">
        <ele>407</ele>
        <time>2013-01-27T10:41:37Z</time>
      </trkpt>
      <trkpt lat="45.85384" lon="4.81073">
        <ele>408</ele>
        <time>2013-01-27T10:41:39Z</time>
      </trkpt>
      <trkpt lat="45.85383" lon="4.81074">
        <ele>408</ele>
        <time>2013-01-27T10:41:40Z</time>
      </trkpt>
      <trkpt lat="45.85388" lon="4.8108">
        <ele>407</ele>
        <time>2013-01-27T10:41:46Z</time>
      </trkpt>
      <trkpt lat="45.85389" lon="4.81081">
        <ele>407</ele>
        <time>2013-01-27T10:41:48Z</time>
      </trkpt>
      <trkpt lat="45.85382" lon="4.81074">
        <ele>408</ele>
        <time>2013-01-27T10:42:05Z</time>
      </trkpt>
      <trkpt lat="45.85381" lon="4.81072">
        <ele>408</ele>
        <time>2013-01-27T10:42:08Z</time>
      </trkpt>
      <trkpt lat="45.8538" lon="4.81063">
        <ele>407</ele>
        <time>2013-01-27T10:42:12Z</time>
      </trkpt>
      <trkpt lat="45.85378" lon="4.8106">
        <ele>407</ele>
        <time>2013-01-27T10:42:15Z</time>
      </trkpt>
      <trkpt lat="45.85378" lon="4.81055">
        <ele>407</ele>
        <time>2013-01-27T10:42:17Z</time>
      </trkpt>
      <trkpt lat="45.85375" lon="4.81043">
        <ele>406</ele>
        <time>2013-01-27T10:42:21Z</time>
      </trkpt>
      <trkpt lat="45.85374" lon="4.81031">
        <ele>404</ele>
        <time>2013-01-27T10:42:25Z</time>
      </trkpt>
      <trkpt lat="45.85374" lon="4.81027">
        <ele>403</ele>
        <time>2013-01-27T10:42:26Z</time>
      </trkpt>
      <trkpt lat="45.85371" lon="4.8101">
        <ele>402</ele>
        <time>2013-01-27T10:42:31Z</time>
      </trkpt>
      <trkpt lat="45.8537" lon="4.81">
        <ele>388</ele>
        <time>2013-01-27T10:42:35Z</time>
      </trkpt>
      <trkpt lat="45.8537" lon="4.80997">
        <ele>387</ele>
        <time>2013-01-27T10:42:36Z</time>
      </trkpt>
      <trkpt lat="45.85369" lon="4.80991">
        <ele>387</ele>
        <time>2013-01-27T10:42:38Z</time>
      </trkpt>
      <trkpt lat="45.85368" lon="4.80983">
        <ele>387</ele>
        <time>2013-01-27T10:42:40Z</time>
      </trkpt>
      <trkpt lat="45.85367" lon="4.80975">
        <ele>386</ele>
        <time>2013-01-27T10:42:42Z</time>
      </trkpt>
      <trkpt lat="45.85367" lon="4.80973">
        <ele>386</ele>
        <time>2013-01-27T10:42:43Z</time>
      </trkpt>
      <trkpt lat="45.85366" lon="4.80971">
        <ele>386</ele>
        <time>2013-01-27T10:42:44Z</time>
      </trkpt>
      <trkpt lat="45.85363" lon="4.80962">
        <ele>385</ele>
        <time>2013-01-27T10:42:49Z</time>
      </trkpt>
      <trkpt lat="45.85362" lon="4.80961">
        <ele>385</ele>
        <time>2013-01-27T10:42:50Z</time>
      </trkpt>
      <trkpt lat="45.85361" lon="4.80956">
        <ele>385</ele>
        <time>2013-01-27T10:42:54Z</time>
      </trkpt>
      <trkpt lat="45.85362" lon="4.80955">
        <ele>384</ele>
        <time>2013-01-27T10:42:55Z</time>
      </trkpt>
      <trkpt lat="45.85362" lon="4.80954">
        <ele>384</ele>
        <time>2013-01-27T10:42:57Z</time>
      </trkpt>
      <trkpt lat="45.85361" lon="4.80952">
        <ele>384</ele>
        <time>2013-01-27T10:43:01Z</time>
      </trkpt>
      <trkpt lat="45.85359" lon="4.8095">
        <ele>384</ele>
        <time>2013-01-27T10:43:03Z</time>
      </trkpt>
      <trkpt lat="45.85357" lon="4.80949">
        <ele>384</ele>
        <time>2013-01-27T10:43:04Z</time>
      </trkpt>
      <trkpt lat="45.85353" lon="4.80948">
        <ele>385</ele>
        <time>2013-01-27T10:43:08Z</time>
      </trkpt>
      <trkpt lat="45.85347" lon="4.80954">
        <ele>386</ele>
        <time>2013-01-27T10:43:14Z</time>
      </trkpt>
      <trkpt lat="45.85341" lon="4.80955">
        <ele>387</ele>
        <time>2013-01-27T10:43:19Z</time>
      </trkpt>
      <trkpt lat="45.8534" lon="4.80955">
        <ele>387</ele>
        <time>2013-01-27T10:43:20Z</time>
      </trkpt>
      <trkpt lat="45.85336" lon="4.80954">
        <ele>387</ele>
        <time>2013-01-27T10:43:24Z</time>
      </trkpt>
      <trkpt lat="45.85333" lon="4.80955">
        <ele>408</ele>
        <time>2013-01-27T10:43:29Z</time>
      </trkpt>
      <trkpt lat="45.85328" lon="4.80955">
        <ele>408</ele>
        <time>2013-01-27T10:43:34Z</time>
      </trkpt>
      <trkpt lat="45.85323" lon="4.80955">
        <ele>409</ele>
        <time>2013-01-27T10:43:40Z</time>
      </trkpt>
      <trkpt lat="45.85318" lon="4.80957">
        <ele>410</ele>
        <time>2013-01-27T10:43:46Z</time>
      </trkpt>
      <trkpt lat="45.85315" lon="4.80952">
        <ele>410</ele>
        <time>2013-01-27T10:43:52Z</time>
      </trkpt>
      <trkpt lat="45.85312" lon="4.8095">
        <ele>410</ele>
        <time>2013-01-27T10:43:56Z</time>
      </trkpt>
      <trkpt lat="45.85311" lon="4.8095">
        <ele>410</ele>
        <time>2013-01-27T10:43:58Z</time>
      </trkpt>
      <trkpt lat="45.85308" lon="4.80946">
        <ele>410</ele>
        <time>2013-01-27T10:44:04Z</time>
      </trkpt>
      <trkpt lat="45.85306" lon="4.80943">
        <ele>410</ele>
        <time>2013-01-27T10:44:06Z</time>
      </trkpt>
      <trkpt lat="45.853" lon="4.8094">
        <ele>411</ele>
        <time>2013-01-27T10:44:11Z</time>
      </trkpt>
      <trkpt lat="45.853" lon="4.8094">
        <ele>411</ele>
        <time>2013-01-27T10:44:12Z</time>
      </trkpt>
      <trkpt lat="45.85297" lon="4.80939">
        <ele>411</ele>
        <time>2013-01-27T10:44:15Z</time>
      </trkpt>
      <trkpt lat="45.85296" lon="4.80938">
        <ele>412</ele>
        <time>2013-01-27T10:44:16Z</time>
      </trkpt>
      <trkpt lat="45.8529" lon="4.80936">
        <ele>413</ele>
        <time>2013-01-27T10:44:21Z</time>
      </trkpt>
      <trkpt lat="45.85289" lon="4.80935">
        <ele>413</ele>
        <time>2013-01-27T10:44:22Z</time>
      </trkpt>
      <trkpt lat="45.85284" lon="4.8093">
        <ele>414</ele>
        <time>2013-01-27T10:44:28Z</time>
      </trkpt>
      <trkpt lat="45.8528" lon="4.80926">
        <ele>414</ele>
        <time>2013-01-27T10:44:32Z</time>
      </trkpt>
      <trkpt lat="45.85274" lon="4.80918">
        <ele>415</ele>
        <time>2013-01-27T10:44:38Z</time>
      </trkpt>
      <trkpt lat="45.85273" lon="4.80915">
        <ele>404</ele>
        <time>2013-01-27T10:44:40Z</time>
      </trkpt>
      <trkpt lat="45.85268" lon="4.80913">
        <ele>406</ele>
        <time>2013-01-27T10:44:46Z</time>
      </trkpt>
      <trkpt lat="45.85264" lon="4.80909">
        <ele>407</ele>
        <time>2013-01-27T10:44:50Z</time>
      </trkpt>
      <trkpt lat="45.85259" lon="4.80902">
        <ele>407</ele>
        <time>2013-01-27T10:44:54Z</time>
      </trkpt>
      <trkpt lat="45.85258" lon="4.80902">
        <ele>407</ele>
        <time>2013-01-27T10:44:55Z</time>
      </trkpt>
      <trkpt lat="45.85257" lon="4.80902">
        <ele>407</ele>
        <time>2013-01-27T10:44:57Z</time>
      </trkpt>
      <trkpt lat="45.85257" lon="4.80904">
        <ele>408</ele>
        <time>2013-01-27T10:44:58Z</time>
      </trkpt>
      <trkpt lat="45.85255" lon="4.80914">
        <ele>415</ele>
        <time>2013-01-27T10:45:07Z</time>
      </trkpt>
      <trkpt lat="45.85252" lon="4.80908">
        <ele>412</ele>
        <time>2013-01-27T10:45:11Z</time>
      </trkpt>
      <trkpt lat="45.85249" lon="4.80904">
        <ele>423</ele>
        <time>2013-01-27T10:45:15Z</time>
      </trkpt>
      <trkpt lat="45.85248" lon="4.80903">
        <ele>423</ele>
        <time>2013-01-27T10:45:17Z</time>
      </trkpt>
      <trkpt lat="45.85239" lon="4.80894">
        <ele>424</ele>
        <time>2013-01-27T10:45:47Z</time>
      </trkpt>
      <trkpt lat="45.85235" lon="4.80891">
        <ele>425</ele>
        <time>2013-01-27T10:45:52Z</time>
      </trkpt>
      <trkpt lat="45.85233" lon="4.8089">
        <ele>425</ele>
        <time>2013-01-27T10:45:53Z</time>
      </trkpt>
      <trkpt lat="45.85228" lon="4.80884">
        <ele>425</ele>
        <time>2013-01-27T10:45:58Z</time>
      </trkpt>
      <trkpt lat="45.85223" lon="4.8088">
        <ele>426</ele>
        <time>2013-01-27T10:46:03Z</time>
      </trkpt>
      <trkpt lat="45.85219" lon="4.8088">
        <ele>427</ele>
        <time>2013-01-27T10:46:11Z</time>
      </trkpt>
      <trkpt lat="45.85218" lon="4.8088">
        <ele>427</ele>
        <time>2013-01-27T10:46:12Z</time>
      </trkpt>
      <trkpt lat="45.85214" lon="4.8088">
        <ele>428</ele>
        <time>2013-01-27T10:46:18Z</time>
      </trkpt>
      <trkpt lat="45.8521" lon="4.80882">
        <ele>429</ele>
        <time>2013-01-27T10:46:25Z</time>
      </trkpt>
      <trkpt lat="45.85201" lon="4.80874">
        <ele>430</ele>
        <time>2013-01-27T10:46:45Z</time>
      </trkpt>
      <trkpt lat="45.8519" lon="4.8087">
        <ele>432</ele>
        <time>2013-01-27T10:46:57Z</time>
      </trkpt>
      <trkpt lat="45.85186" lon="4.80875">
        <ele>433</ele>
        <time>2013-01-27T10:47:02Z</time>
      </trkpt>
      <trkpt lat="45.85183" lon="4.80875">
        <ele>434</ele>
        <time>2013-01-27T10:47:07Z</time>
      </trkpt>
      <trkpt lat="45.85183" lon="4.80875">
        <ele>434</ele>
        <time>2013-01-27T10:47:09Z</time>
      </trkpt>
      <trkpt lat="45.85164" lon="4.80871">
        <ele>457</ele>
        <time>2013-01-27T10:47:38Z</time>
      </trkpt>
      <trkpt lat="45.85163" lon="4.80872">
        <ele>458</ele>
        <time>2013-01-27T10:47:42Z</time>
      </trkpt>
      <trkpt lat="45.85161" lon="4.80873">
        <ele>458</ele>
        <time>2013-01-27T10:47:45Z</time>
      </trkpt>
      <trkpt lat="45.85159" lon="4.80871">
        <ele>458</ele>
        <time>2013-01-27T10:47:50Z</time>
      </trkpt>
      <trkpt lat="45.85153" lon="4.80868">
        <ele>458</ele>
        <time>2013-01-27T10:47:57Z</time>
      </trkpt>
      <trkpt lat="45.85151" lon="4.80867">
        <ele>458</ele>
        <time>2013-01-27T10:48:00Z</time>
      </trkpt>
      <trkpt lat="45.85146" lon="4.80869">
        <ele>460</ele>
        <time>2013-01-27T10:48:11Z</time>
      </trkpt>
      <trkpt lat="45.85139" lon="4.8087">
        <ele>461</ele>
        <time>2013-01-27T10:48:19Z</time>
      </trkpt>
      <trkpt lat="45.85138" lon="4.80872">
        <ele>462</ele>
        <time>2013-01-27T10:48:23Z</time>
      </trkpt>
      <trkpt lat="45.85136" lon="4.80866">
        <ele>461</ele>
        <time>2013-01-27T10:48:32Z</time>
      </trkpt>
      <trkpt lat="45.85132" lon="4.80864">
        <ele>462</ele>
        <time>2013-01-27T10:48:36Z</time>
      </trkpt>
      <trkpt lat="45.85127" lon="4.80861">
        <ele>463</ele>
        <time>2013-01-27T10:48:43Z</time>
      </trkpt>
      <trkpt lat="45.85125" lon="4.80857">
        <ele>463</ele>
        <time>2013-01-27T10:48:47Z</time>
      </trkpt>
      <trkpt lat="45.85124" lon="4.80856">
        <ele>463</ele>
        <time>2013-01-27T10:48:48Z</time>
      </trkpt>
      <trkpt lat="45.85122" lon="4.80852">
        <ele>463</ele>
        <time>2013-01-27T10:48:54Z</time>
      </trkpt>
      <trkpt lat="45.85121" lon="4.80848">
        <ele>464</ele>
        <time>2013-01-27T10:48:58Z</time>
      </trkpt>
      <trkpt lat="45.85113" lon="4.80839">
        <ele>466</ele>
        <time>2013-01-27T10:49:07Z</time>
      </trkpt>
      <trkpt lat="45.85112" lon="4.80838">
        <ele>466</ele>
        <time>2013-01-27T10:49:09Z</time>
      </trkpt>
      <trkpt lat="45.85108" lon="4.80836">
        <ele>467</ele>
        <time>2013-01-27T10:49:13Z</time>
      </trkpt>
      <trkpt lat="45.85098" lon="4.80826">
        <ele>462</ele>
        <time>2013-01-27T10:49:25Z</time>
      </trkpt>
      <trkpt lat="45.85097" lon="4.80825">
        <ele>462</ele>
        <time>2013-01-27T10:49:26Z</time>
      </trkpt>
      <trkpt lat="45.85096" lon="4.80824">
        <ele>463</ele>
        <time>2013-01-27T10:49:27Z</time>
      </trkpt>
      <trkpt lat="45.85095" lon="4.80826">
        <ele>464</ele>
        <time>2013-01-27T10:49:30Z</time>
      </trkpt>
      <trkpt lat="45.85092" lon="4.80823">
        <ele>465</ele>
        <time>2013-01-27T10:49:34Z</time>
      </trkpt>
      <trkpt lat="45.85089" lon="4.80822">
        <ele>465</ele>
        <time>2013-01-27T10:49:36Z</time>
      </trkpt>
      <trkpt lat="45.85088" lon="4.8082">
        <ele>464</ele>
        <time>2013-01-27T10:49:38Z</time>
      </trkpt>
      <trkpt lat="45.85087" lon="4.80819">
        <ele>464</ele>
        <time>2013-01-27T10:49:40Z</time>
      </trkpt>
      <trkpt lat="45.85083" lon="4.80817">
        <ele>477</ele>
        <time>2013-01-27T10:49:45Z</time>
      </trkpt>
      <trkpt lat="45.85081" lon="4.80816">
        <ele>477</ele>
        <time>2013-01-27T10:49:47Z</time>
      </trkpt>
      <trkpt lat="45.85078" lon="4.80815">
        <ele>477</ele>
        <time>2013-01-27T10:49:49Z</time>
      </trkpt>
      <trkpt lat="45.85077" lon="4.80814">
        <ele>477</ele>
        <time>2013-01-27T10:49:51Z</time>
      </trkpt>
      <trkpt lat="45.85073" lon="4.80811">
        <ele>477</ele>
        <time>2013-01-27T10:49:55Z</time>
      </trkpt>
      <trkpt lat="45.85073" lon="4.8081">
        <ele>477</ele>
        <time>2013-01-27T10:49:57Z</time>
      </trkpt>
      <trkpt lat="45.85068" lon="4.80804">
        <ele>477</ele>
        <time>2013-01-27T10:50:03Z</time>
      </trkpt>
      <trkpt lat="45.85067" lon="4.80803">
        <ele>477</ele>
        <time>2013-01-27T10:50:04Z</time>
      </trkpt>
      <trkpt lat="45.85065" lon="4.80799">
        <ele>477</ele>
        <time>2013-01-27T10:50:09Z</time>
      </trkpt>
      <trkpt lat="45.85064" lon="4.80799">
        <ele>477</ele>
        <time>2013-01-27T10:50:10Z</time>
      </trkpt>
      <trkpt lat="45.85063" lon="4.80797">
        <ele>477</ele>
        <time>2013-01-27T10:50:12Z</time>
      </trkpt>
      <trkpt lat="45.8506" lon="4.80796">
        <ele>477</ele>
        <time>2013-01-27T10:50:14Z</time>
      </trkpt>
      <trkpt lat="45.85059" lon="4.80795">
        <ele>477</ele>
        <time>2013-01-27T10:50:15Z</time>
      </trkpt>
      <trkpt lat="45.85055" lon="4.80791">
        <ele>477</ele>
        <time>2013-01-27T10:50:21Z</time>
      </trkpt>
      <trkpt lat="45.85052" lon="4.80786">
        <ele>477</ele>
        <time>2013-01-27T10:50:26Z</time>
      </trkpt>
      <trkpt lat="45.85047" lon="4.80782">
        <ele>477</ele>
        <time>2013-01-27T10:50:30Z</time>
      </trkpt>
      <trkpt lat="45.85045" lon="4.80779">
        <ele>478</ele>
        <time>2013-01-27T10:50:34Z</time>
      </trkpt>
      <trkpt lat="45.85041" lon="4.80776">
        <ele>478</ele>
        <time>2013-01-27T10:50:38Z</time>
      </trkpt>
      <trkpt lat="45.85041" lon="4.80776">
        <ele>478</ele>
        <time>2013-01-27T10:50:39Z</time>
      </trkpt>
      <trkpt lat="45.85038" lon="4.80774">
        <ele>478</ele>
        <time>2013-01-27T10:50:42Z</time>
      </trkpt>
      <trkpt lat="45.85036" lon="4.80772">
        <ele>479</ele>
        <time>2013-01-27T10:50:44Z</time>
      </trkpt>
      <trkpt lat="45.85034" lon="4.80771">
        <ele>479</ele>
        <time>2013-01-27T10:50:46Z</time>
      </trkpt>
      <trkpt lat="45.85032" lon="4.80767">
        <ele>479</ele>
        <time>2013-01-27T10:50:50Z</time>
      </trkpt>
      <trkpt lat="45.85028" lon="4.80764">
        <ele>480</ele>
        <time>2013-01-27T10:50:54Z</time>
      </trkpt>
      <trkpt lat="45.85026" lon="4.80759">
        <ele>481</ele>
        <time>2013-01-27T10:51:00Z</time>
      </trkpt>
      <trkpt lat="45.85023" lon="4.80756">
        <ele>482</ele>
        <time>2013-01-27T10:51:03Z</time>
      </trkpt>
      <trkpt lat="45.85022" lon="4.80755">
        <ele>482</ele>
        <time>2013-01-27T10:51:04Z</time>
      </trkpt>
      <trkpt lat="45.85016" lon="4.80753">
        <ele>483</ele>
        <time>2013-01-27T10:51:08Z</time>
      </trkpt>
      <trkpt lat="45.85012" lon="4.80749">
        <ele>479</ele>
        <time>2013-01-27T10:51:11Z</time>
      </trkpt>
      <trkpt lat="45.85011" lon="4.80748">
        <ele>480</ele>
        <time>2013-01-27T10:51:12Z</time>
      </trkpt>
      <trkpt lat="45.85005" lon="4.80742">
        <ele>481</ele>
        <time>2013-01-27T10:51:18Z</time>
      </trkpt>
      <trkpt lat="45.85002" lon="4.80737">
        <ele>479</ele>
        <time>2013-01-27T10:51:22Z</time>
      </trkpt>
      <trkpt lat="45.85" lon="4.80734">
        <ele>488</ele>
        <time>2013-01-27T10:51:24Z</time>
      </trkpt>
      <trkpt lat="45.84997" lon="4.80733">
        <ele>488</ele>
        <time>2013-01-27T10:51:26Z</time>
      </trkpt>
      <trkpt lat="45.84995" lon="4.80731">
        <ele>488</ele>
        <time>2013-01-27T10:51:28Z</time>
      </trkpt>
      <trkpt lat="45.84992" lon="4.8073">
        <ele>488</ele>
        <time>2013-01-27T10:51:31Z</time>
      </trkpt>
      <trkpt lat="45.84988" lon="4.80727">
        <ele>488</ele>
        <time>2013-01-27T10:51:35Z</time>
      </trkpt>
      <trkpt lat="45.84985" lon="4.80724">
        <ele>487</ele>
        <time>2013-01-27T10:51:38Z</time>
      </trkpt>
      <trkpt lat="45.84979" lon="4.8072">
        <ele>487</ele>
        <time>2013-01-27T10:51:43Z</time>
      </trkpt>
      <trkpt lat="45.84979" lon="4.80718">
        <ele>487</ele>
        <time>2013-01-27T10:51:49Z</time>
      </trkpt>
      <trkpt lat="45.84974" lon="4.80719">
        <ele>488</ele>
        <time>2013-01-27T10:52:06Z</time>
      </trkpt>
      <trkpt lat="45.84973" lon="4.8072">
        <ele>488</ele>
        <time>2013-01-27T10:52:08Z</time>
      </trkpt>
      <trkpt lat="45.84972" lon="4.80719">
        <ele>488</ele>
        <time>2013-01-27T10:52:10Z</time>
      </trkpt>
      <trkpt lat="45.84971" lon="4.80717">
        <ele>488</ele>
        <time>2013-01-27T10:52:13Z</time>
      </trkpt>
      <trkpt lat="45.84969" lon="4.8071">
        <ele>487</ele>
        <time>2013-01-27T10:52:19Z</time>
      </trkpt>
      <trkpt lat="45.84967" lon="4.80706">
        <ele>487</ele>
        <time>2013-01-27T10:52:25Z</time>
      </trkpt>
      <trkpt lat="45.84964" lon="4.80704">
        <ele>487</ele>
        <time>2013-01-27T10:52:30Z</time>
      </trkpt>
      <trkpt lat="45.84963" lon="4.807">
        <ele>487</ele>
        <time>2013-01-27T10:52:45Z</time>
      </trkpt>
      <trkpt lat="45.84962" lon="4.80697">
        <ele>487</ele>
        <time>2013-01-27T10:52:49Z</time>
      </trkpt>
      <trkpt lat="45.8496" lon="4.80693">
        <ele>487</ele>
        <time>2013-01-27T10:52:52Z</time>
      </trkpt>
      <trkpt lat="45.84954" lon="4.8068">
        <ele>488</ele>
        <time>2013-01-27T10:53:01Z</time>
      </trkpt>
      <trkpt lat="45.84951" lon="4.80676">
        <ele>488</ele>
        <time>2013-01-27T10:53:05Z</time>
      </trkpt>
      <trkpt lat="45.8495" lon="4.80674">
        <ele>489</ele>
        <time>2013-01-27T10:53:07Z</time>
      </trkpt>
      <trkpt lat="45.84949" lon="4.80673">
        <ele>489</ele>
        <time>2013-01-27T10:53:08Z</time>
      </trkpt>
      <trkpt lat="45.84943" lon="4.8067">
        <ele>490</ele>
        <time>2013-01-27T10:53:14Z</time>
      </trkpt>
      <trkpt lat="45.84935" lon="4.80667">
        <ele>491</ele>
        <time>2013-01-27T10:53:21Z</time>
      </trkpt>
      <trkpt lat="45.84934" lon="4.80667">
        <ele>489</ele>
        <time>2013-01-27T10:53:22Z</time>
      </trkpt>
      <trkpt lat="45.84925" lon="4.80665">
        <ele>492</ele>
        <time>2013-01-27T10:53:26Z</time>
      </trkpt>
      <trkpt lat="45.84915" lon="4.80663">
        <ele>496</ele>
        <time>2013-01-27T10:53:30Z</time>
      </trkpt>
      <trkpt lat="45.84912" lon="4.80663">
        <ele>496</ele>
        <time>2013-01-27T10:53:31Z</time>
      </trkpt>
      <trkpt lat="45.84897" lon="4.80662">
        <ele>496</ele>
        <time>2013-01-27T10:53:36Z</time>
      </trkpt>
      <trkpt lat="45.84895" lon="4.80661">
        <ele>497</ele>
        <time>2013-01-27T10:53:37Z</time>
      </trkpt>
      <trkpt lat="45.84885" lon="4.80656">
        <ele>497</ele>
        <time>2013-01-27T10:53:41Z</time>
      </trkpt>
      <trkpt lat="45.84878" lon="4.80653">
        <ele>497</ele>
        <time>2013-01-27T10:53:44Z</time>
      </trkpt>
      <trkpt lat="45.84873" lon="4.8065">
        <ele>497</ele>
        <time>2013-01-27T10:53:46Z</time>
      </trkpt>
      <trkpt lat="45.8486" lon="4.80646">
        <ele>497</ele>
        <time>2013-01-27T10:53:51Z</time>
      </trkpt>
      <trkpt lat="45.84846" lon="4.80643">
        <ele>497</ele>
        <time>2013-01-27T10:53:56Z</time>
      </trkpt>
      <trkpt lat="45.84841" lon="4.80642">
        <ele>496</ele>
        <time>2013-01-27T10:53:58Z</time>
      </trkpt>
      <trkpt lat="45.84833" lon="4.8064">
        <ele>497</ele>
        <time>2013-01-27T10:54:01Z</time>
      </trkpt>
      <trkpt lat="45.84823" lon="4.80638">
        <ele>497</ele>
        <time>2013-01-27T10:54:05Z</time>
      </trkpt>
      <trkpt lat="45.84817" lon="4.80637">
        <ele>497</ele>
        <time>2013-01-27T10:54:07Z</time>
      </trkpt>
      <trkpt lat="45.84804" lon="4.80633">
        <ele>497</ele>
        <time>2013-01-27T10:54:12Z</time>
      </trkpt>
      <trkpt lat="45.8479" lon="4.8063">
        <ele>497</ele>
        <time>2013-01-27T10:54:17Z</time>
      </trkpt>
      <trkpt lat="45.84785" lon="4.80629">
        <ele>497</ele>
        <time>2013-01-27T10:54:19Z</time>
      </trkpt>
      <trkpt lat="45.84775" lon="4.80629">
        <ele>497</ele>
        <time>2013-01-27T10:54:23Z</time>
      </trkpt>
      <trkpt lat="45.84765" lon="4.8063">
        <ele>497</ele>
        <time>2013-01-27T10:54:27Z</time>
      </trkpt>
      <trkpt lat="45.84763" lon="4.8063">
        <ele>497</ele>
        <time>2013-01-27T10:54:28Z</time>
      </trkpt>
      <trkpt lat="45.84752" lon="4.80634">
        <ele>496</ele>
        <time>2013-01-27T10:54:32Z</time>
      </trkpt>
      <trkpt lat="45.84747" lon="4.80636">
        <ele>495</ele>
        <time>2013-01-27T10:54:34Z</time>
      </trkpt>
      <trkpt lat="45.84742" lon="4.80639">
        <ele>495</ele>
        <time>2013-01-27T10:54:36Z</time>
      </trkpt>
      <trkpt lat="45.84733" lon="4.80644">
        <ele>494</ele>
        <time>2013-01-27T10:54:40Z</time>
      </trkpt>
      <trkpt lat="45.8473" lon="4.80645">
        <ele>494</ele>
        <time>2013-01-27T10:54:41Z</time>
      </trkpt>
      <trkpt lat="45.84717" lon="4.80647">
        <ele>495</ele>
        <time>2013-01-27T10:54:46Z</time>
      </trkpt>
      <trkpt lat="45.84712" lon="4.80648">
        <ele>495</ele>
        <time>2013-01-27T10:54:48Z</time>
      </trkpt>
      <trkpt lat="45.84707" lon="4.80648">
        <ele>495</ele>
        <time>2013-01-27T10:54:50Z</time>
      </trkpt>
      <trkpt lat="45.84692" lon="4.80647">
        <ele>494</ele>
        <time>2013-01-27T10:54:56Z</time>
      </trkpt>
      <trkpt lat="45.84675" lon="4.80646">
        <ele>494</ele>
        <time>2013-01-27T10:55:02Z</time>
      </trkpt>
      <trkpt lat="45.84672" lon="4.80646">
        <ele>494</ele>
        <time>2013-01-27T10:55:03Z</time>
      </trkpt>
      <trkpt lat="45.84663" lon="4.80645">
        <ele>492</ele>
        <time>2013-01-27T10:55:07Z</time>
      </trkpt>
      <trkpt lat="45.84653" lon="4.80644">
        <ele>492</ele>
        <time>2013-01-27T10:55:11Z</time>
      </trkpt>
      <trkpt lat="45.84648" lon="4.80642">
        <ele>492</ele>
        <time>2013-01-27T10:55:13Z</time>
      </trkpt>
      <trkpt lat="45.8464" lon="4.8064">
        <ele>492</ele>
        <time>2013-01-27T10:55:17Z</time>
      </trkpt>
      <trkpt lat="45.84638" lon="4.80638">
        <ele>492</ele>
        <time>2013-01-27T10:55:18Z</time>
      </trkpt>
      <trkpt lat="45.84636" lon="4.80637">
        <ele>492</ele>
        <time>2013-01-27T10:55:19Z</time>
      </trkpt>
      <trkpt lat="45.84631" lon="4.80634">
        <ele>492</ele>
        <time>2013-01-27T10:55:21Z</time>
      </trkpt>
      <trkpt lat="45.84629" lon="4.80633">
        <ele>492</ele>
        <time>2013-01-27T10:55:22Z</time>
      </trkpt>
      <trkpt lat="45.84622" lon="4.80633">
        <ele>492</ele>
        <time>2013-01-27T10:55:25Z</time>
      </trkpt>
      <trkpt lat="45.84616" lon="4.80634">
        <ele>492</ele>
        <time>2013-01-27T10:55:27Z</time>
      </trkpt>
      <trkpt lat="45.84606" lon="4.80632">
        <ele>491</ele>
        <time>2013-01-27T10:55:31Z</time>
      </trkpt>
      <trkpt lat="45.84597" lon="4.80624">
        <ele>492</ele>
        <time>2013-01-27T10:55:35Z</time>
      </trkpt>
      <trkpt lat="45.84595" lon="4.80622">
        <ele>492</ele>
        <time>2013-01-27T10:55:36Z</time>
      </trkpt>
      <trkpt lat="45.84584" lon="4.80604">
        <ele>493</ele>
        <time>2013-01-27T10:55:42Z</time>
      </trkpt>
      <trkpt lat="45.84577" lon="4.80585">
        <ele>493</ele>
        <time>2013-01-27T10:55:47Z</time>
      </trkpt>
      <trkpt lat="45.84575" lon="4.80577">
        <ele>496</ele>
        <time>2013-01-27T10:55:49Z</time>
      </trkpt>
      <trkpt lat="45.84569" lon="4.80564">
        <ele>498</ele>
        <time>2013-01-27T10:55:53Z</time>
      </trkpt>
      <trkpt lat="45.84567" lon="4.80563">
        <ele>498</ele>
        <time>2013-01-27T10:55:54Z</time>
      </trkpt>
      <trkpt lat="45.84562" lon="4.8056">
        <ele>499</ele>
        <time>2013-01-27T10:55:56Z</time>
      </trkpt>
      <trkpt lat="45.8456" lon="4.80558">
        <ele>499</ele>
        <time>2013-01-27T10:55:57Z</time>
      </trkpt>
      <trkpt lat="45.84549" lon="4.80556">
        <ele>499</ele>
        <time>2013-01-27T10:56:01Z</time>
      </trkpt>
      <trkpt lat="45.84544" lon="4.80558">
        <ele>499</ele>
        <time>2013-01-27T10:56:03Z</time>
      </trkpt>
      <trkpt lat="45.84536" lon="4.80561">
        <ele>499</ele>
        <time>2013-01-27T10:56:06Z</time>
      </trkpt>
      <trkpt lat="45.84525" lon="4.80568">
        <ele>498</ele>
        <time>2013-01-27T10:56:11Z</time>
      </trkpt>
      <trkpt lat="45.84516" lon="4.80576">
        <ele>497</ele>
        <time>2013-01-27T10:56:16Z</time>
      </trkpt>
      <trkpt lat="45.84507" lon="4.80578">
        <ele>495</ele>
        <time>2013-01-27T10:56:20Z</time>
      </trkpt>
      <trkpt lat="45.84504" lon="4.80579">
        <ele>495</ele>
        <time>2013-01-27T10:56:22Z</time>
      </trkpt>
      <trkpt lat="45.84493" lon="4.80583">
        <ele>495</ele>
        <time>2013-01-27T10:56:27Z</time>
      </trkpt>
      <trkpt lat="45.84489" lon="4.80584">
        <ele>492</ele>
        <time>2013-01-27T10:56:29Z</time>
      </trkpt>
      <trkpt lat="45.84483" lon="4.80584">
        <ele>491</ele>
        <time>2013-01-27T10:56:32Z</time>
      </trkpt>
      <trkpt lat="45.84472" lon="4.80585">
        <ele>491</ele>
        <time>2013-01-27T10:56:37Z</time>
      </trkpt>
      <trkpt lat="45.8447" lon="4.80585">
        <ele>491</ele>
        <time>2013-01-27T10:56:38Z</time>
      </trkpt>
      <trkpt lat="45.84461" lon="4.80586">
        <ele>491</ele>
        <time>2013-01-27T10:56:42Z</time>
      </trkpt>
      <trkpt lat="45.84451" lon="4.80589">
        <ele>491</ele>
        <time>2013-01-27T10:56:46Z</time>
      </trkpt>
      <trkpt lat="45.84448" lon="4.80588">
        <ele>492</ele>
        <time>2013-01-27T10:56:47Z</time>
      </trkpt>
      <trkpt lat="45.84436" lon="4.80585">
        <ele>493</ele>
        <time>2013-01-27T10:56:53Z</time>
      </trkpt>
      <trkpt lat="45.84434" lon="4.80585">
        <ele>493</ele>
        <time>2013-01-27T10:56:54Z</time>
      </trkpt>
      <trkpt lat="45.84432" lon="4.80585">
        <ele>493</ele>
        <time>2013-01-27T10:56:56Z</time>
      </trkpt>
      <trkpt lat="45.84431" lon="4.80585">
        <ele>494</ele>
        <time>2013-01-27T10:56:57Z</time>
      </trkpt>
      <trkpt lat="45.8443" lon="4.80586">
        <ele>494</ele>
        <time>2013-01-27T10:56:58Z</time>
      </trkpt>
      <trkpt lat="45.84422" lon="4.80582">
        <ele>498</ele>
        <time>2013-01-27T10:57:04Z</time>
      </trkpt>
      <trkpt lat="45.84421" lon="4.80582">
        <ele>498</ele>
        <time>2013-01-27T10:57:05Z</time>
      </trkpt>
      <trkpt lat="45.84416" lon="4.80579">
        <ele>498</ele>
        <time>2013-01-27T10:57:10Z</time>
      </trkpt>
      <trkpt lat="45.84415" lon="4.80579">
        <ele>498</ele>
        <time>2013-01-27T10:57:11Z</time>
      </trkpt>
      <trkpt lat="45.84409" lon="4.80576">
        <ele>498</ele>
        <time>2013-01-27T10:57:17Z</time>
      </trkpt>
      <trkpt lat="45.84404" lon="4.80574">
        <ele>499</ele>
        <time>2013-01-27T10:57:21Z</time>
      </trkpt>
      <trkpt lat="45.84402" lon="4.80573">
        <ele>499</ele>
        <time>2013-01-27T10:57:23Z</time>
      </trkpt>
      <trkpt lat="45.84399" lon="4.80571">
        <ele>499</ele>
        <time>2013-01-27T10:57:25Z</time>
      </trkpt>
      <trkpt lat="45.84397" lon="4.80571">
        <ele>499</ele>
        <time>2013-01-27T10:57:26Z</time>
      </trkpt>
      <trkpt lat="45.84394" lon="4.80568">
        <ele>499</ele>
        <time>2013-01-27T10:57:29Z</time>
      </trkpt>
      <trkpt lat="45.84381" lon="4.80563">
        <ele>499</ele>
        <time>2013-01-27T10:57:36Z</time>
      </trkpt>
      <trkpt lat="45.84378" lon="4.80562">
        <ele>499</ele>
        <time>2013-01-27T10:57:37Z</time>
      </trkpt>
      <trkpt lat="45.84365" lon="4.80559">
        <ele>499</ele>
        <time>2013-01-27T10:57:42Z</time>
      </trkpt>
      <trkpt lat="45.84359" lon="4.80556">
        <ele>499</ele>
        <time>2013-01-27T10:57:45Z</time>
      </trkpt>
      <trkpt lat="45.84351" lon="4.80554">
        <ele>499</ele>
        <time>2013-01-27T10:57:49Z</time>
      </trkpt>
      <trkpt lat="45.84341" lon="4.80559">
        <ele>499</ele>
        <time>2013-01-27T10:57:53Z</time>
      </trkpt>
      <trkpt lat="45.84336" lon="4.80562">
        <ele>498</ele>
        <time>2013-01-27T10:57:55Z</time>
      </trkpt>
      <trkpt lat="45.84324" lon="4.80569">
        <ele>497</ele>
        <time>2013-01-27T10:58:00Z</time>
      </trkpt>
      <trkpt lat="45.84322" lon="4.8057">
        <ele>497</ele>
        <time>2013-01-27T10:58:01Z</time>
      </trkpt>
      <trkpt lat="45.84311" lon="4.80575">
        <ele>497</ele>
        <time>2013-01-27T10:58:05Z</time>
      </trkpt>
      <trkpt lat="45.84303" lon="4.80578">
        <ele>497</ele>
        <time>2013-01-27T10:58:08Z</time>
      </trkpt>
      <trkpt lat="45.84298" lon="4.80581">
        <ele>496</ele>
        <time>2013-01-27T10:58:10Z</time>
      </trkpt>
      <trkpt lat="45.84283" lon="4.80585">
        <ele>491</ele>
        <time>2013-01-27T10:58:16Z</time>
      </trkpt>
      <trkpt lat="45.84276" lon="4.80589">
        <ele>490</ele>
        <time>2013-01-27T10:58:19Z</time>
      </trkpt>
      <trkpt lat="45.84268" lon="4.80605">
        <ele>490</ele>
        <time>2013-01-27T10:58:24Z</time>
      </trkpt>
      <trkpt lat="45.84259" lon="4.80618">
        <ele>489</ele>
        <time>2013-01-27T10:58:28Z</time>
      </trkpt>
      <trkpt lat="45.84257" lon="4.8062">
        <ele>489</ele>
        <time>2013-01-27T10:58:29Z</time>
      </trkpt>
      <trkpt lat="45.84255" lon="4.80622">
        <ele>489</ele>
        <time>2013-01-27T10:58:30Z</time>
      </trkpt>
      <trkpt lat="45.84247" lon="4.80638">
        <ele>485</ele>
        <time>2013-01-27T10:58:35Z</time>
      </trkpt>
      <trkpt lat="45.84245" lon="4.80646">
        <ele>484</ele>
        <time>2013-01-27T10:58:37Z</time>
      </trkpt>
      <trkpt lat="45.84242" lon="4.8066">
        <ele>484</ele>
        <time>2013-01-27T10:58:41Z</time>
      </trkpt>
      <trkpt lat="45.84242" lon="4.80672">
        <ele>482</ele>
        <time>2013-01-27T10:58:44Z</time>
      </trkpt>
      <trkpt lat="45.84241" lon="4.8068">
        <ele>481</ele>
        <time>2013-01-27T10:58:46Z</time>
      </trkpt>
      <trkpt lat="45.84237" lon="4.80699">
        <ele>480</ele>
        <time>2013-01-27T10:58:51Z</time>
      </trkpt>
      <trkpt lat="45.8423" lon="4.80722">
        <ele>478</ele>
        <time>2013-01-27T10:58:57Z</time>
      </trkpt>
      <trkpt lat="45.8423" lon="4.80726">
        <ele>478</ele>
        <time>2013-01-27T10:58:58Z</time>
      </trkpt>
      <trkpt lat="45.84226" lon="4.80742">
        <ele>478</ele>
        <time>2013-01-27T10:59:03Z</time>
      </trkpt>
      <trkpt lat="45.84226" lon="4.80751">
        <ele>474</ele>
        <time>2013-01-27T10:59:06Z</time>
      </trkpt>
      <trkpt lat="45.84228" lon="4.80756">
        <ele>474</ele>
        <time>2013-01-27T10:59:08Z</time>
      </trkpt>
      <trkpt lat="45.8423" lon="4.80767">
        <ele>474</ele>
        <time>2013-01-27T10:59:12Z</time>
      </trkpt>
      <trkpt lat="45.84231" lon="4.80776">
        <ele>474</ele>
        <time>2013-01-27T10:59:15Z</time>
      </trkpt>
      <trkpt lat="45.8423" lon="4.80778">
        <ele>474</ele>
        <time>2013-01-27T10:59:16Z</time>
      </trkpt>
      <trkpt lat="45.84221" lon="4.8079">
        <ele>473</ele>
        <time>2013-01-27T10:59:22Z</time>
      </trkpt>
      <trkpt lat="45.84217" lon="4.80793">
        <ele>473</ele>
        <time>2013-01-27T10:59:24Z</time>
      </trkpt>
      <trkpt lat="45.84211" lon="4.80799">
        <ele>473</ele>
        <time>2013-01-27T10:59:27Z</time>
      </trkpt>
      <trkpt lat="45.84202" lon="4.8081">
        <ele>473</ele>
        <time>2013-01-27T10:59:32Z</time>
      </trkpt>
      <trkpt lat="45.84201" lon="4.80813">
        <ele>473</ele>
        <time>2013-01-27T10:59:33Z</time>
      </trkpt>
      <trkpt lat="45.8419" lon="4.80829">
        <ele>472</ele>
        <time>2013-01-27T10:59:40Z</time>
      </trkpt>
      <trkpt lat="45.84188" lon="4.80832">
        <ele>472</ele>
        <time>2013-01-27T10:59:41Z</time>
      </trkpt>
      <trkpt lat="45.84177" lon="4.80851">
        <ele>468</ele>
        <time>2013-01-27T10:59:49Z</time>
      </trkpt>
      <trkpt lat="45.84175" lon="4.80854">
        <ele>468</ele>
        <time>2013-01-27T10:59:50Z</time>
      </trkpt>
      <trkpt lat="45.84168" lon="4.80875">
        <ele>466</ele>
        <time>2013-01-27T10:59:57Z</time>
      </trkpt>
      <trkpt lat="45.8416" lon="4.80892">
        <ele>464</ele>
        <time>2013-01-27T11:00:03Z</time>
      </trkpt>
      <trkpt lat="45.84156" lon="4.80898">
        <ele>463</ele>
        <time>2013-01-27T11:00:05Z</time>
      </trkpt>
      <trkpt lat="45.84149" lon="4.80904">
        <ele>463</ele>
        <time>2013-01-27T11:00:08Z</time>
      </trkpt>
      <trkpt lat="45.8414" lon="4.80916">
        <ele>463</ele>
        <time>2013-01-27T11:00:13Z</time>
      </trkpt>
      <trkpt lat="45.8414" lon="4.80918">
        <ele>460</ele>
        <time>2013-01-27T11:00:14Z</time>
      </trkpt>
      <trkpt lat="45.84141" lon="4.80928">
        <ele>460</ele>
        <time>2013-01-27T11:00:17Z</time>
      </trkpt>
      <trkpt lat="45.84141" lon="4.80944">
        <ele>459</ele>
        <time>2013-01-27T11:00:21Z</time>
      </trkpt>
      <trkpt lat="45.84132" lon="4.80965">
        <ele>458</ele>
        <time>2013-01-27T11:00:28Z</time>
      </trkpt>
      <trkpt lat="45.8413" lon="4.80968">
        <ele>458</ele>
        <time>2013-01-27T11:00:29Z</time>
      </trkpt>
      <trkpt lat="45.84119" lon="4.80979">
        <ele>457</ele>
        <time>2013-01-27T11:00:34Z</time>
      </trkpt>
      <trkpt lat="45.84115" lon="4.80983">
        <ele>457</ele>
        <time>2013-01-27T11:00:36Z</time>
      </trkpt>
      <trkpt lat="45.84109" lon="4.80991">
        <ele>457</ele>
        <time>2013-01-27T11:00:39Z</time>
      </trkpt>
      <trkpt lat="45.841" lon="4.81005">
        <ele>454</ele>
        <time>2013-01-27T11:00:43Z</time>
      </trkpt>
      <trkpt lat="45.84098" lon="4.81007">
        <ele>454</ele>
        <time>2013-01-27T11:00:44Z</time>
      </trkpt>
      <trkpt lat="45.84083" lon="4.8101">
        <ele>452</ele>
        <time>2013-01-27T11:00:49Z</time>
      </trkpt>
      <trkpt lat="45.84081" lon="4.8101">
        <ele>452</ele>
        <time>2013-01-27T11:00:50Z</time>
      </trkpt>
      <trkpt lat="45.84069" lon="4.81008">
        <ele>450</ele>
        <time>2013-01-27T11:00:54Z</time>
      </trkpt>
      <trkpt lat="45.84063" lon="4.81007">
        <ele>450</ele>
        <time>2013-01-27T11:00:56Z</time>
      </trkpt>
      <trkpt lat="45.84055" lon="4.81006">
        <ele>449</ele>
        <time>2013-01-27T11:00:59Z</time>
      </trkpt>
      <trkpt lat="45.8405" lon="4.81006">
        <ele>448</ele>
        <time>2013-01-27T11:01:01Z</time>
      </trkpt>
      <trkpt lat="45.84042" lon="4.81005">
        <ele>447</ele>
        <time>2013-01-27T11:01:04Z</time>
      </trkpt>
      <trkpt lat="45.84032" lon="4.81003">
        <ele>447</ele>
        <time>2013-01-27T11:01:08Z</time>
      </trkpt>
      <trkpt lat="45.8403" lon="4.81002">
        <ele>446</ele>
        <time>2013-01-27T11:01:09Z</time>
      </trkpt>
      <trkpt lat="45.84024" lon="4.81001">
        <ele>446</ele>
        <time>2013-01-27T11:01:11Z</time>
      </trkpt>
      <trkpt lat="45.84021" lon="4.81">
        <ele>447</ele>
        <time>2013-01-27T11:01:12Z</time>
      </trkpt>
      <trkpt lat="45.84015" lon="4.80999">
        <ele>446</ele>
        <time>2013-01-27T11:01:14Z</time>
      </trkpt>
      <trkpt lat="45.84005" lon="4.80997">
        <ele>444</ele>
        <time>2013-01-27T11:01:18Z</time>
      </trkpt>
      <trkpt lat="45.83991" lon="4.80994">
        <ele>439</ele>
        <time>2013-01-27T11:01:23Z</time>
      </trkpt>
      <trkpt lat="45.83986" lon="4.80994">
        <ele>437</ele>
        <time>2013-01-27T11:01:25Z</time>
      </trkpt>
      <trkpt lat="45.83976" lon="4.80993">
        <ele>435</ele>
        <time>2013-01-27T11:01:29Z</time>
      </trkpt>
      <trkpt lat="45.83967" lon="4.80995">
        <ele>433</ele>
        <time>2013-01-27T11:01:33Z</time>
      </trkpt>
      <trkpt lat="45.83955" lon="4.80993">
        <ele>431</ele>
        <time>2013-01-27T11:01:38Z</time>
      </trkpt>
      <trkpt lat="45.8395" lon="4.80984">
        <ele>430</ele>
        <time>2013-01-27T11:01:42Z</time>
      </trkpt>
      <trkpt lat="45.83949" lon="4.80981">
        <ele>430</ele>
        <time>2013-01-27T11:01:43Z</time>
      </trkpt>
      <trkpt lat="45.83946" lon="4.80963">
        <ele>429</ele>
        <time>2013-01-27T11:01:49Z</time>
      </trkpt>
      <trkpt lat="45.83945" lon="4.80959">
        <ele>429</ele>
        <time>2013-01-27T11:01:51Z</time>
      </trkpt>
      <trkpt lat="45.83944" lon="4.80953">
        <ele>429</ele>
        <time>2013-01-27T11:01:54Z</time>
      </trkpt>
      <trkpt lat="45.83944" lon="4.80952">
        <ele>429</ele>
        <time>2013-01-27T11:01:55Z</time>
      </trkpt>
      <trkpt lat="45.83943" lon="4.8095">
        <ele>429</ele>
        <time>2013-01-27T11:02:01Z</time>
      </trkpt>
      <trkpt lat="45.8394" lon="4.80949">
        <ele>428</ele>
        <time>2013-01-27T11:02:14Z</time>
      </trkpt>
      <trkpt lat="45.83934" lon="4.8095">
        <ele>428</ele>
        <time>2013-01-27T11:02:24Z</time>
      </trkpt>
      <trkpt lat="45.83931" lon="4.80952">
        <ele>428</ele>
        <time>2013-01-27T11:02:26Z</time>
      </trkpt>
      <trkpt lat="45.83925" lon="4.80957">
        <ele>427</ele>
        <time>2013-01-27T11:02:30Z</time>
      </trkpt>
      <trkpt lat="45.83918" lon="4.80963">
        <ele>427</ele>
        <time>2013-01-27T11:02:35Z</time>
      </trkpt>
      <trkpt lat="45.83914" lon="4.80966">
        <ele>413</ele>
        <time>2013-01-27T11:02:37Z</time>
      </trkpt>
      <trkpt lat="45.83911" lon="4.80967">
        <ele>412</ele>
        <time>2013-01-27T11:02:39Z</time>
      </trkpt>
      <trkpt lat="45.83907" lon="4.8097">
        <ele>412</ele>
        <time>2013-01-27T11:02:41Z</time>
      </trkpt>
      <trkpt lat="45.839" lon="4.80974">
        <ele>412</ele>
        <time>2013-01-27T11:02:46Z</time>
      </trkpt>
      <trkpt lat="45.83897" lon="4.80972">
        <ele>411</ele>
        <time>2013-01-27T11:02:48Z</time>
      </trkpt>
      <trkpt lat="45.83896" lon="4.80972">
        <ele>411</ele>
        <time>2013-01-27T11:02:49Z</time>
      </trkpt>
      <trkpt lat="45.83894" lon="4.80972">
        <ele>411</ele>
        <time>2013-01-27T11:02:51Z</time>
      </trkpt>
      <trkpt lat="45.83887" lon="4.80977">
        <ele>410</ele>
        <time>2013-01-27T11:02:56Z</time>
      </trkpt>
      <trkpt lat="45.83881" lon="4.80982">
        <ele>409</ele>
        <time>2013-01-27T11:03:00Z</time>
      </trkpt>
      <trkpt lat="45.8388" lon="4.80983">
        <ele>408</ele>
        <time>2013-01-27T11:03:01Z</time>
      </trkpt>
      <trkpt lat="45.83878" lon="4.80984">
        <ele>408</ele>
        <time>2013-01-27T11:03:02Z</time>
      </trkpt>
      <trkpt lat="45.83876" lon="4.80985">
        <ele>408</ele>
        <time>2013-01-27T11:03:05Z</time>
      </trkpt>
      <trkpt lat="45.83875" lon="4.80986">
        <ele>407</ele>
        <time>2013-01-27T11:03:06Z</time>
      </trkpt>
      <trkpt lat="45.83874" lon="4.80986">
        <ele>407</ele>
        <time>2013-01-27T11:03:07Z</time>
      </trkpt>
      <trkpt lat="45.83867" lon="4.80987">
        <ele>405</ele>
        <time>2013-01-27T11:03:11Z</time>
      </trkpt>
      <trkpt lat="45.83863" lon="4.80991">
        <ele>404</ele>
        <time>2013-01-27T11:03:15Z</time>
      </trkpt>
      <trkpt lat="45.83861" lon="4.80991">
        <ele>404</ele>
        <time>2013-01-27T11:03:16Z</time>
      </trkpt>
      <trkpt lat="45.83855" lon="4.80995">
        <ele>401</ele>
        <time>2013-01-27T11:03:21Z</time>
      </trkpt>
      <trkpt lat="45.83854" lon="4.80994">
        <ele>401</ele>
        <time>2013-01-27T11:03:23Z</time>
      </trkpt>
      <trkpt lat="45.8385" lon="4.80994">
        <ele>400</ele>
        <time>2013-01-27T11:03:26Z</time>
      </trkpt>
      <trkpt lat="45.8385" lon="4.80995">
        <ele>400</ele>
        <time>2013-01-27T11:03:27Z</time>
      </trkpt>
      <trkpt lat="45.83851" lon="4.80995">
        <ele>400</ele>
        <time>2013-01-27T11:03:30Z</time>
      </trkpt>
      <trkpt lat="45.83851" lon="4.80993">
        <ele>400</ele>
        <time>2013-01-27T11:03:31Z</time>
      </trkpt>
      <trkpt lat="45.83851" lon="4.80991">
        <ele>401</ele>
        <time>2013-01-27T11:03:33Z</time>
      </trkpt>
      <trkpt lat="45.83851" lon="4.8099">
        <ele>401</ele>
        <time>2013-01-27T11:03:34Z</time>
      </trkpt>
      <trkpt lat="45.8385" lon="4.80988">
        <ele>401</ele>
        <time>2013-01-27T11:03:37Z</time>
      </trkpt>
      <trkpt lat="45.83851" lon="4.80978">
        <ele>403</ele>
        <time>2013-01-27T11:03:41Z</time>
      </trkpt>
      <trkpt lat="45.83851" lon="4.80975">
        <ele>403</ele>
        <time>2013-01-27T11:03:42Z</time>
      </trkpt>
      <trkpt lat="45.83855" lon="4.80967">
        <ele>405</ele>
        <time>2013-01-27T11:03:46Z</time>
      </trkpt>
      <trkpt lat="45.83856" lon="4.80965">
        <ele>405</ele>
        <time>2013-01-27T11:03:47Z</time>
      </trkpt>
      <trkpt lat="45.83858" lon="4.8095">
        <ele>407</ele>
        <time>2013-01-27T11:03:52Z</time>
      </trkpt>
      <trkpt lat="45.83859" lon="4.80941">
        <ele>407</ele>
        <time>2013-01-27T11:03:55Z</time>
      </trkpt>
      <trkpt lat="45.8386" lon="4.8093">
        <ele>407</ele>
        <time>2013-01-27T11:03:58Z</time>
      </trkpt>
      <trkpt lat="45.8386" lon="4.80926">
        <ele>407</ele>
        <time>2013-01-27T11:03:59Z</time>
      </trkpt>
      <trkpt lat="45.83858" lon="4.8092">
        <ele>407</ele>
        <time>2013-01-27T11:04:02Z</time>
      </trkpt>
      <trkpt lat="45.83854" lon="4.80918">
        <ele>407</ele>
        <time>2013-01-27T11:04:05Z</time>
      </trkpt>
      <trkpt lat="45.83852" lon="4.8092">
        <ele>406</ele>
        <time>2013-01-27T11:04:06Z</time>
      </trkpt>
      <trkpt lat="45.83845" lon="4.80926">
        <ele>406</ele>
        <time>2013-01-27T11:04:09Z</time>
      </trkpt>
      <trkpt lat="45.83841" lon="4.80927">
        <ele>405</ele>
        <time>2013-01-27T11:04:11Z</time>
      </trkpt>
      <trkpt lat="45.83837" lon="4.80931">
        <ele>405</ele>
        <time>2013-01-27T11:04:14Z</time>
      </trkpt>
      <trkpt lat="45.83835" lon="4.80933">
        <ele>405</ele>
        <time>2013-01-27T11:04:15Z</time>
      </trkpt>
      <trkpt lat="45.83832" lon="4.80937">
        <ele>399</ele>
        <time>2013-01-27T11:04:17Z</time>
      </trkpt>
      <trkpt lat="45.83824" lon="4.80944">
        <ele>398</ele>
        <time>2013-01-27T11:04:21Z</time>
      </trkpt>
      <trkpt lat="45.83822" lon="4.80945">
        <ele>398</ele>
        <time>2013-01-27T11:04:22Z</time>
      </trkpt>
      <trkpt lat="45.83817" lon="4.80949">
        <ele>397</ele>
        <time>2013-01-27T11:04:26Z</time>
      </trkpt>
      <trkpt lat="45.83815" lon="4.80952">
        <ele>397</ele>
        <time>2013-01-27T11:04:28Z</time>
      </trkpt>
      <trkpt lat="45.8381" lon="4.80955">
        <ele>396</ele>
        <time>2013-01-27T11:04:31Z</time>
      </trkpt>
      <trkpt lat="45.83807" lon="4.80959">
        <ele>396</ele>
        <time>2013-01-27T11:04:33Z</time>
      </trkpt>
      <trkpt lat="45.83804" lon="4.80963">
        <ele>395</ele>
        <time>2013-01-27T11:04:35Z</time>
      </trkpt>
      <trkpt lat="45.838" lon="4.80967">
        <ele>395</ele>
        <time>2013-01-27T11:04:38Z</time>
      </trkpt>
      <trkpt lat="45.83797" lon="4.80965">
        <ele>395</ele>
        <time>2013-01-27T11:04:40Z</time>
      </trkpt>
      <trkpt lat="45.83791" lon="4.80966">
        <ele>395</ele>
        <time>2013-01-27T11:04:43Z</time>
      </trkpt>
      <trkpt lat="45.83789" lon="4.80966">
        <ele>395</ele>
        <time>2013-01-27T11:04:44Z</time>
      </trkpt>
      <trkpt lat="45.83788" lon="4.80966">
        <ele>395</ele>
        <time>2013-01-27T11:04:45Z</time>
      </trkpt>
      <trkpt lat="45.83783" lon="4.80974">
        <ele>394</ele>
        <time>2013-01-27T11:04:50Z</time>
      </trkpt>
      <trkpt lat="45.83781" lon="4.80986">
        <ele>393</ele>
        <time>2013-01-27T11:04:54Z</time>
      </trkpt>
      <trkpt lat="45.83781" lon="4.8099">
        <ele>393</ele>
        <time>2013-01-27T11:04:55Z</time>
      </trkpt>
      <trkpt lat="45.8378" lon="4.80996">
        <ele>393</ele>
        <time>2013-01-27T11:04:57Z</time>
      </trkpt>
      <trkpt lat="45.8378" lon="4.80998">
        <ele>393</ele>
        <time>2013-01-27T11:04:58Z</time>
      </trkpt>
      <trkpt lat="45.83779" lon="4.81014">
        <ele>383</ele>
        <time>2013-01-27T11:05:02Z</time>
      </trkpt>
      <trkpt lat="45.83778" lon="4.81018">
        <ele>383</ele>
        <time>2013-01-27T11:05:03Z</time>
      </trkpt>
      <trkpt lat="45.83776" lon="4.81029">
        <ele>382</ele>
        <time>2013-01-27T11:05:08Z</time>
      </trkpt>
      <trkpt lat="45.83774" lon="4.81039">
        <ele>381</ele>
        <time>2013-01-27T11:05:13Z</time>
      </trkpt>
      <trkpt lat="45.83772" lon="4.81044">
        <ele>380</ele>
        <time>2013-01-27T11:05:16Z</time>
      </trkpt>
      <trkpt lat="45.83774" lon="4.8105">
        <ele>380</ele>
        <time>2013-01-27T11:05:19Z</time>
      </trkpt>
      <trkpt lat="45.83777" lon="4.81065">
        <ele>378</ele>
        <time>2013-01-27T11:05:24Z</time>
      </trkpt>
      <trkpt lat="45.83777" lon="4.81068">
        <ele>378</ele>
        <time>2013-01-27T11:05:25Z</time>
      </trkpt>
      <trkpt lat="45.83777" lon="4.81078">
        <ele>377</ele>
        <time>2013-01-27T11:05:29Z</time>
      </trkpt>
      <trkpt lat="45.83776" lon="4.81093">
        <ele>368</ele>
        <time>2013-01-27T11:05:34Z</time>
      </trkpt>
      <trkpt lat="45.83774" lon="4.81107">
        <ele>368</ele>
        <time>2013-01-27T11:05:39Z</time>
      </trkpt>
      <trkpt lat="45.83773" lon="4.81116">
        <ele>367</ele>
        <time>2013-01-27T11:05:43Z</time>
      </trkpt>
      <trkpt lat="45.83773" lon="4.81118">
        <ele>367</ele>
        <time>2013-01-27T11:05:44Z</time>
      </trkpt>
      <trkpt lat="45.83773" lon="4.81129">
        <ele>366</ele>
        <time>2013-01-27T11:05:48Z</time>
      </trkpt>
      <trkpt lat="45.83774" lon="4.81132">
        <ele>366</ele>
        <time>2013-01-27T11:05:49Z</time>
      </trkpt>
      <trkpt lat="45.83775" lon="4.81133">
        <ele>366</ele>
        <time>2013-01-27T11:05:50Z</time>
      </trkpt>
      <trkpt lat="45.83777" lon="4.81142">
        <ele>365</ele>
        <time>2013-01-27T11:05:54Z</time>
      </trkpt>
      <trkpt lat="45.83777" lon="4.81143">
        <ele>365</ele>
        <time>2013-01-27T11:05:55Z</time>
      </trkpt>
      <trkpt lat="45.83777" lon="4.81144">
        <ele>365</ele>
        <time>2013-01-27T11:05:56Z</time>
      </trkpt>
      <trkpt lat="45.83776" lon="4.81146">
        <ele>365</ele>
        <time>2013-01-27T11:05:57Z</time>
      </trkpt>
      <trkpt lat="45.83777" lon="4.81147">
        <ele>365</ele>
        <time>2013-01-27T11:05:59Z</time>
      </trkpt>
      <trkpt lat="45.83785" lon="4.81147">
        <ele>365</ele>
        <time>2013-01-27T11:06:23Z</time>
      </trkpt>
      <trkpt lat="45.8378" lon="4.81155">
        <ele>364</ele>
        <time>2013-01-27T11:06:27Z</time>
      </trkpt>
      <trkpt lat="45.83774" lon="4.81171">
        <ele>356</ele>
        <time>2013-01-27T11:06:34Z</time>
      </trkpt>
      <trkpt lat="45.8377" lon="4.81178">
        <ele>355</ele>
        <time>2013-01-27T11:06:40Z</time>
      </trkpt>
      <trkpt lat="45.83769" lon="4.81179">
        <ele>355</ele>
        <time>2013-01-27T11:06:41Z</time>
      </trkpt>
      <trkpt lat="45.83767" lon="4.81181">
        <ele>355</ele>
        <time>2013-01-27T11:06:43Z</time>
      </trkpt>
      <trkpt lat="45.83763" lon="4.81183">
        <ele>355</ele>
        <time>2013-01-27T11:06:47Z</time>
      </trkpt>
      <trkpt lat="45.83761" lon="4.81183">
        <ele>355</ele>
        <time>2013-01-27T11:06:48Z</time>
      </trkpt>
      <trkpt lat="45.83752" lon="4.81184">
        <ele>355</ele>
        <time>2013-01-27T11:06:55Z</time>
      </trkpt>
      <trkpt lat="45.83751" lon="4.81184">
        <ele>355</ele>
        <time>2013-01-27T11:06:56Z</time>
      </trkpt>
      <trkpt lat="45.83741" lon="4.81186">
        <ele>355</ele>
        <time>2013-01-27T11:07:05Z</time>
      </trkpt>
      <trkpt lat="45.83735" lon="4.81188">
        <ele>355</ele>
        <time>2013-01-27T11:07:10Z</time>
      </trkpt>
      <trkpt lat="45.83734" lon="4.81189">
        <ele>355</ele>
        <time>2013-01-27T11:07:11Z</time>
      </trkpt>
      <trkpt lat="45.83729" lon="4.81192">
        <ele>355</ele>
        <time>2013-01-27T11:07:16Z</time>
      </trkpt>
      <trkpt lat="45.83721" lon="4.81197">
        <ele>355</ele>
        <time>2013-01-27T11:07:24Z</time>
      </trkpt>
      <trkpt lat="45.83716" lon="4.81204">
        <ele>354</ele>
        <time>2013-01-27T11:07:27Z</time>
      </trkpt>
      <trkpt lat="45.83712" lon="4.81209">
        <ele>354</ele>
        <time>2013-01-27T11:07:30Z</time>
      </trkpt>
      <trkpt lat="45.83704" lon="4.81214">
        <ele>354</ele>
        <time>2013-01-27T11:07:37Z</time>
      </trkpt>
      <trkpt lat="45.837" lon="4.81215">
        <ele>354</ele>
        <time>2013-01-27T11:07:40Z</time>
      </trkpt>
      <trkpt lat="45.83699" lon="4.81216">
        <ele>354</ele>
        <time>2013-01-27T11:07:41Z</time>
      </trkpt>
      <trkpt lat="45.83697" lon="4.81217">
        <ele>355</ele>
        <time>2013-01-27T11:07:43Z</time>
      </trkpt>
      <trkpt lat="45.83695" lon="4.81217">
        <ele>355</ele>
        <time>2013-01-27T11:07:45Z</time>
      </trkpt>
      <trkpt lat="45.83692" lon="4.8122">
        <ele>355</ele>
        <time>2013-01-27T11:07:50Z</time>
      </trkpt>
      <trkpt lat="45.83691" lon="4.8122">
        <ele>355</ele>
        <time>2013-01-27T11:07:51Z</time>
      </trkpt>
      <trkpt lat="45.83688" lon="4.81223">
        <ele>355</ele>
        <time>2013-01-27T11:07:55Z</time>
      </trkpt>
      <trkpt lat="45.83683" lon="4.81224">
        <ele>355</ele>
        <time>2013-01-27T11:08:01Z</time>
      </trkpt>
      <trkpt lat="45.83682" lon="4.81224">
        <ele>355</ele>
        <time>2013-01-27T11:08:02Z</time>
      </trkpt>
      <trkpt lat="45.83678" lon="4.81225">
        <ele>355</ele>
        <time>2013-01-27T11:08:06Z</time>
      </trkpt>
      <trkpt lat="45.83676" lon="4.81225">
        <ele>355</ele>
        <time>2013-01-27T11:08:08Z</time>
      </trkpt>
      <trkpt lat="45.83671" lon="4.81228">
        <ele>355</ele>
        <time>2013-01-27T11:08:13Z</time>
      </trkpt>
      <trkpt lat="45.8367" lon="4.81228">
        <ele>355</ele>
        <time>2013-01-27T11:08:14Z</time>
      </trkpt>
      <trkpt lat="45.83664" lon="4.8123">
        <ele>358</ele>
        <time>2013-01-27T11:08:20Z</time>
      </trkpt>
      <trkpt lat="45.8366" lon="4.81232">
        <ele>358</ele>
        <time>2013-01-27T11:08:24Z</time>
      </trkpt>
      <trkpt lat="45.83652" lon="4.81235">
        <ele>359</ele>
        <time>2013-01-27T11:08:32Z</time>
      </trkpt>
      <trkpt lat="45.83647" lon="4.81238">
        <ele>359</ele>
        <time>2013-01-27T11:08:37Z</time>
      </trkpt>
      <trkpt lat="45.83646" lon="4.81239">
        <ele>359</ele>
        <time>2013-01-27T11:08:38Z</time>
      </trkpt>
      <trkpt lat="45.83645" lon="4.8124">
        <ele>359</ele>
        <time>2013-01-27T11:08:39Z</time>
      </trkpt>
      <trkpt lat="45.83641" lon="4.81249">
        <ele>359</ele>
        <time>2013-01-27T11:08:43Z</time>
      </trkpt>
      <trkpt lat="45.83639" lon="4.81252">
        <ele>355</ele>
        <time>2013-01-27T11:08:45Z</time>
      </trkpt>
      <trkpt lat="45.83635" lon="4.81257">
        <ele>355</ele>
        <time>2013-01-27T11:08:48Z</time>
      </trkpt>
      <trkpt lat="45.83634" lon="4.81257">
        <ele>355</ele>
        <time>2013-01-27T11:08:49Z</time>
      </trkpt>
      <trkpt lat="45.83624" lon="4.81262">
        <ele>355</ele>
        <time>2013-01-27T11:08:57Z</time>
      </trkpt>
      <trkpt lat="45.83617" lon="4.81263">
        <ele>356</ele>
        <time>2013-01-27T11:09:02Z</time>
      </trkpt>
      <trkpt lat="45.83616" lon="4.81263">
        <ele>356</ele>
        <time>2013-01-27T11:09:03Z</time>
      </trkpt>
      <trkpt lat="45.83615" lon="4.81264">
        <ele>356</ele>
        <time>2013-01-27T11:09:04Z</time>
      </trkpt>
      <trkpt lat="45.8361" lon="4.81266">
        <ele>356</ele>
        <time>2013-01-27T11:09:09Z</time>
      </trkpt>
      <trkpt lat="45.83601" lon="4.81269">
        <ele>356</ele>
        <time>2013-01-27T11:09:16Z</time>
      </trkpt>
      <trkpt lat="45.836" lon="4.81269">
        <ele>357</ele>
        <time>2013-01-27T11:09:17Z</time>
      </trkpt>
      <trkpt lat="45.83596" lon="4.81271">
        <ele>357</ele>
        <time>2013-01-27T11:09:21Z</time>
      </trkpt>
      <trkpt lat="45.8359" lon="4.81276">
        <ele>357</ele>
        <time>2013-01-27T11:09:26Z</time>
      </trkpt>
      <trkpt lat="45.83583" lon="4.81281">
        <ele>358</ele>
        <time>2013-01-27T11:09:32Z</time>
      </trkpt>
      <trkpt lat="45.83582" lon="4.81282">
        <ele>358</ele>
        <time>2013-01-27T11:09:33Z</time>
      </trkpt>
      <trkpt lat="45.83581" lon="4.81282">
        <ele>358</ele>
        <time>2013-01-27T11:09:34Z</time>
      </trkpt>
      <trkpt lat="45.83578" lon="4.81284">
        <ele>358</ele>
        <time>2013-01-27T11:09:37Z</time>
      </trkpt>
      <trkpt lat="45.83574" lon="4.81287">
        <ele>358</ele>
        <time>2013-01-27T11:09:40Z</time>
      </trkpt>
      <trkpt lat="45.83569" lon="4.81292">
        <ele>358</ele>
        <time>2013-01-27T11:09:45Z</time>
      </trkpt>
      <trkpt lat="45.83566" lon="4.81295">
        <ele>358</ele>
        <time>2013-01-27T11:09:48Z</time>
      </trkpt>
      <trkpt lat="45.83561" lon="4.81298">
        <ele>358</ele>
        <time>2013-01-27T11:09:53Z</time>
      </trkpt>
      <trkpt lat="45.83554" lon="4.81304">
        <ele>357</ele>
        <time>2013-01-27T11:10:00Z</time>
      </trkpt>
      <trkpt lat="45.83551" lon="4.81308">
        <ele>357</ele>
        <time>2013-01-27T11:10:03Z</time>
      </trkpt>
      <trkpt lat="45.83546" lon="4.81312">
        <ele>357</ele>
        <time>2013-01-27T11:10:06Z</time>
      </trkpt>
      <trkpt lat="45.83535" lon="4.8132">
        <ele>357</ele>
        <time>2013-01-27T11:10:11Z</time>
      </trkpt>
      <trkpt lat="45.8353" lon="4.81323">
        <ele>357</ele>
        <time>2013-01-27T11:10:13Z</time>
      </trkpt>
      <trkpt lat="45.83518" lon="4.8133">
        <ele>356</ele>
        <time>2013-01-27T11:10:18Z</time>
      </trkpt>
      <trkpt lat="45.83513" lon="4.81333">
        <ele>352</ele>
        <time>2013-01-27T11:10:20Z</time>
      </trkpt>
      <trkpt lat="45.83502" lon="4.81342">
        <ele>352</ele>
        <time>2013-01-27T11:10:25Z</time>
      </trkpt>
      <trkpt lat="45.83499" lon="4.81343">
        <ele>351</ele>
        <time>2013-01-27T11:10:26Z</time>
      </trkpt>
      <trkpt lat="45.83495" lon="4.81346">
        <ele>350</ele>
        <time>2013-01-27T11:10:28Z</time>
      </trkpt>
      <trkpt lat="45.83493" lon="4.81348">
        <ele>350</ele>
        <time>2013-01-27T11:10:29Z</time>
      </trkpt>
      <trkpt lat="45.83484" lon="4.81354">
        <ele>348</ele>
        <time>2013-01-27T11:10:33Z</time>
      </trkpt>
      <trkpt lat="45.83482" lon="4.81355">
        <ele>348</ele>
        <time>2013-01-27T11:10:34Z</time>
      </trkpt>
      <trkpt lat="45.83471" lon="4.81362">
        <ele>347</ele>
        <time>2013-01-27T11:10:39Z</time>
      </trkpt>
      <trkpt lat="45.83468" lon="4.81362">
        <ele>347</ele>
        <time>2013-01-27T11:10:40Z</time>
      </trkpt>
      <trkpt lat="45.83466" lon="4.81363">
        <ele>347</ele>
        <time>2013-01-27T11:10:41Z</time>
      </trkpt>
      <trkpt lat="45.83458" lon="4.81362">
        <ele>346</ele>
        <time>2013-01-27T11:10:44Z</time>
      </trkpt>
      <trkpt lat="45.83449" lon="4.81355">
        <ele>346</ele>
        <time>2013-01-27T11:10:48Z</time>
      </trkpt>
      <trkpt lat="45.83447" lon="4.81352">
        <ele>347</ele>
        <time>2013-01-27T11:10:49Z</time>
      </trkpt>
      <trkpt lat="45.83433" lon="4.81345">
        <ele>347</ele>
        <time>2013-01-27T11:10:55Z</time>
      </trkpt>
      <trkpt lat="45.83429" lon="4.81348">
        <ele>347</ele>
        <time>2013-01-27T11:10:57Z</time>
      </trkpt>
      <trkpt lat="45.83426" lon="4.81356">
        <ele>346</ele>
        <time>2013-01-27T11:11:00Z</time>
      </trkpt>
      <trkpt lat="45.83425" lon="4.81371">
        <ele>345</ele>
        <time>2013-01-27T11:11:05Z</time>
      </trkpt>
      <trkpt lat="45.83427" lon="4.81375">
        <ele>345</ele>
        <time>2013-01-27T11:11:06Z</time>
      </trkpt>
      <trkpt lat="45.83429" lon="4.81383">
        <ele>344</ele>
        <time>2013-01-27T11:11:09Z</time>
      </trkpt>
      <trkpt lat="45.83431" lon="4.81398">
        <ele>343</ele>
        <time>2013-01-27T11:11:14Z</time>
      </trkpt>
      <trkpt lat="45.83429" lon="4.814">
        <ele>343</ele>
        <time>2013-01-27T11:11:15Z</time>
      </trkpt>
      <trkpt lat="45.83425" lon="4.814">
        <ele>342</ele>
        <time>2013-01-27T11:11:17Z</time>
      </trkpt>
      <trkpt lat="45.83419" lon="4.81397">
        <ele>343</ele>
        <time>2013-01-27T11:11:20Z</time>
      </trkpt>
      <trkpt lat="45.83414" lon="4.81396">
        <ele>341</ele>
        <time>2013-01-27T11:11:22Z</time>
      </trkpt>
      <trkpt lat="45.83411" lon="4.81397">
        <ele>341</ele>
        <time>2013-01-27T11:11:24Z</time>
      </trkpt>
      <trkpt lat="45.83405" lon="4.81399">
        <ele>341</ele>
        <time>2013-01-27T11:11:27Z</time>
      </trkpt>
      <trkpt lat="45.83394" lon="4.81407">
        <ele>340</ele>
        <time>2013-01-27T11:11:32Z</time>
      </trkpt>
      <trkpt lat="45.83392" lon="4.81408">
        <ele>340</ele>
        <time>2013-01-27T11:11:33Z</time>
      </trkpt>
      <trkpt lat="45.8338" lon="4.81418">
        <ele>334</ele>
        <time>2013-01-27T11:11:38Z</time>
      </trkpt>
      <trkpt lat="45.83376" lon="4.81422">
        <ele>334</ele>
        <time>2013-01-27T11:11:40Z</time>
      </trkpt>
      <trkpt lat="45.83364" lon="4.81431">
        <ele>333</ele>
        <time>2013-01-27T11:11:46Z</time>
      </trkpt>
      <trkpt lat="45.83359" lon="4.81434">
        <ele>333</ele>
        <time>2013-01-27T11:11:47Z</time>
      </trkpt>
      <trkpt lat="45.83351" lon="4.81441">
        <ele>333</ele>
        <time>2013-01-27T11:11:51Z</time>
      </trkpt>
      <trkpt lat="45.83343" lon="4.81449">
        <ele>332</ele>
        <time>2013-01-27T11:11:55Z</time>
      </trkpt>
      <trkpt lat="45.83341" lon="4.81451">
        <ele>332</ele>
        <time>2013-01-27T11:11:56Z</time>
      </trkpt>
      <trkpt lat="45.83328" lon="4.81463">
        <ele>325</ele>
        <time>2013-01-27T11:12:02Z</time>
      </trkpt>
      <trkpt lat="45.83326" lon="4.81465">
        <ele>325</ele>
        <time>2013-01-27T11:12:03Z</time>
      </trkpt>
      <trkpt lat="45.83318" lon="4.81473">
        <ele>324</ele>
        <time>2013-01-27T11:12:08Z</time>
      </trkpt>
      <trkpt lat="45.83317" lon="4.81475">
        <ele>324</ele>
        <time>2013-01-27T11:12:09Z</time>
      </trkpt>
      <trkpt lat="45.83317" lon="4.81482">
        <ele>324</ele>
        <time>2013-01-27T11:12:12Z</time>
      </trkpt>
      <trkpt lat="45.83318" lon="4.81484">
        <ele>324</ele>
        <time>2013-01-27T11:12:13Z</time>
      </trkpt>
      <trkpt lat="45.83321" lon="4.81496">
        <ele>324</ele>
        <time>2013-01-27T11:12:19Z</time>
      </trkpt>
      <trkpt lat="45.83324" lon="4.81509">
        <ele>319</ele>
        <time>2013-01-27T11:12:26Z</time>
      </trkpt>
      <trkpt lat="45.83325" lon="4.81511">
        <ele>319</ele>
        <time>2013-01-27T11:12:27Z</time>
      </trkpt>
      <trkpt lat="45.83327" lon="4.81517">
        <ele>317</ele>
        <time>2013-01-27T11:12:31Z</time>
      </trkpt>
      <trkpt lat="45.83327" lon="4.81519">
        <ele>317</ele>
        <time>2013-01-27T11:12:32Z</time>
      </trkpt>
      <trkpt lat="45.83331" lon="4.81534">
        <ele>314</ele>
        <time>2013-01-27T11:12:39Z</time>
      </trkpt>
      <trkpt lat="45.83333" lon="4.81547">
        <ele>312</ele>
        <time>2013-01-27T11:12:43Z</time>
      </trkpt>
      <trkpt lat="45.83335" lon="4.8156">
        <ele>319</ele>
        <time>2013-01-27T11:12:47Z</time>
      </trkpt>
      <trkpt lat="45.83335" lon="4.81563">
        <ele>318</ele>
        <time>2013-01-27T11:12:48Z</time>
      </trkpt>
      <trkpt lat="45.83341" lon="4.81579">
        <ele>315</ele>
        <time>2013-01-27T11:12:53Z</time>
      </trkpt>
      <trkpt lat="45.83344" lon="4.81583">
        <ele>312</ele>
        <time>2013-01-27T11:12:55Z</time>
      </trkpt>
      <trkpt lat="45.83349" lon="4.81593">
        <ele>311</ele>
        <time>2013-01-27T11:12:59Z</time>
      </trkpt>
      <trkpt lat="45.83355" lon="4.81606">
        <ele>311</ele>
        <time>2013-01-27T11:13:04Z</time>
      </trkpt>
      <trkpt lat="45.83356" lon="4.81609">
        <ele>311</ele>
        <time>2013-01-27T11:13:05Z</time>
      </trkpt>
      <trkpt lat="45.83361" lon="4.8162">
        <ele>310</ele>
        <time>2013-01-27T11:13:10Z</time>
      </trkpt>
      <trkpt lat="45.83367" lon="4.81629">
        <ele>310</ele>
        <time>2013-01-27T11:13:14Z</time>
      </trkpt>
      <trkpt lat="45.83371" lon="4.81636">
        <ele>310</ele>
        <time>2013-01-27T11:13:17Z</time>
      </trkpt>
      <trkpt lat="45.83375" lon="4.81656">
        <ele>309</ele>
        <time>2013-01-27T11:13:22Z</time>
      </trkpt>
      <trkpt lat="45.83376" lon="4.81659">
        <ele>309</ele>
        <time>2013-01-27T11:13:23Z</time>
      </trkpt>
      <trkpt lat="45.83381" lon="4.81675">
        <ele>300</ele>
        <time>2013-01-27T11:13:29Z</time>
      </trkpt>
      <trkpt lat="45.83381" lon="4.81678">
        <ele>300</ele>
        <time>2013-01-27T11:13:31Z</time>
      </trkpt>
      <trkpt lat="45.83381" lon="4.81683">
        <ele>299</ele>
        <time>2013-01-27T11:13:33Z</time>
      </trkpt>
      <trkpt lat="45.83382" lon="4.81689">
        <ele>299</ele>
        <time>2013-01-27T11:13:35Z</time>
      </trkpt>
      <trkpt lat="45.83383" lon="4.81693">
        <ele>298</ele>
        <time>2013-01-27T11:13:38Z</time>
      </trkpt>
      <trkpt lat="45.83384" lon="4.81695">
        <ele>298</ele>
        <time>2013-01-27T11:13:39Z</time>
      </trkpt>
      <trkpt lat="45.83385" lon="4.817">
        <ele>298</ele>
        <time>2013-01-27T11:13:43Z</time>
      </trkpt>
      <trkpt lat="45.83386" lon="4.81709">
        <ele>297</ele>
        <time>2013-01-27T11:13:48Z</time>
      </trkpt>
      <trkpt lat="45.83387" lon="4.81711">
        <ele>297</ele>
        <time>2013-01-27T11:13:49Z</time>
      </trkpt>
      <trkpt lat="45.83388" lon="4.81723">
        <ele>296</ele>
        <time>2013-01-27T11:13:54Z</time>
      </trkpt>
      <trkpt lat="45.83391" lon="4.81737">
        <ele>295</ele>
        <time>2013-01-27T11:13:58Z</time>
      </trkpt>
      <trkpt lat="45.83391" lon="4.8174">
        <ele>295</ele>
        <time>2013-01-27T11:13:59Z</time>
      </trkpt>
      <trkpt lat="45.83391" lon="4.81752">
        <ele>285</ele>
        <time>2013-01-27T11:14:03Z</time>
      </trkpt>
      <trkpt lat="45.8339" lon="4.81755">
        <ele>285</ele>
        <time>2013-01-27T11:14:04Z</time>
      </trkpt>
      <trkpt lat="45.8339" lon="4.81764">
        <ele>284</ele>
        <time>2013-01-27T11:14:07Z</time>
      </trkpt>
      <trkpt lat="45.8339" lon="4.81766">
        <ele>283</ele>
        <time>2013-01-27T11:14:08Z</time>
      </trkpt>
      <trkpt lat="45.83391" lon="4.81774">
        <ele>283</ele>
        <time>2013-01-27T11:14:11Z</time>
      </trkpt>
      <trkpt lat="45.83392" lon="4.81781">
        <ele>282</ele>
        <time>2013-01-27T11:14:13Z</time>
      </trkpt>
      <trkpt lat="45.83391" lon="4.81784">
        <ele>281</ele>
        <time>2013-01-27T11:14:14Z</time>
      </trkpt>
      <trkpt lat="45.83389" lon="4.81789">
        <ele>280</ele>
        <time>2013-01-27T11:14:19Z</time>
      </trkpt>
      <trkpt lat="45.83389" lon="4.81791">
        <ele>280</ele>
        <time>2013-01-27T11:14:21Z</time>
      </trkpt>
      <trkpt lat="45.83388" lon="4.81795">
        <ele>280</ele>
        <time>2013-01-27T11:14:26Z</time>
      </trkpt>
      <trkpt lat="45.83386" lon="4.81798">
        <ele>279</ele>
        <time>2013-01-27T11:14:33Z</time>
      </trkpt>
      <trkpt lat="45.83386" lon="4.81801">
        <ele>279</ele>
        <time>2013-01-27T11:14:45Z</time>
      </trkpt>
      <trkpt lat="45.83388" lon="4.81801">
        <ele>279</ele>
        <time>2013-01-27T11:15:15Z</time>
      </trkpt>
      <trkpt lat="45.83389" lon="4.818">
        <ele>279</ele>
        <time>2013-01-27T11:15:49Z</time>
      </trkpt>
      <trkpt lat="45.83388" lon="4.81801">
        <ele>279</ele>
        <time>2013-01-27T11:16:01Z</time>
      </trkpt>
      <trkpt lat="45.83387" lon="4.81806">
        <ele>279</ele>
        <time>2013-01-27T11:16:08Z</time>
      </trkpt>
      <trkpt lat="45.83387" lon="4.81811">
        <ele>278</ele>
        <time>2013-01-27T11:16:11Z</time>
      </trkpt>
      <trkpt lat="45.83387" lon="4.81812">
        <ele>278</ele>
        <time>2013-01-27T11:16:13Z</time>
      </trkpt>
      <trkpt lat="45.83385" lon="4.81821">
        <ele>277</ele>
        <time>2013-01-27T11:16:20Z</time>
      </trkpt>
      <trkpt lat="45.83384" lon="4.81832">
        <ele>277</ele>
        <time>2013-01-27T11:16:25Z</time>
      </trkpt>
      <trkpt lat="45.83384" lon="4.81835">
        <ele>266</ele>
        <time>2013-01-27T11:16:26Z</time>
      </trkpt>
      <trkpt lat="45.83384" lon="4.81838">
        <ele>266</ele>
        <time>2013-01-27T11:16:27Z</time>
      </trkpt>
      <trkpt lat="45.83384" lon="4.81845">
        <ele>266</ele>
        <time>2013-01-27T11:16:30Z</time>
      </trkpt>
      <trkpt lat="45.83384" lon="4.81849">
        <ele>265</ele>
        <time>2013-01-27T11:16:32Z</time>
      </trkpt>
      <trkpt lat="45.83384" lon="4.81852">
        <ele>265</ele>
        <time>2013-01-27T11:16:33Z</time>
      </trkpt>
      <trkpt lat="45.83384" lon="4.81859">
        <ele>264</ele>
        <time>2013-01-27T11:16:37Z</time>
      </trkpt>
      <trkpt lat="45.83385" lon="4.81864">
        <ele>264</ele>
        <time>2013-01-27T11:16:39Z</time>
      </trkpt>
      <trkpt lat="45.83384" lon="4.81867">
        <ele>264</ele>
        <time>2013-01-27T11:16:40Z</time>
      </trkpt>
      <trkpt lat="45.83385" lon="4.81871">
        <ele>263</ele>
        <time>2013-01-27T11:16:42Z</time>
      </trkpt>
      <trkpt lat="45.83385" lon="4.81873">
        <ele>263</ele>
        <time>2013-01-27T11:16:43Z</time>
      </trkpt>
      <trkpt lat="45.83383" lon="4.81887">
        <ele>261</ele>
        <time>2013-01-27T11:16:49Z</time>
      </trkpt>
      <trkpt lat="45.83382" lon="4.81893">
        <ele>261</ele>
        <time>2013-01-27T11:16:51Z</time>
      </trkpt>
      <trkpt lat="45.83383" lon="4.81898">
        <ele>260</ele>
        <time>2013-01-27T11:16:53Z</time>
      </trkpt>
      <trkpt lat="45.83383" lon="4.81907">
        <ele>260</ele>
        <time>2013-01-27T11:16:58Z</time>
      </trkpt>
      <trkpt lat="45.83384" lon="4.81909">
        <ele>260</ele>
        <time>2013-01-27T11:16:59Z</time>
      </trkpt>
      <trkpt lat="45.83386" lon="4.81918">
        <ele>251</ele>
        <time>2013-01-27T11:17:03Z</time>
      </trkpt>
      <trkpt lat="45.83386" lon="4.8192">
        <ele>251</ele>
        <time>2013-01-27T11:17:04Z</time>
      </trkpt>
      <trkpt lat="45.83387" lon="4.81923">
        <ele>251</ele>
        <time>2013-01-27T11:17:05Z</time>
      </trkpt>
      <trkpt lat="45.83388" lon="4.81931">
        <ele>250</ele>
        <time>2013-01-27T11:17:10Z</time>
      </trkpt>
      <trkpt lat="45.83388" lon="4.81932">
        <ele>250</ele>
        <time>2013-01-27T11:17:11Z</time>
      </trkpt>
      <trkpt lat="45.83391" lon="4.81939">
        <ele>250</ele>
        <time>2013-01-27T11:17:17Z</time>
      </trkpt>
      <trkpt lat="45.83392" lon="4.81943">
        <ele>250</ele>
        <time>2013-01-27T11:17:19Z</time>
      </trkpt>
      <trkpt lat="45.83395" lon="4.8195">
        <ele>249</ele>
        <time>2013-01-27T11:17:22Z</time>
      </trkpt>
      <trkpt lat="45.83398" lon="4.81954">
        <ele>249</ele>
        <time>2013-01-27T11:17:25Z</time>
      </trkpt>
      <trkpt lat="45.83401" lon="4.81956">
        <ele>249</ele>
        <time>2013-01-27T11:17:27Z</time>
      </trkpt>
      <trkpt lat="45.83404" lon="4.81958">
        <ele>249</ele>
        <time>2013-01-27T11:17:29Z</time>
      </trkpt>
      <trkpt lat="45.83406" lon="4.81962">
        <ele>248</ele>
        <time>2013-01-27T11:17:32Z</time>
      </trkpt>
      <trkpt lat="45.83409" lon="4.81968">
        <ele>247</ele>
        <time>2013-01-27T11:17:36Z</time>
      </trkpt>
      <trkpt lat="45.83409" lon="4.81973">
        <ele>247</ele>
        <time>2013-01-27T11:17:37Z</time>
      </trkpt>
      <trkpt lat="45.83411" lon="4.81979">
        <ele>246</ele>
        <time>2013-01-27T11:17:39Z</time>
      </trkpt>
      <trkpt lat="45.83415" lon="4.81984">
        <ele>245</ele>
        <time>2013-01-27T11:17:42Z</time>
      </trkpt>
      <trkpt lat="45.83416" lon="4.81987">
        <ele>245</ele>
        <time>2013-01-27T11:17:43Z</time>
      </trkpt>
      <trkpt lat="45.83417" lon="4.81991">
        <ele>244</ele>
        <time>2013-01-27T11:17:45Z</time>
      </trkpt>
      <trkpt lat="45.83418" lon="4.81999">
        <ele>242</ele>
        <time>2013-01-27T11:17:49Z</time>
      </trkpt>
      <trkpt lat="45.83418" lon="4.82">
        <ele>242</ele>
        <time>2013-01-27T11:17:50Z</time>
      </trkpt>
      <trkpt lat="45.83418" lon="4.82007">
        <ele>240</ele>
        <time>2013-01-27T11:17:53Z</time>
      </trkpt>
      <trkpt lat="45.83418" lon="4.82013">
        <ele>239</ele>
        <time>2013-01-27T11:17:55Z</time>
      </trkpt>
      <trkpt lat="45.83418" lon="4.82029">
        <ele>237</ele>
        <time>2013-01-27T11:18:00Z</time>
      </trkpt>
      <trkpt lat="45.83418" lon="4.82038">
        <ele>236</ele>
        <time>2013-01-27T11:18:04Z</time>
      </trkpt>
      <trkpt lat="45.83418" lon="4.82047">
        <ele>235</ele>
        <time>2013-01-27T11:18:06Z</time>
      </trkpt>
      <trkpt lat="45.83418" lon="4.8205">
        <ele>235</ele>
        <time>2013-01-27T11:18:07Z</time>
      </trkpt>
      <trkpt lat="45.83418" lon="4.82065">
        <ele>234</ele>
        <time>2013-01-27T11:18:12Z</time>
      </trkpt>
      <trkpt lat="45.83418" lon="4.82069">
        <ele>234</ele>
        <time>2013-01-27T11:18:13Z</time>
      </trkpt>
      <trkpt lat="45.83415" lon="4.82081">
        <ele>234</ele>
        <time>2013-01-27T11:18:18Z</time>
      </trkpt>
      <trkpt lat="45.83414" lon="4.82082">
        <ele>234</ele>
        <time>2013-01-27T11:18:19Z</time>
      </trkpt>
      <trkpt lat="45.83414" lon="4.82083">
        <ele>234</ele>
        <time>2013-01-27T11:18:24Z</time>
      </trkpt>
      <trkpt lat="45.83412" lon="4.82088">
        <ele>236</ele>
        <time>2013-01-27T11:18:32Z</time>
      </trkpt>
      <trkpt lat="45.83411" lon="4.82087">
        <ele>236</ele>
        <time>2013-01-27T11:18:39Z</time>
      </trkpt>
      <trkpt lat="45.8341" lon="4.82086">
        <ele>236</ele>
        <time>2013-01-27T11:18:40Z</time>
      </trkpt>
      <trkpt lat="45.83399" lon="4.82081">
        <ele>237</ele>
        <time>2013-01-27T11:18:49Z</time>
      </trkpt>
      <trkpt lat="45.83396" lon="4.8208">
        <ele>238</ele>
        <time>2013-01-27T11:18:51Z</time>
      </trkpt>
      <trkpt lat="45.83395" lon="4.82082">
        <ele>238</ele>
        <time>2013-01-27T11:18:53Z</time>
      </trkpt>
      <trkpt lat="45.83391" lon="4.82089">
        <ele>240</ele>
        <time>2013-01-27T11:18:56Z</time>
      </trkpt>
      <trkpt lat="45.83387" lon="4.82094">
        <ele>241</ele>
        <time>2013-01-27T11:18:59Z</time>
      </trkpt>
      <trkpt lat="45.83383" lon="4.82103">
        <ele>242</ele>
        <time>2013-01-27T11:19:04Z</time>
      </trkpt>
      <trkpt lat="45.83382" lon="4.82104">
        <ele>242</ele>
        <time>2013-01-27T11:19:05Z</time>
      </trkpt>
      <trkpt lat="45.83376" lon="4.82115">
        <ele>244</ele>
        <time>2013-01-27T11:19:12Z</time>
      </trkpt>
      <trkpt lat="45.83372" lon="4.82124">
        <ele>244</ele>
        <time>2013-01-27T11:19:18Z</time>
      </trkpt>
      <trkpt lat="45.83372" lon="4.82125">
        <ele>245</ele>
        <time>2013-01-27T11:19:19Z</time>
      </trkpt>
      <trkpt lat="45.83369" lon="4.8213">
        <ele>245</ele>
        <time>2013-01-27T11:19:24Z</time>
      </trkpt>
      <trkpt lat="45.83368" lon="4.82131">
        <ele>245</ele>
        <time>2013-01-27T11:19:26Z</time>
      </trkpt>
      <trkpt lat="45.83366" lon="4.82132">
        <ele>246</ele>
        <time>2013-01-27T11:19:29Z</time>
      </trkpt>
      <trkpt lat="45.83362" lon="4.8214">
        <ele>247</ele>
        <time>2013-01-27T11:19:36Z</time>
      </trkpt>
      <trkpt lat="45.83359" lon="4.82143">
        <ele>248</ele>
        <time>2013-01-27T11:19:40Z</time>
      </trkpt>
      <trkpt lat="45.83357" lon="4.82144">
        <ele>248</ele>
        <time>2013-01-27T11:19:43Z</time>
      </trkpt>
      <trkpt lat="45.83355" lon="4.82146">
        <ele>249</ele>
        <time>2013-01-27T11:19:51Z</time>
      </trkpt>
      <trkpt lat="45.8335" lon="4.82151">
        <ele>250</ele>
        <time>2013-01-27T11:19:57Z</time>
      </trkpt>
      <trkpt lat="45.83349" lon="4.82152">
        <ele>251</ele>
        <time>2013-01-27T11:19:58Z</time>
      </trkpt>
      <trkpt lat="45.83343" lon="4.82155">
        <ele>253</ele>
        <time>2013-01-27T11:20:05Z</time>
      </trkpt>
      <trkpt lat="45.83342" lon="4.82155">
        <ele>253</ele>
        <time>2013-01-27T11:20:06Z</time>
      </trkpt>
      <trkpt lat="45.83333" lon="4.82156">
        <ele>262</ele>
        <time>2013-01-27T11:20:15Z</time>
      </trkpt>
      <trkpt lat="45.83328" lon="4.82156">
        <ele>262</ele>
        <time>2013-01-27T11:20:20Z</time>
      </trkpt>
      <trkpt lat="45.83328" lon="4.82156">
        <ele>262</ele>
        <time>2013-01-27T11:20:21Z</time>
      </trkpt>
      <trkpt lat="45.83325" lon="4.82158">
        <ele>263</ele>
        <time>2013-01-27T11:20:25Z</time>
      </trkpt>
      <trkpt lat="45.83323" lon="4.82158">
        <ele>263</ele>
        <time>2013-01-27T11:20:27Z</time>
      </trkpt>
      <trkpt lat="45.83322" lon="4.82159">
        <ele>263</ele>
        <time>2013-01-27T11:20:30Z</time>
      </trkpt>
      <trkpt lat="45.83318" lon="4.82159">
        <ele>264</ele>
        <time>2013-01-27T11:20:33Z</time>
      </trkpt>
      <trkpt lat="45.83317" lon="4.82158">
        <ele>264</ele>
        <time>2013-01-27T11:20:35Z</time>
      </trkpt>
      <trkpt lat="45.83314" lon="4.82158">
        <ele>264</ele>
        <time>2013-01-27T11:20:38Z</time>
      </trkpt>
      <trkpt lat="45.83311" lon="4.82156">
        <ele>265</ele>
        <time>2013-01-27T11:20:42Z</time>
      </trkpt>
      <trkpt lat="45.8331" lon="4.82156">
        <ele>265</ele>
        <time>2013-01-27T11:20:44Z</time>
      </trkpt>
      <trkpt lat="45.83308" lon="4.82156">
        <ele>266</ele>
        <time>2013-01-27T11:20:46Z</time>
      </trkpt>
      <trkpt lat="45.83305" lon="4.82156">
        <ele>266</ele>
        <time>2013-01-27T11:20:49Z</time>
      </trkpt>
      <trkpt lat="45.83304" lon="4.82157">
        <ele>266</ele>
        <time>2013-01-27T11:20:50Z</time>
      </trkpt>
      <trkpt lat="45.83307" lon="4.82155">
        <ele>266</ele>
        <time>2013-01-27T11:21:42Z</time>
      </trkpt>
      <trkpt lat="45.83311" lon="4.82162">
        <ele>265</ele>
        <time>2013-01-27T11:21:47Z</time>
      </trkpt>
      <trkpt lat="45.83312" lon="4.82163">
        <ele>265</ele>
        <time>2013-01-27T11:21:48Z</time>
      </trkpt>
      <trkpt lat="45.83313" lon="4.82164">
        <ele>265</ele>
        <time>2013-01-27T11:21:49Z</time>
      </trkpt>
      <trkpt lat="45.83314" lon="4.82164">
        <ele>264</ele>
        <time>2013-01-27T11:21:54Z</time>
      </trkpt>
      <trkpt lat="45.83317" lon="4.82166">
        <ele>264</ele>
        <time>2013-01-27T11:22:08Z</time>
      </trkpt>
      <trkpt lat="45.8332" lon="4.82168">
        <ele>271</ele>
        <time>2013-01-27T11:22:11Z</time>
      </trkpt>
      <trkpt lat="45.83321" lon="4.82169">
        <ele>270</ele>
        <time>2013-01-27T11:22:13Z</time>
      </trkpt>
      <trkpt lat="45.83321" lon="4.82167">
        <ele>270</ele>
        <time>2013-01-27T11:22:20Z</time>
      </trkpt>
      <trkpt lat="45.83323" lon="4.82169">
        <ele>269</ele>
        <time>2013-01-27T11:22:44Z</time>
      </trkpt>
      <trkpt lat="45.83324" lon="4.82171">
        <ele>269</ele>
        <time>2013-01-27T11:22:46Z</time>
      </trkpt>
      <trkpt lat="45.83325" lon="4.82174">
        <ele>270</ele>
        <time>2013-01-27T11:22:48Z</time>
      </trkpt>
      <trkpt lat="45.83325" lon="4.82176">
        <ele>270</ele>
        <time>2013-01-27T11:22:49Z</time>
      </trkpt>
      <trkpt lat="45.83332" lon="4.82189">
        <ele>275</ele>
        <time>2013-01-27T11:22:55Z</time>
      </trkpt>
      <trkpt lat="45.83335" lon="4.82193">
        <ele>261</ele>
        <time>2013-01-27T11:22:57Z</time>
      </trkpt>
      <trkpt lat="45.83341" lon="4.82201">
        <ele>261</ele>
        <time>2013-01-27T11:23:01Z</time>
      </trkpt>
      <trkpt lat="45.83348" lon="4.82212">
        <ele>262</ele>
        <time>2013-01-27T11:23:06Z</time>
      </trkpt>
      <trkpt lat="45.83351" lon="4.82216">
        <ele>263</ele>
        <time>2013-01-27T11:23:09Z</time>
      </trkpt>
      <trkpt lat="45.83359" lon="4.82229">
        <ele>264</ele>
        <time>2013-01-27T11:23:15Z</time>
      </trkpt>
      <trkpt lat="45.83362" lon="4.82233">
        <ele>264</ele>
        <time>2013-01-27T11:23:16Z</time>
      </trkpt>
      <trkpt lat="45.83367" lon="4.8224">
        <ele>263</ele>
        <time>2013-01-27T11:23:20Z</time>
      </trkpt>
      <trkpt lat="45.83372" lon="4.82248">
        <ele>262</ele>
        <time>2013-01-27T11:23:24Z</time>
      </trkpt>
      <trkpt lat="45.83373" lon="4.82249">
        <ele>262</ele>
        <time>2013-01-27T11:23:25Z</time>
      </trkpt>
      <trkpt lat="45.83376" lon="4.82253">
        <ele>271</ele>
        <time>2013-01-27T11:23:27Z</time>
      </trkpt>
      <trkpt lat="45.83377" lon="4.82255">
        <ele>271</ele>
        <time>2013-01-27T11:23:28Z</time>
      </trkpt>
      <trkpt lat="45.83383" lon="4.82265">
        <ele>270</ele>
        <time>2013-01-27T11:23:32Z</time>
      </trkpt>
      <trkpt lat="45.8339" lon="4.8227">
        <ele>269</ele>
        <time>2013-01-27T11:23:35Z</time>
      </trkpt>
      <trkpt lat="45.83395" lon="4.82275">
        <ele>268</ele>
        <time>2013-01-27T11:23:37Z</time>
      </trkpt>
      <trkpt lat="45.83397" lon="4.82277">
        <ele>268</ele>
        <time>2013-01-27T11:23:39Z</time>
      </trkpt>
      <trkpt lat="45.83406" lon="4.82283">
        <ele>268</ele>
        <time>2013-01-27T11:23:44Z</time>
      </trkpt>
      <trkpt lat="45.83416" lon="4.82291">
        <ele>268</ele>
        <time>2013-01-27T11:23:49Z</time>
      </trkpt>
      <trkpt lat="45.83423" lon="4.82298">
        <ele>253</ele>
        <time>2013-01-27T11:23:52Z</time>
      </trkpt>
      <trkpt lat="45.83429" lon="4.82305">
        <ele>254</ele>
        <time>2013-01-27T11:23:55Z</time>
      </trkpt>
      <trkpt lat="45.83437" lon="4.82318">
        <ele>255</ele>
        <time>2013-01-27T11:24:00Z</time>
      </trkpt>
    </trkseg>
  </trk>
</gpx>